<?xml version="1.0" encoding="utf-8"?>
<gpx xmlns:xsi="http://www.w3.org/2001/XMLSchema-instance" xmlns:xsd="http://www.w3.org/2001/XMLSchema" version="1.1" creator="Shapelink.com" xmlns="http://www.topografix.com/GPX/1/1" xmlns:gpxtpx="http://www.garmin.com/xmlschemas/TrackPointExtension/v1">
  <metadata>
    <name>Cykling 64.52 km, 2012-09-16</name>
    <desc></desc>
    <author><name>Alexander Engvall</name></author> 
    <time>2012-09-16T10:51:49Z</time>
  </metadata>
  <trk>
    <name>Cykling 64.52 km, 2012-09-16</name>
    <trkseg>
      <trkpt lat="59.5648619997" lon="18.10383799">
        <ele>53</ele>
        <time>2012-09-16T10:51:49Z</time>
      </trkpt>
      <trkpt lat="59.5648352614" lon="18.103852323">
        <ele>51.6</ele>
        <time>2012-09-16T10:51:50Z</time>
      </trkpt>
      <trkpt lat="59.5647990516" lon="18.103865734">
        <ele>50.6</ele>
        <time>2012-09-16T10:51:51Z</time>
      </trkpt>
      <trkpt lat="59.5646967086" lon="18.1038488864">
        <ele>50.6</ele>
        <time>2012-09-16T10:51:53Z</time>
      </trkpt>
      <trkpt lat="59.5645204373" lon="18.1037222359">
        <ele>50.6</ele>
        <time>2012-09-16T10:51:57Z</time>
      </trkpt>
      <trkpt lat="59.5644797012" lon="18.1036987666">
        <ele>50.6</ele>
        <time>2012-09-16T10:51:58Z</time>
      </trkpt>
      <trkpt lat="59.5644414798" lon="18.1036679212">
        <ele>50.6</ele>
        <time>2012-09-16T10:51:59Z</time>
      </trkpt>
      <trkpt lat="59.5642721654" lon="18.1035069049">
        <ele>50.6</ele>
        <time>2012-09-16T10:52:03Z</time>
      </trkpt>
      <trkpt lat="59.5640952235" lon="18.1033289572">
        <ele>51.4</ele>
        <time>2012-09-16T10:52:07Z</time>
      </trkpt>
      <trkpt lat="59.5640581755" lon="18.1032895622">
        <ele>52.2</ele>
        <time>2012-09-16T10:52:08Z</time>
      </trkpt>
      <trkpt lat="59.5640249832" lon="18.1032422883">
        <ele>53</ele>
        <time>2012-09-16T10:52:09Z</time>
      </trkpt>
      <trkpt lat="59.5639969038" lon="18.1031898176">
        <ele>53.8</ele>
        <time>2012-09-16T10:52:10Z</time>
      </trkpt>
      <trkpt lat="59.563976452" lon="18.1031292165">
        <ele>54.8</ele>
        <time>2012-09-16T10:52:11Z</time>
      </trkpt>
      <trkpt lat="59.5639603587" lon="18.1030697888">
        <ele>54.8</ele>
        <time>2012-09-16T10:52:12Z</time>
      </trkpt>
      <trkpt lat="59.5638296849" lon="18.1028734009">
        <ele>54.8</ele>
        <time>2012-09-16T10:52:16Z</time>
      </trkpt>
      <trkpt lat="59.5636504799" lon="18.1028865605">
        <ele>55.2</ele>
        <time>2012-09-16T10:52:19Z</time>
      </trkpt>
      <trkpt lat="59.5635913037" lon="18.1028924278">
        <ele>55.6</ele>
        <time>2012-09-16T10:52:20Z</time>
      </trkpt>
      <trkpt lat="59.5635303673" lon="18.1028927631">
        <ele>56</ele>
        <time>2012-09-16T10:52:21Z</time>
      </trkpt>
      <trkpt lat="59.5634679221" lon="18.1028889912">
        <ele>56.4</ele>
        <time>2012-09-16T10:52:22Z</time>
      </trkpt>
      <trkpt lat="59.563404052" lon="18.1028863929">
        <ele>56.8</ele>
        <time>2012-09-16T10:52:23Z</time>
      </trkpt>
      <trkpt lat="59.5632680976" lon="18.1028966188">
        <ele>56.8</ele>
        <time>2012-09-16T10:52:25Z</time>
      </trkpt>
      <trkpt lat="59.5627763315" lon="18.102892344">
        <ele>56.8</ele>
        <time>2012-09-16T10:52:32Z</time>
      </trkpt>
      <trkpt lat="59.5621745111" lon="18.1028868119">
        <ele>56.8</ele>
        <time>2012-09-16T10:52:40Z</time>
      </trkpt>
      <trkpt lat="59.5615646441" lon="18.1028617501">
        <ele>56.8</ele>
        <time>2012-09-16T10:52:48Z</time>
      </trkpt>
      <trkpt lat="59.5614939846" lon="18.1028610795">
        <ele>56.8</ele>
        <time>2012-09-16T10:52:49Z</time>
      </trkpt>
      <trkpt lat="59.5611403523" lon="18.1028522785">
        <ele>57.2</ele>
        <time>2012-09-16T10:52:54Z</time>
      </trkpt>
      <trkpt lat="59.5610726265" lon="18.1028482552">
        <ele>57.6</ele>
        <time>2012-09-16T10:52:55Z</time>
      </trkpt>
      <trkpt lat="59.5610043141" lon="18.1028475008">
        <ele>58</ele>
        <time>2012-09-16T10:52:56Z</time>
      </trkpt>
      <trkpt lat="59.5609361692" lon="18.102842807">
        <ele>58.4</ele>
        <time>2012-09-16T10:52:57Z</time>
      </trkpt>
      <trkpt lat="59.5608676053" lon="18.1028374426">
        <ele>58.8</ele>
        <time>2012-09-16T10:52:58Z</time>
      </trkpt>
      <trkpt lat="59.5605335027" lon="18.1027770929">
        <ele>58.8</ele>
        <time>2012-09-16T10:53:03Z</time>
      </trkpt>
      <trkpt lat="59.5604668666" lon="18.102757563">
        <ele>59.6</ele>
        <time>2012-09-16T10:53:04Z</time>
      </trkpt>
      <trkpt lat="59.560400482" lon="18.1027388714">
        <ele>60</ele>
        <time>2012-09-16T10:53:05Z</time>
      </trkpt>
      <trkpt lat="59.5603343488" lon="18.1027231973">
        <ele>60.4</ele>
        <time>2012-09-16T10:53:06Z</time>
      </trkpt>
      <trkpt lat="59.5602744182" lon="18.1027063496">
        <ele>60.8</ele>
        <time>2012-09-16T10:53:07Z</time>
      </trkpt>
      <trkpt lat="59.560023045" lon="18.1026319184">
        <ele>60.8</ele>
        <time>2012-09-16T10:53:11Z</time>
      </trkpt>
      <trkpt lat="59.5597116574" lon="18.1025957924">
        <ele>61.4</ele>
        <time>2012-09-16T10:53:16Z</time>
      </trkpt>
      <trkpt lat="59.5596453566" lon="18.1025941998">
        <ele>61.8</ele>
        <time>2012-09-16T10:53:17Z</time>
      </trkpt>
      <trkpt lat="59.5595818218" lon="18.1025885839">
        <ele>62.2</ele>
        <time>2012-09-16T10:53:18Z</time>
      </trkpt>
      <trkpt lat="59.5595169459" lon="18.1025891707">
        <ele>62.6</ele>
        <time>2012-09-16T10:53:19Z</time>
      </trkpt>
      <trkpt lat="59.5594504774" lon="18.1025942836">
        <ele>63</ele>
        <time>2012-09-16T10:53:20Z</time>
      </trkpt>
      <trkpt lat="59.5592386668" lon="18.102599229">
        <ele>63</ele>
        <time>2012-09-16T10:53:23Z</time>
      </trkpt>
      <trkpt lat="59.5590177199" lon="18.1025971335">
        <ele>62.6</ele>
        <time>2012-09-16T10:53:26Z</time>
      </trkpt>
      <trkpt lat="59.5589499942" lon="18.1025957924">
        <ele>62.2</ele>
        <time>2012-09-16T10:53:27Z</time>
      </trkpt>
      <trkpt lat="59.5588839448" lon="18.10259596">
        <ele>61.4</ele>
        <time>2012-09-16T10:53:28Z</time>
      </trkpt>
      <trkpt lat="59.5588154647" lon="18.102595038">
        <ele>60.8</ele>
        <time>2012-09-16T10:53:29Z</time>
      </trkpt>
      <trkpt lat="59.5587463978" lon="18.1025909309">
        <ele>60.8</ele>
        <time>2012-09-16T10:53:30Z</time>
      </trkpt>
      <trkpt lat="59.5586017262" lon="18.1025944513">
        <ele>60.4</ele>
        <time>2012-09-16T10:53:32Z</time>
      </trkpt>
      <trkpt lat="59.5585285522" lon="18.1025962953">
        <ele>60</ele>
        <time>2012-09-16T10:53:33Z</time>
      </trkpt>
      <trkpt lat="59.5584579767" lon="18.1025928587">
        <ele>59.6</ele>
        <time>2012-09-16T10:53:34Z</time>
      </trkpt>
      <trkpt lat="59.5583844674" lon="18.1025936969">
        <ele>59</ele>
        <time>2012-09-16T10:53:35Z</time>
      </trkpt>
      <trkpt lat="59.5583127183" lon="18.1025958762">
        <ele>58.6</ele>
        <time>2012-09-16T10:53:36Z</time>
      </trkpt>
      <trkpt lat="59.557873842" lon="18.1025898412">
        <ele>58.6</ele>
        <time>2012-09-16T10:53:42Z</time>
      </trkpt>
      <trkpt lat="59.5576602712" lon="18.1025803697">
        <ele>59</ele>
        <time>2012-09-16T10:53:45Z</time>
      </trkpt>
      <trkpt lat="59.5575909529" lon="18.1025698085">
        <ele>59.4</ele>
        <time>2012-09-16T10:53:46Z</time>
      </trkpt>
      <trkpt lat="59.5575179466" lon="18.1025539667">
        <ele>59.8</ele>
        <time>2012-09-16T10:53:47Z</time>
      </trkpt>
      <trkpt lat="59.5574492988" lon="18.1025349398">
        <ele>60.2</ele>
        <time>2012-09-16T10:53:48Z</time>
      </trkpt>
      <trkpt lat="59.5573819083" lon="18.1025073633">
        <ele>60.8</ele>
        <time>2012-09-16T10:53:49Z</time>
      </trkpt>
      <trkpt lat="59.5572506478" lon="18.1024183476">
        <ele>60.8</ele>
        <time>2012-09-16T10:53:51Z</time>
      </trkpt>
      <trkpt lat="59.5570702693" lon="18.1022607678">
        <ele>60.8</ele>
        <time>2012-09-16T10:53:54Z</time>
      </trkpt>
      <trkpt lat="59.5570110931" lon="18.1022056988">
        <ele>61.2</ele>
        <time>2012-09-16T10:53:55Z</time>
      </trkpt>
      <trkpt lat="59.5569517492" lon="18.1021450976">
        <ele>61.6</ele>
        <time>2012-09-16T10:53:56Z</time>
      </trkpt>
      <trkpt lat="59.556891651" lon="18.1020809761">
        <ele>62</ele>
        <time>2012-09-16T10:53:57Z</time>
      </trkpt>
      <trkpt lat="59.5568293735" lon="18.1020127474">
        <ele>62.4</ele>
        <time>2012-09-16T10:53:58Z</time>
      </trkpt>
      <trkpt lat="59.5567633241" lon="18.1019444349">
        <ele>62.8</ele>
        <time>2012-09-16T10:53:59Z</time>
      </trkpt>
      <trkpt lat="59.556694844" lon="18.1018783856">
        <ele>62.8</ele>
        <time>2012-09-16T10:54:00Z</time>
      </trkpt>
      <trkpt lat="59.5562710551" lon="18.1014593744">
        <ele>63.2</ele>
        <time>2012-09-16T10:54:06Z</time>
      </trkpt>
      <trkpt lat="59.556201653" lon="18.1013903913">
        <ele>63.6</ele>
        <time>2012-09-16T10:54:07Z</time>
      </trkpt>
      <trkpt lat="59.5561325023" lon="18.1013170497">
        <ele>64</ele>
        <time>2012-09-16T10:54:08Z</time>
      </trkpt>
      <trkpt lat="59.5560616753" lon="18.1012474799">
        <ele>64.6</ele>
        <time>2012-09-16T10:54:09Z</time>
      </trkpt>
      <trkpt lat="59.5559901777" lon="18.1011759823">
        <ele>65</ele>
        <time>2012-09-16T10:54:10Z</time>
      </trkpt>
      <trkpt lat="59.5559173389" lon="18.1011115255">
        <ele>65</ele>
        <time>2012-09-16T10:54:11Z</time>
      </trkpt>
      <trkpt lat="59.5556969788" lon="18.1008935123">
        <ele>65</ele>
        <time>2012-09-16T10:54:14Z</time>
      </trkpt>
      <trkpt lat="59.555343095" lon="18.1005327553">
        <ele>64.6</ele>
        <time>2012-09-16T10:54:19Z</time>
      </trkpt>
      <trkpt lat="59.555270843" lon="18.1004615092">
        <ele>64.2</ele>
        <time>2012-09-16T10:54:20Z</time>
      </trkpt>
      <trkpt lat="59.5551979205" lon="18.1003877485">
        <ele>63.6</ele>
        <time>2012-09-16T10:54:21Z</time>
      </trkpt>
      <trkpt lat="59.5551244112" lon="18.1003142392">
        <ele>63.2</ele>
        <time>2012-09-16T10:54:22Z</time>
      </trkpt>
      <trkpt lat="59.5550473815" lon="18.1002404785">
        <ele>62.8</ele>
        <time>2012-09-16T10:54:23Z</time>
      </trkpt>
      <trkpt lat="59.5547507461" lon="18.0999657198">
        <ele>62.8</ele>
        <time>2012-09-16T10:54:27Z</time>
      </trkpt>
      <trkpt lat="59.5544707906" lon="18.0998099841">
        <ele>62.8</ele>
        <time>2012-09-16T10:54:31Z</time>
      </trkpt>
      <trkpt lat="59.5544002989" lon="18.0997902028">
        <ele>62.8</ele>
        <time>2012-09-16T10:54:32Z</time>
      </trkpt>
      <trkpt lat="59.5538677968" lon="18.0997264166">
        <ele>62.8</ele>
        <time>2012-09-16T10:54:39Z</time>
      </trkpt>
      <trkpt lat="59.5533559141" lon="18.0997179508">
        <ele>62.8</ele>
        <time>2012-09-16T10:54:45Z</time>
      </trkpt>
      <trkpt lat="59.5529996834" lon="18.0996560086">
        <ele>62.4</ele>
        <time>2012-09-16T10:54:49Z</time>
      </trkpt>
      <trkpt lat="59.5529157806" lon="18.0996209722">
        <ele>62</ele>
        <time>2012-09-16T10:54:50Z</time>
      </trkpt>
      <trkpt lat="59.5528346438" lon="18.0995772187">
        <ele>61.6</ele>
        <time>2012-09-16T10:54:51Z</time>
      </trkpt>
      <trkpt lat="59.5527543452" lon="18.0995241613">
        <ele>61.2</ele>
        <time>2012-09-16T10:54:52Z</time>
      </trkpt>
      <trkpt lat="59.5526731245" lon="18.0994702657">
        <ele>60.8</ele>
        <time>2012-09-16T10:54:53Z</time>
      </trkpt>
      <trkpt lat="59.5523556182" lon="18.0992038051">
        <ele>60.8</ele>
        <time>2012-09-16T10:54:57Z</time>
      </trkpt>
      <trkpt lat="59.5519238665" lon="18.098681026">
        <ele>60.8</ele>
        <time>2012-09-16T10:55:03Z</time>
      </trkpt>
      <trkpt lat="59.5514936236" lon="18.098045678">
        <ele>60.4</ele>
        <time>2012-09-16T10:55:10Z</time>
      </trkpt>
      <trkpt lat="59.5514314299" lon="18.0979630324">
        <ele>59.8</ele>
        <time>2012-09-16T10:55:11Z</time>
      </trkpt>
      <trkpt lat="59.5513689847" lon="18.0978765312">
        <ele>59.4</ele>
        <time>2012-09-16T10:55:12Z</time>
      </trkpt>
      <trkpt lat="59.5513106467" lon="18.0977923769">
        <ele>59</ele>
        <time>2012-09-16T10:55:13Z</time>
      </trkpt>
      <trkpt lat="59.5512483692" lon="18.0977154311">
        <ele>58.4</ele>
        <time>2012-09-16T10:55:14Z</time>
      </trkpt>
      <trkpt lat="59.55099423" lon="18.0974263394">
        <ele>58.4</ele>
        <time>2012-09-16T10:55:18Z</time>
      </trkpt>
      <trkpt lat="59.5505185572" lon="18.0969676818">
        <ele>58.4</ele>
        <time>2012-09-16T10:55:25Z</time>
      </trkpt>
      <trkpt lat="59.5504537651" lon="18.0969036441">
        <ele>58.4</ele>
        <time>2012-09-16T10:55:26Z</time>
      </trkpt>
      <trkpt lat="59.550249582" lon="18.096721673">
        <ele>58</ele>
        <time>2012-09-16T10:55:29Z</time>
      </trkpt>
      <trkpt lat="59.5501886456" lon="18.0966636703">
        <ele>57.6</ele>
        <time>2012-09-16T10:55:30Z</time>
      </trkpt>
      <trkpt lat="59.5501265357" lon="18.0966070925">
        <ele>57.2</ele>
        <time>2012-09-16T10:55:31Z</time>
      </trkpt>
      <trkpt lat="59.5500690359" lon="18.0965479163">
        <ele>56.4</ele>
        <time>2012-09-16T10:55:32Z</time>
      </trkpt>
      <trkpt lat="59.5498412996" lon="18.0963312441">
        <ele>56.8</ele>
        <time>2012-09-16T10:55:36Z</time>
      </trkpt>
      <trkpt lat="59.5497874878" lon="18.0962771809">
        <ele>57.2</ele>
        <time>2012-09-16T10:55:37Z</time>
      </trkpt>
      <trkpt lat="59.5497347657" lon="18.0962234529">
        <ele>57.6</ele>
        <time>2012-09-16T10:55:38Z</time>
      </trkpt>
      <trkpt lat="59.5496818759" lon="18.0961732453">
        <ele>58.2</ele>
        <time>2012-09-16T10:55:39Z</time>
      </trkpt>
      <trkpt lat="59.5496300758" lon="18.096116919">
        <ele>58.8</ele>
        <time>2012-09-16T10:55:40Z</time>
      </trkpt>
      <trkpt lat="59.5495828018" lon="18.0960692259">
        <ele>59.2</ele>
        <time>2012-09-16T10:55:41Z</time>
      </trkpt>
      <trkpt lat="59.5495382101" lon="18.0960155818">
        <ele>59.8</ele>
        <time>2012-09-16T10:55:42Z</time>
      </trkpt>
      <trkpt lat="59.5494922773" lon="18.0959546454">
        <ele>60.4</ele>
        <time>2012-09-16T10:55:43Z</time>
      </trkpt>
      <trkpt lat="59.5494055247" lon="18.0958437528">
        <ele>61</ele>
        <time>2012-09-16T10:55:45Z</time>
      </trkpt>
      <trkpt lat="59.5493617711" lon="18.0957869236">
        <ele>61.4</ele>
        <time>2012-09-16T10:55:46Z</time>
      </trkpt>
      <trkpt lat="59.5493190234" lon="18.0957279988">
        <ele>61.8</ele>
        <time>2012-09-16T10:55:47Z</time>
      </trkpt>
      <trkpt lat="59.549272923" lon="18.0956683197">
        <ele>62.2</ele>
        <time>2012-09-16T10:55:48Z</time>
      </trkpt>
      <trkpt lat="59.5492314326" lon="18.0956039467">
        <ele>62.8</ele>
        <time>2012-09-16T10:55:49Z</time>
      </trkpt>
      <trkpt lat="59.5488809853" lon="18.0950882922">
        <ele>63.6</ele>
        <time>2012-09-16T10:55:57Z</time>
      </trkpt>
      <trkpt lat="59.5488379862" lon="18.0950299542">
        <ele>64</ele>
        <time>2012-09-16T10:55:58Z</time>
      </trkpt>
      <trkpt lat="59.5487913828" lon="18.0949680957">
        <ele>64.4</ele>
        <time>2012-09-16T10:55:59Z</time>
      </trkpt>
      <trkpt lat="59.5487433546" lon="18.094914703">
        <ele>64.8</ele>
        <time>2012-09-16T10:56:00Z</time>
      </trkpt>
      <trkpt lat="59.5485580307" lon="18.0947075863">
        <ele>65.2</ele>
        <time>2012-09-16T10:56:04Z</time>
      </trkpt>
      <trkpt lat="59.5485132714" lon="18.0946634975">
        <ele>65.8</ele>
        <time>2012-09-16T10:56:05Z</time>
      </trkpt>
      <trkpt lat="59.5484619742" lon="18.0946213365">
        <ele>66.2</ele>
        <time>2012-09-16T10:56:06Z</time>
      </trkpt>
      <trkpt lat="59.5484115151" lon="18.0945885633">
        <ele>66.6</ele>
        <time>2012-09-16T10:56:07Z</time>
      </trkpt>
      <trkpt lat="59.5483645765" lon="18.094553527">
        <ele>67.2</ele>
        <time>2012-09-16T10:56:08Z</time>
      </trkpt>
      <trkpt lat="59.5482135347" lon="18.0944500943">
        <ele>67.2</ele>
        <time>2012-09-16T10:56:11Z</time>
      </trkpt>
      <trkpt lat="59.5478157297" lon="18.094139042">
        <ele>67.2</ele>
        <time>2012-09-16T10:56:19Z</time>
      </trkpt>
      <trkpt lat="59.5475591597" lon="18.0939753435">
        <ele>67.6</ele>
        <time>2012-09-16T10:56:23Z</time>
      </trkpt>
      <trkpt lat="59.5474947029" lon="18.0939356971">
        <ele>68</ele>
        <time>2012-09-16T10:56:24Z</time>
      </trkpt>
      <trkpt lat="59.5474296594" lon="18.0938949611">
        <ele>68.4</ele>
        <time>2012-09-16T10:56:25Z</time>
      </trkpt>
      <trkpt lat="59.5473661246" lon="18.0938513752">
        <ele>68.8</ele>
        <time>2012-09-16T10:56:26Z</time>
      </trkpt>
      <trkpt lat="59.5473002428" lon="18.0938062806">
        <ele>69.2</ele>
        <time>2012-09-16T10:56:27Z</time>
      </trkpt>
      <trkpt lat="59.5470200359" lon="18.0936252315">
        <ele>69.2</ele>
        <time>2012-09-16T10:56:31Z</time>
      </trkpt>
      <trkpt lat="59.5466172018" lon="18.0933593577">
        <ele>69.6</ele>
        <time>2012-09-16T10:56:37Z</time>
      </trkpt>
      <trkpt lat="59.5465566007" lon="18.0933199627">
        <ele>70</ele>
        <time>2012-09-16T10:56:38Z</time>
      </trkpt>
      <trkpt lat="59.5464912218" lon="18.0932764607">
        <ele>70.6</ele>
        <time>2012-09-16T10:56:39Z</time>
      </trkpt>
      <trkpt lat="59.5464252563" lon="18.0932320366">
        <ele>70.2</ele>
        <time>2012-09-16T10:56:40Z</time>
      </trkpt>
      <trkpt lat="59.5463592907" lon="18.0931864391">
        <ele>69.8</ele>
        <time>2012-09-16T10:56:41Z</time>
      </trkpt>
      <trkpt lat="59.5462914812" lon="18.093145703">
        <ele>69.6</ele>
        <time>2012-09-16T10:56:42Z</time>
      </trkpt>
      <trkpt lat="59.5462213247" lon="18.0931058052">
        <ele>69.2</ele>
        <time>2012-09-16T10:56:43Z</time>
      </trkpt>
      <trkpt lat="59.5461538504" lon="18.0930708527">
        <ele>68.8</ele>
        <time>2012-09-16T10:56:44Z</time>
      </trkpt>
      <trkpt lat="59.5460223384" lon="18.093029027">
        <ele>68.8</ele>
        <time>2012-09-16T10:56:46Z</time>
      </trkpt>
      <trkpt lat="59.5459521819" lon="18.093016538">
        <ele>68.8</ele>
        <time>2012-09-16T10:56:47Z</time>
      </trkpt>
      <trkpt lat="59.5454406345" lon="18.0929708566">
        <ele>68.8</ele>
        <time>2012-09-16T10:56:54Z</time>
      </trkpt>
      <trkpt lat="59.5448824" lon="18.0929271869">
        <ele>68.8</ele>
        <time>2012-09-16T10:57:02Z</time>
      </trkpt>
      <trkpt lat="59.5445288514" lon="18.0929111775">
        <ele>68.8</ele>
        <time>2012-09-16T10:57:07Z</time>
      </trkpt>
      <trkpt lat="59.5442629775" lon="18.0928966768">
        <ele>68.8</ele>
        <time>2012-09-16T10:57:11Z</time>
      </trkpt>
      <trkpt lat="59.543867771" lon="18.0928255983">
        <ele>68.8</ele>
        <time>2012-09-16T10:57:17Z</time>
      </trkpt>
      <trkpt lat="59.5435603229" lon="18.0926764005">
        <ele>68.8</ele>
        <time>2012-09-16T10:57:22Z</time>
      </trkpt>
      <trkpt lat="59.5432070258" lon="18.0924132926">
        <ele>68.8</ele>
        <time>2012-09-16T10:57:28Z</time>
      </trkpt>
      <trkpt lat="59.542775777" lon="18.0919884979">
        <ele>68.8</ele>
        <time>2012-09-16T10:57:35Z</time>
      </trkpt>
      <trkpt lat="59.5423490545" lon="18.0914086381">
        <ele>68.8</ele>
        <time>2012-09-16T10:57:42Z</time>
      </trkpt>
      <trkpt lat="59.5418983597" lon="18.0907457974">
        <ele>68.8</ele>
        <time>2012-09-16T10:57:49Z</time>
      </trkpt>
      <trkpt lat="59.5418313884" lon="18.090652926">
        <ele>68.8</ele>
        <time>2012-09-16T10:57:50Z</time>
      </trkpt>
      <trkpt lat="59.5415328251" lon="18.0903773291">
        <ele>68.8</ele>
        <time>2012-09-16T10:57:54Z</time>
      </trkpt>
      <trkpt lat="59.5414539514" lon="18.0903562067">
        <ele>68.8</ele>
        <time>2012-09-16T10:57:55Z</time>
      </trkpt>
      <trkpt lat="59.5412889118" lon="18.0903701207">
        <ele>68.8</ele>
        <time>2012-09-16T10:57:57Z</time>
      </trkpt>
      <trkpt lat="59.5407514644" lon="18.0904941728">
        <ele>68.8</ele>
        <time>2012-09-16T10:58:03Z</time>
      </trkpt>
      <trkpt lat="59.5404852552" lon="18.0905530976">
        <ele>68.4</ele>
        <time>2012-09-16T10:58:06Z</time>
      </trkpt>
      <trkpt lat="59.5403954851" lon="18.0905871281">
        <ele>68</ele>
        <time>2012-09-16T10:58:07Z</time>
      </trkpt>
      <trkpt lat="59.5403009372" lon="18.0906231702">
        <ele>67.4</ele>
        <time>2012-09-16T10:58:08Z</time>
      </trkpt>
      <trkpt lat="59.5402103289" lon="18.0906532613">
        <ele>67</ele>
        <time>2012-09-16T10:58:09Z</time>
      </trkpt>
      <trkpt lat="59.540120894" lon="18.0906750542">
        <ele>66.6</ele>
        <time>2012-09-16T10:58:10Z</time>
      </trkpt>
      <trkpt lat="59.5396972728" lon="18.090796005">
        <ele>66.6</ele>
        <time>2012-09-16T10:58:15Z</time>
      </trkpt>
      <trkpt lat="59.5394521022" lon="18.09085669">
        <ele>66</ele>
        <time>2012-09-16T10:58:18Z</time>
      </trkpt>
      <trkpt lat="59.5393654334" lon="18.0908685085">
        <ele>65.6</ele>
        <time>2012-09-16T10:58:19Z</time>
      </trkpt>
      <trkpt lat="59.5392774234" lon="18.0908738729">
        <ele>65</ele>
        <time>2012-09-16T10:58:20Z</time>
      </trkpt>
      <trkpt lat="59.5391879047" lon="18.090874292">
        <ele>64.4</ele>
        <time>2012-09-16T10:58:21Z</time>
      </trkpt>
      <trkpt lat="59.5390975478" lon="18.0908643175">
        <ele>63.8</ele>
        <time>2012-09-16T10:58:22Z</time>
      </trkpt>
      <trkpt lat="59.5389144872" lon="18.0908298679">
        <ele>63.4</ele>
        <time>2012-09-16T10:58:24Z</time>
      </trkpt>
      <trkpt lat="59.5388279021" lon="18.0908072368">
        <ele>62.6</ele>
        <time>2012-09-16T10:58:25Z</time>
      </trkpt>
      <trkpt lat="59.538744586" lon="18.090771949">
        <ele>62.2</ele>
        <time>2012-09-16T10:58:26Z</time>
      </trkpt>
      <trkpt lat="59.5386597612" lon="18.0907370803">
        <ele>61.8</ele>
        <time>2012-09-16T10:58:27Z</time>
      </trkpt>
      <trkpt lat="59.5380768839" lon="18.0904549455">
        <ele>61.8</ele>
        <time>2012-09-16T10:58:34Z</time>
      </trkpt>
      <trkpt lat="59.5379996866" lon="18.0904141257">
        <ele>61.8</ele>
        <time>2012-09-16T10:58:35Z</time>
      </trkpt>
      <trkpt lat="59.5374733033" lon="18.0901876467">
        <ele>61.8</ele>
        <time>2012-09-16T10:58:42Z</time>
      </trkpt>
      <trkpt lat="59.5369646058" lon="18.0900576434">
        <ele>61.8</ele>
        <time>2012-09-16T10:58:49Z</time>
      </trkpt>
      <trkpt lat="59.5364404855" lon="18.0900387004">
        <ele>61.8</ele>
        <time>2012-09-16T10:58:56Z</time>
      </trkpt>
      <trkpt lat="59.5358362344" lon="18.0901290572">
        <ele>61.8</ele>
        <time>2012-09-16T10:59:04Z</time>
      </trkpt>
      <trkpt lat="59.5352989546" lon="18.0902574679">
        <ele>61.8</ele>
        <time>2012-09-16T10:59:11Z</time>
      </trkpt>
      <trkpt lat="59.535224691" lon="18.0902704599">
        <ele>61.8</ele>
        <time>2012-09-16T10:59:12Z</time>
      </trkpt>
      <trkpt lat="59.5346153268" lon="18.090344053">
        <ele>61.8</ele>
        <time>2012-09-16T10:59:20Z</time>
      </trkpt>
      <trkpt lat="59.5343241396" lon="18.090333827">
        <ele>61.8</ele>
        <time>2012-09-16T10:59:24Z</time>
      </trkpt>
      <trkpt lat="59.5342564977" lon="18.0902860502">
        <ele>61.8</ele>
        <time>2012-09-16T10:59:25Z</time>
      </trkpt>
      <trkpt lat="59.5340765383" lon="18.0900998882">
        <ele>61.8</ele>
        <time>2012-09-16T10:59:28Z</time>
      </trkpt>
      <trkpt lat="59.533956258" lon="18.0902160614">
        <ele>61.8</ele>
        <time>2012-09-16T10:59:30Z</time>
      </trkpt>
      <trkpt lat="59.5339435175" lon="18.0904690271">
        <ele>61.8</ele>
        <time>2012-09-16T10:59:32Z</time>
      </trkpt>
      <trkpt lat="59.5339684118" lon="18.0907069892">
        <ele>61.8</ele>
        <time>2012-09-16T10:59:34Z</time>
      </trkpt>
      <trkpt lat="59.5339726866" lon="18.0908279401">
        <ele>61.8</ele>
        <time>2012-09-16T10:59:35Z</time>
      </trkpt>
      <trkpt lat="59.5339700882" lon="18.0909459572">
        <ele>61.8</ele>
        <time>2012-09-16T10:59:36Z</time>
      </trkpt>
      <trkpt lat="59.5339310285" lon="18.0915229672">
        <ele>61.8</ele>
        <time>2012-09-16T10:59:41Z</time>
      </trkpt>
      <trkpt lat="59.5338827488" lon="18.0917335205">
        <ele>61.8</ele>
        <time>2012-09-16T10:59:43Z</time>
      </trkpt>
      <trkpt lat="59.5337493089" lon="18.0922468281">
        <ele>62.2</ele>
        <time>2012-09-16T10:59:48Z</time>
      </trkpt>
      <trkpt lat="59.5337199723" lon="18.0923446449">
        <ele>62.8</ele>
        <time>2012-09-16T10:59:49Z</time>
      </trkpt>
      <trkpt lat="59.5336923958" lon="18.0924426293">
        <ele>63.2</ele>
        <time>2012-09-16T10:59:50Z</time>
      </trkpt>
      <trkpt lat="59.5336639812" lon="18.0925413681">
        <ele>63.6</ele>
        <time>2012-09-16T10:59:51Z</time>
      </trkpt>
      <trkpt lat="59.5336344769" lon="18.0926385143">
        <ele>64</ele>
        <time>2012-09-16T10:59:52Z</time>
      </trkpt>
      <trkpt lat="59.5335480595" lon="18.0929376643">
        <ele>64.4</ele>
        <time>2012-09-16T10:59:55Z</time>
      </trkpt>
      <trkpt lat="59.533520483" lon="18.0930349781">
        <ele>64.8</ele>
        <time>2012-09-16T10:59:56Z</time>
      </trkpt>
      <trkpt lat="59.5334915655" lon="18.0931317053">
        <ele>65.2</ele>
        <time>2012-09-16T10:59:57Z</time>
      </trkpt>
      <trkpt lat="59.5334634023" lon="18.0932293544">
        <ele>65.8</ele>
        <time>2012-09-16T10:59:58Z</time>
      </trkpt>
      <trkpt lat="59.5334328922" lon="18.0933276741">
        <ele>66.2</ele>
        <time>2012-09-16T10:59:59Z</time>
      </trkpt>
      <trkpt lat="59.5333074151" lon="18.0938268162">
        <ele>66.6</ele>
        <time>2012-09-16T11:00:04Z</time>
      </trkpt>
      <trkpt lat="59.533286628" lon="18.0939305003">
        <ele>67</ele>
        <time>2012-09-16T11:00:05Z</time>
      </trkpt>
      <trkpt lat="59.5332657571" lon="18.0940351903">
        <ele>67.4</ele>
        <time>2012-09-16T11:00:06Z</time>
      </trkpt>
      <trkpt lat="59.5332443833" lon="18.094140886">
        <ele>67.8</ele>
        <time>2012-09-16T11:00:07Z</time>
      </trkpt>
      <trkpt lat="59.5332229256" lon="18.0942546284">
        <ele>68.4</ele>
        <time>2012-09-16T11:00:08Z</time>
      </trkpt>
      <trkpt lat="59.5330825288" lon="18.0950551837">
        <ele>68.4</ele>
        <time>2012-09-16T11:00:15Z</time>
      </trkpt>
      <trkpt lat="59.5330676928" lon="18.0951680041">
        <ele>68.8</ele>
        <time>2012-09-16T11:00:16Z</time>
      </trkpt>
      <trkpt lat="59.5330487497" lon="18.0952825008">
        <ele>69.2</ele>
        <time>2012-09-16T11:00:17Z</time>
      </trkpt>
      <trkpt lat="59.5330271244" lon="18.0953912979">
        <ele>69.6</ele>
        <time>2012-09-16T11:00:18Z</time>
      </trkpt>
      <trkpt lat="59.5330053315" lon="18.0955033639">
        <ele>70</ele>
        <time>2012-09-16T11:00:19Z</time>
      </trkpt>
      <trkpt lat="59.5329863884" lon="18.0956214648">
        <ele>70.4</ele>
        <time>2012-09-16T11:00:20Z</time>
      </trkpt>
      <trkpt lat="59.5329712171" lon="18.0957405716">
        <ele>70.4</ele>
        <time>2012-09-16T11:00:21Z</time>
      </trkpt>
      <trkpt lat="59.5328665272" lon="18.0964132191">
        <ele>70.4</ele>
        <time>2012-09-16T11:00:27Z</time>
      </trkpt>
      <trkpt lat="59.5328261265" lon="18.0966286339">
        <ele>71.4</ele>
        <time>2012-09-16T11:00:29Z</time>
      </trkpt>
      <trkpt lat="59.532800394" lon="18.0967402809">
        <ele>71.8</ele>
        <time>2012-09-16T11:00:30Z</time>
      </trkpt>
      <trkpt lat="59.532773991" lon="18.0968436297">
        <ele>72.2</ele>
        <time>2012-09-16T11:00:31Z</time>
      </trkpt>
      <trkpt lat="59.5327456602" lon="18.0969478167">
        <ele>72.6</ele>
        <time>2012-09-16T11:00:32Z</time>
      </trkpt>
      <trkpt lat="59.5326815387" lon="18.0971453781">
        <ele>72.6</ele>
        <time>2012-09-16T11:00:34Z</time>
      </trkpt>
      <trkpt lat="59.5326454127" lon="18.0972256767">
        <ele>73</ele>
        <time>2012-09-16T11:00:35Z</time>
      </trkpt>
      <trkpt lat="59.5326031679" lon="18.0973096633">
        <ele>73.6</ele>
        <time>2012-09-16T11:00:36Z</time>
      </trkpt>
      <trkpt lat="59.5325612584" lon="18.0973918898">
        <ele>74</ele>
        <time>2012-09-16T11:00:37Z</time>
      </trkpt>
      <trkpt lat="59.532514236" lon="18.0974721884">
        <ele>74.4</ele>
        <time>2012-09-16T11:00:38Z</time>
      </trkpt>
      <trkpt lat="59.5324652857" lon="18.0975311131">
        <ele>74.8</ele>
        <time>2012-09-16T11:00:39Z</time>
      </trkpt>
      <trkpt lat="59.5323601766" lon="18.0976407484">
        <ele>75.2</ele>
        <time>2012-09-16T11:00:41Z</time>
      </trkpt>
      <trkpt lat="59.5323031797" lon="18.0976723481">
        <ele>75.6</ele>
        <time>2012-09-16T11:00:42Z</time>
      </trkpt>
      <trkpt lat="59.5322489488" lon="18.0976978291">
        <ele>76</ele>
        <time>2012-09-16T11:00:43Z</time>
      </trkpt>
      <trkpt lat="59.5321934606" lon="18.0977166884">
        <ele>76.4</ele>
        <time>2012-09-16T11:00:44Z</time>
      </trkpt>
      <trkpt lat="59.5321357093" lon="18.0977306023">
        <ele>76.8</ele>
        <time>2012-09-16T11:00:45Z</time>
      </trkpt>
      <trkpt lat="59.531854329" lon="18.0976741083">
        <ele>77.2</ele>
        <time>2012-09-16T11:00:50Z</time>
      </trkpt>
      <trkpt lat="59.5318018583" lon="18.0976495494">
        <ele>77.8</ele>
        <time>2012-09-16T11:00:51Z</time>
      </trkpt>
      <trkpt lat="59.5317494714" lon="18.0976306063">
        <ele>78.2</ele>
        <time>2012-09-16T11:00:52Z</time>
      </trkpt>
      <trkpt lat="59.531694067" lon="18.0976114955">
        <ele>79</ele>
        <time>2012-09-16T11:00:53Z</time>
      </trkpt>
      <trkpt lat="59.5315035464" lon="18.0975731064">
        <ele>79</ele>
        <time>2012-09-16T11:00:57Z</time>
      </trkpt>
      <trkpt lat="59.5313539295" lon="18.0976059635">
        <ele>79.4</ele>
        <time>2012-09-16T11:01:00Z</time>
      </trkpt>
      <trkpt lat="59.5313066556" lon="18.0976203804">
        <ele>79.8</ele>
        <time>2012-09-16T11:01:01Z</time>
      </trkpt>
      <trkpt lat="59.5312572862" lon="18.0976378985">
        <ele>80.4</ele>
        <time>2012-09-16T11:01:02Z</time>
      </trkpt>
      <trkpt lat="59.5312071625" lon="18.0976555843">
        <ele>80.8</ele>
        <time>2012-09-16T11:01:03Z</time>
      </trkpt>
      <trkpt lat="59.5311559491" lon="18.0976516448">
        <ele>81.2</ele>
        <time>2012-09-16T11:01:04Z</time>
      </trkpt>
      <trkpt lat="59.5310617365" lon="18.0975729388">
        <ele>81.2</ele>
        <time>2012-09-16T11:01:06Z</time>
      </trkpt>
      <trkpt lat="59.5309867185" lon="18.0974258365">
        <ele>81.8</ele>
        <time>2012-09-16T11:01:08Z</time>
      </trkpt>
      <trkpt lat="59.5309442223" lon="18.0973642295">
        <ele>82.2</ele>
        <time>2012-09-16T11:01:09Z</time>
      </trkpt>
      <trkpt lat="59.5308895723" lon="18.0973400896">
        <ele>82.6</ele>
        <time>2012-09-16T11:01:10Z</time>
      </trkpt>
      <trkpt lat="59.5308323239" lon="18.0973612958">
        <ele>83</ele>
        <time>2012-09-16T11:01:11Z</time>
      </trkpt>
      <trkpt lat="59.5307792665" lon="18.0974270099">
        <ele>83.6</ele>
        <time>2012-09-16T11:01:12Z</time>
      </trkpt>
      <trkpt lat="59.5307454874" lon="18.0975280956">
        <ele>83.6</ele>
        <time>2012-09-16T11:01:13Z</time>
      </trkpt>
      <trkpt lat="59.5307403745" lon="18.0977765352">
        <ele>83.6</ele>
        <time>2012-09-16T11:01:15Z</time>
      </trkpt>
      <trkpt lat="59.5308049151" lon="18.0981508708">
        <ele>83.6</ele>
        <time>2012-09-16T11:01:18Z</time>
      </trkpt>
      <trkpt lat="59.5308323239" lon="18.0982780242">
        <ele>83.6</ele>
        <time>2012-09-16T11:01:19Z</time>
      </trkpt>
      <trkpt lat="59.5309238542" lon="18.0990723769">
        <ele>83.6</ele>
        <time>2012-09-16T11:01:25Z</time>
      </trkpt>
      <trkpt lat="59.5309435517" lon="18.0999613612">
        <ele>83.6</ele>
        <time>2012-09-16T11:01:31Z</time>
      </trkpt>
      <trkpt lat="59.5309339125" lon="18.1010927501">
        <ele>83.6</ele>
        <time>2012-09-16T11:01:38Z</time>
      </trkpt>
      <trkpt lat="59.5308573858" lon="18.1020131665">
        <ele>82.8</ele>
        <time>2012-09-16T11:01:43Z</time>
      </trkpt>
      <trkpt lat="59.5308376883" lon="18.1022072075">
        <ele>82.4</ele>
        <time>2012-09-16T11:01:44Z</time>
      </trkpt>
      <trkpt lat="59.5308095251" lon="18.1024120611">
        <ele>82</ele>
        <time>2012-09-16T11:01:45Z</time>
      </trkpt>
      <trkpt lat="59.5307789312" lon="18.1026053477">
        <ele>81.6</ele>
        <time>2012-09-16T11:01:46Z</time>
      </trkpt>
      <trkpt lat="59.5306718943" lon="18.1031687791">
        <ele>81.6</ele>
        <time>2012-09-16T11:01:49Z</time>
      </trkpt>
      <trkpt lat="59.5304418112" lon="18.1042759442">
        <ele>81.6</ele>
        <time>2012-09-16T11:01:55Z</time>
      </trkpt>
      <trkpt lat="59.5303744207" lon="18.1046278164">
        <ele>81.6</ele>
        <time>2012-09-16T11:01:57Z</time>
      </trkpt>
      <trkpt lat="59.5301743447" lon="18.1056027152">
        <ele>81.6</ele>
        <time>2012-09-16T11:02:03Z</time>
      </trkpt>
      <trkpt lat="59.5301441699" lon="18.1057547629">
        <ele>81.6</ele>
        <time>2012-09-16T11:02:04Z</time>
      </trkpt>
      <trkpt lat="59.5299745203" lon="18.1066445015">
        <ele>81.6</ele>
        <time>2012-09-16T11:02:10Z</time>
      </trkpt>
      <trkpt lat="59.5299404059" lon="18.106940215">
        <ele>81.6</ele>
        <time>2012-09-16T11:02:12Z</time>
      </trkpt>
      <trkpt lat="59.5299267434" lon="18.1070819529">
        <ele>82</ele>
        <time>2012-09-16T11:02:13Z</time>
      </trkpt>
      <trkpt lat="59.5299163499" lon="18.1072241937">
        <ele>82.4</ele>
        <time>2012-09-16T11:02:14Z</time>
      </trkpt>
      <trkpt lat="59.5299087223" lon="18.1073797618">
        <ele>82.8</ele>
        <time>2012-09-16T11:02:15Z</time>
      </trkpt>
      <trkpt lat="59.5299083032" lon="18.1075323124">
        <ele>83.2</ele>
        <time>2012-09-16T11:02:16Z</time>
      </trkpt>
      <trkpt lat="59.5299098958" lon="18.1076841924">
        <ele>83.6</ele>
        <time>2012-09-16T11:02:17Z</time>
      </trkpt>
      <trkpt lat="59.529945938" lon="18.1081508966">
        <ele>83.6</ele>
        <time>2012-09-16T11:02:20Z</time>
      </trkpt>
      <trkpt lat="59.5299949721" lon="18.1084719234">
        <ele>83.6</ele>
        <time>2012-09-16T11:02:22Z</time>
      </trkpt>
      <trkpt lat="59.5301980655" lon="18.1093728938">
        <ele>83.6</ele>
        <time>2012-09-16T11:02:28Z</time>
      </trkpt>
      <trkpt lat="59.5304548031" lon="18.1102251654">
        <ele>83.6</ele>
        <time>2012-09-16T11:02:34Z</time>
      </trkpt>
      <trkpt lat="59.5306689607" lon="18.110971825">
        <ele>83.6</ele>
        <time>2012-09-16T11:02:39Z</time>
      </trkpt>
      <trkpt lat="59.5309593935" lon="18.1120412717">
        <ele>83.6</ele>
        <time>2012-09-16T11:02:46Z</time>
      </trkpt>
      <trkpt lat="59.5310437992" lon="18.1123559282">
        <ele>83.6</ele>
        <time>2012-09-16T11:02:48Z</time>
      </trkpt>
      <trkpt lat="59.5313413567" lon="18.113304424">
        <ele>83.6</ele>
        <time>2012-09-16T11:02:54Z</time>
      </trkpt>
      <trkpt lat="59.5316113377" lon="18.113893001">
        <ele>83.2</ele>
        <time>2012-09-16T11:02:58Z</time>
      </trkpt>
      <trkpt lat="59.5316870262" lon="18.114029626">
        <ele>82.8</ele>
        <time>2012-09-16T11:02:59Z</time>
      </trkpt>
      <trkpt lat="59.5317670734" lon="18.1141763931">
        <ele>82.2</ele>
        <time>2012-09-16T11:03:00Z</time>
      </trkpt>
      <trkpt lat="59.5318425943" lon="18.11432601">
        <ele>81.8</ele>
        <time>2012-09-16T11:03:01Z</time>
      </trkpt>
      <trkpt lat="59.5319245693" lon="18.1144677479">
        <ele>81.4</ele>
        <time>2012-09-16T11:03:02Z</time>
      </trkpt>
      <trkpt lat="59.5320036944" lon="18.1146187897">
        <ele>81</ele>
        <time>2012-09-16T11:03:03Z</time>
      </trkpt>
      <trkpt lat="59.5320890222" lon="18.1147696639">
        <ele>80.6</ele>
        <time>2012-09-16T11:03:04Z</time>
      </trkpt>
      <trkpt lat="59.5321737632" lon="18.1149207896">
        <ele>80</ele>
        <time>2012-09-16T11:03:05Z</time>
      </trkpt>
      <trkpt lat="59.5322583365" lon="18.1150826441">
        <ele>79.6</ele>
        <time>2012-09-16T11:03:06Z</time>
      </trkpt>
      <trkpt lat="59.5323414012" lon="18.1152444986">
        <ele>79.2</ele>
        <time>2012-09-16T11:03:07Z</time>
      </trkpt>
      <trkpt lat="59.5326781021" lon="18.1159442196">
        <ele>79.2</ele>
        <time>2012-09-16T11:03:11Z</time>
      </trkpt>
      <trkpt lat="59.5330008891" lon="18.1169376424">
        <ele>79.2</ele>
        <time>2012-09-16T11:03:16Z</time>
      </trkpt>
      <trkpt lat="59.5330939282" lon="18.1173637782">
        <ele>78.8</ele>
        <time>2012-09-16T11:03:18Z</time>
      </trkpt>
      <trkpt lat="59.5331340775" lon="18.1175826296">
        <ele>78.4</ele>
        <time>2012-09-16T11:03:19Z</time>
      </trkpt>
      <trkpt lat="59.5331660125" lon="18.1177993855">
        <ele>78</ele>
        <time>2012-09-16T11:03:20Z</time>
      </trkpt>
      <trkpt lat="59.5331952653" lon="18.1180271217">
        <ele>77.6</ele>
        <time>2012-09-16T11:03:21Z</time>
      </trkpt>
      <trkpt lat="59.5332193214" lon="18.1182737172">
        <ele>77.2</ele>
        <time>2012-09-16T11:03:22Z</time>
      </trkpt>
      <trkpt lat="59.5332779947" lon="18.1187405891">
        <ele>77.2</ele>
        <time>2012-09-16T11:03:24Z</time>
      </trkpt>
      <trkpt lat="59.5334082494" lon="18.1198694634">
        <ele>77.2</ele>
        <time>2012-09-16T11:03:29Z</time>
      </trkpt>
      <trkpt lat="59.5334328084" lon="18.120094685">
        <ele>77.2</ele>
        <time>2012-09-16T11:03:30Z</time>
      </trkpt>
      <trkpt lat="59.5334699402" lon="18.1207196395">
        <ele>76.8</ele>
        <time>2012-09-16T11:03:33Z</time>
      </trkpt>
      <trkpt lat="59.5334799147" lon="18.1209202183">
        <ele>76.2</ele>
        <time>2012-09-16T11:03:34Z</time>
      </trkpt>
      <trkpt lat="59.5334864525" lon="18.1211263293">
        <ele>75.8</ele>
        <time>2012-09-16T11:03:35Z</time>
      </trkpt>
      <trkpt lat="59.5334915655" lon="18.1213333622">
        <ele>75.4</ele>
        <time>2012-09-16T11:03:36Z</time>
      </trkpt>
      <trkpt lat="59.5334980196" lon="18.1215485256">
        <ele>75</ele>
        <time>2012-09-16T11:03:37Z</time>
      </trkpt>
      <trkpt lat="59.5335185552" lon="18.1227602968">
        <ele>75</ele>
        <time>2012-09-16T11:03:43Z</time>
      </trkpt>
      <trkpt lat="59.5335355705" lon="18.123356669">
        <ele>74.6</ele>
        <time>2012-09-16T11:03:46Z</time>
      </trkpt>
      <trkpt lat="59.5335389232" lon="18.1235509615">
        <ele>73.6</ele>
        <time>2012-09-16T11:03:47Z</time>
      </trkpt>
      <trkpt lat="59.5335432818" lon="18.1237444157">
        <ele>73.2</ele>
        <time>2012-09-16T11:03:48Z</time>
      </trkpt>
      <trkpt lat="59.533546886" lon="18.1239371994">
        <ele>72.6</ele>
        <time>2012-09-16T11:03:49Z</time>
      </trkpt>
      <trkpt lat="59.5335509932" lon="18.1241293964">
        <ele>72.6</ele>
        <time>2012-09-16T11:03:50Z</time>
      </trkpt>
      <trkpt lat="59.5335970098" lon="18.1251679138">
        <ele>72.2</ele>
        <time>2012-09-16T11:03:55Z</time>
      </trkpt>
      <trkpt lat="59.5336138574" lon="18.1253801435">
        <ele>71.8</ele>
        <time>2012-09-16T11:03:56Z</time>
      </trkpt>
      <trkpt lat="59.5336314594" lon="18.1255908645">
        <ele>71.4</ele>
        <time>2012-09-16T11:03:57Z</time>
      </trkpt>
      <trkpt lat="59.5336535876" lon="18.1257978974">
        <ele>71</ele>
        <time>2012-09-16T11:03:58Z</time>
      </trkpt>
      <trkpt lat="59.5336773084" lon="18.1260219456">
        <ele>70.6</ele>
        <time>2012-09-16T11:03:59Z</time>
      </trkpt>
      <trkpt lat="59.5337662404" lon="18.1268926574">
        <ele>70.6</ele>
        <time>2012-09-16T11:04:03Z</time>
      </trkpt>
      <trkpt lat="59.5338542503" lon="18.1277922029">
        <ele>70.2</ele>
        <time>2012-09-16T11:04:07Z</time>
      </trkpt>
      <trkpt lat="59.5338767138" lon="18.1280184304">
        <ele>69.8</ele>
        <time>2012-09-16T11:04:08Z</time>
      </trkpt>
      <trkpt lat="59.5338966627" lon="18.1282496032">
        <ele>69.4</ele>
        <time>2012-09-16T11:04:09Z</time>
      </trkpt>
      <trkpt lat="59.5339242392" lon="18.1284790158">
        <ele>68.6</ele>
        <time>2012-09-16T11:04:10Z</time>
      </trkpt>
      <trkpt lat="59.5339513965" lon="18.1287149662">
        <ele>68</ele>
        <time>2012-09-16T11:04:11Z</time>
      </trkpt>
      <trkpt lat="59.5339749497" lon="18.1289535989">
        <ele>66.8</ele>
        <time>2012-09-16T11:04:12Z</time>
      </trkpt>
      <trkpt lat="59.5339950662" lon="18.1291884598">
        <ele>66.2</ele>
        <time>2012-09-16T11:04:13Z</time>
      </trkpt>
      <trkpt lat="59.5340201281" lon="18.1294312834">
        <ele>65.6</ele>
        <time>2012-09-16T11:04:14Z</time>
      </trkpt>
      <trkpt lat="59.5340435974" lon="18.1296712572">
        <ele>64.8</ele>
        <time>2012-09-16T11:04:15Z</time>
      </trkpt>
      <trkpt lat="59.5340668153" lon="18.1299041902">
        <ele>64</ele>
        <time>2012-09-16T11:04:16Z</time>
      </trkpt>
      <trkpt lat="59.5340912066" lon="18.1301385481">
        <ele>63.2</ele>
        <time>2012-09-16T11:04:17Z</time>
      </trkpt>
      <trkpt lat="59.5341151789" lon="18.1303747501">
        <ele>62.2</ele>
        <time>2012-09-16T11:04:18Z</time>
      </trkpt>
      <trkpt lat="59.5341393187" lon="18.130612796">
        <ele>61.4</ele>
        <time>2012-09-16T11:04:19Z</time>
      </trkpt>
      <trkpt lat="59.5341647997" lon="18.1308538595">
        <ele>60.6</ele>
        <time>2012-09-16T11:04:20Z</time>
      </trkpt>
      <trkpt lat="59.534190616" lon="18.1310905643">
        <ele>59.8</ele>
        <time>2012-09-16T11:04:21Z</time>
      </trkpt>
      <trkpt lat="59.5342162646" lon="18.1313432786">
        <ele>59</ele>
        <time>2012-09-16T11:04:22Z</time>
      </trkpt>
      <trkpt lat="59.5342394824" lon="18.1315842583">
        <ele>58.6</ele>
        <time>2012-09-16T11:04:23Z</time>
      </trkpt>
      <trkpt lat="59.5342597666" lon="18.1318248188">
        <ele>58.2</ele>
        <time>2012-09-16T11:04:24Z</time>
      </trkpt>
      <trkpt lat="59.534286924" lon="18.1320802991">
        <ele>57.6</ele>
        <time>2012-09-16T11:04:25Z</time>
      </trkpt>
      <trkpt lat="59.5343158415" lon="18.1323455862">
        <ele>57.2</ele>
        <time>2012-09-16T11:04:26Z</time>
      </trkpt>
      <trkpt lat="59.5343455973" lon="18.1326209316">
        <ele>56.8</ele>
        <time>2012-09-16T11:04:27Z</time>
      </trkpt>
      <trkpt lat="59.5343758559" lon="18.1328940139">
        <ele>56.4</ele>
        <time>2012-09-16T11:04:28Z</time>
      </trkpt>
      <trkpt lat="59.534410557" lon="18.1331745561">
        <ele>55.8</ele>
        <time>2012-09-16T11:04:29Z</time>
      </trkpt>
      <trkpt lat="59.5344463477" lon="18.1334428608">
        <ele>55.4</ele>
        <time>2012-09-16T11:04:30Z</time>
      </trkpt>
      <trkpt lat="59.5344823061" lon="18.1337027835">
        <ele>54.8</ele>
        <time>2012-09-16T11:04:31Z</time>
      </trkpt>
      <trkpt lat="59.5345134867" lon="18.1339577609">
        <ele>54</ele>
        <time>2012-09-16T11:04:32Z</time>
      </trkpt>
      <trkpt lat="59.5345468467" lon="18.134203602">
        <ele>53.2</ele>
        <time>2012-09-16T11:04:33Z</time>
      </trkpt>
      <trkpt lat="59.5345789494" lon="18.1344458389">
        <ele>52.4</ele>
        <time>2012-09-16T11:04:34Z</time>
      </trkpt>
      <trkpt lat="59.534609208" lon="18.1346884949">
        <ele>51.6</ele>
        <time>2012-09-16T11:04:35Z</time>
      </trkpt>
      <trkpt lat="59.5346384609" lon="18.1349254512">
        <ele>50</ele>
        <time>2012-09-16T11:04:36Z</time>
      </trkpt>
      <trkpt lat="59.5347813723" lon="18.1360574268">
        <ele>50</ele>
        <time>2012-09-16T11:04:41Z</time>
      </trkpt>
      <trkpt lat="59.5349059273" lon="18.1370732293">
        <ele>50</ele>
        <time>2012-09-16T11:04:46Z</time>
      </trkpt>
      <trkpt lat="59.5349318274" lon="18.137275736">
        <ele>50</ele>
        <time>2012-09-16T11:04:47Z</time>
      </trkpt>
      <trkpt lat="59.5349759162" lon="18.137639259">
        <ele>49.6</ele>
        <time>2012-09-16T11:04:49Z</time>
      </trkpt>
      <trkpt lat="59.5349987149" lon="18.1378215653">
        <ele>49.2</ele>
        <time>2012-09-16T11:04:50Z</time>
      </trkpt>
      <trkpt lat="59.5350215975" lon="18.1380150196">
        <ele>48.8</ele>
        <time>2012-09-16T11:04:51Z</time>
      </trkpt>
      <trkpt lat="59.5350457374" lon="18.1381943922">
        <ele>48.2</ele>
        <time>2012-09-16T11:04:52Z</time>
      </trkpt>
      <trkpt lat="59.5350702125" lon="18.1383715018">
        <ele>47.8</ele>
        <time>2012-09-16T11:04:53Z</time>
      </trkpt>
      <trkpt lat="59.5351155586" lon="18.1387334322">
        <ele>47.8</ele>
        <time>2012-09-16T11:04:55Z</time>
      </trkpt>
      <trkpt lat="59.5352506748" lon="18.1398202294">
        <ele>47.8</ele>
        <time>2012-09-16T11:05:01Z</time>
      </trkpt>
      <trkpt lat="59.5353889762" lon="18.1408403066">
        <ele>47.8</ele>
        <time>2012-09-16T11:05:07Z</time>
      </trkpt>
      <trkpt lat="59.5354088413" lon="18.1410106268">
        <ele>47.8</ele>
        <time>2012-09-16T11:05:08Z</time>
      </trkpt>
      <trkpt lat="59.5355038082" lon="18.1419606314">
        <ele>47.8</ele>
        <time>2012-09-16T11:05:14Z</time>
      </trkpt>
      <trkpt lat="59.5355868729" lon="18.1430846441">
        <ele>47.8</ele>
        <time>2012-09-16T11:05:21Z</time>
      </trkpt>
      <trkpt lat="59.5355968473" lon="18.1432541262">
        <ele>48.4</ele>
        <time>2012-09-16T11:05:22Z</time>
      </trkpt>
      <trkpt lat="59.5356051454" lon="18.1434137175">
        <ele>48.8</ele>
        <time>2012-09-16T11:05:23Z</time>
      </trkpt>
      <trkpt lat="59.535615036" lon="18.1435729736">
        <ele>49.8</ele>
        <time>2012-09-16T11:05:24Z</time>
      </trkpt>
      <trkpt lat="59.5356287824" lon="18.1437234287">
        <ele>50.2</ele>
        <time>2012-09-16T11:05:25Z</time>
      </trkpt>
      <trkpt lat="59.5356800796" lon="18.1444847567">
        <ele>50.2</ele>
        <time>2012-09-16T11:05:30Z</time>
      </trkpt>
      <trkpt lat="59.5357580313" lon="18.1456578874">
        <ele>50.2</ele>
        <time>2012-09-16T11:05:38Z</time>
      </trkpt>
      <trkpt lat="59.535796588" lon="18.1462317961">
        <ele>50.6</ele>
        <time>2012-09-16T11:05:42Z</time>
      </trkpt>
      <trkpt lat="59.5358042155" lon="18.1463781441">
        <ele>51.2</ele>
        <time>2012-09-16T11:05:43Z</time>
      </trkpt>
      <trkpt lat="59.53581419" lon="18.1465295212">
        <ele>51.6</ele>
        <time>2012-09-16T11:05:44Z</time>
      </trkpt>
      <trkpt lat="59.535824835" lon="18.1466758692">
        <ele>52</ele>
        <time>2012-09-16T11:05:45Z</time>
      </trkpt>
      <trkpt lat="59.5358317082" lon="18.1468307667">
        <ele>52.4</ele>
        <time>2012-09-16T11:05:46Z</time>
      </trkpt>
      <trkpt lat="59.5358966679" lon="18.1478345831">
        <ele>52.4</ele>
        <time>2012-09-16T11:05:53Z</time>
      </trkpt>
      <trkpt lat="59.5359643098" lon="18.1488751121">
        <ele>52.4</ele>
        <time>2012-09-16T11:06:00Z</time>
      </trkpt>
      <trkpt lat="59.5359919701" lon="18.149307702">
        <ele>52.8</ele>
        <time>2012-09-16T11:06:03Z</time>
      </trkpt>
      <trkpt lat="59.5359989271" lon="18.1494504457">
        <ele>53.2</ele>
        <time>2012-09-16T11:06:04Z</time>
      </trkpt>
      <trkpt lat="59.5360105779" lon="18.1495915969">
        <ele>53.6</ele>
        <time>2012-09-16T11:06:05Z</time>
      </trkpt>
      <trkpt lat="59.5360226478" lon="18.1497398727">
        <ele>54</ele>
        <time>2012-09-16T11:06:06Z</time>
      </trkpt>
      <trkpt lat="59.5360312812" lon="18.1498920042">
        <ele>54.4</ele>
        <time>2012-09-16T11:06:07Z</time>
      </trkpt>
      <trkpt lat="59.5360882781" lon="18.1507823296">
        <ele>55</ele>
        <time>2012-09-16T11:06:13Z</time>
      </trkpt>
      <trkpt lat="59.5360982526" lon="18.1509282585">
        <ele>55.8</ele>
        <time>2012-09-16T11:06:14Z</time>
      </trkpt>
      <trkpt lat="59.536109149" lon="18.1510779593">
        <ele>56.2</ele>
        <time>2012-09-16T11:06:15Z</time>
      </trkpt>
      <trkpt lat="59.536123063" lon="18.1512347008">
        <ele>56.6</ele>
        <time>2012-09-16T11:06:16Z</time>
      </trkpt>
      <trkpt lat="59.5361701693" lon="18.1521077595">
        <ele>56.6</ele>
        <time>2012-09-16T11:06:22Z</time>
      </trkpt>
      <trkpt lat="59.5361976619" lon="18.1525623938">
        <ele>56.6</ele>
        <time>2012-09-16T11:06:25Z</time>
      </trkpt>
      <trkpt lat="59.5362223047" lon="18.1528731108">
        <ele>56.6</ele>
        <time>2012-09-16T11:06:27Z</time>
      </trkpt>
      <trkpt lat="59.5362851689" lon="18.1539659429">
        <ele>56.6</ele>
        <time>2012-09-16T11:06:34Z</time>
      </trkpt>
      <trkpt lat="59.5363057046" lon="18.1542859639">
        <ele>56.2</ele>
        <time>2012-09-16T11:06:36Z</time>
      </trkpt>
      <trkpt lat="59.5363200376" lon="18.1544490756">
        <ele>55.6</ele>
        <time>2012-09-16T11:06:37Z</time>
      </trkpt>
      <trkpt lat="59.5363284195" lon="18.1546109301">
        <ele>54.6</ele>
        <time>2012-09-16T11:06:38Z</time>
      </trkpt>
      <trkpt lat="59.5363405733" lon="18.1547773108">
        <ele>54.2</ele>
        <time>2012-09-16T11:06:39Z</time>
      </trkpt>
      <trkpt lat="59.5363588458" lon="18.1550861">
        <ele>54.2</ele>
        <time>2012-09-16T11:06:41Z</time>
      </trkpt>
      <trkpt lat="59.5363669763" lon="18.155236136">
        <ele>54.6</ele>
        <time>2012-09-16T11:06:42Z</time>
      </trkpt>
      <trkpt lat="59.5363748553" lon="18.1553868426">
        <ele>55</ele>
        <time>2012-09-16T11:06:43Z</time>
      </trkpt>
      <trkpt lat="59.5363844106" lon="18.1555371301">
        <ele>55.4</ele>
        <time>2012-09-16T11:06:44Z</time>
      </trkpt>
      <trkpt lat="59.5363952233" lon="18.1556833942">
        <ele>55.8</ele>
        <time>2012-09-16T11:06:45Z</time>
      </trkpt>
      <trkpt lat="59.5364016774" lon="18.1558299098">
        <ele>56.2</ele>
        <time>2012-09-16T11:06:46Z</time>
      </trkpt>
      <trkpt lat="59.5364347859" lon="18.1562840412">
        <ele>56.2</ele>
        <time>2012-09-16T11:06:49Z</time>
      </trkpt>
      <trkpt lat="59.5365010867" lon="18.1573617021">
        <ele>56.2</ele>
        <time>2012-09-16T11:06:56Z</time>
      </trkpt>
      <trkpt lat="59.5365787031" lon="18.1584317354">
        <ele>56.2</ele>
        <time>2012-09-16T11:07:02Z</time>
      </trkpt>
      <trkpt lat="59.5366590017" lon="18.1596795489">
        <ele>56.2</ele>
        <time>2012-09-16T11:07:08Z</time>
      </trkpt>
      <trkpt lat="59.5366998215" lon="18.1603570578">
        <ele>55.8</ele>
        <time>2012-09-16T11:07:11Z</time>
      </trkpt>
      <trkpt lat="59.5367142384" lon="18.1605804355">
        <ele>55.4</ele>
        <time>2012-09-16T11:07:12Z</time>
      </trkpt>
      <trkpt lat="59.5367227879" lon="18.1608007118">
        <ele>55</ele>
        <time>2012-09-16T11:07:13Z</time>
      </trkpt>
      <trkpt lat="59.5367281524" lon="18.1610215749">
        <ele>54.4</ele>
        <time>2012-09-16T11:07:14Z</time>
      </trkpt>
      <trkpt lat="59.5367365343" lon="18.1612409292">
        <ele>53.6</ele>
        <time>2012-09-16T11:07:15Z</time>
      </trkpt>
      <trkpt lat="59.536738965" lon="18.1614527398">
        <ele>52.8</ele>
        <time>2012-09-16T11:07:16Z</time>
      </trkpt>
      <trkpt lat="59.5367391326" lon="18.1616736029">
        <ele>52</ele>
        <time>2012-09-16T11:07:17Z</time>
      </trkpt>
      <trkpt lat="59.5367376239" lon="18.1618722539">
        <ele>51.2</ele>
        <time>2012-09-16T11:07:18Z</time>
      </trkpt>
      <trkpt lat="59.5367349417" lon="18.1620701506">
        <ele>50.4</ele>
        <time>2012-09-16T11:07:19Z</time>
      </trkpt>
      <trkpt lat="59.5367299964" lon="18.1622622637">
        <ele>49.6</ele>
        <time>2012-09-16T11:07:20Z</time>
      </trkpt>
      <trkpt lat="59.5367215307" lon="18.1626402874">
        <ele>49.6</ele>
        <time>2012-09-16T11:07:22Z</time>
      </trkpt>
      <trkpt lat="59.5366519609" lon="18.1637560021">
        <ele>49.6</ele>
        <time>2012-09-16T11:07:28Z</time>
      </trkpt>
      <trkpt lat="59.5366352809" lon="18.1639352909">
        <ele>49.6</ele>
        <time>2012-09-16T11:07:29Z</time>
      </trkpt>
      <trkpt lat="59.5365182696" lon="18.1649603973">
        <ele>49.6</ele>
        <time>2012-09-16T11:07:35Z</time>
      </trkpt>
      <trkpt lat="59.5364763601" lon="18.165280083">
        <ele>49.6</ele>
        <time>2012-09-16T11:07:37Z</time>
      </trkpt>
      <trkpt lat="59.5363307665" lon="18.1663686403">
        <ele>49.6</ele>
        <time>2012-09-16T11:07:44Z</time>
      </trkpt>
      <trkpt lat="59.5362124141" lon="18.1673261048">
        <ele>49.6</ele>
        <time>2012-09-16T11:07:51Z</time>
      </trkpt>
      <trkpt lat="59.5362021043" lon="18.1674567786">
        <ele>50</ele>
        <time>2012-09-16T11:07:52Z</time>
      </trkpt>
      <trkpt lat="59.5361938901" lon="18.1675865304">
        <ele>50.6</ele>
        <time>2012-09-16T11:07:53Z</time>
      </trkpt>
      <trkpt lat="59.5361849214" lon="18.1677086547">
        <ele>51</ele>
        <time>2012-09-16T11:07:54Z</time>
      </trkpt>
      <trkpt lat="59.5361815687" lon="18.1678390771">
        <ele>51.4</ele>
        <time>2012-09-16T11:07:55Z</time>
      </trkpt>
      <trkpt lat="59.5361801437" lon="18.1679628777">
        <ele>52</ele>
        <time>2012-09-16T11:07:56Z</time>
      </trkpt>
      <trkpt lat="59.5361774615" lon="18.1680894444">
        <ele>52.4</ele>
        <time>2012-09-16T11:07:57Z</time>
      </trkpt>
      <trkpt lat="59.5361824068" lon="18.1682144185">
        <ele>53</ele>
        <time>2012-09-16T11:07:58Z</time>
      </trkpt>
      <trkpt lat="59.5361803114" lon="18.1683338606">
        <ele>53.6</ele>
        <time>2012-09-16T11:07:59Z</time>
      </trkpt>
      <trkpt lat="59.5361855082" lon="18.1684393049">
        <ele>54</ele>
        <time>2012-09-16T11:08:00Z</time>
      </trkpt>
      <trkpt lat="59.5361857596" lon="18.1685567353">
        <ele>54.6</ele>
        <time>2012-09-16T11:08:01Z</time>
      </trkpt>
      <trkpt lat="59.536194393" lon="18.1687872376">
        <ele>54.6</ele>
        <time>2012-09-16T11:08:03Z</time>
      </trkpt>
      <trkpt lat="59.5362110729" lon="18.1690172369">
        <ele>55</ele>
        <time>2012-09-16T11:08:05Z</time>
      </trkpt>
      <trkpt lat="59.5362201254" lon="18.1691458991">
        <ele>55.6</ele>
        <time>2012-09-16T11:08:06Z</time>
      </trkpt>
      <trkpt lat="59.5362368054" lon="18.1692665984">
        <ele>56</ele>
        <time>2012-09-16T11:08:07Z</time>
      </trkpt>
      <trkpt lat="59.5362482886" lon="18.1693974399">
        <ele>56.4</ele>
        <time>2012-09-16T11:08:08Z</time>
      </trkpt>
      <trkpt lat="59.5362635436" lon="18.1695213244">
        <ele>56.8</ele>
        <time>2012-09-16T11:08:09Z</time>
      </trkpt>
      <trkpt lat="59.5363080515" lon="18.1698647308">
        <ele>57.2</ele>
        <time>2012-09-16T11:08:12Z</time>
      </trkpt>
      <trkpt lat="59.5363173554" lon="18.169963302">
        <ele>57.6</ele>
        <time>2012-09-16T11:08:13Z</time>
      </trkpt>
      <trkpt lat="59.5363259888" lon="18.170079978">
        <ele>58</ele>
        <time>2012-09-16T11:08:14Z</time>
      </trkpt>
      <trkpt lat="59.5363449319" lon="18.1701984981">
        <ele>58.4</ele>
        <time>2012-09-16T11:08:15Z</time>
      </trkpt>
      <trkpt lat="59.5363590135" lon="18.1703200356">
        <ele>58.8</ele>
        <time>2012-09-16T11:08:16Z</time>
      </trkpt>
      <trkpt lat="59.5363792977" lon="18.1704315987">
        <ele>58.8</ele>
        <time>2012-09-16T11:08:17Z</time>
      </trkpt>
      <trkpt lat="59.5364181897" lon="18.1706629392">
        <ele>58.8</ele>
        <time>2012-09-16T11:08:19Z</time>
      </trkpt>
      <trkpt lat="59.5364505438" lon="18.1709476723">
        <ele>58.8</ele>
        <time>2012-09-16T11:08:23Z</time>
      </trkpt>
      <trkpt lat="59.5364533937" lon="18.1709756679">
        <ele>58.8</ele>
        <time>2012-09-16T11:08:26Z</time>
      </trkpt>
      <trkpt lat="59.5364941297" lon="18.1710699642">
        <ele>58.8</ele>
        <time>2012-09-16T11:08:28Z</time>
      </trkpt>
      <trkpt lat="59.5365398949" lon="18.1710920086">
        <ele>59.2</ele>
        <time>2012-09-16T11:08:30Z</time>
      </trkpt>
      <trkpt lat="59.5365714946" lon="18.1711122928">
        <ele>59.6</ele>
        <time>2012-09-16T11:08:31Z</time>
      </trkpt>
      <trkpt lat="59.5366108058" lon="18.1711086048">
        <ele>60</ele>
        <time>2012-09-16T11:08:32Z</time>
      </trkpt>
      <trkpt lat="59.5366605104" lon="18.1710985465">
        <ele>60.6</ele>
        <time>2012-09-16T11:08:33Z</time>
      </trkpt>
      <trkpt lat="59.5367108018" lon="18.1710937688">
        <ele>61</ele>
        <time>2012-09-16T11:08:34Z</time>
      </trkpt>
      <trkpt lat="59.5370102033" lon="18.1710548768">
        <ele>61</ele>
        <time>2012-09-16T11:08:40Z</time>
      </trkpt>
      <trkpt lat="59.5372970319" lon="18.1710631749">
        <ele>61</ele>
        <time>2012-09-16T11:08:46Z</time>
      </trkpt>
      <trkpt lat="59.5374075892" lon="18.1710477522">
        <ele>61.4</ele>
        <time>2012-09-16T11:08:48Z</time>
      </trkpt>
      <trkpt lat="59.5374656757" lon="18.1710391188">
        <ele>61.8</ele>
        <time>2012-09-16T11:08:49Z</time>
      </trkpt>
      <trkpt lat="59.5375181464" lon="18.1710314075">
        <ele>62.2</ele>
        <time>2012-09-16T11:08:50Z</time>
      </trkpt>
      <trkpt lat="59.5375741375" lon="18.1710217683">
        <ele>62.6</ele>
        <time>2012-09-16T11:08:51Z</time>
      </trkpt>
      <trkpt lat="59.5376319726" lon="18.1710091955">
        <ele>63</ele>
        <time>2012-09-16T11:08:52Z</time>
      </trkpt>
      <trkpt lat="59.5380237426" lon="18.1709555513">
        <ele>63</ele>
        <time>2012-09-16T11:08:58Z</time>
      </trkpt>
      <trkpt lat="59.5383192046" lon="18.1709338422">
        <ele>62.6</ele>
        <time>2012-09-16T11:09:02Z</time>
      </trkpt>
      <trkpt lat="59.5384041133" lon="18.1709355186">
        <ele>62.2</ele>
        <time>2012-09-16T11:09:03Z</time>
      </trkpt>
      <trkpt lat="59.5384889381" lon="18.1709305732">
        <ele>61.6</ele>
        <time>2012-09-16T11:09:04Z</time>
      </trkpt>
      <trkpt lat="59.5385716674" lon="18.1709160725">
        <ele>60.8</ele>
        <time>2012-09-16T11:09:05Z</time>
      </trkpt>
      <trkpt lat="59.5391599092" lon="18.1708118017">
        <ele>60.8</ele>
        <time>2012-09-16T11:09:12Z</time>
      </trkpt>
      <trkpt lat="59.5395738074" lon="18.1706580777">
        <ele>61.2</ele>
        <time>2012-09-16T11:09:17Z</time>
      </trkpt>
      <trkpt lat="59.5396621526" lon="18.1706336863">
        <ele>61.6</ele>
        <time>2012-09-16T11:09:18Z</time>
      </trkpt>
      <trkpt lat="59.5397483186" lon="18.170610217">
        <ele>62</ele>
        <time>2012-09-16T11:09:19Z</time>
      </trkpt>
      <trkpt lat="59.5398325567" lon="18.1705895975">
        <ele>62.4</ele>
        <time>2012-09-16T11:09:20Z</time>
      </trkpt>
      <trkpt lat="59.5399245061" lon="18.170566212">
        <ele>62</ele>
        <time>2012-09-16T11:09:21Z</time>
      </trkpt>
      <trkpt lat="59.5400177128" lon="18.1705489453">
        <ele>61.6</ele>
        <time>2012-09-16T11:09:22Z</time>
      </trkpt>
      <trkpt lat="59.5401128474" lon="18.1705337741">
        <ele>61.2</ele>
        <time>2012-09-16T11:09:23Z</time>
      </trkpt>
      <trkpt lat="59.5402055512" lon="18.1705152501">
        <ele>60.8</ele>
        <time>2012-09-16T11:09:24Z</time>
      </trkpt>
      <trkpt lat="59.5402997638" lon="18.1705010009">
        <ele>60.4</ele>
        <time>2012-09-16T11:09:25Z</time>
      </trkpt>
      <trkpt lat="59.5404002627" lon="18.1705049403">
        <ele>60.4</ele>
        <time>2012-09-16T11:09:26Z</time>
      </trkpt>
      <trkpt lat="59.5405728461" lon="18.1705384679">
        <ele>59.8</ele>
        <time>2012-09-16T11:09:28Z</time>
      </trkpt>
      <trkpt lat="59.5406570003" lon="18.1705580816">
        <ele>59.4</ele>
        <time>2012-09-16T11:09:29Z</time>
      </trkpt>
      <trkpt lat="59.5407352035" lon="18.1705869992">
        <ele>58.6</ele>
        <time>2012-09-16T11:09:30Z</time>
      </trkpt>
      <trkpt lat="59.5408133228" lon="18.1706257235">
        <ele>58.2</ele>
        <time>2012-09-16T11:09:31Z</time>
      </trkpt>
      <trkpt lat="59.5410839743" lon="18.1707794476">
        <ele>58.2</ele>
        <time>2012-09-16T11:09:35Z</time>
      </trkpt>
      <trkpt lat="59.5414050849" lon="18.1710599059">
        <ele>58.2</ele>
        <time>2012-09-16T11:09:40Z</time>
      </trkpt>
      <trkpt lat="59.5417145447" lon="18.1713842855">
        <ele>58.2</ele>
        <time>2012-09-16T11:09:45Z</time>
      </trkpt>
      <trkpt lat="59.541777828" lon="18.1714415339">
        <ele>58.6</ele>
        <time>2012-09-16T11:09:46Z</time>
      </trkpt>
      <trkpt lat="59.5418385968" lon="18.1715049848">
        <ele>59</ele>
        <time>2012-09-16T11:09:47Z</time>
      </trkpt>
      <trkpt lat="59.541902886" lon="18.1715758957">
        <ele>59.6</ele>
        <time>2012-09-16T11:09:48Z</time>
      </trkpt>
      <trkpt lat="59.5419644091" lon="18.1716508299">
        <ele>60</ele>
        <time>2012-09-16T11:09:49Z</time>
      </trkpt>
      <trkpt lat="59.5420239206" lon="18.1717241715">
        <ele>60.4</ele>
        <time>2012-09-16T11:09:50Z</time>
      </trkpt>
      <trkpt lat="59.5421412672" lon="18.1718765545">
        <ele>60.4</ele>
        <time>2012-09-16T11:09:52Z</time>
      </trkpt>
      <trkpt lat="59.5425862623" lon="18.172477872">
        <ele>60.8</ele>
        <time>2012-09-16T11:09:59Z</time>
      </trkpt>
      <trkpt lat="59.5426503838" lon="18.1725625292">
        <ele>61.2</ele>
        <time>2012-09-16T11:10:00Z</time>
      </trkpt>
      <trkpt lat="59.5427131642" lon="18.172657999">
        <ele>61.6</ele>
        <time>2012-09-16T11:10:01Z</time>
      </trkpt>
      <trkpt lat="59.5427792974" lon="18.1727605096">
        <ele>62.2</ele>
        <time>2012-09-16T11:10:02Z</time>
      </trkpt>
      <trkpt lat="59.5428386413" lon="18.1728604219">
        <ele>62.6</ele>
        <time>2012-09-16T11:10:03Z</time>
      </trkpt>
      <trkpt lat="59.5430002443" lon="18.1731923451">
        <ele>62.6</ele>
        <time>2012-09-16T11:10:06Z</time>
      </trkpt>
      <trkpt lat="59.5432575686" lon="18.1739804114">
        <ele>62.6</ele>
        <time>2012-09-16T11:10:12Z</time>
      </trkpt>
      <trkpt lat="59.5434143102" lon="18.1749263088">
        <ele>62.6</ele>
        <time>2012-09-16T11:10:18Z</time>
      </trkpt>
      <trkpt lat="59.5434596562" lon="18.1760147823">
        <ele>62.6</ele>
        <time>2012-09-16T11:10:24Z</time>
      </trkpt>
      <trkpt lat="59.5434731511" lon="18.176381239">
        <ele>62</ele>
        <time>2012-09-16T11:10:26Z</time>
      </trkpt>
      <trkpt lat="59.5434812815" lon="18.1765605278">
        <ele>61.6</ele>
        <time>2012-09-16T11:10:27Z</time>
      </trkpt>
      <trkpt lat="59.5434865621" lon="18.1767393976">
        <ele>61.2</ele>
        <time>2012-09-16T11:10:28Z</time>
      </trkpt>
      <trkpt lat="59.5434908369" lon="18.1769092149">
        <ele>60.8</ele>
        <time>2012-09-16T11:10:29Z</time>
      </trkpt>
      <trkpt lat="59.5435008114" lon="18.1770858215">
        <ele>60.4</ele>
        <time>2012-09-16T11:10:30Z</time>
      </trkpt>
      <trkpt lat="59.5435162341" lon="18.1774248694">
        <ele>60.4</ele>
        <time>2012-09-16T11:10:32Z</time>
      </trkpt>
      <trkpt lat="59.5435568025" lon="18.1785096549">
        <ele>60.4</ele>
        <time>2012-09-16T11:10:38Z</time>
      </trkpt>
      <trkpt lat="59.5435804394" lon="18.1790566576">
        <ele>59.8</ele>
        <time>2012-09-16T11:10:41Z</time>
      </trkpt>
      <trkpt lat="59.5435915035" lon="18.1792494413">
        <ele>59.4</ele>
        <time>2012-09-16T11:10:42Z</time>
      </trkpt>
      <trkpt lat="59.5436024838" lon="18.17942697">
        <ele>59</ele>
        <time>2012-09-16T11:10:43Z</time>
      </trkpt>
      <trkpt lat="59.5436118716" lon="18.1795989666">
        <ele>58.2</ele>
        <time>2012-09-16T11:10:44Z</time>
      </trkpt>
      <trkpt lat="59.5436396156" lon="18.1803085782">
        <ele>58.2</ele>
        <time>2012-09-16T11:10:48Z</time>
      </trkpt>
      <trkpt lat="59.5436886498" lon="18.1813723252">
        <ele>58.2</ele>
        <time>2012-09-16T11:10:54Z</time>
      </trkpt>
      <trkpt lat="59.5437225965" lon="18.1820820206">
        <ele>58.2</ele>
        <time>2012-09-16T11:10:58Z</time>
      </trkpt>
      <trkpt lat="59.5437706247" lon="18.1831699913">
        <ele>58.2</ele>
        <time>2012-09-16T11:11:04Z</time>
      </trkpt>
      <trkpt lat="59.5437919986" lon="18.1835239589">
        <ele>58.2</ele>
        <time>2012-09-16T11:11:06Z</time>
      </trkpt>
      <trkpt lat="59.5438359197" lon="18.1845856103">
        <ele>58.2</ele>
        <time>2012-09-16T11:11:12Z</time>
      </trkpt>
      <trkpt lat="59.5438417871" lon="18.1847574393">
        <ele>58.2</ele>
        <time>2012-09-16T11:11:13Z</time>
      </trkpt>
      <trkpt lat="59.5438933358" lon="18.1859227748">
        <ele>58.2</ele>
        <time>2012-09-16T11:11:20Z</time>
      </trkpt>
      <trkpt lat="59.5439074173" lon="18.1862546143">
        <ele>58.2</ele>
        <time>2012-09-16T11:11:22Z</time>
      </trkpt>
      <trkpt lat="59.5439524281" lon="18.187397654">
        <ele>58.2</ele>
        <time>2012-09-16T11:11:29Z</time>
      </trkpt>
      <trkpt lat="59.5440096765" lon="18.1885741375">
        <ele>58.2</ele>
        <time>2012-09-16T11:11:36Z</time>
      </trkpt>
      <trkpt lat="59.5440202377" lon="18.1887388418">
        <ele>58.2</ele>
        <time>2012-09-16T11:11:37Z</time>
      </trkpt>
      <trkpt lat="59.5440699424" lon="18.1898393853">
        <ele>58.2</ele>
        <time>2012-09-16T11:11:44Z</time>
      </trkpt>
      <trkpt lat="59.5441120195" lon="18.1908368314">
        <ele>57.8</ele>
        <time>2012-09-16T11:11:50Z</time>
      </trkpt>
      <trkpt lat="59.5441204014" lon="18.1910072354">
        <ele>57.2</ele>
        <time>2012-09-16T11:11:51Z</time>
      </trkpt>
      <trkpt lat="59.5441271069" lon="18.1911765498">
        <ele>56.8</ele>
        <time>2012-09-16T11:11:52Z</time>
      </trkpt>
      <trkpt lat="59.5441334772" lon="18.1913515638">
        <ele>56.4</ele>
        <time>2012-09-16T11:11:53Z</time>
      </trkpt>
      <trkpt lat="59.5441347345" lon="18.191522387">
        <ele>56</ele>
        <time>2012-09-16T11:11:54Z</time>
      </trkpt>
      <trkpt lat="59.5441681783" lon="18.19218506">
        <ele>56</ele>
        <time>2012-09-16T11:11:58Z</time>
      </trkpt>
      <trkpt lat="59.5442230797" lon="18.1932562668">
        <ele>56</ele>
        <time>2012-09-16T11:12:05Z</time>
      </trkpt>
      <trkpt lat="59.5442387539" lon="18.1935291815">
        <ele>56</ele>
        <time>2012-09-16T11:12:07Z</time>
      </trkpt>
      <trkpt lat="59.5442447888" lon="18.1936698297">
        <ele>56.4</ele>
        <time>2012-09-16T11:12:08Z</time>
      </trkpt>
      <trkpt lat="59.5442521649" lon="18.1938089693">
        <ele>57</ele>
        <time>2012-09-16T11:12:09Z</time>
      </trkpt>
      <trkpt lat="59.544261385" lon="18.1939502881">
        <ele>57.4</ele>
        <time>2012-09-16T11:12:10Z</time>
      </trkpt>
      <trkpt lat="59.5442702698" lon="18.1940879189">
        <ele>57.8</ele>
        <time>2012-09-16T11:12:11Z</time>
      </trkpt>
      <trkpt lat="59.5442849381" lon="18.1942272261">
        <ele>58.2</ele>
        <time>2012-09-16T11:12:12Z</time>
      </trkpt>
      <trkpt lat="59.5443026239" lon="18.1943598278">
        <ele>58.8</ele>
        <time>2012-09-16T11:12:13Z</time>
      </trkpt>
      <trkpt lat="59.5443269314" lon="18.194492597">
        <ele>59.2</ele>
        <time>2012-09-16T11:12:14Z</time>
      </trkpt>
      <trkpt lat="59.544353083" lon="18.1946265398">
        <ele>59.6</ele>
        <time>2012-09-16T11:12:15Z</time>
      </trkpt>
      <trkpt lat="59.5443787316" lon="18.1947664337">
        <ele>60</ele>
        <time>2012-09-16T11:12:16Z</time>
      </trkpt>
      <trkpt lat="59.5444066433" lon="18.1949095128">
        <ele>60.4</ele>
        <time>2012-09-16T11:12:17Z</time>
      </trkpt>
      <trkpt lat="59.5445917995" lon="18.1955759576">
        <ele>60.4</ele>
        <time>2012-09-16T11:12:22Z</time>
      </trkpt>
      <trkpt lat="59.5446677395" lon="18.1958062922">
        <ele>60.4</ele>
        <time>2012-09-16T11:12:24Z</time>
      </trkpt>
      <trkpt lat="59.5446584356" lon="18.1960517981">
        <ele>60.4</ele>
        <time>2012-09-16T11:12:26Z</time>
      </trkpt>
      <trkpt lat="59.5445586072" lon="18.1961857408">
        <ele>60.4</ele>
        <time>2012-09-16T11:12:28Z</time>
      </trkpt>
      <trkpt lat="59.5444964973" lon="18.1962455876">
        <ele>60.4</ele>
        <time>2012-09-16T11:12:29Z</time>
      </trkpt>
      <trkpt lat="59.5444493072" lon="18.1963140677">
        <ele>60.8</ele>
        <time>2012-09-16T11:12:30Z</time>
      </trkpt>
      <trkpt lat="59.5444098284" lon="18.196384811">
        <ele>61.4</ele>
        <time>2012-09-16T11:12:31Z</time>
      </trkpt>
      <trkpt lat="59.5443747083" lon="18.1964529558">
        <ele>61.8</ele>
        <time>2012-09-16T11:12:32Z</time>
      </trkpt>
      <trkpt lat="59.5443455393" lon="18.1965204301">
        <ele>62.4</ele>
        <time>2012-09-16T11:12:33Z</time>
      </trkpt>
      <trkpt lat="59.5443156997" lon="18.19658254">
        <ele>62.8</ele>
        <time>2012-09-16T11:12:34Z</time>
      </trkpt>
      <trkpt lat="59.5442899673" lon="18.1966495114">
        <ele>63.4</ele>
        <time>2012-09-16T11:12:35Z</time>
      </trkpt>
      <trkpt lat="59.5442657436" lon="18.1967095258">
        <ele>64</ele>
        <time>2012-09-16T11:12:36Z</time>
      </trkpt>
      <trkpt lat="59.5442426095" lon="18.196773312">
        <ele>64.4</ele>
        <time>2012-09-16T11:12:37Z</time>
      </trkpt>
      <trkpt lat="59.5442223253" lon="18.1968364277">
        <ele>65</ele>
        <time>2012-09-16T11:12:38Z</time>
      </trkpt>
      <trkpt lat="59.5441826789" lon="18.1969684427">
        <ele>65</ele>
        <time>2012-09-16T11:12:40Z</time>
      </trkpt>
      <trkpt lat="59.544161808" lon="18.1970408623">
        <ele>65.4</ele>
        <time>2012-09-16T11:12:41Z</time>
      </trkpt>
      <trkpt lat="59.5441373329" lon="18.1971135334">
        <ele>65.8</ele>
        <time>2012-09-16T11:12:42Z</time>
      </trkpt>
      <trkpt lat="59.5441110137" lon="18.1971773196">
        <ele>66.4</ele>
        <time>2012-09-16T11:12:43Z</time>
      </trkpt>
      <trkpt lat="59.5440835211" lon="18.197244291">
        <ele>66.8</ele>
        <time>2012-09-16T11:12:44Z</time>
      </trkpt>
      <trkpt lat="59.5440573695" lon="18.1973158724">
        <ele>67.2</ele>
        <time>2012-09-16T11:12:45Z</time>
      </trkpt>
      <trkpt lat="59.5440019652" lon="18.1974445346">
        <ele>67.2</ele>
        <time>2012-09-16T11:12:47Z</time>
      </trkpt>
      <trkpt lat="59.5439700301" lon="18.1975013639">
        <ele>68.2</ele>
        <time>2012-09-16T11:12:48Z</time>
      </trkpt>
      <trkpt lat="59.5439410288" lon="18.1975384957">
        <ele>68.6</ele>
        <time>2012-09-16T11:12:49Z</time>
      </trkpt>
      <trkpt lat="59.5439092614" lon="18.1975863563">
        <ele>69</ele>
        <time>2012-09-16T11:12:50Z</time>
      </trkpt>
      <trkpt lat="59.5438735545" lon="18.1976288526">
        <ele>69.4</ele>
        <time>2012-09-16T11:12:51Z</time>
      </trkpt>
      <trkpt lat="59.543834411" lon="18.1976643918">
        <ele>69.4</ele>
        <time>2012-09-16T11:12:52Z</time>
      </trkpt>
      <trkpt lat="59.5437282961" lon="18.1977243224">
        <ele>69.8</ele>
        <time>2012-09-16T11:12:55Z</time>
      </trkpt>
      <trkpt lat="59.5436933436" lon="18.1977427626">
        <ele>70.4</ele>
        <time>2012-09-16T11:12:56Z</time>
      </trkpt>
      <trkpt lat="59.543656128" lon="18.1977628792">
        <ele>70.8</ele>
        <time>2012-09-16T11:12:57Z</time>
      </trkpt>
      <trkpt lat="59.5436119554" lon="18.1977854265">
        <ele>71.2</ele>
        <time>2012-09-16T11:12:58Z</time>
      </trkpt>
      <trkpt lat="59.5435701297" lon="18.1977876058">
        <ele>71.8</ele>
        <time>2012-09-16T11:12:59Z</time>
      </trkpt>
      <trkpt lat="59.5433329219" lon="18.1978168586">
        <ele>72.2</ele>
        <time>2012-09-16T11:13:04Z</time>
      </trkpt>
      <trkpt lat="59.5432817923" lon="18.1978312755">
        <ele>72.6</ele>
        <time>2012-09-16T11:13:05Z</time>
      </trkpt>
      <trkpt lat="59.543229154" lon="18.1978455247">
        <ele>73</ele>
        <time>2012-09-16T11:13:06Z</time>
      </trkpt>
      <trkpt lat="59.5431746716" lon="18.1978711733">
        <ele>73.4</ele>
        <time>2012-09-16T11:13:07Z</time>
      </trkpt>
      <trkpt lat="59.5431170042" lon="18.1978991688">
        <ele>73.8</ele>
        <time>2012-09-16T11:13:08Z</time>
      </trkpt>
      <trkpt lat="59.5430641144" lon="18.1979424194">
        <ele>73.8</ele>
        <time>2012-09-16T11:13:09Z</time>
      </trkpt>
      <trkpt lat="59.5429616876" lon="18.1980709978">
        <ele>73.8</ele>
        <time>2012-09-16T11:13:11Z</time>
      </trkpt>
      <trkpt lat="59.5427371365" lon="18.1985061022">
        <ele>73.8</ele>
        <time>2012-09-16T11:13:15Z</time>
      </trkpt>
      <trkpt lat="59.5426787146" lon="18.1986271369">
        <ele>73.8</ele>
        <time>2012-09-16T11:13:16Z</time>
      </trkpt>
      <trkpt lat="59.5423093243" lon="18.19923231">
        <ele>73.8</ele>
        <time>2012-09-16T11:13:22Z</time>
      </trkpt>
      <trkpt lat="59.5419578712" lon="18.1997414266">
        <ele>73.8</ele>
        <time>2012-09-16T11:13:28Z</time>
      </trkpt>
      <trkpt lat="59.5416518481" lon="18.2001945522">
        <ele>73.8</ele>
        <time>2012-09-16T11:13:34Z</time>
      </trkpt>
      <trkpt lat="59.541604155" lon="18.200246939">
        <ele>73.4</ele>
        <time>2012-09-16T11:13:35Z</time>
      </trkpt>
      <trkpt lat="59.541549086" lon="18.2003150001">
        <ele>73</ele>
        <time>2012-09-16T11:13:36Z</time>
      </trkpt>
      <trkpt lat="59.5414891554" lon="18.2003830611">
        <ele>72.2</ele>
        <time>2012-09-16T11:13:37Z</time>
      </trkpt>
      <trkpt lat="59.5414261235" lon="18.2004542234">
        <ele>71.8</ele>
        <time>2012-09-16T11:13:38Z</time>
      </trkpt>
      <trkpt lat="59.5413641812" lon="18.2005112203">
        <ele>71.8</ele>
        <time>2012-09-16T11:13:39Z</time>
      </trkpt>
      <trkpt lat="59.54130643" lon="18.2005629367">
        <ele>72.2</ele>
        <time>2012-09-16T11:13:40Z</time>
      </trkpt>
      <trkpt lat="59.5412479243" lon="18.2006102944">
        <ele>72.6</ele>
        <time>2012-09-16T11:13:41Z</time>
      </trkpt>
      <trkpt lat="59.5411928552" lon="18.2006667046">
        <ele>73</ele>
        <time>2012-09-16T11:13:42Z</time>
      </trkpt>
      <trkpt lat="59.5411365288" lon="18.2007207678">
        <ele>73.6</ele>
        <time>2012-09-16T11:13:43Z</time>
      </trkpt>
      <trkpt lat="59.5410823818" lon="18.2007800279">
        <ele>74</ele>
        <time>2012-09-16T11:13:44Z</time>
      </trkpt>
      <trkpt lat="59.5410294082" lon="18.2008626734">
        <ele>74</ele>
        <time>2012-09-16T11:13:45Z</time>
      </trkpt>
      <trkpt lat="59.5408482753" lon="18.2012432955">
        <ele>74</ele>
        <time>2012-09-16T11:13:48Z</time>
      </trkpt>
      <trkpt lat="59.5407293361" lon="18.2015971793">
        <ele>74</ele>
        <time>2012-09-16T11:13:50Z</time>
      </trkpt>
      <trkpt lat="59.5406332796" lon="18.2019156077">
        <ele>74</ele>
        <time>2012-09-16T11:13:52Z</time>
      </trkpt>
      <trkpt lat="59.5405090598" lon="18.202469316">
        <ele>74</ele>
        <time>2012-09-16T11:13:56Z</time>
      </trkpt>
      <trkpt lat="59.5402935612" lon="18.2033861282">
        <ele>74</ele>
        <time>2012-09-16T11:14:03Z</time>
      </trkpt>
      <trkpt lat="59.5402394979" lon="18.2037633975">
        <ele>74</ele>
        <time>2012-09-16T11:14:06Z</time>
      </trkpt>
      <trkpt lat="59.5402330438" lon="18.2040278465">
        <ele>74</ele>
        <time>2012-09-16T11:14:08Z</time>
      </trkpt>
      <trkpt lat="59.5402355584" lon="18.2041540779">
        <ele>74</ele>
        <time>2012-09-16T11:14:09Z</time>
      </trkpt>
      <trkpt lat="59.5402457843" lon="18.2045469376">
        <ele>74</ele>
        <time>2012-09-16T11:14:12Z</time>
      </trkpt>
      <trkpt lat="59.5402301102" lon="18.2046440838">
        <ele>74</ele>
        <time>2012-09-16T11:14:13Z</time>
      </trkpt>
      <trkpt lat="59.5400853548" lon="18.2049268053">
        <ele>74</ele>
        <time>2012-09-16T11:14:17Z</time>
      </trkpt>
      <trkpt lat="59.5399090834" lon="18.2049858977">
        <ele>74</ele>
        <time>2012-09-16T11:14:20Z</time>
      </trkpt>
      <trkpt lat="59.539843956" lon="18.2049940281">
        <ele>74.4</ele>
        <time>2012-09-16T11:14:21Z</time>
      </trkpt>
      <trkpt lat="59.5397808403" lon="18.2050151505">
        <ele>74.8</ele>
        <time>2012-09-16T11:14:22Z</time>
      </trkpt>
      <trkpt lat="59.5397225023" lon="18.2050426431">
        <ele>75.2</ele>
        <time>2012-09-16T11:14:23Z</time>
      </trkpt>
      <trkpt lat="59.5396608115" lon="18.2050665315">
        <ele>75.6</ele>
        <time>2012-09-16T11:14:24Z</time>
      </trkpt>
      <trkpt lat="59.5396034793" lon="18.2051031604">
        <ele>76</ele>
        <time>2012-09-16T11:14:25Z</time>
      </trkpt>
      <trkpt lat="59.5395337419" lon="18.2051564693">
        <ele>76</ele>
        <time>2012-09-16T11:14:26Z</time>
      </trkpt>
      <trkpt lat="59.5391461629" lon="18.2055167234">
        <ele>75.6</ele>
        <time>2012-09-16T11:14:31Z</time>
      </trkpt>
      <trkpt lat="59.5390610866" lon="18.2056203237">
        <ele>75.2</ele>
        <time>2012-09-16T11:14:32Z</time>
      </trkpt>
      <trkpt lat="59.5389800336" lon="18.2057338146">
        <ele>74.4</ele>
        <time>2012-09-16T11:14:33Z</time>
      </trkpt>
      <trkpt lat="59.5389058538" lon="18.205847557">
        <ele>73.6</ele>
        <time>2012-09-16T11:14:34Z</time>
      </trkpt>
      <trkpt lat="59.5388271478" lon="18.2059671667">
        <ele>73</ele>
        <time>2012-09-16T11:14:35Z</time>
      </trkpt>
      <trkpt lat="59.5387486932" lon="18.2060681686">
        <ele>72.2</ele>
        <time>2012-09-16T11:14:36Z</time>
      </trkpt>
      <trkpt lat="59.5386705739" lon="18.206157352">
        <ele>71.6</ele>
        <time>2012-09-16T11:14:37Z</time>
      </trkpt>
      <trkpt lat="59.5382992557" lon="18.2065346213">
        <ele>71.6</ele>
        <time>2012-09-16T11:14:42Z</time>
      </trkpt>
      <trkpt lat="59.537944366" lon="18.2069350247">
        <ele>71.6</ele>
        <time>2012-09-16T11:14:48Z</time>
      </trkpt>
      <trkpt lat="59.5376364989" lon="18.2072371922">
        <ele>71.6</ele>
        <time>2012-09-16T11:14:53Z</time>
      </trkpt>
      <trkpt lat="59.5373473233" lon="18.2075391082">
        <ele>72</ele>
        <time>2012-09-16T11:14:58Z</time>
      </trkpt>
      <trkpt lat="59.5372865545" lon="18.2076021401">
        <ele>72.4</ele>
        <time>2012-09-16T11:14:59Z</time>
      </trkpt>
      <trkpt lat="59.537227546" lon="18.2076668484">
        <ele>72.8</ele>
        <time>2012-09-16T11:15:00Z</time>
      </trkpt>
      <trkpt lat="59.5371718901" lon="18.207732311">
        <ele>73.4</ele>
        <time>2012-09-16T11:15:01Z</time>
      </trkpt>
      <trkpt lat="59.5371169887" lon="18.2077830215">
        <ele>73.8</ele>
        <time>2012-09-16T11:15:02Z</time>
      </trkpt>
      <trkpt lat="59.5369900029" lon="18.2079030503">
        <ele>73.8</ele>
        <time>2012-09-16T11:15:04Z</time>
      </trkpt>
      <trkpt lat="59.536941807" lon="18.2079548505">
        <ele>74.2</ele>
        <time>2012-09-16T11:15:05Z</time>
      </trkpt>
      <trkpt lat="59.5368877437" lon="18.2080057286">
        <ele>74.8</ele>
        <time>2012-09-16T11:15:06Z</time>
      </trkpt>
      <trkpt lat="59.5368362789" lon="18.2080589537">
        <ele>75.2</ele>
        <time>2012-09-16T11:15:07Z</time>
      </trkpt>
      <trkpt lat="59.5367873286" lon="18.2081125978">
        <ele>75.8</ele>
        <time>2012-09-16T11:15:08Z</time>
      </trkpt>
      <trkpt lat="59.5367397194" lon="18.208166242">
        <ele>76.2</ele>
        <time>2012-09-16T11:15:09Z</time>
      </trkpt>
      <trkpt lat="59.5366579959" lon="18.2082818284">
        <ele>76.8</ele>
        <time>2012-09-16T11:15:11Z</time>
      </trkpt>
      <trkpt lat="59.5366196906" lon="18.2083407531">
        <ele>77.2</ele>
        <time>2012-09-16T11:15:12Z</time>
      </trkpt>
      <trkpt lat="59.5365813015" lon="18.2084160226">
        <ele>77.6</ele>
        <time>2012-09-16T11:15:13Z</time>
      </trkpt>
      <trkpt lat="59.5365431638" lon="18.2084862629">
        <ele>78</ele>
        <time>2012-09-16T11:15:14Z</time>
      </trkpt>
      <trkpt lat="59.5365062835" lon="18.2085623706">
        <ele>78.4</ele>
        <time>2012-09-16T11:15:15Z</time>
      </trkpt>
      <trkpt lat="59.5362629569" lon="18.2091707289">
        <ele>78.4</ele>
        <time>2012-09-16T11:15:22Z</time>
      </trkpt>
      <trkpt lat="59.5360767111" lon="18.2096741458">
        <ele>79</ele>
        <time>2012-09-16T11:15:27Z</time>
      </trkpt>
      <trkpt lat="59.5360342987" lon="18.2097910733">
        <ele>79.4</ele>
        <time>2012-09-16T11:15:28Z</time>
      </trkpt>
      <trkpt lat="59.5359791458" lon="18.20991764">
        <ele>79.8</ele>
        <time>2012-09-16T11:15:29Z</time>
      </trkpt>
      <trkpt lat="59.5359302793" lon="18.2100418597">
        <ele>80.2</ele>
        <time>2012-09-16T11:15:30Z</time>
      </trkpt>
      <trkpt lat="59.5358764675" lon="18.2101694323">
        <ele>80.6</ele>
        <time>2012-09-16T11:15:31Z</time>
      </trkpt>
      <trkpt lat="59.5358155311" lon="18.2102913889">
        <ele>80</ele>
        <time>2012-09-16T11:15:32Z</time>
      </trkpt>
      <trkpt lat="59.5357537565" lon="18.2104065562">
        <ele>79.6</ele>
        <time>2012-09-16T11:15:33Z</time>
      </trkpt>
      <trkpt lat="59.5356888806" lon="18.2105106594">
        <ele>79.2</ele>
        <time>2012-09-16T11:15:34Z</time>
      </trkpt>
      <trkpt lat="59.5356178859" lon="18.2106056263">
        <ele>78.6</ele>
        <time>2012-09-16T11:15:35Z</time>
      </trkpt>
      <trkpt lat="59.5355535129" lon="18.2106983301">
        <ele>78.2</ele>
        <time>2012-09-16T11:15:36Z</time>
      </trkpt>
      <trkpt lat="59.5354799198" lon="18.2107857534">
        <ele>78.2</ele>
        <time>2012-09-16T11:15:37Z</time>
      </trkpt>
      <trkpt lat="59.5354058238" lon="18.210860939">
        <ele>77.8</ele>
        <time>2012-09-16T11:15:38Z</time>
      </trkpt>
      <trkpt lat="59.535321921" lon="18.2109264016">
        <ele>77.2</ele>
        <time>2012-09-16T11:15:39Z</time>
      </trkpt>
      <trkpt lat="59.535217734" lon="18.210972083">
        <ele>76.6</ele>
        <time>2012-09-16T11:15:40Z</time>
      </trkpt>
      <trkpt lat="59.5350856352" lon="18.2109923672">
        <ele>75.2</ele>
        <time>2012-09-16T11:15:41Z</time>
      </trkpt>
      <trkpt lat="59.5349863935" lon="18.2110371265">
        <ele>74.4</ele>
        <time>2012-09-16T11:15:42Z</time>
      </trkpt>
      <trkpt lat="59.5348670353" lon="18.2110405631">
        <ele>73.6</ele>
        <time>2012-09-16T11:15:43Z</time>
      </trkpt>
      <trkpt lat="59.5345856549" lon="18.2110803771">
        <ele>73.6</ele>
        <time>2012-09-16T11:15:46Z</time>
      </trkpt>
      <trkpt lat="59.5345087091" lon="18.2110940396">
        <ele>73.2</ele>
        <time>2012-09-16T11:15:47Z</time>
      </trkpt>
      <trkpt lat="59.5344390555" lon="18.2111167546">
        <ele>72.6</ele>
        <time>2012-09-16T11:15:48Z</time>
      </trkpt>
      <trkpt lat="59.5343575834" lon="18.21110963">
        <ele>72</ele>
        <time>2012-09-16T11:15:49Z</time>
      </trkpt>
      <trkpt lat="59.5342766142" lon="18.2111112225">
        <ele>71.4</ele>
        <time>2012-09-16T11:15:50Z</time>
      </trkpt>
      <trkpt lat="59.5341887719" lon="18.2111380446">
        <ele>71</ele>
        <time>2012-09-16T11:15:51Z</time>
      </trkpt>
      <trkpt lat="59.533968328" lon="18.2113563931">
        <ele>71</ele>
        <time>2012-09-16T11:15:54Z</time>
      </trkpt>
      <trkpt lat="59.5338479639" lon="18.21157734">
        <ele>71</ele>
        <time>2012-09-16T11:15:56Z</time>
      </trkpt>
      <trkpt lat="59.5337338024" lon="18.2117965267">
        <ele>71.4</ele>
        <time>2012-09-16T11:15:58Z</time>
      </trkpt>
      <trkpt lat="59.5336842654" lon="18.2119137056">
        <ele>71.8</ele>
        <time>2012-09-16T11:15:59Z</time>
      </trkpt>
      <trkpt lat="59.5336317947" lon="18.2120359137">
        <ele>72.2</ele>
        <time>2012-09-16T11:16:00Z</time>
      </trkpt>
      <trkpt lat="59.5335773123" lon="18.2121546853">
        <ele>72.6</ele>
        <time>2012-09-16T11:16:01Z</time>
      </trkpt>
      <trkpt lat="59.5335229138" lon="18.2122758037">
        <ele>73</ele>
        <time>2012-09-16T11:16:02Z</time>
      </trkpt>
      <trkpt lat="59.5333043138" lon="18.212758685">
        <ele>73</ele>
        <time>2012-09-16T11:16:06Z</time>
      </trkpt>
      <trkpt lat="59.53318571" lon="18.2129528936">
        <ele>73</ele>
        <time>2012-09-16T11:16:08Z</time>
      </trkpt>
      <trkpt lat="59.5330612387" lon="18.2130994092">
        <ele>73</ele>
        <time>2012-09-16T11:16:10Z</time>
      </trkpt>
      <trkpt lat="59.5327128032" lon="18.2133725753">
        <ele>73</ele>
        <time>2012-09-16T11:16:15Z</time>
      </trkpt>
      <trkpt lat="59.5326417247" lon="18.2134027502">
        <ele>73</ele>
        <time>2012-09-16T11:16:16Z</time>
      </trkpt>
      <trkpt lat="59.5324159163" lon="18.2134299075">
        <ele>73</ele>
        <time>2012-09-16T11:16:19Z</time>
      </trkpt>
      <trkpt lat="59.5322696521" lon="18.2134361101">
        <ele>73.4</ele>
        <time>2012-09-16T11:16:21Z</time>
      </trkpt>
      <trkpt lat="59.5322010043" lon="18.2134534607">
        <ele>73.8</ele>
        <time>2012-09-16T11:16:22Z</time>
      </trkpt>
      <trkpt lat="59.5321303449" lon="18.2134834679">
        <ele>74.2</ele>
        <time>2012-09-16T11:16:23Z</time>
      </trkpt>
      <trkpt lat="59.5320611104" lon="18.213523701">
        <ele>74.6</ele>
        <time>2012-09-16T11:16:24Z</time>
      </trkpt>
      <trkpt lat="59.531990451" lon="18.2135786024">
        <ele>75</ele>
        <time>2012-09-16T11:16:25Z</time>
      </trkpt>
      <trkpt lat="59.5317827475" lon="18.213802483">
        <ele>74.6</ele>
        <time>2012-09-16T11:16:28Z</time>
      </trkpt>
      <trkpt lat="59.5317157762" lon="18.2138944324">
        <ele>74.2</ele>
        <time>2012-09-16T11:16:29Z</time>
      </trkpt>
      <trkpt lat="59.5316477989" lon="18.213990489">
        <ele>73.4</ele>
        <time>2012-09-16T11:16:30Z</time>
      </trkpt>
      <trkpt lat="59.5315802408" lon="18.2140857074">
        <ele>73</ele>
        <time>2012-09-16T11:16:31Z</time>
      </trkpt>
      <trkpt lat="59.5313818413" lon="18.2143456301">
        <ele>73</ele>
        <time>2012-09-16T11:16:34Z</time>
      </trkpt>
      <trkpt lat="59.5310923304" lon="18.2148122505">
        <ele>73</ele>
        <time>2012-09-16T11:16:39Z</time>
      </trkpt>
      <trkpt lat="59.5310536061" lon="18.2149068821">
        <ele>73</ele>
        <time>2012-09-16T11:16:40Z</time>
      </trkpt>
      <trkpt lat="59.5309982855" lon="18.2151259012">
        <ele>73</ele>
        <time>2012-09-16T11:16:42Z</time>
      </trkpt>
      <trkpt lat="59.530917484" lon="18.2156055135">
        <ele>73.4</ele>
        <time>2012-09-16T11:16:46Z</time>
      </trkpt>
      <trkpt lat="59.5308940985" lon="18.2157423061">
        <ele>73.8</ele>
        <time>2012-09-16T11:16:47Z</time>
      </trkpt>
      <trkpt lat="59.5308691204" lon="18.2158872292">
        <ele>74.2</ele>
        <time>2012-09-16T11:16:48Z</time>
      </trkpt>
      <trkpt lat="59.5308413763" lon="18.2160381872">
        <ele>74.6</ele>
        <time>2012-09-16T11:16:49Z</time>
      </trkpt>
      <trkpt lat="59.5308101957" lon="18.2161887261">
        <ele>75</ele>
        <time>2012-09-16T11:16:50Z</time>
      </trkpt>
      <trkpt lat="59.530687317" lon="18.2166598727">
        <ele>75</ele>
        <time>2012-09-16T11:16:53Z</time>
      </trkpt>
      <trkpt lat="59.5304818767" lon="18.2172877608">
        <ele>74.6</ele>
        <time>2012-09-16T11:16:57Z</time>
      </trkpt>
      <trkpt lat="59.5304323396" lon="18.2174384674">
        <ele>74.2</ele>
        <time>2012-09-16T11:16:58Z</time>
      </trkpt>
      <trkpt lat="59.5303833893" lon="18.2175888387">
        <ele>73.6</ele>
        <time>2012-09-16T11:16:59Z</time>
      </trkpt>
      <trkpt lat="59.5303293261" lon="18.2177439038">
        <ele>73.2</ele>
        <time>2012-09-16T11:17:00Z</time>
      </trkpt>
      <trkpt lat="59.5302590858" lon="18.2178658605">
        <ele>72.6</ele>
        <time>2012-09-16T11:17:01Z</time>
      </trkpt>
      <trkpt lat="59.5301704053" lon="18.2179355979">
        <ele>72.6</ele>
        <time>2012-09-16T11:17:02Z</time>
      </trkpt>
      <trkpt lat="59.5300726723" lon="18.2179572232">
        <ele>72.2</ele>
        <time>2012-09-16T11:17:03Z</time>
      </trkpt>
      <trkpt lat="59.529981561" lon="18.2179506853">
        <ele>71.6</ele>
        <time>2012-09-16T11:17:04Z</time>
      </trkpt>
      <trkpt lat="59.5298889411" lon="18.2179328319">
        <ele>71.2</ele>
        <time>2012-09-16T11:17:05Z</time>
      </trkpt>
      <trkpt lat="59.5297970754" lon="18.217916571">
        <ele>70.6</ele>
        <time>2012-09-16T11:17:06Z</time>
      </trkpt>
      <trkpt lat="59.5297043716" lon="18.217906848">
        <ele>70.2</ele>
        <time>2012-09-16T11:17:07Z</time>
      </trkpt>
      <trkpt lat="59.5296122545" lon="18.2179169901">
        <ele>69.6</ele>
        <time>2012-09-16T11:17:08Z</time>
      </trkpt>
      <trkpt lat="59.5295290223" lon="18.2179631743">
        <ele>69</ele>
        <time>2012-09-16T11:17:09Z</time>
      </trkpt>
      <trkpt lat="59.5294503162" lon="18.218055459">
        <ele>68.4</ele>
        <time>2012-09-16T11:17:10Z</time>
      </trkpt>
      <trkpt lat="59.5293794892" lon="18.2181868034">
        <ele>68</ele>
        <time>2012-09-16T11:17:11Z</time>
      </trkpt>
      <trkpt lat="59.5292214904" lon="18.2186981831">
        <ele>68</ele>
        <time>2012-09-16T11:17:14Z</time>
      </trkpt>
      <trkpt lat="59.5291820116" lon="18.2188696768">
        <ele>68</ele>
        <time>2012-09-16T11:17:15Z</time>
      </trkpt>
      <trkpt lat="59.5290062432" lon="18.2194867523">
        <ele>68</ele>
        <time>2012-09-16T11:17:19Z</time>
      </trkpt>
      <trkpt lat="59.5287903254" lon="18.220097709">
        <ele>67.4</ele>
        <time>2012-09-16T11:17:23Z</time>
      </trkpt>
      <trkpt lat="59.5287384415" lon="18.2202631677">
        <ele>67</ele>
        <time>2012-09-16T11:17:24Z</time>
      </trkpt>
      <trkpt lat="59.5286869766" lon="18.2204328173">
        <ele>66.6</ele>
        <time>2012-09-16T11:17:25Z</time>
      </trkpt>
      <trkpt lat="59.5286344221" lon="18.2206047301">
        <ele>66.2</ele>
        <time>2012-09-16T11:17:26Z</time>
      </trkpt>
      <trkpt lat="59.5285798559" lon="18.2207819235">
        <ele>65.6</ele>
        <time>2012-09-16T11:17:27Z</time>
      </trkpt>
      <trkpt lat="59.5284704721" lon="18.22111326">
        <ele>65.2</ele>
        <time>2012-09-16T11:17:29Z</time>
      </trkpt>
      <trkpt lat="59.5284173309" lon="18.2212736057">
        <ele>64.8</ele>
        <time>2012-09-16T11:17:30Z</time>
      </trkpt>
      <trkpt lat="59.5283648602" lon="18.2214363822">
        <ele>64.2</ele>
        <time>2012-09-16T11:17:31Z</time>
      </trkpt>
      <trkpt lat="59.5283185083" lon="18.2215876755">
        <ele>63.8</ele>
        <time>2012-09-16T11:17:32Z</time>
      </trkpt>
      <trkpt lat="59.5282726593" lon="18.2217368733">
        <ele>63.4</ele>
        <time>2012-09-16T11:17:33Z</time>
      </trkpt>
      <trkpt lat="59.52812321" lon="18.2222059245">
        <ele>63.4</ele>
        <time>2012-09-16T11:17:36Z</time>
      </trkpt>
      <trkpt lat="59.5279472739" lon="18.2226625704">
        <ele>63.4</ele>
        <time>2012-09-16T11:17:39Z</time>
      </trkpt>
      <trkpt lat="59.5278793805" lon="18.2227810066">
        <ele>63.4</ele>
        <time>2012-09-16T11:17:40Z</time>
      </trkpt>
      <trkpt lat="59.5278085535" lon="18.2228773985">
        <ele>62.8</ele>
        <time>2012-09-16T11:17:41Z</time>
      </trkpt>
      <trkpt lat="59.5277335355" lon="18.2229538414">
        <ele>62.4</ele>
        <time>2012-09-16T11:17:42Z</time>
      </trkpt>
      <trkpt lat="59.5276551647" lon="18.2230117603">
        <ele>61.6</ele>
        <time>2012-09-16T11:17:43Z</time>
      </trkpt>
      <trkpt lat="59.5275747823" lon="18.2230626385">
        <ele>61.2</ele>
        <time>2012-09-16T11:17:44Z</time>
      </trkpt>
      <trkpt lat="59.5274913824" lon="18.2230980101">
        <ele>61.2</ele>
        <time>2012-09-16T11:17:45Z</time>
      </trkpt>
      <trkpt lat="59.5273124288" lon="18.2230825874">
        <ele>61.2</ele>
        <time>2012-09-16T11:17:47Z</time>
      </trkpt>
      <trkpt lat="59.5270380892" lon="18.2230850181">
        <ele>61.2</ele>
        <time>2012-09-16T11:17:50Z</time>
      </trkpt>
      <trkpt lat="59.5268603929" lon="18.2232116687">
        <ele>60.8</ele>
        <time>2012-09-16T11:17:52Z</time>
      </trkpt>
      <trkpt lat="59.5267706228" lon="18.2232791429">
        <ele>60.4</ele>
        <time>2012-09-16T11:17:53Z</time>
      </trkpt>
      <trkpt lat="59.5266754044" lon="18.2233500538">
        <ele>60</ele>
        <time>2012-09-16T11:17:54Z</time>
      </trkpt>
      <trkpt lat="59.5265865563" lon="18.2234087271">
        <ele>59.6</ele>
        <time>2012-09-16T11:17:55Z</time>
      </trkpt>
      <trkpt lat="59.5265018991" lon="18.2234599405">
        <ele>59.2</ele>
        <time>2012-09-16T11:17:56Z</time>
      </trkpt>
      <trkpt lat="59.5262605004" lon="18.2236150895">
        <ele>59.2</ele>
        <time>2012-09-16T11:17:59Z</time>
      </trkpt>
      <trkpt lat="59.5259344445" lon="18.2238804605">
        <ele>59.2</ele>
        <time>2012-09-16T11:18:04Z</time>
      </trkpt>
      <trkpt lat="59.5256634576" lon="18.2241555544">
        <ele>60</ele>
        <time>2012-09-16T11:18:08Z</time>
      </trkpt>
      <trkpt lat="59.5255870985" lon="18.2242339252">
        <ele>60.6</ele>
        <time>2012-09-16T11:18:09Z</time>
      </trkpt>
      <trkpt lat="59.5255137569" lon="18.2243109548">
        <ele>61</ele>
        <time>2012-09-16T11:18:10Z</time>
      </trkpt>
      <trkpt lat="59.5254398285" lon="18.2243904153">
        <ele>61.4</ele>
        <time>2012-09-16T11:18:11Z</time>
      </trkpt>
      <trkpt lat="59.5251157843" lon="18.2247432094">
        <ele>61</ele>
        <time>2012-09-16T11:18:15Z</time>
      </trkpt>
      <trkpt lat="59.5250281934" lon="18.2248208258">
        <ele>60.4</ele>
        <time>2012-09-16T11:18:16Z</time>
      </trkpt>
      <trkpt lat="59.5249355734" lon="18.2248934131">
        <ele>59.8</ele>
        <time>2012-09-16T11:18:17Z</time>
      </trkpt>
      <trkpt lat="59.5248484855" lon="18.224955942">
        <ele>59.2</ele>
        <time>2012-09-16T11:18:18Z</time>
      </trkpt>
      <trkpt lat="59.5247617328" lon="18.2250162917">
        <ele>58.6</ele>
        <time>2012-09-16T11:18:19Z</time>
      </trkpt>
      <trkpt lat="59.5246743934" lon="18.2250706903">
        <ele>58</ele>
        <time>2012-09-16T11:18:20Z</time>
      </trkpt>
      <trkpt lat="59.5245881437" lon="18.225114779">
        <ele>57.4</ele>
        <time>2012-09-16T11:18:21Z</time>
      </trkpt>
      <trkpt lat="59.524502313" lon="18.2251491448">
        <ele>56.8</ele>
        <time>2012-09-16T11:18:22Z</time>
      </trkpt>
      <trkpt lat="59.5243340883" lon="18.2252144398">
        <ele>56.2</ele>
        <time>2012-09-16T11:18:24Z</time>
      </trkpt>
      <trkpt lat="59.5242674522" lon="18.225277807">
        <ele>55.8</ele>
        <time>2012-09-16T11:18:25Z</time>
      </trkpt>
      <trkpt lat="59.5242191724" lon="18.2253798985">
        <ele>55.4</ele>
        <time>2012-09-16T11:18:26Z</time>
      </trkpt>
      <trkpt lat="59.5241931885" lon="18.2255114944">
        <ele>55</ele>
        <time>2012-09-16T11:18:27Z</time>
      </trkpt>
      <trkpt lat="59.5241829626" lon="18.2256569203">
        <ele>54.6</ele>
        <time>2012-09-16T11:18:28Z</time>
      </trkpt>
      <trkpt lat="59.5241863154" lon="18.2258103091">
        <ele>54.6</ele>
        <time>2012-09-16T11:18:29Z</time>
      </trkpt>
      <trkpt lat="59.5241926018" lon="18.2264973735">
        <ele>54.6</ele>
        <time>2012-09-16T11:18:33Z</time>
      </trkpt>
      <trkpt lat="59.5241306596" lon="18.2268257763">
        <ele>54.6</ele>
        <time>2012-09-16T11:18:35Z</time>
      </trkpt>
      <trkpt lat="59.5241040051" lon="18.2269881337">
        <ele>54.6</ele>
        <time>2012-09-16T11:18:36Z</time>
      </trkpt>
      <trkpt lat="59.5240854811" lon="18.2271483118">
        <ele>54.6</ele>
        <time>2012-09-16T11:18:37Z</time>
      </trkpt>
      <trkpt lat="59.5240641911" lon="18.2279617752">
        <ele>54.6</ele>
        <time>2012-09-16T11:18:42Z</time>
      </trkpt>
      <trkpt lat="59.5241635166" lon="18.2288298886">
        <ele>54.6</ele>
        <time>2012-09-16T11:18:47Z</time>
      </trkpt>
      <trkpt lat="59.5242112096" lon="18.2292227482">
        <ele>54.6</ele>
        <time>2012-09-16T11:18:49Z</time>
      </trkpt>
      <trkpt lat="59.5242166579" lon="18.2294270151">
        <ele>54.2</ele>
        <time>2012-09-16T11:18:50Z</time>
      </trkpt>
      <trkpt lat="59.5242011514" lon="18.2296301086">
        <ele>53.6</ele>
        <time>2012-09-16T11:18:51Z</time>
      </trkpt>
      <trkpt lat="59.5241627622" lon="18.2298187013">
        <ele>53</ele>
        <time>2012-09-16T11:18:52Z</time>
      </trkpt>
      <trkpt lat="59.5241149016" lon="18.2299948889">
        <ele>52.6</ele>
        <time>2012-09-16T11:18:53Z</time>
      </trkpt>
      <trkpt lat="59.5240629338" lon="18.2301676398">
        <ele>52</ele>
        <time>2012-09-16T11:18:54Z</time>
      </trkpt>
      <trkpt lat="59.5240089544" lon="18.2303437435">
        <ele>51.6</ele>
        <time>2012-09-16T11:18:55Z</time>
      </trkpt>
      <trkpt lat="59.5239572381" lon="18.2305107948">
        <ele>51.2</ele>
        <time>2012-09-16T11:18:56Z</time>
      </trkpt>
      <trkpt lat="59.5239014984" lon="18.2306715597">
        <ele>50.8</ele>
        <time>2012-09-16T11:18:57Z</time>
      </trkpt>
      <trkpt lat="59.5238458426" lon="18.2308286365">
        <ele>50</ele>
        <time>2012-09-16T11:18:58Z</time>
      </trkpt>
      <trkpt lat="59.5237890971" lon="18.2309780019">
        <ele>50</ele>
        <time>2012-09-16T11:18:59Z</time>
      </trkpt>
      <trkpt lat="59.5235004245" lon="18.2317149386">
        <ele>50</ele>
        <time>2012-09-16T11:19:04Z</time>
      </trkpt>
      <trkpt lat="59.5233663979" lon="18.2323840656">
        <ele>50</ele>
        <time>2012-09-16T11:19:08Z</time>
      </trkpt>
      <trkpt lat="59.5232029509" lon="18.233438341">
        <ele>50</ele>
        <time>2012-09-16T11:19:14Z</time>
      </trkpt>
      <trkpt lat="59.5231305313" lon="18.2337607927">
        <ele>50</ele>
        <time>2012-09-16T11:19:16Z</time>
      </trkpt>
      <trkpt lat="59.52298016" lon="18.2346335161">
        <ele>50</ele>
        <time>2012-09-16T11:19:21Z</time>
      </trkpt>
      <trkpt lat="59.522964402" lon="18.2348241206">
        <ele>49.4</ele>
        <time>2012-09-16T11:19:22Z</time>
      </trkpt>
      <trkpt lat="59.5229564392" lon="18.2350001405">
        <ele>49</ele>
        <time>2012-09-16T11:19:23Z</time>
      </trkpt>
      <trkpt lat="59.5229612169" lon="18.2351554571">
        <ele>48.4</ele>
        <time>2012-09-16T11:19:24Z</time>
      </trkpt>
      <trkpt lat="59.5229797409" lon="18.2352926688">
        <ele>47.8</ele>
        <time>2012-09-16T11:19:25Z</time>
      </trkpt>
      <trkpt lat="59.5230178785" lon="18.2354028907">
        <ele>47.2</ele>
        <time>2012-09-16T11:19:26Z</time>
      </trkpt>
      <trkpt lat="59.5230734505" lon="18.2354696945">
        <ele>47.2</ele>
        <time>2012-09-16T11:19:27Z</time>
      </trkpt>
      <trkpt lat="59.523291799" lon="18.2354834408">
        <ele>47.2</ele>
        <time>2012-09-16T11:19:30Z</time>
      </trkpt>
      <trkpt lat="59.5233674876" lon="18.2354533498">
        <ele>47.2</ele>
        <time>2012-09-16T11:19:31Z</time>
      </trkpt>
      <trkpt lat="59.5237471876" lon="18.2352702891">
        <ele>47.2</ele>
        <time>2012-09-16T11:19:36Z</time>
      </trkpt>
      <trkpt lat="59.5240626824" lon="18.2353067504">
        <ele>47.8</ele>
        <time>2012-09-16T11:19:40Z</time>
      </trkpt>
      <trkpt lat="59.524148513" lon="18.2353377634">
        <ele>48.2</ele>
        <time>2012-09-16T11:19:41Z</time>
      </trkpt>
      <trkpt lat="59.5242306556" lon="18.2353691955">
        <ele>48.6</ele>
        <time>2012-09-16T11:19:42Z</time>
      </trkpt>
      <trkpt lat="59.5243121277" lon="18.2353973587">
        <ele>49</ele>
        <time>2012-09-16T11:19:43Z</time>
      </trkpt>
      <trkpt lat="59.5243917558" lon="18.2354215824">
        <ele>49.4</ele>
        <time>2012-09-16T11:19:44Z</time>
      </trkpt>
      <trkpt lat="59.5246275386" lon="18.235488889">
        <ele>49.4</ele>
        <time>2012-09-16T11:19:47Z</time>
      </trkpt>
      <trkpt lat="59.5247853698" lon="18.2355525077">
        <ele>49.4</ele>
        <time>2012-09-16T11:19:49Z</time>
      </trkpt>
      <trkpt lat="59.5249203184" lon="18.235715368">
        <ele>49.4</ele>
        <time>2012-09-16T11:19:51Z</time>
      </trkpt>
      <trkpt lat="59.5250346475" lon="18.2360917153">
        <ele>49.4</ele>
        <time>2012-09-16T11:19:54Z</time>
      </trkpt>
      <trkpt lat="59.5250540097" lon="18.2362314416">
        <ele>49.4</ele>
        <time>2012-09-16T11:19:55Z</time>
      </trkpt>
      <trkpt lat="59.525071444" lon="18.2363792983">
        <ele>50</ele>
        <time>2012-09-16T11:19:56Z</time>
      </trkpt>
      <trkpt lat="59.5250885431" lon="18.2365194436">
        <ele>50.4</ele>
        <time>2012-09-16T11:19:57Z</time>
      </trkpt>
      <trkpt lat="59.5251082406" lon="18.2366592537">
        <ele>50.8</ele>
        <time>2012-09-16T11:19:58Z</time>
      </trkpt>
      <trkpt lat="59.5251282733" lon="18.2368023328">
        <ele>51.4</ele>
        <time>2012-09-16T11:19:59Z</time>
      </trkpt>
      <trkpt lat="59.5251470488" lon="18.2369488484">
        <ele>51</ele>
        <time>2012-09-16T11:20:00Z</time>
      </trkpt>
      <trkpt lat="59.525163142" lon="18.2370988006">
        <ele>50.6</ele>
        <time>2012-09-16T11:20:01Z</time>
      </trkpt>
      <trkpt lat="59.525171943" lon="18.2372462382">
        <ele>50.4</ele>
        <time>2012-09-16T11:20:02Z</time>
      </trkpt>
      <trkpt lat="59.5251698475" lon="18.2373966095">
        <ele>50</ele>
        <time>2012-09-16T11:20:03Z</time>
      </trkpt>
      <trkpt lat="59.5251604598" lon="18.2375550274">
        <ele>49.6</ele>
        <time>2012-09-16T11:20:04Z</time>
      </trkpt>
      <trkpt lat="59.5250511598" lon="18.2382307762">
        <ele>49.6</ele>
        <time>2012-09-16T11:20:09Z</time>
      </trkpt>
      <trkpt lat="59.5250171293" lon="18.2383539063">
        <ele>49.6</ele>
        <time>2012-09-16T11:20:10Z</time>
      </trkpt>
      <trkpt lat="59.5248981902" lon="18.2387466821">
        <ele>50</ele>
        <time>2012-09-16T11:20:13Z</time>
      </trkpt>
      <trkpt lat="59.524860304" lon="18.2388858217">
        <ele>50.4</ele>
        <time>2012-09-16T11:20:14Z</time>
      </trkpt>
      <trkpt lat="59.5248231721" lon="18.2390314991">
        <ele>50.8</ele>
        <time>2012-09-16T11:20:15Z</time>
      </trkpt>
      <trkpt lat="59.524785286" lon="18.2391810322">
        <ele>51.4</ele>
        <time>2012-09-16T11:20:16Z</time>
      </trkpt>
      <trkpt lat="59.5247453043" lon="18.2393303138">
        <ele>51.8</ele>
        <time>2012-09-16T11:20:17Z</time>
      </trkpt>
      <trkpt lat="59.5245527721" lon="18.2401069807">
        <ele>51.8</ele>
        <time>2012-09-16T11:20:22Z</time>
      </trkpt>
      <trkpt lat="59.5243267122" lon="18.2412531217">
        <ele>51.8</ele>
        <time>2012-09-16T11:20:29Z</time>
      </trkpt>
      <trkpt lat="59.5241488483" lon="18.2420587899">
        <ele>51.8</ele>
        <time>2012-09-16T11:20:34Z</time>
      </trkpt>
      <trkpt lat="59.523937373" lon="18.2429828106">
        <ele>51.8</ele>
        <time>2012-09-16T11:20:40Z</time>
      </trkpt>
      <trkpt lat="59.5238314257" lon="18.2437826953">
        <ele>51.8</ele>
        <time>2012-09-16T11:20:45Z</time>
      </trkpt>
      <trkpt lat="59.5238087946" lon="18.2447850029">
        <ele>51.8</ele>
        <time>2012-09-16T11:20:51Z</time>
      </trkpt>
      <trkpt lat="59.5238709045" lon="18.2455588199">
        <ele>51.8</ele>
        <time>2012-09-16T11:20:56Z</time>
      </trkpt>
      <trkpt lat="59.5239096289" lon="18.245873644">
        <ele>52.2</ele>
        <time>2012-09-16T11:20:58Z</time>
      </trkpt>
      <trkpt lat="59.5239342717" lon="18.2460318105">
        <ele>52.6</ele>
        <time>2012-09-16T11:20:59Z</time>
      </trkpt>
      <trkpt lat="59.5239703976" lon="18.2461889711">
        <ele>53</ele>
        <time>2012-09-16T11:21:00Z</time>
      </trkpt>
      <trkpt lat="59.5240156599" lon="18.2463359058">
        <ele>53.8</ele>
        <time>2012-09-16T11:21:01Z</time>
      </trkpt>
      <trkpt lat="59.5242081083" lon="18.2467020272">
        <ele>53.8</ele>
        <time>2012-09-16T11:21:04Z</time>
      </trkpt>
      <trkpt lat="59.5244047477" lon="18.247022132">
        <ele>53.8</ele>
        <time>2012-09-16T11:21:07Z</time>
      </trkpt>
      <trkpt lat="59.524452776" lon="18.2471529734">
        <ele>53.8</ele>
        <time>2012-09-16T11:21:08Z</time>
      </trkpt>
      <trkpt lat="59.5245841204" lon="18.2477485074">
        <ele>53.8</ele>
        <time>2012-09-16T11:21:12Z</time>
      </trkpt>
      <trkpt lat="59.5247507525" lon="18.2487727756">
        <ele>53.8</ele>
        <time>2012-09-16T11:21:19Z</time>
      </trkpt>
      <trkpt lat="59.5248514192" lon="18.249788159">
        <ele>53.8</ele>
        <time>2012-09-16T11:21:26Z</time>
      </trkpt>
      <trkpt lat="59.5248794985" lon="18.2501857963">
        <ele>53.8</ele>
        <time>2012-09-16T11:21:29Z</time>
      </trkpt>
      <trkpt lat="59.5249252637" lon="18.2504100121">
        <ele>53.8</ele>
        <time>2012-09-16T11:21:31Z</time>
      </trkpt>
      <trkpt lat="59.524954768" lon="18.2505068231">
        <ele>54.4</ele>
        <time>2012-09-16T11:21:32Z</time>
      </trkpt>
      <trkpt lat="59.5249893014" lon="18.2505894686">
        <ele>54.8</ele>
        <time>2012-09-16T11:21:33Z</time>
      </trkpt>
      <trkpt lat="59.5250302889" lon="18.2506704378">
        <ele>55.2</ele>
        <time>2012-09-16T11:21:34Z</time>
      </trkpt>
      <trkpt lat="59.5250832625" lon="18.2507409296">
        <ele>55.6</ele>
        <time>2012-09-16T11:21:35Z</time>
      </trkpt>
      <trkpt lat="59.5251405109" lon="18.2507980941">
        <ele>56.2</ele>
        <time>2012-09-16T11:21:36Z</time>
      </trkpt>
      <trkpt lat="59.5252037104" lon="18.2507989323">
        <ele>56.6</ele>
        <time>2012-09-16T11:21:37Z</time>
      </trkpt>
      <trkpt lat="59.5252685863" lon="18.2507755468">
        <ele>57</ele>
        <time>2012-09-16T11:21:38Z</time>
      </trkpt>
      <trkpt lat="59.5253312829" lon="18.2507512393">
        <ele>57.4</ele>
        <time>2012-09-16T11:21:39Z</time>
      </trkpt>
      <trkpt lat="59.5253973323" lon="18.2507273509">
        <ele>57.8</ele>
        <time>2012-09-16T11:21:40Z</time>
      </trkpt>
      <trkpt lat="59.525468327" lon="18.2507063961">
        <ele>58.2</ele>
        <time>2012-09-16T11:21:41Z</time>
      </trkpt>
      <trkpt lat="59.5256738512" lon="18.250681921">
        <ele>58.2</ele>
        <time>2012-09-16T11:21:44Z</time>
      </trkpt>
      <trkpt lat="59.5259687264" lon="18.2507908019">
        <ele>58.2</ele>
        <time>2012-09-16T11:21:48Z</time>
      </trkpt>
      <trkpt lat="59.526136113" lon="18.2509217271">
        <ele>58.2</ele>
        <time>2012-09-16T11:21:50Z</time>
      </trkpt>
      <trkpt lat="59.5262197643" lon="18.2510244054">
        <ele>57.4</ele>
        <time>2012-09-16T11:21:51Z</time>
      </trkpt>
      <trkpt lat="59.526295872" lon="18.2511420035">
        <ele>57</ele>
        <time>2012-09-16T11:21:52Z</time>
      </trkpt>
      <trkpt lat="59.5263655256" lon="18.2512777064">
        <ele>56.6</ele>
        <time>2012-09-16T11:21:53Z</time>
      </trkpt>
      <trkpt lat="59.5264280545" lon="18.2514274072">
        <ele>56.2</ele>
        <time>2012-09-16T11:21:54Z</time>
      </trkpt>
      <trkpt lat="59.5264883204" lon="18.2515887587">
        <ele>55.6</ele>
        <time>2012-09-16T11:21:55Z</time>
      </trkpt>
      <trkpt lat="59.526554286" lon="18.2517662036">
        <ele>55.2</ele>
        <time>2012-09-16T11:21:56Z</time>
      </trkpt>
      <trkpt lat="59.5266208382" lon="18.2519402118">
        <ele>54.6</ele>
        <time>2012-09-16T11:21:57Z</time>
      </trkpt>
      <trkpt lat="59.5266873067" lon="18.2521206741">
        <ele>54.2</ele>
        <time>2012-09-16T11:21:58Z</time>
      </trkpt>
      <trkpt lat="59.5267576308" lon="18.2523046568">
        <ele>53.6</ele>
        <time>2012-09-16T11:21:59Z</time>
      </trkpt>
      <trkpt lat="59.5268184834" lon="18.2524860411">
        <ele>53</ele>
        <time>2012-09-16T11:22:00Z</time>
      </trkpt>
      <trkpt lat="59.5268883885" lon="18.2526566128">
        <ele>52.2</ele>
        <time>2012-09-16T11:22:01Z</time>
      </trkpt>
      <trkpt lat="59.5269693576" lon="18.2528077385">
        <ele>51.4</ele>
        <time>2012-09-16T11:22:02Z</time>
      </trkpt>
      <trkpt lat="59.5270632349" lon="18.2529498955">
        <ele>50.6</ele>
        <time>2012-09-16T11:22:03Z</time>
      </trkpt>
      <trkpt lat="59.5271532565" lon="18.2530736123">
        <ele>49.8</ele>
        <time>2012-09-16T11:22:04Z</time>
      </trkpt>
      <trkpt lat="59.5272528335" lon="18.2531777155">
        <ele>49</ele>
        <time>2012-09-16T11:22:05Z</time>
      </trkpt>
      <trkpt lat="59.5273529972" lon="18.2532799747">
        <ele>48.4</ele>
        <time>2012-09-16T11:22:06Z</time>
      </trkpt>
      <trkpt lat="59.5274503111" lon="18.2533878498">
        <ele>48</ele>
        <time>2012-09-16T11:22:07Z</time>
      </trkpt>
      <trkpt lat="59.5275468706" lon="18.2535036038">
        <ele>47</ele>
        <time>2012-09-16T11:22:08Z</time>
      </trkpt>
      <trkpt lat="59.5276377304" lon="18.253627153">
        <ele>46.2</ele>
        <time>2012-09-16T11:22:09Z</time>
      </trkpt>
      <trkpt lat="59.5277223875" lon="18.2537539712">
        <ele>45.4</ele>
        <time>2012-09-16T11:22:10Z</time>
      </trkpt>
      <trkpt lat="59.5278095593" lon="18.2538857346">
        <ele>44.6</ele>
        <time>2012-09-16T11:22:11Z</time>
      </trkpt>
      <trkpt lat="59.5278870081" lon="18.2540089485">
        <ele>43.8</ele>
        <time>2012-09-16T11:22:12Z</time>
      </trkpt>
      <trkpt lat="59.5280407321" lon="18.2542382773">
        <ele>43.8</ele>
        <time>2012-09-16T11:22:14Z</time>
      </trkpt>
      <trkpt lat="59.5281180132" lon="18.2543308973">
        <ele>42.8</ele>
        <time>2012-09-16T11:22:15Z</time>
      </trkpt>
      <trkpt lat="59.5281935341" lon="18.2544070888">
        <ele>42.4</ele>
        <time>2012-09-16T11:22:16Z</time>
      </trkpt>
      <trkpt lat="59.5282661214" lon="18.2544692825">
        <ele>42</ele>
        <time>2012-09-16T11:22:17Z</time>
      </trkpt>
      <trkpt lat="59.5283340148" lon="18.254529716">
        <ele>41.6</ele>
        <time>2012-09-16T11:22:18Z</time>
      </trkpt>
      <trkpt lat="59.5285470827" lon="18.2546548578">
        <ele>41.6</ele>
        <time>2012-09-16T11:22:21Z</time>
      </trkpt>
      <trkpt lat="59.5288555366" lon="18.2545876349">
        <ele>41.6</ele>
        <time>2012-09-16T11:22:25Z</time>
      </trkpt>
      <trkpt lat="59.529308243" lon="18.2543198332">
        <ele>41.6</ele>
        <time>2012-09-16T11:22:30Z</time>
      </trkpt>
      <trkpt lat="59.5294933992" lon="18.2542704638">
        <ele>41.6</ele>
        <time>2012-09-16T11:22:32Z</time>
      </trkpt>
      <trkpt lat="59.5296835845" lon="18.2543123733">
        <ele>41.6</ele>
        <time>2012-09-16T11:22:34Z</time>
      </trkpt>
      <trkpt lat="59.5299434234" lon="18.254474144">
        <ele>41.6</ele>
        <time>2012-09-16T11:22:37Z</time>
      </trkpt>
      <trkpt lat="59.5300232191" lon="18.2545396905">
        <ele>41.6</ele>
        <time>2012-09-16T11:22:38Z</time>
      </trkpt>
      <trkpt lat="59.5304008237" lon="18.2549017047">
        <ele>41.6</ele>
        <time>2012-09-16T11:22:43Z</time>
      </trkpt>
      <trkpt lat="59.5306487603" lon="18.2553347137">
        <ele>41.6</ele>
        <time>2012-09-16T11:22:47Z</time>
      </trkpt>
      <trkpt lat="59.5308018138" lon="18.255376707">
        <ele>41.6</ele>
        <time>2012-09-16T11:22:49Z</time>
      </trkpt>
      <trkpt lat="59.5309446414" lon="18.2553099032">
        <ele>41.6</ele>
        <time>2012-09-16T11:22:51Z</time>
      </trkpt>
      <trkpt lat="59.5310791709" lon="18.2552133438">
        <ele>41.6</ele>
        <time>2012-09-16T11:22:53Z</time>
      </trkpt>
      <trkpt lat="59.5313304602" lon="18.2549892118">
        <ele>42</ele>
        <time>2012-09-16T11:22:57Z</time>
      </trkpt>
      <trkpt lat="59.5313877086" lon="18.2549365734">
        <ele>42.6</ele>
        <time>2012-09-16T11:22:58Z</time>
      </trkpt>
      <trkpt lat="59.5314444541" lon="18.2548842704">
        <ele>43</ele>
        <time>2012-09-16T11:22:59Z</time>
      </trkpt>
      <trkpt lat="59.5314976791" lon="18.2548320511">
        <ele>43.6</ele>
        <time>2012-09-16T11:23:00Z</time>
      </trkpt>
      <trkpt lat="59.5315506527" lon="18.2547753895">
        <ele>44</ele>
        <time>2012-09-16T11:23:01Z</time>
      </trkpt>
      <trkpt lat="59.5316026205" lon="18.2547209071">
        <ele>44.6</ele>
        <time>2012-09-16T11:23:02Z</time>
      </trkpt>
      <trkpt lat="59.5316558456" lon="18.2546678497">
        <ele>45.2</ele>
        <time>2012-09-16T11:23:03Z</time>
      </trkpt>
      <trkpt lat="59.5317101603" lon="18.254611691">
        <ele>45.6</ele>
        <time>2012-09-16T11:23:04Z</time>
      </trkpt>
      <trkpt lat="59.5317645588" lon="18.2545583821">
        <ele>46.2</ele>
        <time>2012-09-16T11:23:05Z</time>
      </trkpt>
      <trkpt lat="59.5319184505" lon="18.2543819431">
        <ele>46.6</ele>
        <time>2012-09-16T11:23:08Z</time>
      </trkpt>
      <trkpt lat="59.5319671493" lon="18.2543177377">
        <ele>47</ele>
        <time>2012-09-16T11:23:09Z</time>
      </trkpt>
      <trkpt lat="59.5320185304" lon="18.2542492576">
        <ele>47.4</ele>
        <time>2012-09-16T11:23:10Z</time>
      </trkpt>
      <trkpt lat="59.5320690732" lon="18.2541848846">
        <ele>47.8</ele>
        <time>2012-09-16T11:23:11Z</time>
      </trkpt>
      <trkpt lat="59.532118275" lon="18.2541190029">
        <ele>48.2</ele>
        <time>2012-09-16T11:23:12Z</time>
      </trkpt>
      <trkpt lat="59.5322545647" lon="18.2539027499">
        <ele>48.2</ele>
        <time>2012-09-16T11:23:15Z</time>
      </trkpt>
      <trkpt lat="59.5323277387" lon="18.2537522948">
        <ele>48.6</ele>
        <time>2012-09-16T11:23:17Z</time>
      </trkpt>
      <trkpt lat="59.5323602604" lon="18.2536695654">
        <ele>49</ele>
        <time>2012-09-16T11:23:18Z</time>
      </trkpt>
      <trkpt lat="59.5323963864" lon="18.2535830642">
        <ele>49.6</ele>
        <time>2012-09-16T11:23:19Z</time>
      </trkpt>
      <trkpt lat="59.5324306684" lon="18.2534975688">
        <ele>50</ele>
        <time>2012-09-16T11:23:20Z</time>
      </trkpt>
      <trkpt lat="59.5324688061" lon="18.2534121573">
        <ele>50.4</ele>
        <time>2012-09-16T11:23:21Z</time>
      </trkpt>
      <trkpt lat="59.5326215243" lon="18.2532042023">
        <ele>50.4</ele>
        <time>2012-09-16T11:23:24Z</time>
      </trkpt>
      <trkpt lat="59.5327387032" lon="18.2531100736">
        <ele>50.4</ele>
        <time>2012-09-16T11:23:26Z</time>
      </trkpt>
      <trkpt lat="59.5329718877" lon="18.2529154459">
        <ele>50.4</ele>
        <time>2012-09-16T11:23:30Z</time>
      </trkpt>
      <trkpt lat="59.5330253642" lon="18.2528534198">
        <ele>50.4</ele>
        <time>2012-09-16T11:23:31Z</time>
      </trkpt>
      <trkpt lat="59.5330793436" lon="18.2527846044">
        <ele>50.8</ele>
        <time>2012-09-16T11:23:32Z</time>
      </trkpt>
      <trkpt lat="59.5331345804" lon="18.2527099217">
        <ele>51.2</ele>
        <time>2012-09-16T11:23:33Z</time>
      </trkpt>
      <trkpt lat="59.5331937566" lon="18.2526191457">
        <ele>51.6</ele>
        <time>2012-09-16T11:23:34Z</time>
      </trkpt>
      <trkpt lat="59.5332515917" lon="18.2525319739">
        <ele>52</ele>
        <time>2012-09-16T11:23:35Z</time>
      </trkpt>
      <trkpt lat="59.5333063255" lon="18.2524436287">
        <ele>52.4</ele>
        <time>2012-09-16T11:23:36Z</time>
      </trkpt>
      <trkpt lat="59.5335145319" lon="18.2521042456">
        <ele>52.4</ele>
        <time>2012-09-16T11:23:40Z</time>
      </trkpt>
      <trkpt lat="59.5338947349" lon="18.2516423191">
        <ele>52.4</ele>
        <time>2012-09-16T11:23:47Z</time>
      </trkpt>
      <trkpt lat="59.534003951" lon="18.251523799">
        <ele>53</ele>
        <time>2012-09-16T11:23:49Z</time>
      </trkpt>
      <trkpt lat="59.5340569246" lon="18.2514647904">
        <ele>53.4</ele>
        <time>2012-09-16T11:23:50Z</time>
      </trkpt>
      <trkpt lat="59.5341088086" lon="18.2514088832">
        <ele>53.8</ele>
        <time>2012-09-16T11:23:51Z</time>
      </trkpt>
      <trkpt lat="59.5341615308" lon="18.2513617769">
        <ele>54.2</ele>
        <time>2012-09-16T11:23:52Z</time>
      </trkpt>
      <trkpt lat="59.5342171028" lon="18.2513245613">
        <ele>54.6</ele>
        <time>2012-09-16T11:23:53Z</time>
      </trkpt>
      <trkpt lat="59.534272088" lon="18.2512998346">
        <ele>54.6</ele>
        <time>2012-09-16T11:23:54Z</time>
      </trkpt>
      <trkpt lat="59.5344292486" lon="18.251339984">
        <ele>55.2</ele>
        <time>2012-09-16T11:23:57Z</time>
      </trkpt>
      <trkpt lat="59.534470739" lon="18.2514093861">
        <ele>55.6</ele>
        <time>2012-09-16T11:23:58Z</time>
      </trkpt>
      <trkpt lat="59.534504099" lon="18.2514967255">
        <ele>56</ele>
        <time>2012-09-16T11:23:59Z</time>
      </trkpt>
      <trkpt lat="59.5345206114" lon="18.2515938717">
        <ele>56.4</ele>
        <time>2012-09-16T11:24:00Z</time>
      </trkpt>
      <trkpt lat="59.53452958" lon="18.2516960471">
        <ele>57</ele>
        <time>2012-09-16T11:24:01Z</time>
      </trkpt>
      <trkpt lat="59.534535112" lon="18.2518071911">
        <ele>57</ele>
        <time>2012-09-16T11:24:02Z</time>
      </trkpt>
      <trkpt lat="59.5345486907" lon="18.2520441474">
        <ele>57</ele>
        <time>2012-09-16T11:24:04Z</time>
      </trkpt>
      <trkpt lat="59.5345647001" lon="18.2521474124">
        <ele>57</ele>
        <time>2012-09-16T11:24:05Z</time>
      </trkpt>
      <trkpt lat="59.5346640257" lon="18.252405994">
        <ele>57</ele>
        <time>2012-09-16T11:24:08Z</time>
      </trkpt>
      <trkpt lat="59.5347596631" lon="18.2525312196">
        <ele>57.4</ele>
        <time>2012-09-16T11:24:10Z</time>
      </trkpt>
      <trkpt lat="59.5348116309" lon="18.2525904796">
        <ele>58</ele>
        <time>2012-09-16T11:24:11Z</time>
      </trkpt>
      <trkpt lat="59.5348630958" lon="18.2526459678">
        <ele>58.4</ele>
        <time>2012-09-16T11:24:12Z</time>
      </trkpt>
      <trkpt lat="59.5349190869" lon="18.2527080777">
        <ele>59</ele>
        <time>2012-09-16T11:24:13Z</time>
      </trkpt>
      <trkpt lat="59.5349749942" lon="18.2527666671">
        <ele>59.4</ele>
        <time>2012-09-16T11:24:14Z</time>
      </trkpt>
      <trkpt lat="59.5351821947" lon="18.2529665755">
        <ele>59.4</ele>
        <time>2012-09-16T11:24:18Z</time>
      </trkpt>
      <trkpt lat="59.5353726315" lon="18.2531678249">
        <ele>59.8</ele>
        <time>2012-09-16T11:24:22Z</time>
      </trkpt>
      <trkpt lat="59.5354156306" lon="18.2532229778">
        <ele>60.4</ele>
        <time>2012-09-16T11:24:23Z</time>
      </trkpt>
      <trkpt lat="59.535458546" lon="18.2532722634">
        <ele>60.8</ele>
        <time>2012-09-16T11:24:24Z</time>
      </trkpt>
      <trkpt lat="59.5355018804" lon="18.2533158492">
        <ele>61.2</ele>
        <time>2012-09-16T11:24:25Z</time>
      </trkpt>
      <trkpt lat="59.535544209" lon="18.2533759475">
        <ele>61.6</ele>
        <time>2012-09-16T11:24:26Z</time>
      </trkpt>
      <trkpt lat="59.535626184" lon="18.2534869238">
        <ele>61.6</ele>
        <time>2012-09-16T11:24:28Z</time>
      </trkpt>
      <trkpt lat="59.5356706919" lon="18.2535362094">
        <ele>61.6</ele>
        <time>2012-09-16T11:24:29Z</time>
      </trkpt>
      <trkpt lat="59.5358466279" lon="18.2536969742">
        <ele>61.6</ele>
        <time>2012-09-16T11:24:33Z</time>
      </trkpt>
      <trkpt lat="59.5360000167" lon="18.2538372034">
        <ele>61.6</ele>
        <time>2012-09-16T11:24:36Z</time>
      </trkpt>
      <trkpt lat="59.5361062992" lon="18.2538939489">
        <ele>61.6</ele>
        <time>2012-09-16T11:24:38Z</time>
      </trkpt>
      <trkpt lat="59.5363910323" lon="18.2539264707">
        <ele>61.6</ele>
        <time>2012-09-16T11:24:42Z</time>
      </trkpt>
      <trkpt lat="59.536558838" lon="18.2538947033">
        <ele>61.6</ele>
        <time>2012-09-16T11:24:44Z</time>
      </trkpt>
      <trkpt lat="59.5366485243" lon="18.2538253849">
        <ele>61.6</ele>
        <time>2012-09-16T11:24:45Z</time>
      </trkpt>
      <trkpt lat="59.5368727401" lon="18.2534694056">
        <ele>61.6</ele>
        <time>2012-09-16T11:24:48Z</time>
      </trkpt>
      <trkpt lat="59.5369360235" lon="18.2533306014">
        <ele>61.6</ele>
        <time>2012-09-16T11:24:49Z</time>
      </trkpt>
      <trkpt lat="59.5371539529" lon="18.25290522">
        <ele>61.6</ele>
        <time>2012-09-16T11:24:53Z</time>
      </trkpt>
      <trkpt lat="59.5373660988" lon="18.2529270967">
        <ele>61.6</ele>
        <time>2012-09-16T11:24:56Z</time>
      </trkpt>
      <trkpt lat="59.5375439627" lon="18.2532373947">
        <ele>61.6</ele>
        <time>2012-09-16T11:24:59Z</time>
      </trkpt>
      <trkpt lat="59.5379131016" lon="18.2539024984">
        <ele>61.6</ele>
        <time>2012-09-16T11:25:06Z</time>
      </trkpt>
      <trkpt lat="59.5379747085" lon="18.2539786899">
        <ele>61.6</ele>
        <time>2012-09-16T11:25:07Z</time>
      </trkpt>
      <trkpt lat="59.5381005208" lon="18.2540931028">
        <ele>61.6</ele>
        <time>2012-09-16T11:25:09Z</time>
      </trkpt>
      <trkpt lat="59.538169923" lon="18.2541180809">
        <ele>61.6</ele>
        <time>2012-09-16T11:25:10Z</time>
      </trkpt>
      <trkpt lat="59.5383892773" lon="18.254105508">
        <ele>61.6</ele>
        <time>2012-09-16T11:25:13Z</time>
      </trkpt>
      <trkpt lat="59.5384601882" lon="18.254091175">
        <ele>61.6</ele>
        <time>2012-09-16T11:25:14Z</time>
      </trkpt>
      <trkpt lat="59.5386162592" lon="18.2540511933">
        <ele>61.6</ele>
        <time>2012-09-16T11:25:16Z</time>
      </trkpt>
      <trkpt lat="59.5386971445" lon="18.2539923524">
        <ele>61.2</ele>
        <time>2012-09-16T11:25:17Z</time>
      </trkpt>
      <trkpt lat="59.5387697317" lon="18.253892021">
        <ele>60.6</ele>
        <time>2012-09-16T11:25:18Z</time>
      </trkpt>
      <trkpt lat="59.5388299976" lon="18.2537535521">
        <ele>60.2</ele>
        <time>2012-09-16T11:25:19Z</time>
      </trkpt>
      <trkpt lat="59.5388789479" lon="18.2536135743">
        <ele>59.8</ele>
        <time>2012-09-16T11:25:20Z</time>
      </trkpt>
      <trkpt lat="59.5389308319" lon="18.2534860856">
        <ele>59.4</ele>
        <time>2012-09-16T11:25:21Z</time>
      </trkpt>
      <trkpt lat="59.5391293991" lon="18.2532959003">
        <ele>59.4</ele>
        <time>2012-09-16T11:25:24Z</time>
      </trkpt>
      <trkpt lat="59.5393436404" lon="18.2533017676">
        <ele>59.4</ele>
        <time>2012-09-16T11:25:27Z</time>
      </trkpt>
      <trkpt lat="59.53941606" lon="18.2533114068">
        <ele>59.4</ele>
        <time>2012-09-16T11:25:28Z</time>
      </trkpt>
      <trkpt lat="59.5397229214" lon="18.2532745265">
        <ele>59.4</ele>
        <time>2012-09-16T11:25:32Z</time>
      </trkpt>
      <trkpt lat="59.539800454" lon="18.2532422562">
        <ele>59.4</ele>
        <time>2012-09-16T11:25:33Z</time>
      </trkpt>
      <trkpt lat="59.5401691738" lon="18.252951991">
        <ele>59.4</ele>
        <time>2012-09-16T11:25:39Z</time>
      </trkpt>
      <trkpt lat="59.5403141806" lon="18.2527751329">
        <ele>59.4</ele>
        <time>2012-09-16T11:25:41Z</time>
      </trkpt>
      <trkpt lat="59.5404368078" lon="18.2525376736">
        <ele>59.4</ele>
        <time>2012-09-16T11:25:43Z</time>
      </trkpt>
      <trkpt lat="59.5406691541" lon="18.2519531199">
        <ele>59.4</ele>
        <time>2012-09-16T11:25:48Z</time>
      </trkpt>
      <trkpt lat="59.5408837307" lon="18.2517289041">
        <ele>59.4</ele>
        <time>2012-09-16T11:25:52Z</time>
      </trkpt>
      <trkpt lat="59.5410343535" lon="18.2516473482">
        <ele>59.8</ele>
        <time>2012-09-16T11:25:55Z</time>
      </trkpt>
      <trkpt lat="59.5410810407" lon="18.2516170896">
        <ele>60.2</ele>
        <time>2012-09-16T11:25:56Z</time>
      </trkpt>
      <trkpt lat="59.5411243751" lon="18.2515847354">
        <ele>60.6</ele>
        <time>2012-09-16T11:25:57Z</time>
      </trkpt>
      <trkpt lat="59.5411648597" lon="18.2515461787">
        <ele>61.2</ele>
        <time>2012-09-16T11:25:58Z</time>
      </trkpt>
      <trkpt lat="59.5412037517" lon="18.2515033472">
        <ele>61.6</ele>
        <time>2012-09-16T11:25:59Z</time>
      </trkpt>
      <trkpt lat="59.5412380337" lon="18.2514629464">
        <ele>62</ele>
        <time>2012-09-16T11:26:00Z</time>
      </trkpt>
      <trkpt lat="59.5412723994" lon="18.2514182709">
        <ele>62.4</ele>
        <time>2012-09-16T11:26:01Z</time>
      </trkpt>
      <trkpt lat="59.5413048374" lon="18.2513745174">
        <ele>62.8</ele>
        <time>2012-09-16T11:26:02Z</time>
      </trkpt>
      <trkpt lat="59.5413404605" lon="18.2513237231">
        <ele>63.2</ele>
        <time>2012-09-16T11:26:03Z</time>
      </trkpt>
      <trkpt lat="59.541374491" lon="18.2512687378">
        <ele>63.6</ele>
        <time>2012-09-16T11:26:04Z</time>
      </trkpt>
      <trkpt lat="59.541410617" lon="18.2512151775">
        <ele>64</ele>
        <time>2012-09-16T11:26:05Z</time>
      </trkpt>
      <trkpt lat="59.5414481679" lon="18.2511617009">
        <ele>64.4</ele>
        <time>2012-09-16T11:26:06Z</time>
      </trkpt>
      <trkpt lat="59.5414888201" lon="18.251107973">
        <ele>64.8</ele>
        <time>2012-09-16T11:26:07Z</time>
      </trkpt>
      <trkpt lat="59.541530059" lon="18.2510489644">
        <ele>65.2</ele>
        <time>2012-09-16T11:26:08Z</time>
      </trkpt>
      <trkpt lat="59.5415702083" lon="18.2509902073">
        <ele>65.8</ele>
        <time>2012-09-16T11:26:09Z</time>
      </trkpt>
      <trkpt lat="59.5416089327" lon="18.2509335456">
        <ele>66.2</ele>
        <time>2012-09-16T11:26:10Z</time>
      </trkpt>
      <trkpt lat="59.5416460645" lon="18.2508815778">
        <ele>66.8</ele>
        <time>2012-09-16T11:26:11Z</time>
      </trkpt>
      <trkpt lat="59.5416830287" lon="18.2508387463">
        <ele>67.4</ele>
        <time>2012-09-16T11:26:12Z</time>
      </trkpt>
      <trkpt lat="59.5417182327" lon="18.2507841802">
        <ele>67.8</ele>
        <time>2012-09-16T11:26:13Z</time>
      </trkpt>
      <trkpt lat="59.5417549454" lon="18.2507335535">
        <ele>68.2</ele>
        <time>2012-09-16T11:26:14Z</time>
      </trkpt>
      <trkpt lat="59.5417916581" lon="18.2506808313">
        <ele>68.8</ele>
        <time>2012-09-16T11:26:15Z</time>
      </trkpt>
      <trkpt lat="59.5418301311" lon="18.2506255946">
        <ele>69.2</ele>
        <time>2012-09-16T11:26:16Z</time>
      </trkpt>
      <trkpt lat="59.5418719567" lon="18.2505747165">
        <ele>70</ele>
        <time>2012-09-16T11:26:17Z</time>
      </trkpt>
      <trkpt lat="59.5419136148" lon="18.2505150374">
        <ele>70</ele>
        <time>2012-09-16T11:26:18Z</time>
      </trkpt>
      <trkpt lat="59.5419576198" lon="18.2504465572">
        <ele>70.4</ele>
        <time>2012-09-16T11:26:19Z</time>
      </trkpt>
      <trkpt lat="59.541996428" lon="18.2503712878">
        <ele>71</ele>
        <time>2012-09-16T11:26:20Z</time>
      </trkpt>
      <trkpt lat="59.5420348171" lon="18.2502961021">
        <ele>71.6</ele>
        <time>2012-09-16T11:26:21Z</time>
      </trkpt>
      <trkpt lat="59.5420703563" lon="18.2502253589">
        <ele>72</ele>
        <time>2012-09-16T11:26:22Z</time>
      </trkpt>
      <trkpt lat="59.5421027943" lon="18.2501556215">
        <ele>72.6</ele>
        <time>2012-09-16T11:26:23Z</time>
      </trkpt>
      <trkpt lat="59.5422602902" lon="18.2497888295">
        <ele>72.6</ele>
        <time>2012-09-16T11:26:28Z</time>
      </trkpt>
      <trkpt lat="59.5423542513" lon="18.2495641946">
        <ele>73</ele>
        <time>2012-09-16T11:26:31Z</time>
      </trkpt>
      <trkpt lat="59.5423852643" lon="18.2494842313">
        <ele>73.4</ele>
        <time>2012-09-16T11:26:32Z</time>
      </trkpt>
      <trkpt lat="59.5424145171" lon="18.24939312">
        <ele>73.8</ele>
        <time>2012-09-16T11:26:33Z</time>
      </trkpt>
      <trkpt lat="59.5424415907" lon="18.2493029308">
        <ele>74.4</ele>
        <time>2012-09-16T11:26:34Z</time>
      </trkpt>
      <trkpt lat="59.5424697539" lon="18.2492139988">
        <ele>74.8</ele>
        <time>2012-09-16T11:26:35Z</time>
      </trkpt>
      <trkpt lat="59.5426117432" lon="18.2487277648">
        <ele>74.8</ele>
        <time>2012-09-16T11:26:40Z</time>
      </trkpt>
      <trkpt lat="59.5428090532" lon="18.2480514293">
        <ele>74.8</ele>
        <time>2012-09-16T11:26:47Z</time>
      </trkpt>
      <trkpt lat="59.5428423293" lon="18.2479572167">
        <ele>74.4</ele>
        <time>2012-09-16T11:26:48Z</time>
      </trkpt>
      <trkpt lat="59.542881389" lon="18.2478628366">
        <ele>74</ele>
        <time>2012-09-16T11:26:49Z</time>
      </trkpt>
      <trkpt lat="59.5429205324" lon="18.2477631758">
        <ele>73.6</ele>
        <time>2012-09-16T11:26:50Z</time>
      </trkpt>
      <trkpt lat="59.5429623581" lon="18.2476688794">
        <ele>73.2</ele>
        <time>2012-09-16T11:26:51Z</time>
      </trkpt>
      <trkpt lat="59.5430038485" lon="18.2475871559">
        <ele>72.6</ele>
        <time>2012-09-16T11:26:52Z</time>
      </trkpt>
      <trkpt lat="59.5430484402" lon="18.2475151553">
        <ele>72.6</ele>
        <time>2012-09-16T11:26:53Z</time>
      </trkpt>
      <trkpt lat="59.5431983924" lon="18.2473510377">
        <ele>72.6</ele>
        <time>2012-09-16T11:26:56Z</time>
      </trkpt>
      <trkpt lat="59.5433146494" lon="18.2472739243">
        <ele>72.6</ele>
        <time>2012-09-16T11:26:58Z</time>
      </trkpt>
      <trkpt lat="59.5434402102" lon="18.2472352837">
        <ele>72.6</ele>
        <time>2012-09-16T11:27:00Z</time>
      </trkpt>
      <trkpt lat="59.5437702056" lon="18.2470957251">
        <ele>72.6</ele>
        <time>2012-09-16T11:27:05Z</time>
      </trkpt>
      <trkpt lat="59.5441136959" lon="18.2469412466">
        <ele>72.6</ele>
        <time>2012-09-16T11:27:10Z</time>
      </trkpt>
      <trkpt lat="59.5443053061" lon="18.2467924679">
        <ele>72.6</ele>
        <time>2012-09-16T11:27:13Z</time>
      </trkpt>
      <trkpt lat="59.5443703497" lon="18.2467249098">
        <ele>72.6</ele>
        <time>2012-09-16T11:27:14Z</time>
      </trkpt>
      <trkpt lat="59.5446830784" lon="18.246339091">
        <ele>72.6</ele>
        <time>2012-09-16T11:27:19Z</time>
      </trkpt>
      <trkpt lat="59.5448227208" lon="18.2462350716">
        <ele>73.2</ele>
        <time>2012-09-16T11:27:21Z</time>
      </trkpt>
      <trkpt lat="59.5448920391" lon="18.2462147874">
        <ele>73.6</ele>
        <time>2012-09-16T11:27:22Z</time>
      </trkpt>
      <trkpt lat="59.5449578371" lon="18.2462067408">
        <ele>74</ele>
        <time>2012-09-16T11:27:23Z</time>
      </trkpt>
      <trkpt lat="59.5450250599" lon="18.2462142845">
        <ele>74.4</ele>
        <time>2012-09-16T11:27:24Z</time>
      </trkpt>
      <trkpt lat="59.5450883432" lon="18.2462314674">
        <ele>75</ele>
        <time>2012-09-16T11:27:25Z</time>
      </trkpt>
      <trkpt lat="59.5452136526" lon="18.2462893025">
        <ele>75</ele>
        <time>2012-09-16T11:27:27Z</time>
      </trkpt>
      <trkpt lat="59.5455444024" lon="18.2464303698">
        <ele>75</ele>
        <time>2012-09-16T11:27:32Z</time>
      </trkpt>
      <trkpt lat="59.5459365915" lon="18.2466281827">
        <ele>75</ele>
        <time>2012-09-16T11:27:38Z</time>
      </trkpt>
      <trkpt lat="59.5463411858" lon="18.2467511452">
        <ele>75</ele>
        <time>2012-09-16T11:27:44Z</time>
      </trkpt>
      <trkpt lat="59.5464826723" lon="18.2467541626">
        <ele>75</ele>
        <time>2012-09-16T11:27:46Z</time>
      </trkpt>
      <trkpt lat="59.5467015237" lon="18.2467260833">
        <ele>75</ele>
        <time>2012-09-16T11:27:49Z</time>
      </trkpt>
      <trkpt lat="59.5468470335" lon="18.2466569326">
        <ele>75</ele>
        <time>2012-09-16T11:27:51Z</time>
      </trkpt>
      <trkpt lat="59.5470704949" lon="18.24652014">
        <ele>75</ele>
        <time>2012-09-16T11:27:54Z</time>
      </trkpt>
      <trkpt lat="59.5475253807" lon="18.2462601335">
        <ele>75</ele>
        <time>2012-09-16T11:28:00Z</time>
      </trkpt>
      <trkpt lat="59.5476573118" lon="18.246143206">
        <ele>75</ele>
        <time>2012-09-16T11:28:02Z</time>
      </trkpt>
      <trkpt lat="59.5477837946" lon="18.2459821897">
        <ele>75</ele>
        <time>2012-09-16T11:28:04Z</time>
      </trkpt>
      <trkpt lat="59.5480486627" lon="18.2456868953">
        <ele>75</ele>
        <time>2012-09-16T11:28:08Z</time>
      </trkpt>
      <trkpt lat="59.5481235969" lon="18.2456542059">
        <ele>75</ele>
        <time>2012-09-16T11:28:09Z</time>
      </trkpt>
      <trkpt lat="59.5484557716" lon="18.2456920921">
        <ele>75</ele>
        <time>2012-09-16T11:28:13Z</time>
      </trkpt>
      <trkpt lat="59.5486004432" lon="18.2458518511">
        <ele>75</ele>
        <time>2012-09-16T11:28:15Z</time>
      </trkpt>
      <trkpt lat="59.5486674145" lon="18.2459080937">
        <ele>75</ele>
        <time>2012-09-16T11:28:16Z</time>
      </trkpt>
      <trkpt lat="59.548739918" lon="18.245953775">
        <ele>75</ele>
        <time>2012-09-16T11:28:17Z</time>
      </trkpt>
      <trkpt lat="59.5489420894" lon="18.24592184">
        <ele>75</ele>
        <time>2012-09-16T11:28:20Z</time>
      </trkpt>
      <trkpt lat="59.5491438417" lon="18.2456830396">
        <ele>75</ele>
        <time>2012-09-16T11:28:23Z</time>
      </trkpt>
      <trkpt lat="59.5493061991" lon="18.2453618452">
        <ele>75</ele>
        <time>2012-09-16T11:28:26Z</time>
      </trkpt>
      <trkpt lat="59.5493502879" lon="18.2452458397">
        <ele>75</ele>
        <time>2012-09-16T11:28:27Z</time>
      </trkpt>
      <trkpt lat="59.5495072809" lon="18.2445861004">
        <ele>75</ele>
        <time>2012-09-16T11:28:32Z</time>
      </trkpt>
      <trkpt lat="59.5496986397" lon="18.2437573819">
        <ele>75</ele>
        <time>2012-09-16T11:28:38Z</time>
      </trkpt>
      <trkpt lat="59.5498195905" lon="18.2435569707">
        <ele>74.4</ele>
        <time>2012-09-16T11:28:40Z</time>
      </trkpt>
      <trkpt lat="59.549888825" lon="18.2434746604">
        <ele>74</ele>
        <time>2012-09-16T11:28:41Z</time>
      </trkpt>
      <trkpt lat="59.5499599035" lon="18.2433972117">
        <ele>73.6</ele>
        <time>2012-09-16T11:28:42Z</time>
      </trkpt>
      <trkpt lat="59.5500266234" lon="18.2433239539">
        <ele>73</ele>
        <time>2012-09-16T11:28:43Z</time>
      </trkpt>
      <trkpt lat="59.5500949359" lon="18.2432732434">
        <ele>72.6</ele>
        <time>2012-09-16T11:28:44Z</time>
      </trkpt>
      <trkpt lat="59.5502353328" lon="18.2431630214">
        <ele>72.6</ele>
        <time>2012-09-16T11:28:46Z</time>
      </trkpt>
      <trkpt lat="59.5506095846" lon="18.2429326868">
        <ele>72.6</ele>
        <time>2012-09-16T11:28:51Z</time>
      </trkpt>
      <trkpt lat="59.5507741213" lon="18.2429253945">
        <ele>72.6</ele>
        <time>2012-09-16T11:28:53Z</time>
      </trkpt>
      <trkpt lat="59.550968749" lon="18.2429518813">
        <ele>72.6</ele>
        <time>2012-09-16T11:28:55Z</time>
      </trkpt>
      <trkpt lat="59.5510757859" lon="18.2429709921">
        <ele>72</ele>
        <time>2012-09-16T11:28:56Z</time>
      </trkpt>
      <trkpt lat="59.5511942221" lon="18.2429698186">
        <ele>71.6</ele>
        <time>2012-09-16T11:28:57Z</time>
      </trkpt>
      <trkpt lat="59.551316514" lon="18.2429527195">
        <ele>70.8</ele>
        <time>2012-09-16T11:28:58Z</time>
      </trkpt>
      <trkpt lat="59.5514371296" lon="18.2429426613">
        <ele>70</ele>
        <time>2012-09-16T11:28:59Z</time>
      </trkpt>
      <trkpt lat="59.551550369" lon="18.2429331059">
        <ele>69.2</ele>
        <time>2012-09-16T11:29:00Z</time>
      </trkpt>
      <trkpt lat="59.5516626865" lon="18.242915001">
        <ele>68.4</ele>
        <time>2012-09-16T11:29:01Z</time>
      </trkpt>
      <trkpt lat="59.5517672088" lon="18.242891364">
        <ele>67.8</ele>
        <time>2012-09-16T11:29:02Z</time>
      </trkpt>
      <trkpt lat="59.5518760059" lon="18.2428647934">
        <ele>67.2</ele>
        <time>2012-09-16T11:29:03Z</time>
      </trkpt>
      <trkpt lat="59.5519899997" lon="18.2428269072">
        <ele>66.6</ele>
        <time>2012-09-16T11:29:04Z</time>
      </trkpt>
      <trkpt lat="59.5521054185" lon="18.242799666">
        <ele>66</ele>
        <time>2012-09-16T11:29:05Z</time>
      </trkpt>
      <trkpt lat="59.5522226812" lon="18.2427379753">
        <ele>65.4</ele>
        <time>2012-09-16T11:29:06Z</time>
      </trkpt>
      <trkpt lat="59.5523363398" lon="18.2426628734">
        <ele>65</ele>
        <time>2012-09-16T11:29:07Z</time>
      </trkpt>
      <trkpt lat="59.5524574583" lon="18.2425741929">
        <ele>64.6</ele>
        <time>2012-09-16T11:29:08Z</time>
      </trkpt>
      <trkpt lat="59.5525629864" lon="18.2424829979">
        <ele>64.2</ele>
        <time>2012-09-16T11:29:09Z</time>
      </trkpt>
      <trkpt lat="59.5526632339" lon="18.2423888691">
        <ele>63.8</ele>
        <time>2012-09-16T11:29:10Z</time>
      </trkpt>
      <trkpt lat="59.5527561054" lon="18.2422989313">
        <ele>63.4</ele>
        <time>2012-09-16T11:29:11Z</time>
      </trkpt>
      <trkpt lat="59.5530808202" lon="18.2418831891">
        <ele>63.4</ele>
        <time>2012-09-16T11:29:15Z</time>
      </trkpt>
      <trkpt lat="59.5531518149" lon="18.2417736377">
        <ele>63.4</ele>
        <time>2012-09-16T11:29:16Z</time>
      </trkpt>
      <trkpt lat="59.5532961512" lon="18.2415956061">
        <ele>63.4</ele>
        <time>2012-09-16T11:29:18Z</time>
      </trkpt>
      <trkpt lat="59.5534652141" lon="18.2414708834">
        <ele>63.4</ele>
        <time>2012-09-16T11:29:20Z</time>
      </trkpt>
      <trkpt lat="59.5535631985" lon="18.2414282196">
        <ele>63</ele>
        <time>2012-09-16T11:29:21Z</time>
      </trkpt>
      <trkpt lat="59.553670403" lon="18.2413839631">
        <ele>62.6</ele>
        <time>2012-09-16T11:29:22Z</time>
      </trkpt>
      <trkpt lat="59.5537794515" lon="18.2413705521">
        <ele>62.2</ele>
        <time>2012-09-16T11:29:23Z</time>
      </trkpt>
      <trkpt lat="59.5538865722" lon="18.2413570572">
        <ele>61.8</ele>
        <time>2012-09-16T11:29:24Z</time>
      </trkpt>
      <trkpt lat="59.5539847243" lon="18.2413404611">
        <ele>61.2</ele>
        <time>2012-09-16T11:29:25Z</time>
      </trkpt>
      <trkpt lat="59.5542845448" lon="18.2412295685">
        <ele>61.2</ele>
        <time>2012-09-16T11:29:28Z</time>
      </trkpt>
      <trkpt lat="59.5544787534" lon="18.2411599149">
        <ele>60.8</ele>
        <time>2012-09-16T11:29:30Z</time>
      </trkpt>
      <trkpt lat="59.5545745586" lon="18.2411224478">
        <ele>60.2</ele>
        <time>2012-09-16T11:29:31Z</time>
      </trkpt>
      <trkpt lat="59.5546756443" lon="18.2410865733">
        <ele>59.8</ele>
        <time>2012-09-16T11:29:32Z</time>
      </trkpt>
      <trkpt lat="59.5547711141" lon="18.2410504473">
        <ele>59.2</ele>
        <time>2012-09-16T11:29:33Z</time>
      </trkpt>
      <trkpt lat="59.5548629797" lon="18.2410092922">
        <ele>58.8</ele>
        <time>2012-09-16T11:29:34Z</time>
      </trkpt>
      <trkpt lat="59.5553970744" lon="18.2407787899">
        <ele>58.8</ele>
        <time>2012-09-16T11:29:40Z</time>
      </trkpt>
      <trkpt lat="59.5555677299" lon="18.2407093878">
        <ele>58.8</ele>
        <time>2012-09-16T11:29:42Z</time>
      </trkpt>
      <trkpt lat="59.5561431473" lon="18.240469414">
        <ele>58.4</ele>
        <time>2012-09-16T11:29:49Z</time>
      </trkpt>
      <trkpt lat="59.5562263796" lon="18.2404313602">
        <ele>57.8</ele>
        <time>2012-09-16T11:29:50Z</time>
      </trkpt>
      <trkpt lat="59.5563083546" lon="18.2404011015">
        <ele>57.4</ele>
        <time>2012-09-16T11:29:51Z</time>
      </trkpt>
      <trkpt lat="59.5563869768" lon="18.2403737765">
        <ele>57.6</ele>
        <time>2012-09-16T11:29:52Z</time>
      </trkpt>
      <trkpt lat="59.5564640065" lon="18.2403522351">
        <ele>58</ele>
        <time>2012-09-16T11:29:53Z</time>
      </trkpt>
      <trkpt lat="59.5565453947" lon="18.240348547">
        <ele>58.6</ele>
        <time>2012-09-16T11:29:54Z</time>
      </trkpt>
      <trkpt lat="59.556617982" lon="18.2403534085">
        <ele>59.2</ele>
        <time>2012-09-16T11:29:55Z</time>
      </trkpt>
      <trkpt lat="59.5566930838" lon="18.2403687474">
        <ele>59.8</ele>
        <time>2012-09-16T11:29:56Z</time>
      </trkpt>
      <trkpt lat="59.5567646652" lon="18.2403875229">
        <ele>60.4</ele>
        <time>2012-09-16T11:29:57Z</time>
      </trkpt>
      <trkpt lat="59.5568355761" lon="18.2404225592">
        <ele>60</ele>
        <time>2012-09-16T11:29:58Z</time>
      </trkpt>
      <trkpt lat="59.5569098397" lon="18.2404674024">
        <ele>59.4</ele>
        <time>2012-09-16T11:29:59Z</time>
      </trkpt>
      <trkpt lat="59.5569882943" lon="18.2405207951">
        <ele>59</ele>
        <time>2012-09-16T11:30:00Z</time>
      </trkpt>
      <trkpt lat="59.5570685929" lon="18.2405737687">
        <ele>58</ele>
        <time>2012-09-16T11:30:01Z</time>
      </trkpt>
      <trkpt lat="59.5573738617" lon="18.2408158379">
        <ele>58</ele>
        <time>2012-09-16T11:30:05Z</time>
      </trkpt>
      <trkpt lat="59.5578089661" lon="18.2410625173">
        <ele>58</ele>
        <time>2012-09-16T11:30:11Z</time>
      </trkpt>
      <trkpt lat="59.5579492791" lon="18.2410923568">
        <ele>58</ele>
        <time>2012-09-16T11:30:13Z</time>
      </trkpt>
      <trkpt lat="59.5580859041" lon="18.240986242">
        <ele>58</ele>
        <time>2012-09-16T11:30:15Z</time>
      </trkpt>
      <trkpt lat="59.5581689687" lon="18.2407367128">
        <ele>58</ele>
        <time>2012-09-16T11:30:17Z</time>
      </trkpt>
      <trkpt lat="59.5582094533" lon="18.2404573441">
        <ele>58</ele>
        <time>2012-09-16T11:30:19Z</time>
      </trkpt>
      <trkpt lat="59.5582491835" lon="18.2401815796">
        <ele>58</ele>
        <time>2012-09-16T11:30:21Z</time>
      </trkpt>
      <trkpt lat="59.5583139756" lon="18.2399036358">
        <ele>58</ele>
        <time>2012-09-16T11:30:23Z</time>
      </trkpt>
      <trkpt lat="59.5583773428" lon="18.2397852833">
        <ele>58</ele>
        <time>2012-09-16T11:30:24Z</time>
      </trkpt>
      <trkpt lat="59.5585408736" lon="18.2396494127">
        <ele>57</ele>
        <time>2012-09-16T11:30:26Z</time>
      </trkpt>
      <trkpt lat="59.5586426299" lon="18.239630302">
        <ele>56.6</ele>
        <time>2012-09-16T11:30:27Z</time>
      </trkpt>
      <trkpt lat="59.5587486609" lon="18.2396225068">
        <ele>56</ele>
        <time>2012-09-16T11:30:28Z</time>
      </trkpt>
      <trkpt lat="59.5588517583" lon="18.2396370075">
        <ele>55.4</ele>
        <time>2012-09-16T11:30:29Z</time>
      </trkpt>
      <trkpt lat="59.558958879" lon="18.2396411147">
        <ele>55.4</ele>
        <time>2012-09-16T11:30:30Z</time>
      </trkpt>
      <trkpt lat="59.5590600485" lon="18.2396294638">
        <ele>55.4</ele>
        <time>2012-09-16T11:30:31Z</time>
      </trkpt>
      <trkpt lat="59.5591683427" lon="18.2395745624">
        <ele>55.4</ele>
        <time>2012-09-16T11:30:32Z</time>
      </trkpt>
      <trkpt lat="59.5592523293" lon="18.2394685313">
        <ele>55</ele>
        <time>2012-09-16T11:30:33Z</time>
      </trkpt>
      <trkpt lat="59.5593149421" lon="18.2393196688">
        <ele>54.4</ele>
        <time>2012-09-16T11:30:34Z</time>
      </trkpt>
      <trkpt lat="59.5593672452" lon="18.2391633464">
        <ele>54</ele>
        <time>2012-09-16T11:30:35Z</time>
      </trkpt>
      <trkpt lat="59.5594121721" lon="18.238998642">
        <ele>53.4</ele>
        <time>2012-09-16T11:30:36Z</time>
      </trkpt>
      <trkpt lat="59.5594586079" lon="18.2388424034">
        <ele>53</ele>
        <time>2012-09-16T11:30:37Z</time>
      </trkpt>
      <trkpt lat="59.5595019423" lon="18.2386952172">
        <ele>52.4</ele>
        <time>2012-09-16T11:30:38Z</time>
      </trkpt>
      <trkpt lat="59.5595469531" lon="18.2385399006">
        <ele>52</ele>
        <time>2012-09-16T11:30:39Z</time>
      </trkpt>
      <trkpt lat="59.5595853422" lon="18.2383959834">
        <ele>51.6</ele>
        <time>2012-09-16T11:30:40Z</time>
      </trkpt>
      <trkpt lat="59.5596248209" lon="18.238255419">
        <ele>51</ele>
        <time>2012-09-16T11:30:41Z</time>
      </trkpt>
      <trkpt lat="59.5596680716" lon="18.2381091548">
        <ele>50.6</ele>
        <time>2012-09-16T11:30:42Z</time>
      </trkpt>
      <trkpt lat="59.5597076341" lon="18.2379667463">
        <ele>50.2</ele>
        <time>2012-09-16T11:30:43Z</time>
      </trkpt>
      <trkpt lat="59.5597478672" lon="18.2378277744">
        <ele>49.6</ele>
        <time>2012-09-16T11:30:44Z</time>
      </trkpt>
      <trkpt lat="59.5597859211" lon="18.2376907304">
        <ele>49.2</ele>
        <time>2012-09-16T11:30:45Z</time>
      </trkpt>
      <trkpt lat="59.5598260704" lon="18.2375572905">
        <ele>48.8</ele>
        <time>2012-09-16T11:30:46Z</time>
      </trkpt>
      <trkpt lat="59.5598663035" lon="18.2374169775">
        <ele>48.4</ele>
        <time>2012-09-16T11:30:47Z</time>
      </trkpt>
      <trkpt lat="59.5600511244" lon="18.2367632731">
        <ele>48</ele>
        <time>2012-09-16T11:30:52Z</time>
      </trkpt>
      <trkpt lat="59.5600863284" lon="18.2366290789">
        <ele>47.4</ele>
        <time>2012-09-16T11:30:53Z</time>
      </trkpt>
      <trkpt lat="59.5601219514" lon="18.2365037695">
        <ele>47</ele>
        <time>2012-09-16T11:30:54Z</time>
      </trkpt>
      <trkpt lat="59.5601601729" lon="18.2363839921">
        <ele>46.6</ele>
        <time>2012-09-16T11:30:55Z</time>
      </trkpt>
      <trkpt lat="59.5601910183" lon="18.2362715909">
        <ele>46.2</ele>
        <time>2012-09-16T11:30:56Z</time>
      </trkpt>
      <trkpt lat="59.5602221151" lon="18.2361643025">
        <ele>46.2</ele>
        <time>2012-09-16T11:30:57Z</time>
      </trkpt>
      <trkpt lat="59.5603605003" lon="18.2356967602">
        <ele>46.2</ele>
        <time>2012-09-16T11:31:02Z</time>
      </trkpt>
      <trkpt lat="59.5604029127" lon="18.2356348179">
        <ele>46.2</ele>
        <time>2012-09-16T11:31:03Z</time>
      </trkpt>
      <trkpt lat="59.5604936887" lon="18.2356608856">
        <ele>46.2</ele>
        <time>2012-09-16T11:31:05Z</time>
      </trkpt>
      <trkpt lat="59.5605878174" lon="18.2359007756">
        <ele>46.2</ele>
        <time>2012-09-16T11:31:08Z</time>
      </trkpt>
      <trkpt lat="59.5606588121" lon="18.2361075571">
        <ele>46.2</ele>
        <time>2012-09-16T11:31:10Z</time>
      </trkpt>
      <trkpt lat="59.5607342492" lon="18.2363380593">
        <ele>46.2</ele>
        <time>2012-09-16T11:31:12Z</time>
      </trkpt>
      <trkpt lat="59.560994172" lon="18.2370988844">
        <ele>46.2</ele>
        <time>2012-09-16T11:31:18Z</time>
      </trkpt>
      <trkpt lat="59.5613207308" lon="18.2380367352">
        <ele>46.2</ele>
        <time>2012-09-16T11:31:25Z</time>
      </trkpt>
      <trkpt lat="59.561369262" lon="18.2381677443">
        <ele>46.2</ele>
        <time>2012-09-16T11:31:26Z</time>
      </trkpt>
      <trkpt lat="59.5614636422" lon="18.2384311874">
        <ele>45.8</ele>
        <time>2012-09-16T11:31:28Z</time>
      </trkpt>
      <trkpt lat="59.5615116705" lon="18.2385642082">
        <ele>45.4</ele>
        <time>2012-09-16T11:31:29Z</time>
      </trkpt>
      <trkpt lat="59.5615617104" lon="18.2387015875">
        <ele>45</ele>
        <time>2012-09-16T11:31:30Z</time>
      </trkpt>
      <trkpt lat="59.5616125885" lon="18.2388372905">
        <ele>44.6</ele>
        <time>2012-09-16T11:31:31Z</time>
      </trkpt>
      <trkpt lat="59.561663299" lon="18.238974586">
        <ele>44.2</ele>
        <time>2012-09-16T11:31:32Z</time>
      </trkpt>
      <trkpt lat="59.5618065457" lon="18.2394037393">
        <ele>44.2</ele>
        <time>2012-09-16T11:31:35Z</time>
      </trkpt>
      <trkpt lat="59.5620631995" lon="18.2400928991">
        <ele>44.2</ele>
        <time>2012-09-16T11:31:40Z</time>
      </trkpt>
      <trkpt lat="59.5623374552" lon="18.2408833122">
        <ele>44.2</ele>
        <time>2012-09-16T11:31:46Z</time>
      </trkpt>
      <trkpt lat="59.5625541274" lon="18.241501645">
        <ele>44.2</ele>
        <time>2012-09-16T11:31:51Z</time>
      </trkpt>
      <trkpt lat="59.5628284669" lon="18.2424617917">
        <ele>44.2</ele>
        <time>2012-09-16T11:31:58Z</time>
      </trkpt>
      <trkpt lat="59.5628657664" lon="18.2426003445">
        <ele>44.2</ele>
        <time>2012-09-16T11:31:59Z</time>
      </trkpt>
      <trkpt lat="59.5631378429" lon="18.2435737345">
        <ele>44.2</ele>
        <time>2012-09-16T11:32:06Z</time>
      </trkpt>
      <trkpt lat="59.5633059838" lon="18.2442519979">
        <ele>44.6</ele>
        <time>2012-09-16T11:32:11Z</time>
      </trkpt>
      <trkpt lat="59.5633400143" lon="18.2443852701">
        <ele>45</ele>
        <time>2012-09-16T11:32:12Z</time>
      </trkpt>
      <trkpt lat="59.5633737095" lon="18.2445244934">
        <ele>45.4</ele>
        <time>2012-09-16T11:32:13Z</time>
      </trkpt>
      <trkpt lat="59.5634105899" lon="18.2446653093">
        <ele>45.8</ele>
        <time>2012-09-16T11:32:14Z</time>
      </trkpt>
      <trkpt lat="59.5634450395" lon="18.2448169379">
        <ele>46.2</ele>
        <time>2012-09-16T11:32:15Z</time>
      </trkpt>
      <trkpt lat="59.5635109212" lon="18.2451387191">
        <ele>46.2</ele>
        <time>2012-09-16T11:32:17Z</time>
      </trkpt>
      <trkpt lat="59.5636088218" lon="18.2459993725">
        <ele>46.2</ele>
        <time>2012-09-16T11:32:22Z</time>
      </trkpt>
      <trkpt lat="59.5637257493" lon="18.2470174381">
        <ele>46.2</ele>
        <time>2012-09-16T11:32:28Z</time>
      </trkpt>
      <trkpt lat="59.5637663177" lon="18.2473451704">
        <ele>46.2</ele>
        <time>2012-09-16T11:32:30Z</time>
      </trkpt>
      <trkpt lat="59.5639264958" lon="18.2484716978">
        <ele>46.2</ele>
        <time>2012-09-16T11:32:37Z</time>
      </trkpt>
      <trkpt lat="59.5640989115" lon="18.2495538849">
        <ele>46.2</ele>
        <time>2012-09-16T11:32:44Z</time>
      </trkpt>
      <trkpt lat="59.5642745962" lon="18.2505721181">
        <ele>46.2</ele>
        <time>2012-09-16T11:32:51Z</time>
      </trkpt>
      <trkpt lat="59.5644620993" lon="18.2516044329">
        <ele>46.2</ele>
        <time>2012-09-16T11:32:58Z</time>
      </trkpt>
      <trkpt lat="59.5644898433" lon="18.2517543851">
        <ele>46.2</ele>
        <time>2012-09-16T11:32:59Z</time>
      </trkpt>
      <trkpt lat="59.5647092815" lon="18.252768595">
        <ele>46.2</ele>
        <time>2012-09-16T11:33:06Z</time>
      </trkpt>
      <trkpt lat="59.5648240297" lon="18.2531669029">
        <ele>46.6</ele>
        <time>2012-09-16T11:33:09Z</time>
      </trkpt>
      <trkpt lat="59.5648635923" lon="18.2532931343">
        <ele>47.2</ele>
        <time>2012-09-16T11:33:10Z</time>
      </trkpt>
      <trkpt lat="59.5649002212" lon="18.2534240596">
        <ele>47.8</ele>
        <time>2012-09-16T11:33:11Z</time>
      </trkpt>
      <trkpt lat="59.5649405381" lon="18.2535478602">
        <ele>48.2</ele>
        <time>2012-09-16T11:33:12Z</time>
      </trkpt>
      <trkpt lat="59.5649842078" lon="18.2536840661">
        <ele>48.8</ele>
        <time>2012-09-16T11:33:13Z</time>
      </trkpt>
      <trkpt lat="59.5653023847" lon="18.254555197">
        <ele>48.8</ele>
        <time>2012-09-16T11:33:20Z</time>
      </trkpt>
      <trkpt lat="59.5653496586" lon="18.2546703643">
        <ele>49.2</ele>
        <time>2012-09-16T11:33:21Z</time>
      </trkpt>
      <trkpt lat="59.5654017941" lon="18.2547804186">
        <ele>49.6</ele>
        <time>2012-09-16T11:33:22Z</time>
      </trkpt>
      <trkpt lat="59.5654535104" lon="18.2548888804">
        <ele>50</ele>
        <time>2012-09-16T11:33:23Z</time>
      </trkpt>
      <trkpt lat="59.5655095853" lon="18.2550038801">
        <ele>50.6</ele>
        <time>2012-09-16T11:33:24Z</time>
      </trkpt>
      <trkpt lat="59.5655636486" lon="18.2551130124">
        <ele>51</ele>
        <time>2012-09-16T11:33:25Z</time>
      </trkpt>
      <trkpt lat="59.5656726133" lon="18.2553242363">
        <ele>51</ele>
        <time>2012-09-16T11:33:27Z</time>
      </trkpt>
      <trkpt lat="59.5660867629" lon="18.2560757575">
        <ele>51</ele>
        <time>2012-09-16T11:33:34Z</time>
      </trkpt>
      <trkpt lat="59.5661495434" lon="18.256192182">
        <ele>51</ele>
        <time>2012-09-16T11:33:35Z</time>
      </trkpt>
      <trkpt lat="59.5663314306" lon="18.2565515979">
        <ele>51</ele>
        <time>2012-09-16T11:33:38Z</time>
      </trkpt>
      <trkpt lat="59.5665340211" lon="18.2569186413">
        <ele>51</ele>
        <time>2012-09-16T11:33:41Z</time>
      </trkpt>
      <trkpt lat="59.5669265455" lon="18.2576323601">
        <ele>51</ele>
        <time>2012-09-16T11:33:47Z</time>
      </trkpt>
      <trkpt lat="59.567114803" lon="18.2579708212">
        <ele>51</ele>
        <time>2012-09-16T11:33:50Z</time>
      </trkpt>
      <trkpt lat="59.5675538469" lon="18.2587602286">
        <ele>51</ele>
        <time>2012-09-16T11:33:57Z</time>
      </trkpt>
      <trkpt lat="59.5676739595" lon="18.2589786609">
        <ele>51</ele>
        <time>2012-09-16T11:33:59Z</time>
      </trkpt>
      <trkpt lat="59.5680816551" lon="18.2597123286">
        <ele>51</ele>
        <time>2012-09-16T11:34:06Z</time>
      </trkpt>
      <trkpt lat="59.5682019354" lon="18.2599266538">
        <ele>51</ele>
        <time>2012-09-16T11:34:08Z</time>
      </trkpt>
      <trkpt lat="59.5686018358" lon="18.2606482515">
        <ele>51</ele>
        <time>2012-09-16T11:34:15Z</time>
      </trkpt>
      <trkpt lat="59.5690488426" lon="18.2614488068">
        <ele>51</ele>
        <time>2012-09-16T11:34:23Z</time>
      </trkpt>
      <trkpt lat="59.5691959449" lon="18.2617078075">
        <ele>51.4</ele>
        <time>2012-09-16T11:34:26Z</time>
      </trkpt>
      <trkpt lat="59.5692416263" lon="18.2617865974">
        <ele>51.8</ele>
        <time>2012-09-16T11:34:27Z</time>
      </trkpt>
      <trkpt lat="59.5692864694" lon="18.2618674827">
        <ele>52.2</ele>
        <time>2012-09-16T11:34:28Z</time>
      </trkpt>
      <trkpt lat="59.5693308097" lon="18.2619448476">
        <ele>52.6</ele>
        <time>2012-09-16T11:34:29Z</time>
      </trkpt>
      <trkpt lat="59.5693769101" lon="18.2620309298">
        <ele>53</ele>
        <time>2012-09-16T11:34:30Z</time>
      </trkpt>
      <trkpt lat="59.5695209112" lon="18.262269311">
        <ele>53.4</ele>
        <time>2012-09-16T11:34:33Z</time>
      </trkpt>
      <trkpt lat="59.5695710349" lon="18.2623544711">
        <ele>54</ele>
        <time>2012-09-16T11:34:34Z</time>
      </trkpt>
      <trkpt lat="59.5696199014" lon="18.262428148">
        <ele>54.4</ele>
        <time>2012-09-16T11:34:35Z</time>
      </trkpt>
      <trkpt lat="59.5696677621" lon="18.2625097877">
        <ele>54.8</ele>
        <time>2012-09-16T11:34:36Z</time>
      </trkpt>
      <trkpt lat="59.5697137787" lon="18.2625882423">
        <ele>55.2</ele>
        <time>2012-09-16T11:34:37Z</time>
      </trkpt>
      <trkpt lat="59.569850236" lon="18.2628185769">
        <ele>55.6</ele>
        <time>2012-09-16T11:34:40Z</time>
      </trkpt>
      <trkpt lat="59.5698961688" lon="18.2628982888">
        <ele>56.2</ele>
        <time>2012-09-16T11:34:41Z</time>
      </trkpt>
      <trkpt lat="59.5699421855" lon="18.262973223">
        <ele>56.6</ele>
        <time>2012-09-16T11:34:42Z</time>
      </trkpt>
      <trkpt lat="59.5699914711" lon="18.2630487439">
        <ele>57</ele>
        <time>2012-09-16T11:34:43Z</time>
      </trkpt>
      <trkpt lat="59.5700379906" lon="18.263124181">
        <ele>57.4</ele>
        <time>2012-09-16T11:34:44Z</time>
      </trkpt>
      <trkpt lat="59.5700881982" lon="18.263195008">
        <ele>57.4</ele>
        <time>2012-09-16T11:34:45Z</time>
      </trkpt>
      <trkpt lat="59.5701862664" lon="18.2633448764">
        <ele>57.8</ele>
        <time>2012-09-16T11:34:47Z</time>
      </trkpt>
      <trkpt lat="59.5702358034" lon="18.2634202297">
        <ele>58.2</ele>
        <time>2012-09-16T11:34:48Z</time>
      </trkpt>
      <trkpt lat="59.5702836641" lon="18.2634973432">
        <ele>58.6</ele>
        <time>2012-09-16T11:34:49Z</time>
      </trkpt>
      <trkpt lat="59.5703298484" lon="18.263574289">
        <ele>59.2</ele>
        <time>2012-09-16T11:34:50Z</time>
      </trkpt>
      <trkpt lat="59.5703769546" lon="18.2636556773">
        <ele>59.6</ele>
        <time>2012-09-16T11:34:51Z</time>
      </trkpt>
      <trkpt lat="59.5705626137" lon="18.2639872652">
        <ele>59.6</ele>
        <time>2012-09-16T11:34:55Z</time>
      </trkpt>
      <trkpt lat="59.5706488635" lon="18.2641673084">
        <ele>60</ele>
        <time>2012-09-16T11:34:57Z</time>
      </trkpt>
      <trkpt lat="59.5706890128" lon="18.2642556537">
        <ele>60.4</ele>
        <time>2012-09-16T11:34:58Z</time>
      </trkpt>
      <trkpt lat="59.5707258931" lon="18.2643504529">
        <ele>60.8</ele>
        <time>2012-09-16T11:34:59Z</time>
      </trkpt>
      <trkpt lat="59.5707662939" lon="18.2644553105">
        <ele>61.2</ele>
        <time>2012-09-16T11:35:00Z</time>
      </trkpt>
      <trkpt lat="59.5708044315" lon="18.2645516185">
        <ele>61.6</ele>
        <time>2012-09-16T11:35:01Z</time>
      </trkpt>
      <trkpt lat="59.5708357798" lon="18.2646488486">
        <ele>61.6</ele>
        <time>2012-09-16T11:35:02Z</time>
      </trkpt>
      <trkpt lat="59.5710506918" lon="18.2653095938">
        <ele>61.6</ele>
        <time>2012-09-16T11:35:08Z</time>
      </trkpt>
      <trkpt lat="59.5711444014" lon="18.2655284452">
        <ele>62.2</ele>
        <time>2012-09-16T11:35:10Z</time>
      </trkpt>
      <trkpt lat="59.5711875682" lon="18.2656410141">
        <ele>62.6</ele>
        <time>2012-09-16T11:35:11Z</time>
      </trkpt>
      <trkpt lat="59.5712298968" lon="18.2657494759">
        <ele>63</ele>
        <time>2012-09-16T11:35:12Z</time>
      </trkpt>
      <trkpt lat="59.5712660228" lon="18.265855926">
        <ele>63.4</ele>
        <time>2012-09-16T11:35:13Z</time>
      </trkpt>
      <trkpt lat="59.5713019811" lon="18.2659599454">
        <ele>64</ele>
        <time>2012-09-16T11:35:14Z</time>
      </trkpt>
      <trkpt lat="59.5714417912" lon="18.2663520507">
        <ele>64.4</ele>
        <time>2012-09-16T11:35:18Z</time>
      </trkpt>
      <trkpt lat="59.5714790907" lon="18.2664473529">
        <ele>64.8</ele>
        <time>2012-09-16T11:35:19Z</time>
      </trkpt>
      <trkpt lat="59.5715199105" lon="18.2665415654">
        <ele>65.2</ele>
        <time>2012-09-16T11:35:20Z</time>
      </trkpt>
      <trkpt lat="59.5715758178" lon="18.2666419806">
        <ele>65.6</ele>
        <time>2012-09-16T11:35:21Z</time>
      </trkpt>
      <trkpt lat="59.5716197389" lon="18.2667322537">
        <ele>66</ele>
        <time>2012-09-16T11:35:22Z</time>
      </trkpt>
      <trkpt lat="59.5716659232" lon="18.2668375303">
        <ele>66</ele>
        <time>2012-09-16T11:35:23Z</time>
      </trkpt>
      <trkpt lat="59.5719877044" lon="18.2674119419">
        <ele>66</ele>
        <time>2012-09-16T11:35:29Z</time>
      </trkpt>
      <trkpt lat="59.5723966573" lon="18.2680638861">
        <ele>66</ele>
        <time>2012-09-16T11:35:37Z</time>
      </trkpt>
      <trkpt lat="59.5726640399" lon="18.2684362101">
        <ele>66</ele>
        <time>2012-09-16T11:35:42Z</time>
      </trkpt>
      <trkpt lat="59.5729947896" lon="18.2689769265">
        <ele>66</ele>
        <time>2012-09-16T11:35:48Z</time>
      </trkpt>
      <trkpt lat="59.5732830432" lon="18.269693076">
        <ele>66</ele>
        <time>2012-09-16T11:35:54Z</time>
      </trkpt>
      <trkpt lat="59.573476246" lon="18.2705223812">
        <ele>66</ele>
        <time>2012-09-16T11:36:00Z</time>
      </trkpt>
      <trkpt lat="59.5735359251" lon="18.2709688012">
        <ele>66.4</ele>
        <time>2012-09-16T11:36:03Z</time>
      </trkpt>
      <trkpt lat="59.5735536109" lon="18.2711180828">
        <ele>67</ele>
        <time>2012-09-16T11:36:04Z</time>
      </trkpt>
      <trkpt lat="59.573568866" lon="18.2712682027">
        <ele>67.4</ele>
        <time>2012-09-16T11:36:05Z</time>
      </trkpt>
      <trkpt lat="59.5735847078" lon="18.2714179872">
        <ele>67.8</ele>
        <time>2012-09-16T11:36:06Z</time>
      </trkpt>
      <trkpt lat="59.5735999628" lon="18.271569029">
        <ele>68.2</ele>
        <time>2012-09-16T11:36:07Z</time>
      </trkpt>
      <trkpt lat="59.5737095143" lon="18.2727252283">
        <ele>68.2</ele>
        <time>2012-09-16T11:36:14Z</time>
      </trkpt>
      <trkpt lat="59.573794842" lon="18.2736034">
        <ele>67.8</ele>
        <time>2012-09-16T11:36:19Z</time>
      </trkpt>
      <trkpt lat="59.5738048165" lon="18.2737699484">
        <ele>67.4</ele>
        <time>2012-09-16T11:36:20Z</time>
      </trkpt>
      <trkpt lat="59.5738173893" lon="18.2739426993">
        <ele>67</ele>
        <time>2012-09-16T11:36:21Z</time>
      </trkpt>
      <trkpt lat="59.5738348237" lon="18.2741110079">
        <ele>66.4</ele>
        <time>2012-09-16T11:36:22Z</time>
      </trkpt>
      <trkpt lat="59.5738493243" lon="18.274276718">
        <ele>66</ele>
        <time>2012-09-16T11:36:23Z</time>
      </trkpt>
      <trkpt lat="59.5739173016" lon="18.2747602698">
        <ele>66</ele>
        <time>2012-09-16T11:36:26Z</time>
      </trkpt>
      <trkpt lat="59.5739575347" lon="18.2749082942">
        <ele>66</ele>
        <time>2012-09-16T11:36:27Z</time>
      </trkpt>
      <trkpt lat="59.5741903" lon="18.275589575">
        <ele>66.4</ele>
        <time>2012-09-16T11:36:32Z</time>
      </trkpt>
      <trkpt lat="59.5742441957" lon="18.2757035689">
        <ele>67</ele>
        <time>2012-09-16T11:36:33Z</time>
      </trkpt>
      <trkpt lat="59.5742970854" lon="18.2758085102">
        <ele>67.4</ele>
        <time>2012-09-16T11:36:34Z</time>
      </trkpt>
      <trkpt lat="59.5743492209" lon="18.2759096798">
        <ele>67.8</ele>
        <time>2012-09-16T11:36:35Z</time>
      </trkpt>
      <trkpt lat="59.5744038708" lon="18.2760047305">
        <ele>68.2</ele>
        <time>2012-09-16T11:36:36Z</time>
      </trkpt>
      <trkpt lat="59.5744587723" lon="18.2760955065">
        <ele>68.2</ele>
        <time>2012-09-16T11:36:37Z</time>
      </trkpt>
      <trkpt lat="59.5746676492" lon="18.2764370689">
        <ele>68.8</ele>
        <time>2012-09-16T11:36:41Z</time>
      </trkpt>
      <trkpt lat="59.5747160128" lon="18.2765263362">
        <ele>69.2</ele>
        <time>2012-09-16T11:36:42Z</time>
      </trkpt>
      <trkpt lat="59.5747655498" lon="18.276609317">
        <ele>69.6</ele>
        <time>2012-09-16T11:36:43Z</time>
      </trkpt>
      <trkpt lat="59.5748166794" lon="18.2766934713">
        <ele>70.2</ele>
        <time>2012-09-16T11:36:44Z</time>
      </trkpt>
      <trkpt lat="59.5748673061" lon="18.2767702495">
        <ele>70.6</ele>
        <time>2012-09-16T11:36:45Z</time>
      </trkpt>
      <trkpt lat="59.5750800387" lon="18.2770619396">
        <ele>71</ele>
        <time>2012-09-16T11:36:49Z</time>
      </trkpt>
      <trkpt lat="59.5751354431" lon="18.2771356165">
        <ele>71.4</ele>
        <time>2012-09-16T11:36:50Z</time>
      </trkpt>
      <trkpt lat="59.5751906798" lon="18.2772063597">
        <ele>71.8</ele>
        <time>2012-09-16T11:36:51Z</time>
      </trkpt>
      <trkpt lat="59.5752482635" lon="18.2772834732">
        <ele>72.2</ele>
        <time>2012-09-16T11:36:52Z</time>
      </trkpt>
      <trkpt lat="59.5753029973" lon="18.2773577368">
        <ele>72.6</ele>
        <time>2012-09-16T11:36:53Z</time>
      </trkpt>
      <trkpt lat="59.5756420451" lon="18.2777799331">
        <ele>72.6</ele>
        <time>2012-09-16T11:36:59Z</time>
      </trkpt>
      <trkpt lat="59.5757549493" lon="18.2779190727">
        <ele>73.2</ele>
        <time>2012-09-16T11:37:01Z</time>
      </trkpt>
      <trkpt lat="59.5758110242" lon="18.2779910732">
        <ele>73.6</ele>
        <time>2012-09-16T11:37:02Z</time>
      </trkpt>
      <trkpt lat="59.5758665962" lon="18.2780613973">
        <ele>74</ele>
        <time>2012-09-16T11:37:03Z</time>
      </trkpt>
      <trkpt lat="59.5759227549" lon="18.2781354095">
        <ele>74.6</ele>
        <time>2012-09-16T11:37:04Z</time>
      </trkpt>
      <trkpt lat="59.5759757286" lon="18.2782060689">
        <ele>75</ele>
        <time>2012-09-16T11:37:05Z</time>
      </trkpt>
      <trkpt lat="59.5760840227" lon="18.2783530875">
        <ele>75</ele>
        <time>2012-09-16T11:37:07Z</time>
      </trkpt>
      <trkpt lat="59.5761483957" lon="18.2784092462">
        <ele>75</ele>
        <time>2012-09-16T11:37:08Z</time>
      </trkpt>
      <trkpt lat="59.5763203085" lon="18.2786345517">
        <ele>75</ele>
        <time>2012-09-16T11:37:11Z</time>
      </trkpt>
      <trkpt lat="59.576747031" lon="18.2791833146">
        <ele>75</ele>
        <time>2012-09-16T11:37:18Z</time>
      </trkpt>
      <trkpt lat="59.5772242126" lon="18.2797700476">
        <ele>75</ele>
        <time>2012-09-16T11:37:25Z</time>
      </trkpt>
      <trkpt lat="59.5772914354" lon="18.2798584767">
        <ele>75</ele>
        <time>2012-09-16T11:37:26Z</time>
      </trkpt>
      <trkpt lat="59.5774210196" lon="18.2800267852">
        <ele>74.6</ele>
        <time>2012-09-16T11:37:28Z</time>
      </trkpt>
      <trkpt lat="59.5774880748" lon="18.2801089279">
        <ele>74.2</ele>
        <time>2012-09-16T11:37:29Z</time>
      </trkpt>
      <trkpt lat="59.5775515258" lon="18.2801925792">
        <ele>73.8</ele>
        <time>2012-09-16T11:37:30Z</time>
      </trkpt>
      <trkpt lat="59.5776205926" lon="18.280271872">
        <ele>73.2</ele>
        <time>2012-09-16T11:37:31Z</time>
      </trkpt>
      <trkpt lat="59.577683373" lon="18.2803525897">
        <ele>72.8</ele>
        <time>2012-09-16T11:37:32Z</time>
      </trkpt>
      <trkpt lat="59.5777433874" lon="18.2804185552">
        <ele>72.8</ele>
        <time>2012-09-16T11:37:33Z</time>
      </trkpt>
      <trkpt lat="59.5781197348" lon="18.2808923841">
        <ele>72.8</ele>
        <time>2012-09-16T11:37:39Z</time>
      </trkpt>
      <trkpt lat="59.5781789948" lon="18.2809774603">
        <ele>73.2</ele>
        <time>2012-09-16T11:37:40Z</time>
      </trkpt>
      <trkpt lat="59.5782394283" lon="18.28104988">
        <ele>73.6</ele>
        <time>2012-09-16T11:37:41Z</time>
      </trkpt>
      <trkpt lat="59.5782966767" lon="18.2811248141">
        <ele>74</ele>
        <time>2012-09-16T11:37:42Z</time>
      </trkpt>
      <trkpt lat="59.5783526678" lon="18.2812003351">
        <ele>74.4</ele>
        <time>2012-09-16T11:37:43Z</time>
      </trkpt>
      <trkpt lat="59.5784074016" lon="18.2812755207">
        <ele>75</ele>
        <time>2012-09-16T11:37:44Z</time>
      </trkpt>
      <trkpt lat="59.5787114969" lon="18.2816815399">
        <ele>75.4</ele>
        <time>2012-09-16T11:37:49Z</time>
      </trkpt>
      <trkpt lat="59.5787743611" lon="18.2817701366">
        <ele>76.2</ele>
        <time>2012-09-16T11:37:50Z</time>
      </trkpt>
      <trkpt lat="59.5788391532" lon="18.2818576437">
        <ele>76.8</ele>
        <time>2012-09-16T11:37:51Z</time>
      </trkpt>
      <trkpt lat="59.5789036939" lon="18.2819493416">
        <ele>77.2</ele>
        <time>2012-09-16T11:37:52Z</time>
      </trkpt>
      <trkpt lat="59.5789616966" lon="18.2820375192">
        <ele>77.6</ele>
        <time>2012-09-16T11:37:53Z</time>
      </trkpt>
      <trkpt lat="59.5790205375" lon="18.2821269541">
        <ele>78</ele>
        <time>2012-09-16T11:37:54Z</time>
      </trkpt>
      <trkpt lat="59.5790740141" lon="18.2822178977">
        <ele>78.4</ele>
        <time>2012-09-16T11:37:55Z</time>
      </trkpt>
      <trkpt lat="59.5791259819" lon="18.282302052">
        <ele>78.8</ele>
        <time>2012-09-16T11:37:56Z</time>
      </trkpt>
      <trkpt lat="59.5791741778" lon="18.2823991144">
        <ele>79.2</ele>
        <time>2012-09-16T11:37:57Z</time>
      </trkpt>
      <trkpt lat="59.5793591663" lon="18.2828182094">
        <ele>79.2</ele>
        <time>2012-09-16T11:38:01Z</time>
      </trkpt>
      <trkpt lat="59.5796571429" lon="18.2836004083">
        <ele>79.2</ele>
        <time>2012-09-16T11:38:08Z</time>
      </trkpt>
      <trkpt lat="59.5799609867" lon="18.2843726328">
        <ele>79.2</ele>
        <time>2012-09-16T11:38:14Z</time>
      </trkpt>
      <trkpt lat="59.5803575344" lon="18.2853103159">
        <ele>78.6</ele>
        <time>2012-09-16T11:38:21Z</time>
      </trkpt>
      <trkpt lat="59.5804139446" lon="18.2854266567">
        <ele>78.2</ele>
        <time>2012-09-16T11:38:22Z</time>
      </trkpt>
      <trkpt lat="59.5804751325" lon="18.2855449253">
        <ele>77.8</ele>
        <time>2012-09-16T11:38:23Z</time>
      </trkpt>
      <trkpt lat="59.580533722" lon="18.2856530518">
        <ele>77.4</ele>
        <time>2012-09-16T11:38:24Z</time>
      </trkpt>
      <trkpt lat="59.5805953289" lon="18.2857605078">
        <ele>76.8</ele>
        <time>2012-09-16T11:38:25Z</time>
      </trkpt>
      <trkpt lat="59.5807239911" lon="18.2859613381">
        <ele>76.8</ele>
        <time>2012-09-16T11:38:27Z</time>
      </trkpt>
      <trkpt lat="59.5811353747" lon="18.2864515116">
        <ele>76.8</ele>
        <time>2012-09-16T11:38:33Z</time>
      </trkpt>
      <trkpt lat="59.5816472574" lon="18.2870273481">
        <ele>76.8</ele>
        <time>2012-09-16T11:38:41Z</time>
      </trkpt>
      <trkpt lat="59.58170811" lon="18.2870956606">
        <ele>76.8</ele>
        <time>2012-09-16T11:38:42Z</time>
      </trkpt>
      <trkpt lat="59.5822158855" lon="18.2877200283">
        <ele>76.8</ele>
        <time>2012-09-16T11:38:50Z</time>
      </trkpt>
      <trkpt lat="59.5826548456" lon="18.2884649278">
        <ele>76.8</ele>
        <time>2012-09-16T11:38:57Z</time>
      </trkpt>
      <trkpt lat="59.5828372357" lon="18.2889105934">
        <ele>76.8</ele>
        <time>2012-09-16T11:39:01Z</time>
      </trkpt>
      <trkpt lat="59.5828765468" lon="18.2890219889">
        <ele>76.8</ele>
        <time>2012-09-16T11:39:02Z</time>
      </trkpt>
      <trkpt lat="59.5830358029" lon="18.2895648007">
        <ele>76.8</ele>
        <time>2012-09-16T11:39:07Z</time>
      </trkpt>
      <trkpt lat="59.5830961526" lon="18.2898082949">
        <ele>77.2</ele>
        <time>2012-09-16T11:39:09Z</time>
      </trkpt>
      <trkpt lat="59.5831277524" lon="18.2899173434">
        <ele>77.6</ele>
        <time>2012-09-16T11:39:10Z</time>
      </trkpt>
      <trkpt lat="59.5831596036" lon="18.2900341033">
        <ele>78</ele>
        <time>2012-09-16T11:39:11Z</time>
      </trkpt>
      <trkpt lat="59.5831867609" lon="18.2901517013">
        <ele>78.4</ele>
        <time>2012-09-16T11:39:12Z</time>
      </trkpt>
      <trkpt lat="59.5832185283" lon="18.2902669525">
        <ele>78.8</ele>
        <time>2012-09-16T11:39:13Z</time>
      </trkpt>
      <trkpt lat="59.5834193587" lon="18.2910197309">
        <ele>78.8</ele>
        <time>2012-09-16T11:39:19Z</time>
      </trkpt>
      <trkpt lat="59.5835833086" lon="18.2916625388">
        <ele>78.8</ele>
        <time>2012-09-16T11:39:24Z</time>
      </trkpt>
      <trkpt lat="59.5836182612" lon="18.2917933803">
        <ele>78.8</ele>
        <time>2012-09-16T11:39:25Z</time>
      </trkpt>
      <trkpt lat="59.5838765075" lon="18.2925107871">
        <ele>78.8</ele>
        <time>2012-09-16T11:39:31Z</time>
      </trkpt>
      <trkpt lat="59.5840744042" lon="18.2930004577">
        <ele>78.8</ele>
        <time>2012-09-16T11:39:35Z</time>
      </trkpt>
      <trkpt lat="59.5840987955" lon="18.2931691853">
        <ele>78.8</ele>
        <time>2012-09-16T11:39:36Z</time>
      </trkpt>
      <trkpt lat="59.5840495937" lon="18.2934555949">
        <ele>78.8</ele>
        <time>2012-09-16T11:39:38Z</time>
      </trkpt>
      <trkpt lat="59.5839135555" lon="18.2938499633">
        <ele>78.8</ele>
        <time>2012-09-16T11:39:41Z</time>
      </trkpt>
      <trkpt lat="59.5838712269" lon="18.2939938805">
        <ele>78.8</ele>
        <time>2012-09-16T11:39:42Z</time>
      </trkpt>
      <trkpt lat="59.583693363" lon="18.2946893267">
        <ele>78.8</ele>
        <time>2012-09-16T11:39:47Z</time>
      </trkpt>
      <trkpt lat="59.5836087896" lon="18.2953193103">
        <ele>78.8</ele>
        <time>2012-09-16T11:39:51Z</time>
      </trkpt>
      <trkpt lat="59.583602587" lon="18.2954899658">
        <ele>78.8</ele>
        <time>2012-09-16T11:39:52Z</time>
      </trkpt>
      <trkpt lat="59.5835796206" lon="18.2962258966">
        <ele>78.4</ele>
        <time>2012-09-16T11:39:56Z</time>
      </trkpt>
      <trkpt lat="59.5835686403" lon="18.2964244639">
        <ele>78</ele>
        <time>2012-09-16T11:39:57Z</time>
      </trkpt>
      <trkpt lat="59.5835593364" lon="18.2966259647">
        <ele>77.6</ele>
        <time>2012-09-16T11:39:58Z</time>
      </trkpt>
      <trkpt lat="59.5835459254" lon="18.2968376915">
        <ele>77.2</ele>
        <time>2012-09-16T11:39:59Z</time>
      </trkpt>
      <trkpt lat="59.5835197738" lon="18.2970588899">
        <ele>76.6</ele>
        <time>2012-09-16T11:40:00Z</time>
      </trkpt>
      <trkpt lat="59.5834844022" lon="18.2972677668">
        <ele>76.6</ele>
        <time>2012-09-16T11:40:01Z</time>
      </trkpt>
      <trkpt lat="59.5834352843" lon="18.2974679266">
        <ele>76.2</ele>
        <time>2012-09-16T11:40:02Z</time>
      </trkpt>
      <trkpt lat="59.5833789579" lon="18.2976623867">
        <ele>75.6</ele>
        <time>2012-09-16T11:40:03Z</time>
      </trkpt>
      <trkpt lat="59.5833112322" lon="18.2978460341">
        <ele>74.8</ele>
        <time>2012-09-16T11:40:04Z</time>
      </trkpt>
      <trkpt lat="59.5832419977" lon="18.2980272508">
        <ele>74</ele>
        <time>2012-09-16T11:40:05Z</time>
      </trkpt>
      <trkpt lat="59.5831703324" lon="18.2982047794">
        <ele>73.2</ele>
        <time>2012-09-16T11:40:06Z</time>
      </trkpt>
      <trkpt lat="59.5830962364" lon="18.2983891812">
        <ele>72.4</ele>
        <time>2012-09-16T11:40:07Z</time>
      </trkpt>
      <trkpt lat="59.5830142614" lon="18.2985767681">
        <ele>71.6</ele>
        <time>2012-09-16T11:40:08Z</time>
      </trkpt>
      <trkpt lat="59.5829319512" lon="18.2987575657">
        <ele>70.8</ele>
        <time>2012-09-16T11:40:09Z</time>
      </trkpt>
      <trkpt lat="59.5828518202" lon="18.2989445659">
        <ele>69.8</ele>
        <time>2012-09-16T11:40:10Z</time>
      </trkpt>
      <trkpt lat="59.5827728627" lon="18.2991339968">
        <ele>69</ele>
        <time>2012-09-16T11:40:11Z</time>
      </trkpt>
      <trkpt lat="59.5826868644" lon="18.2993188177">
        <ele>68.2</ele>
        <time>2012-09-16T11:40:12Z</time>
      </trkpt>
      <trkpt lat="59.5826069011" lon="18.2995126911">
        <ele>67.2</ele>
        <time>2012-09-16T11:40:13Z</time>
      </trkpt>
      <trkpt lat="59.5825287818" lon="18.2996988531">
        <ele>66.4</ele>
        <time>2012-09-16T11:40:14Z</time>
      </trkpt>
      <trkpt lat="59.5824434541" lon="18.2998799021">
        <ele>66</ele>
        <time>2012-09-16T11:40:15Z</time>
      </trkpt>
      <trkpt lat="59.5823613114" lon="18.3000731049">
        <ele>65.6</ele>
        <time>2012-09-16T11:40:16Z</time>
      </trkpt>
      <trkpt lat="59.5822837789" lon="18.300257842">
        <ele>65.2</ele>
        <time>2012-09-16T11:40:17Z</time>
      </trkpt>
      <trkpt lat="59.5822124489" lon="18.3004422438">
        <ele>64.2</ele>
        <time>2012-09-16T11:40:18Z</time>
      </trkpt>
      <trkpt lat="59.5821467348" lon="18.300628322">
        <ele>63.8</ele>
        <time>2012-09-16T11:40:19Z</time>
      </trkpt>
      <trkpt lat="59.5820845411" lon="18.300815406">
        <ele>63.4</ele>
        <time>2012-09-16T11:40:20Z</time>
      </trkpt>
      <trkpt lat="59.5820279633" lon="18.3010035796">
        <ele>62.8</ele>
        <time>2012-09-16T11:40:21Z</time>
      </trkpt>
      <trkpt lat="59.5819746544" lon="18.3011888196">
        <ele>62.2</ele>
        <time>2012-09-16T11:40:22Z</time>
      </trkpt>
      <trkpt lat="59.5819204235" lon="18.3013798431">
        <ele>61.6</ele>
        <time>2012-09-16T11:40:23Z</time>
      </trkpt>
      <trkpt lat="59.5818786816" lon="18.3015610598">
        <ele>61</ele>
        <time>2012-09-16T11:40:24Z</time>
      </trkpt>
      <trkpt lat="59.5818445673" lon="18.3017414383">
        <ele>60.4</ele>
        <time>2012-09-16T11:40:25Z</time>
      </trkpt>
      <trkpt lat="59.5818151468" lon="18.301920811">
        <ele>59.8</ele>
        <time>2012-09-16T11:40:26Z</time>
      </trkpt>
      <trkpt lat="59.5817024941" lon="18.3026179336">
        <ele>59.8</ele>
        <time>2012-09-16T11:40:30Z</time>
      </trkpt>
      <trkpt lat="59.5816168311" lon="18.3036596361">
        <ele>59.8</ele>
        <time>2012-09-16T11:40:36Z</time>
      </trkpt>
      <trkpt lat="59.5815942838" lon="18.3047959703">
        <ele>59.8</ele>
        <time>2012-09-16T11:40:43Z</time>
      </trkpt>
      <trkpt lat="59.5815822138" lon="18.3059401835">
        <ele>59.8</ele>
        <time>2012-09-16T11:40:50Z</time>
      </trkpt>
      <trkpt lat="59.5815783582" lon="18.3069658766">
        <ele>59.8</ele>
        <time>2012-09-16T11:40:57Z</time>
      </trkpt>
      <trkpt lat="59.5816359418" lon="18.3074171581">
        <ele>59.8</ele>
        <time>2012-09-16T11:41:01Z</time>
      </trkpt>
      <trkpt lat="59.5816691341" lon="18.3075210098">
        <ele>59.8</ele>
        <time>2012-09-16T11:41:02Z</time>
      </trkpt>
      <trkpt lat="59.5817027455" lon="18.3076078463">
        <ele>60.2</ele>
        <time>2012-09-16T11:41:03Z</time>
      </trkpt>
      <trkpt lat="59.5817448227" lon="18.3076875582">
        <ele>60.6</ele>
        <time>2012-09-16T11:41:04Z</time>
      </trkpt>
      <trkpt lat="59.5817909231" lon="18.307763582">
        <ele>61.2</ele>
        <time>2012-09-16T11:41:05Z</time>
      </trkpt>
      <trkpt lat="59.5818428071" lon="18.3078262786">
        <ele>61.6</ele>
        <time>2012-09-16T11:41:06Z</time>
      </trkpt>
      <trkpt lat="59.5818982115" lon="18.3078869636">
        <ele>62</ele>
        <time>2012-09-16T11:41:07Z</time>
      </trkpt>
      <trkpt lat="59.5821292166" lon="18.3080525899">
        <ele>62</ele>
        <time>2012-09-16T11:41:11Z</time>
      </trkpt>
      <trkpt lat="59.5823360819" lon="18.3082045537">
        <ele>62</ele>
        <time>2012-09-16T11:41:15Z</time>
      </trkpt>
      <trkpt lat="59.5823847808" lon="18.3082532526">
        <ele>62.4</ele>
        <time>2012-09-16T11:41:16Z</time>
      </trkpt>
      <trkpt lat="59.5824245948" lon="18.3083064777">
        <ele>63</ele>
        <time>2012-09-16T11:41:17Z</time>
      </trkpt>
      <trkpt lat="59.5824609722" lon="18.3083564338">
        <ele>63.4</ele>
        <time>2012-09-16T11:41:18Z</time>
      </trkpt>
      <trkpt lat="59.5824974335" lon="18.3084127601">
        <ele>64</ele>
        <time>2012-09-16T11:41:19Z</time>
      </trkpt>
      <trkpt lat="59.5825281951" lon="18.3084708467">
        <ele>64.4</ele>
        <time>2012-09-16T11:41:20Z</time>
      </trkpt>
      <trkpt lat="59.5825573641" lon="18.3085233174">
        <ele>65</ele>
        <time>2012-09-16T11:41:21Z</time>
      </trkpt>
      <trkpt lat="59.5825840185" lon="18.3085806496">
        <ele>65.6</ele>
        <time>2012-09-16T11:41:22Z</time>
      </trkpt>
      <trkpt lat="59.5826114273" lon="18.3086313601">
        <ele>66</ele>
        <time>2012-09-16T11:41:23Z</time>
      </trkpt>
      <trkpt lat="59.5826331364" lon="18.3086867645">
        <ele>66.6</ele>
        <time>2012-09-16T11:41:24Z</time>
      </trkpt>
      <trkpt lat="59.5826580307" lon="18.3087394866">
        <ele>67.2</ele>
        <time>2012-09-16T11:41:25Z</time>
      </trkpt>
      <trkpt lat="59.5826783149" lon="18.3087929631">
        <ele>67.8</ele>
        <time>2012-09-16T11:41:26Z</time>
      </trkpt>
      <trkpt lat="59.5826943243" lon="18.3088538157">
        <ele>68.4</ele>
        <time>2012-09-16T11:41:27Z</time>
      </trkpt>
      <trkpt lat="59.5827070648" lon="18.3089223797">
        <ele>69.2</ele>
        <time>2012-09-16T11:41:28Z</time>
      </trkpt>
      <trkpt lat="59.5827172907" lon="18.3089973139">
        <ele>69.8</ele>
        <time>2012-09-16T11:41:29Z</time>
      </trkpt>
      <trkpt lat="59.5827329649" lon="18.3090696496">
        <ele>70.4</ele>
        <time>2012-09-16T11:41:30Z</time>
      </trkpt>
      <trkpt lat="59.5827490581" lon="18.3091462602">
        <ele>71</ele>
        <time>2012-09-16T11:41:31Z</time>
      </trkpt>
      <trkpt lat="59.5827628883" lon="18.309219518">
        <ele>71.4</ele>
        <time>2012-09-16T11:41:32Z</time>
      </trkpt>
      <trkpt lat="59.5827739524" lon="18.3093035885">
        <ele>72.6</ele>
        <time>2012-09-16T11:41:33Z</time>
      </trkpt>
      <trkpt lat="59.5827821666" lon="18.3093906764">
        <ele>73</ele>
        <time>2012-09-16T11:41:34Z</time>
      </trkpt>
      <trkpt lat="59.5828212263" lon="18.3096459891">
        <ele>73</ele>
        <time>2012-09-16T11:41:37Z</time>
      </trkpt>
      <trkpt lat="59.5828440251" lon="18.3098089332">
        <ele>73.4</ele>
        <time>2012-09-16T11:41:39Z</time>
      </trkpt>
      <trkpt lat="59.5828536642" lon="18.3098953506">
        <ele>73.8</ele>
        <time>2012-09-16T11:41:40Z</time>
      </trkpt>
      <trkpt lat="59.5828612079" lon="18.309983612">
        <ele>74.4</ele>
        <time>2012-09-16T11:41:41Z</time>
      </trkpt>
      <trkpt lat="59.5828687517" lon="18.3100715382">
        <ele>74.8</ele>
        <time>2012-09-16T11:41:42Z</time>
      </trkpt>
      <trkpt lat="59.5828749543" lon="18.310159129">
        <ele>75.2</ele>
        <time>2012-09-16T11:41:43Z</time>
      </trkpt>
      <trkpt lat="59.5828864375" lon="18.3102435347">
        <ele>75.2</ele>
        <time>2012-09-16T11:41:44Z</time>
      </trkpt>
      <trkpt lat="59.5829446079" lon="18.3107303555">
        <ele>75.6</ele>
        <time>2012-09-16T11:41:49Z</time>
      </trkpt>
      <trkpt lat="59.5829613717" lon="18.3108336205">
        <ele>76</ele>
        <time>2012-09-16T11:41:50Z</time>
      </trkpt>
      <trkpt lat="59.5829771296" lon="18.3109398192">
        <ele>76.4</ele>
        <time>2012-09-16T11:41:51Z</time>
      </trkpt>
      <trkpt lat="59.5830023591" lon="18.311045012">
        <ele>76.8</ele>
        <time>2012-09-16T11:41:52Z</time>
      </trkpt>
      <trkpt lat="59.5830244874" lon="18.3111472712">
        <ele>77.2</ele>
        <time>2012-09-16T11:41:53Z</time>
      </trkpt>
      <trkpt lat="59.5831266627" lon="18.3115672882">
        <ele>77.2</ele>
        <time>2012-09-16T11:41:57Z</time>
      </trkpt>
      <trkpt lat="59.5833206199" lon="18.3122539335">
        <ele>77.2</ele>
        <time>2012-09-16T11:42:04Z</time>
      </trkpt>
      <trkpt lat="59.5833846576" lon="18.3125229086">
        <ele>77.2</ele>
        <time>2012-09-16T11:42:07Z</time>
      </trkpt>
      <trkpt lat="59.5834138266" lon="18.3126130979">
        <ele>77.2</ele>
        <time>2012-09-16T11:42:08Z</time>
      </trkpt>
      <trkpt lat="59.5835232104" lon="18.3130961468">
        <ele>77.2</ele>
        <time>2012-09-16T11:42:13Z</time>
      </trkpt>
      <trkpt lat="59.5835438299" lon="18.3132027645">
        <ele>77.6</ele>
        <time>2012-09-16T11:42:14Z</time>
      </trkpt>
      <trkpt lat="59.5835657905" lon="18.3133067001">
        <ele>78</ele>
        <time>2012-09-16T11:42:15Z</time>
      </trkpt>
      <trkpt lat="59.5835947918" lon="18.3134083725">
        <ele>78.6</ele>
        <time>2012-09-16T11:42:16Z</time>
      </trkpt>
      <trkpt lat="59.5836227036" lon="18.3135329276">
        <ele>79</ele>
        <time>2012-09-16T11:42:17Z</time>
      </trkpt>
      <trkpt lat="59.5836615956" lon="18.3136621765">
        <ele>79.4</ele>
        <time>2012-09-16T11:42:18Z</time>
      </trkpt>
      <trkpt lat="59.5837024154" lon="18.3137978794">
        <ele>79.4</ele>
        <time>2012-09-16T11:42:19Z</time>
      </trkpt>
      <trkpt lat="59.5837463366" lon="18.3139191655">
        <ele>79.8</ele>
        <time>2012-09-16T11:42:20Z</time>
      </trkpt>
      <trkpt lat="59.5837948678" lon="18.3140397811">
        <ele>80.2</ele>
        <time>2012-09-16T11:42:21Z</time>
      </trkpt>
      <trkpt lat="59.583844321" lon="18.3141425432">
        <ele>81.2</ele>
        <time>2012-09-16T11:42:22Z</time>
      </trkpt>
      <trkpt lat="59.5839054251" lon="18.3142436289">
        <ele>81.6</ele>
        <time>2012-09-16T11:42:23Z</time>
      </trkpt>
      <trkpt lat="59.5840778407" lon="18.3144687667">
        <ele>82</ele>
        <time>2012-09-16T11:42:26Z</time>
      </trkpt>
      <trkpt lat="59.5841211752" lon="18.3145693495">
        <ele>82.4</ele>
        <time>2012-09-16T11:42:27Z</time>
      </trkpt>
      <trkpt lat="59.5841605701" lon="18.3146747938">
        <ele>82.8</ele>
        <time>2012-09-16T11:42:28Z</time>
      </trkpt>
      <trkpt lat="59.5841992945" lon="18.3147907155">
        <ele>83.2</ele>
        <time>2012-09-16T11:42:29Z</time>
      </trkpt>
      <trkpt lat="59.5842391923" lon="18.3149001831">
        <ele>83.8</ele>
        <time>2012-09-16T11:42:30Z</time>
      </trkpt>
      <trkpt lat="59.5842984523" lon="18.3151237284">
        <ele>83.8</ele>
        <time>2012-09-16T11:42:32Z</time>
      </trkpt>
      <trkpt lat="59.5843787509" lon="18.3154390555">
        <ele>83.8</ele>
        <time>2012-09-16T11:42:35Z</time>
      </trkpt>
      <trkpt lat="59.5844229236" lon="18.315652291">
        <ele>83.8</ele>
        <time>2012-09-16T11:42:37Z</time>
      </trkpt>
      <trkpt lat="59.5845455508" lon="18.3161025667">
        <ele>83.8</ele>
        <time>2012-09-16T11:42:41Z</time>
      </trkpt>
      <trkpt lat="59.5847764721" lon="18.3166912275">
        <ele>83.8</ele>
        <time>2012-09-16T11:42:46Z</time>
      </trkpt>
      <trkpt lat="59.5848314574" lon="18.3168120107">
        <ele>82.8</ele>
        <time>2012-09-16T11:42:47Z</time>
      </trkpt>
      <trkpt lat="59.5848897954" lon="18.3169340511">
        <ele>82.4</ele>
        <time>2012-09-16T11:42:48Z</time>
      </trkpt>
      <trkpt lat="59.5849500612" lon="18.3170562592">
        <ele>82</ele>
        <time>2012-09-16T11:42:49Z</time>
      </trkpt>
      <trkpt lat="59.585012674" lon="18.3171715942">
        <ele>81.6</ele>
        <time>2012-09-16T11:42:50Z</time>
      </trkpt>
      <trkpt lat="59.5851466168" lon="18.3173932116">
        <ele>81.6</ele>
        <time>2012-09-16T11:42:52Z</time>
      </trkpt>
      <trkpt lat="59.5854275781" lon="18.3177931959">
        <ele>81.6</ele>
        <time>2012-09-16T11:42:57Z</time>
      </trkpt>
      <trkpt lat="59.585770314" lon="18.3181621671">
        <ele>81.6</ele>
        <time>2012-09-16T11:43:02Z</time>
      </trkpt>
      <trkpt lat="59.5860545442" lon="18.3185159671">
        <ele>81.6</ele>
        <time>2012-09-16T11:43:07Z</time>
      </trkpt>
      <trkpt lat="59.5860989683" lon="18.3186028874">
        <ele>81.6</ele>
        <time>2012-09-16T11:43:08Z</time>
      </trkpt>
      <trkpt lat="59.5862930093" lon="18.3189664943">
        <ele>81.6</ele>
        <time>2012-09-16T11:43:12Z</time>
      </trkpt>
      <trkpt lat="59.5863396126" lon="18.3190529955">
        <ele>82</ele>
        <time>2012-09-16T11:43:13Z</time>
      </trkpt>
      <trkpt lat="59.586378337" lon="18.3191554223">
        <ele>82.4</ele>
        <time>2012-09-16T11:43:14Z</time>
      </trkpt>
      <trkpt lat="59.5864282093" lon="18.3192462821">
        <ele>82.8</ele>
        <time>2012-09-16T11:43:15Z</time>
      </trkpt>
      <trkpt lat="59.5864736392" lon="18.3193611979">
        <ele>83.2</ele>
        <time>2012-09-16T11:43:16Z</time>
      </trkpt>
      <trkpt lat="59.5865170575" lon="18.3194790474">
        <ele>83.8</ele>
        <time>2012-09-16T11:43:17Z</time>
      </trkpt>
      <trkpt lat="59.5865540216" lon="18.3196145828">
        <ele>84.4</ele>
        <time>2012-09-16T11:43:18Z</time>
      </trkpt>
      <trkpt lat="59.5865873816" lon="18.3197635291">
        <ele>84.8</ele>
        <time>2012-09-16T11:43:19Z</time>
      </trkpt>
      <trkpt lat="59.5866274471" lon="18.3199175884">
        <ele>85.4</ele>
        <time>2012-09-16T11:43:20Z</time>
      </trkpt>
      <trkpt lat="59.5866782414" lon="18.3200801973">
        <ele>86</ele>
        <time>2012-09-16T11:43:21Z</time>
      </trkpt>
      <trkpt lat="59.5867352383" lon="18.3202126313">
        <ele>86</ele>
        <time>2012-09-16T11:43:22Z</time>
      </trkpt>
      <trkpt lat="59.5867950013" lon="18.3203440595">
        <ele>85.6</ele>
        <time>2012-09-16T11:43:23Z</time>
      </trkpt>
      <trkpt lat="59.5868648225" lon="18.320473057">
        <ele>85</ele>
        <time>2012-09-16T11:43:24Z</time>
      </trkpt>
      <trkpt lat="59.5869417683" lon="18.3206009648">
        <ele>84.6</ele>
        <time>2012-09-16T11:43:25Z</time>
      </trkpt>
      <trkpt lat="59.5870198876" lon="18.3207227538">
        <ele>84.2</ele>
        <time>2012-09-16T11:43:26Z</time>
      </trkpt>
      <trkpt lat="59.5870994319" lon="18.3208380049">
        <ele>83.6</ele>
        <time>2012-09-16T11:43:27Z</time>
      </trkpt>
      <trkpt lat="59.5872486297" lon="18.321057443">
        <ele>83.6</ele>
        <time>2012-09-16T11:43:29Z</time>
      </trkpt>
      <trkpt lat="59.5873579297" lon="18.3213342134">
        <ele>83.6</ele>
        <time>2012-09-16T11:43:31Z</time>
      </trkpt>
      <trkpt lat="59.5873641323" lon="18.3215169388">
        <ele>83.6</ele>
        <time>2012-09-16T11:43:32Z</time>
      </trkpt>
      <trkpt lat="59.5873728494" lon="18.3218819705">
        <ele>83.2</ele>
        <time>2012-09-16T11:43:34Z</time>
      </trkpt>
      <trkpt lat="59.5874000068" lon="18.3220654503">
        <ele>82.6</ele>
        <time>2012-09-16T11:43:35Z</time>
      </trkpt>
      <trkpt lat="59.5874408267" lon="18.3222305738">
        <ele>81.8</ele>
        <time>2012-09-16T11:43:36Z</time>
      </trkpt>
      <trkpt lat="59.5875130786" lon="18.3223870638">
        <ele>81.2</ele>
        <time>2012-09-16T11:43:37Z</time>
      </trkpt>
      <trkpt lat="59.587584241" lon="18.3225283827">
        <ele>80.8</ele>
        <time>2012-09-16T11:43:38Z</time>
      </trkpt>
      <trkpt lat="59.5876482787" lon="18.3226940928">
        <ele>80.2</ele>
        <time>2012-09-16T11:43:39Z</time>
      </trkpt>
      <trkpt lat="59.5877121488" lon="18.3228383453">
        <ele>79.8</ele>
        <time>2012-09-16T11:43:40Z</time>
      </trkpt>
      <trkpt lat="59.5877765217" lon="18.3229707793">
        <ele>79.2</ele>
        <time>2012-09-16T11:43:41Z</time>
      </trkpt>
      <trkpt lat="59.5878429064" lon="18.3230951667">
        <ele>78.6</ele>
        <time>2012-09-16T11:43:42Z</time>
      </trkpt>
      <trkpt lat="59.5879761786" lon="18.3233172033">
        <ele>78.2</ele>
        <time>2012-09-16T11:43:44Z</time>
      </trkpt>
      <trkpt lat="59.5880454131" lon="18.3234230667">
        <ele>77.8</ele>
        <time>2012-09-16T11:43:45Z</time>
      </trkpt>
      <trkpt lat="59.5881095346" lon="18.323520632">
        <ele>77.4</ele>
        <time>2012-09-16T11:43:46Z</time>
      </trkpt>
      <trkpt lat="59.5881726503" lon="18.3236158504">
        <ele>76.8</ele>
        <time>2012-09-16T11:43:47Z</time>
      </trkpt>
      <trkpt lat="59.5882354308" lon="18.3237124099">
        <ele>76.4</ele>
        <time>2012-09-16T11:43:48Z</time>
      </trkpt>
      <trkpt lat="59.5883730616" lon="18.3238777009">
        <ele>76.4</ele>
        <time>2012-09-16T11:43:50Z</time>
      </trkpt>
      <trkpt lat="59.5884398653" lon="18.3239651241">
        <ele>76.4</ele>
        <time>2012-09-16T11:43:51Z</time>
      </trkpt>
      <trkpt lat="59.5886468982" lon="18.324272656">
        <ele>76.4</ele>
        <time>2012-09-16T11:43:54Z</time>
      </trkpt>
      <trkpt lat="59.5886810964" lon="18.3244409646">
        <ele>76.4</ele>
        <time>2012-09-16T11:43:55Z</time>
      </trkpt>
      <trkpt lat="59.5886637459" lon="18.3247870533">
        <ele>76.4</ele>
        <time>2012-09-16T11:43:57Z</time>
      </trkpt>
      <trkpt lat="59.5885230138" lon="18.3251377519">
        <ele>76.4</ele>
        <time>2012-09-16T11:44:00Z</time>
      </trkpt>
      <trkpt lat="59.588338109" lon="18.3253735348">
        <ele>77</ele>
        <time>2012-09-16T11:44:03Z</time>
      </trkpt>
      <trkpt lat="59.5882738199" lon="18.3254235747">
        <ele>77.4</ele>
        <time>2012-09-16T11:44:04Z</time>
      </trkpt>
      <trkpt lat="59.5882150628" lon="18.3254664062">
        <ele>77.8</ele>
        <time>2012-09-16T11:44:05Z</time>
      </trkpt>
      <trkpt lat="59.5881558865" lon="18.3255191284">
        <ele>77.4</ele>
        <time>2012-09-16T11:44:06Z</time>
      </trkpt>
      <trkpt lat="59.5881008175" lon="18.3255930568">
        <ele>77</ele>
        <time>2012-09-16T11:44:07Z</time>
      </trkpt>
      <trkpt lat="59.5880558905" lon="18.3256611178">
        <ele>76.6</ele>
        <time>2012-09-16T11:44:08Z</time>
      </trkpt>
      <trkpt lat="59.5880143162" lon="18.3257423384">
        <ele>76</ele>
        <time>2012-09-16T11:44:09Z</time>
      </trkpt>
      <trkpt lat="59.587969054" lon="18.325818446">
        <ele>75.6</ele>
        <time>2012-09-16T11:44:10Z</time>
      </trkpt>
      <trkpt lat="59.5879316707" lon="18.3259060369">
        <ele>75.6</ele>
        <time>2012-09-16T11:44:11Z</time>
      </trkpt>
      <trkpt lat="59.5877762703" lon="18.3263274788">
        <ele>75.6</ele>
        <time>2012-09-16T11:44:15Z</time>
      </trkpt>
      <trkpt lat="59.5877326844" lon="18.3264336775">
        <ele>76</ele>
        <time>2012-09-16T11:44:16Z</time>
      </trkpt>
      <trkpt lat="59.5876932895" lon="18.3265394571">
        <ele>76.6</ele>
        <time>2012-09-16T11:44:17Z</time>
      </trkpt>
      <trkpt lat="59.5876537269" lon="18.3266446499">
        <ele>77</ele>
        <time>2012-09-16T11:44:18Z</time>
      </trkpt>
      <trkpt lat="59.5876174333" lon="18.3267524412">
        <ele>77.4</ele>
        <time>2012-09-16T11:44:19Z</time>
      </trkpt>
      <trkpt lat="59.5875927905" lon="18.3268738111">
        <ele>77.8</ele>
        <time>2012-09-16T11:44:20Z</time>
      </trkpt>
      <trkpt lat="59.5875777869" lon="18.3269997072">
        <ele>77.8</ele>
        <time>2012-09-16T11:44:21Z</time>
      </trkpt>
      <trkpt lat="59.5875825646" lon="18.3275257553">
        <ele>77.8</ele>
        <time>2012-09-16T11:44:25Z</time>
      </trkpt>
      <trkpt lat="59.5876621088" lon="18.3278718439">
        <ele>77.8</ele>
        <time>2012-09-16T11:44:28Z</time>
      </trkpt>
      <trkpt lat="59.5876924513" lon="18.3280103129">
        <ele>77.8</ele>
        <time>2012-09-16T11:44:29Z</time>
      </trkpt>
      <trkpt lat="59.5877834787" lon="18.3287722276">
        <ele>77.8</ele>
        <time>2012-09-16T11:44:34Z</time>
      </trkpt>
      <trkpt lat="59.5878326805" lon="18.3293526742">
        <ele>77.8</ele>
        <time>2012-09-16T11:44:38Z</time>
      </trkpt>
      <trkpt lat="59.5878571556" lon="18.3294820069">
        <ele>77.8</ele>
        <time>2012-09-16T11:44:39Z</time>
      </trkpt>
      <trkpt lat="59.5879487698" lon="18.3298052968">
        <ele>77.8</ele>
        <time>2012-09-16T11:44:42Z</time>
      </trkpt>
      <trkpt lat="59.5879873265" lon="18.3299117469">
        <ele>77.8</ele>
        <time>2012-09-16T11:44:43Z</time>
      </trkpt>
      <trkpt lat="59.5881829601" lon="18.3306226997">
        <ele>77.8</ele>
        <time>2012-09-16T11:44:48Z</time>
      </trkpt>
      <trkpt lat="59.5883929267" lon="18.3314345705">
        <ele>77.8</ele>
        <time>2012-09-16T11:44:53Z</time>
      </trkpt>
      <trkpt lat="59.588592835" lon="18.33201552">
        <ele>77.8</ele>
        <time>2012-09-16T11:44:58Z</time>
      </trkpt>
      <trkpt lat="59.5886957647" lon="18.3322325274">
        <ele>77.8</ele>
        <time>2012-09-16T11:45:00Z</time>
      </trkpt>
      <trkpt lat="59.5887841938" lon="18.3324876724">
        <ele>77.8</ele>
        <time>2012-09-16T11:45:02Z</time>
      </trkpt>
      <trkpt lat="59.588998938" lon="18.3332996271">
        <ele>77.8</ele>
        <time>2012-09-16T11:45:08Z</time>
      </trkpt>
      <trkpt lat="59.5891633909" lon="18.3342219713">
        <ele>77.8</ele>
        <time>2012-09-16T11:45:15Z</time>
      </trkpt>
      <trkpt lat="59.5891774725" lon="18.334339737">
        <ele>78.4</ele>
        <time>2012-09-16T11:45:16Z</time>
      </trkpt>
      <trkpt lat="59.5891982596" lon="18.3344525574">
        <ele>78.8</ele>
        <time>2012-09-16T11:45:17Z</time>
      </trkpt>
      <trkpt lat="59.5892229024" lon="18.3345682276">
        <ele>79.2</ele>
        <time>2012-09-16T11:45:18Z</time>
      </trkpt>
      <trkpt lat="59.5892436895" lon="18.3346844008">
        <ele>79.8</ele>
        <time>2012-09-16T11:45:19Z</time>
      </trkpt>
      <trkpt lat="59.5892640575" lon="18.334805603">
        <ele>80.2</ele>
        <time>2012-09-16T11:45:20Z</time>
      </trkpt>
      <trkpt lat="59.5894430949" lon="18.3356638258">
        <ele>80.2</ele>
        <time>2012-09-16T11:45:27Z</time>
      </trkpt>
      <trkpt lat="59.5896021834" lon="18.3362590245">
        <ele>80.6</ele>
        <time>2012-09-16T11:45:32Z</time>
      </trkpt>
      <trkpt lat="59.5896343699" lon="18.3363814002">
        <ele>81</ele>
        <time>2012-09-16T11:45:33Z</time>
      </trkpt>
      <trkpt lat="59.5896622816" lon="18.3365076317">
        <ele>81.4</ele>
        <time>2012-09-16T11:45:34Z</time>
      </trkpt>
      <trkpt lat="59.5896880979" lon="18.3366393113">
        <ele>81.8</ele>
        <time>2012-09-16T11:45:35Z</time>
      </trkpt>
      <trkpt lat="59.5897058675" lon="18.3367718291">
        <ele>82.2</ele>
        <time>2012-09-16T11:45:36Z</time>
      </trkpt>
      <trkpt lat="59.5897352041" lon="18.3370269742">
        <ele>82.2</ele>
        <time>2012-09-16T11:45:38Z</time>
      </trkpt>
      <trkpt lat="59.5897827295" lon="18.3378238414">
        <ele>82.2</ele>
        <time>2012-09-16T11:45:43Z</time>
      </trkpt>
      <trkpt lat="59.5898077914" lon="18.3385685732">
        <ele>81.8</ele>
        <time>2012-09-16T11:45:47Z</time>
      </trkpt>
      <trkpt lat="59.5898163409" lon="18.3387698227">
        <ele>81.4</ele>
        <time>2012-09-16T11:45:48Z</time>
      </trkpt>
      <trkpt lat="59.5898309254" lon="18.3389802083">
        <ele>81</ele>
        <time>2012-09-16T11:45:49Z</time>
      </trkpt>
      <trkpt lat="59.5898569931" lon="18.3391851458">
        <ele>80.6</ele>
        <time>2012-09-16T11:45:50Z</time>
      </trkpt>
      <trkpt lat="59.5898947955" lon="18.3393837968">
        <ele>80.2</ele>
        <time>2012-09-16T11:45:51Z</time>
      </trkpt>
      <trkpt lat="59.5899459251" lon="18.3395773349">
        <ele>80.2</ele>
        <time>2012-09-16T11:45:52Z</time>
      </trkpt>
      <trkpt lat="59.5900154949" lon="18.3397554503">
        <ele>79.8</ele>
        <time>2012-09-16T11:45:53Z</time>
      </trkpt>
      <trkpt lat="59.5900835559" lon="18.339921831">
        <ele>79.2</ele>
        <time>2012-09-16T11:45:54Z</time>
      </trkpt>
      <trkpt lat="59.590144157" lon="18.3400945819">
        <ele>78.8</ele>
        <time>2012-09-16T11:45:55Z</time>
      </trkpt>
      <trkpt lat="59.590211799" lon="18.3402594539">
        <ele>78.4</ele>
        <time>2012-09-16T11:45:56Z</time>
      </trkpt>
      <trkpt lat="59.5902832966" lon="18.3404303609">
        <ele>77.8</ele>
        <time>2012-09-16T11:45:57Z</time>
      </trkpt>
      <trkpt lat="59.5903672832" lon="18.34058727">
        <ele>77.4</ele>
        <time>2012-09-16T11:45:58Z</time>
      </trkpt>
      <trkpt lat="59.5904556284" lon="18.3407439277">
        <ele>77</ele>
        <time>2012-09-16T11:45:59Z</time>
      </trkpt>
      <trkpt lat="59.5905509306" lon="18.3408682313">
        <ele>76.4</ele>
        <time>2012-09-16T11:46:00Z</time>
      </trkpt>
      <trkpt lat="59.590648496" lon="18.3409979831">
        <ele>76</ele>
        <time>2012-09-16T11:46:01Z</time>
      </trkpt>
      <trkpt lat="59.5907379308" lon="18.3411061096">
        <ele>75.4</ele>
        <time>2012-09-16T11:46:02Z</time>
      </trkpt>
      <trkpt lat="59.5908310537" lon="18.3411990649">
        <ele>75</ele>
        <time>2012-09-16T11:46:03Z</time>
      </trkpt>
      <trkpt lat="59.5909231708" lon="18.3412640246">
        <ele>74</ele>
        <time>2012-09-16T11:46:04Z</time>
      </trkpt>
      <trkpt lat="59.5910149526" lon="18.3413205186">
        <ele>73.4</ele>
        <time>2012-09-16T11:46:05Z</time>
      </trkpt>
      <trkpt lat="59.5912715226" lon="18.3414064331">
        <ele>73.4</ele>
        <time>2012-09-16T11:46:08Z</time>
      </trkpt>
      <trkpt lat="59.5915673198" lon="18.3413910942">
        <ele>73.4</ele>
        <time>2012-09-16T11:46:12Z</time>
      </trkpt>
      <trkpt lat="59.5916341236" lon="18.3414170781">
        <ele>73.4</ele>
        <time>2012-09-16T11:46:13Z</time>
      </trkpt>
      <trkpt lat="59.5917831538" lon="18.3415065968">
        <ele>73.4</ele>
        <time>2012-09-16T11:46:15Z</time>
      </trkpt>
      <trkpt lat="59.5918539808" lon="18.3416008932">
        <ele>73.4</ele>
        <time>2012-09-16T11:46:16Z</time>
      </trkpt>
      <trkpt lat="59.5920483571" lon="18.3419614825">
        <ele>73.4</ele>
        <time>2012-09-16T11:46:19Z</time>
      </trkpt>
      <trkpt lat="59.5922488521" lon="18.3422079104">
        <ele>73.4</ele>
        <time>2012-09-16T11:46:22Z</time>
      </trkpt>
      <trkpt lat="59.5923107106" lon="18.3422682601">
        <ele>73.4</ele>
        <time>2012-09-16T11:46:23Z</time>
      </trkpt>
      <trkpt lat="59.5923820405" lon="18.3423171266">
        <ele>73.4</ele>
        <time>2012-09-16T11:46:24Z</time>
      </trkpt>
      <trkpt lat="59.5926006405" lon="18.3425411747">
        <ele>73.4</ele>
        <time>2012-09-16T11:46:27Z</time>
      </trkpt>
      <trkpt lat="59.5927660154" lon="18.3429230541">
        <ele>73.4</ele>
        <time>2012-09-16T11:46:30Z</time>
      </trkpt>
      <trkpt lat="59.5928894807" lon="18.3435506908">
        <ele>73.4</ele>
        <time>2012-09-16T11:46:34Z</time>
      </trkpt>
      <trkpt lat="59.5929185659" lon="18.3438532774">
        <ele>73</ele>
        <time>2012-09-16T11:46:36Z</time>
      </trkpt>
      <trkpt lat="59.5929412809" lon="18.3440032296">
        <ele>72.6</ele>
        <time>2012-09-16T11:46:37Z</time>
      </trkpt>
      <trkpt lat="59.5929592182" lon="18.3441541876">
        <ele>72.2</ele>
        <time>2012-09-16T11:46:38Z</time>
      </trkpt>
      <trkpt lat="59.5929772392" lon="18.3442986915">
        <ele>71.8</ele>
        <time>2012-09-16T11:46:39Z</time>
      </trkpt>
      <trkpt lat="59.5929908179" lon="18.3444250906">
        <ele>71.2</ele>
        <time>2012-09-16T11:46:40Z</time>
      </trkpt>
      <trkpt lat="59.5930683505" lon="18.3449038647">
        <ele>71.2</ele>
        <time>2012-09-16T11:46:44Z</time>
      </trkpt>
      <trkpt lat="59.5930940829" lon="18.3450230553">
        <ele>71.2</ele>
        <time>2012-09-16T11:46:45Z</time>
      </trkpt>
      <trkpt lat="59.5931662511" lon="18.3452595087">
        <ele>71.2</ele>
        <time>2012-09-16T11:46:47Z</time>
      </trkpt>
      <trkpt lat="59.5932129383" lon="18.3453541404">
        <ele>71.6</ele>
        <time>2012-09-16T11:46:48Z</time>
      </trkpt>
      <trkpt lat="59.5932605475" lon="18.3454394681">
        <ele>72.2</ele>
        <time>2012-09-16T11:46:49Z</time>
      </trkpt>
      <trkpt lat="59.5933049715" lon="18.3455127259">
        <ele>72.6</ele>
        <time>2012-09-16T11:46:50Z</time>
      </trkpt>
      <trkpt lat="59.5933508205" lon="18.3455711478">
        <ele>73</ele>
        <time>2012-09-16T11:46:51Z</time>
      </trkpt>
      <trkpt lat="59.5933902993" lon="18.3456288991">
        <ele>73.4</ele>
        <time>2012-09-16T11:46:52Z</time>
      </trkpt>
      <trkpt lat="59.5934757947" lon="18.3457215191">
        <ele>73.4</ele>
        <time>2012-09-16T11:46:54Z</time>
      </trkpt>
      <trkpt lat="59.5935161116" lon="18.3457474191">
        <ele>74</ele>
        <time>2012-09-16T11:46:55Z</time>
      </trkpt>
      <trkpt lat="59.593549723" lon="18.3457670328">
        <ele>74.4</ele>
        <time>2012-09-16T11:46:56Z</time>
      </trkpt>
      <trkpt lat="59.5935831668" lon="18.3457862273">
        <ele>74.8</ele>
        <time>2012-09-16T11:46:57Z</time>
      </trkpt>
      <trkpt lat="59.5936207177" lon="18.3457965371">
        <ele>75.4</ele>
        <time>2012-09-16T11:46:58Z</time>
      </trkpt>
      <trkpt lat="59.5936555864" lon="18.3458142229">
        <ele>76</ele>
        <time>2012-09-16T11:46:59Z</time>
      </trkpt>
      <trkpt lat="59.5936947299" lon="18.34583501">
        <ele>76.4</ele>
        <time>2012-09-16T11:47:00Z</time>
      </trkpt>
      <trkpt lat="59.5937358012" lon="18.3458577249">
        <ele>77</ele>
        <time>2012-09-16T11:47:01Z</time>
      </trkpt>
      <trkpt lat="59.5937782136" lon="18.3458810266">
        <ele>77.4</ele>
        <time>2012-09-16T11:47:02Z</time>
      </trkpt>
      <trkpt lat="59.5938199555" lon="18.3459066752">
        <ele>78</ele>
        <time>2012-09-16T11:47:03Z</time>
      </trkpt>
      <trkpt lat="59.5939164311" lon="18.3459760774">
        <ele>78</ele>
        <time>2012-09-16T11:47:05Z</time>
      </trkpt>
      <trkpt lat="59.594018858" lon="18.3460746485">
        <ele>78.4</ele>
        <time>2012-09-16T11:47:07Z</time>
      </trkpt>
      <trkpt lat="59.594074849" lon="18.3461269516">
        <ele>78.8</ele>
        <time>2012-09-16T11:47:08Z</time>
      </trkpt>
      <trkpt lat="59.5941387191" lon="18.3461938391">
        <ele>79.4</ele>
        <time>2012-09-16T11:47:09Z</time>
      </trkpt>
      <trkpt lat="59.5941964704" lon="18.3462645824">
        <ele>79.8</ele>
        <time>2012-09-16T11:47:10Z</time>
      </trkpt>
      <trkpt lat="59.5942521262" lon="18.3463365829">
        <ele>80.2</ele>
        <time>2012-09-16T11:47:11Z</time>
      </trkpt>
      <trkpt lat="59.5943044293" lon="18.3464255987">
        <ele>80.2</ele>
        <time>2012-09-16T11:47:12Z</time>
      </trkpt>
      <trkpt lat="59.5944263021" lon="18.3467598688">
        <ele>80.2</ele>
        <time>2012-09-16T11:47:15Z</time>
      </trkpt>
      <trkpt lat="59.5946262104" lon="18.3472525569">
        <ele>80.2</ele>
        <time>2012-09-16T11:47:20Z</time>
      </trkpt>
      <trkpt lat="59.5947828681" lon="18.3476370347">
        <ele>80.2</ele>
        <time>2012-09-16T11:47:24Z</time>
      </trkpt>
      <trkpt lat="59.5950379294" lon="18.3482826086">
        <ele>80.2</ele>
        <time>2012-09-16T11:47:30Z</time>
      </trkpt>
      <trkpt lat="59.5953586208" lon="18.3487813316">
        <ele>80.2</ele>
        <time>2012-09-16T11:47:36Z</time>
      </trkpt>
      <trkpt lat="59.5956225669" lon="18.3490856784">
        <ele>80.2</ele>
        <time>2012-09-16T11:47:41Z</time>
      </trkpt>
      <trkpt lat="59.5959154305" lon="18.3494619419">
        <ele>80.6</ele>
        <time>2012-09-16T11:47:47Z</time>
      </trkpt>
      <trkpt lat="59.5959590163" lon="18.3495465991">
        <ele>81</ele>
        <time>2012-09-16T11:47:48Z</time>
      </trkpt>
      <trkpt lat="59.5960045301" lon="18.3496390515">
        <ele>81.6</ele>
        <time>2012-09-16T11:47:49Z</time>
      </trkpt>
      <trkpt lat="59.5960477807" lon="18.349738377">
        <ele>82</ele>
        <time>2012-09-16T11:47:50Z</time>
      </trkpt>
      <trkpt lat="59.5960848287" lon="18.3498419773">
        <ele>82.4</ele>
        <time>2012-09-16T11:47:51Z</time>
      </trkpt>
      <trkpt lat="59.5962657939" lon="18.3503966914">
        <ele>82.4</ele>
        <time>2012-09-16T11:47:56Z</time>
      </trkpt>
      <trkpt lat="59.5963877505" lon="18.3506853641">
        <ele>82.4</ele>
        <time>2012-09-16T11:47:59Z</time>
      </trkpt>
      <trkpt lat="59.5964772692" lon="18.3508312091">
        <ele>82.8</ele>
        <time>2012-09-16T11:48:01Z</time>
      </trkpt>
      <trkpt lat="59.5965403849" lon="18.3508934866">
        <ele>83.2</ele>
        <time>2012-09-16T11:48:02Z</time>
      </trkpt>
      <trkpt lat="59.5965967113" lon="18.350965571">
        <ele>83.6</ele>
        <time>2012-09-16T11:48:03Z</time>
      </trkpt>
      <trkpt lat="59.5966526186" lon="18.3510406728">
        <ele>84</ele>
        <time>2012-09-16T11:48:04Z</time>
      </trkpt>
      <trkpt lat="59.596703832" lon="18.3511191274">
        <ele>84.6</ele>
        <time>2012-09-16T11:48:05Z</time>
      </trkpt>
      <trkpt lat="59.5967519441" lon="18.3512022758">
        <ele>84.6</ele>
        <time>2012-09-16T11:48:06Z</time>
      </trkpt>
      <trkpt lat="59.5969667722" lon="18.3516380508">
        <ele>84.6</ele>
        <time>2012-09-16T11:48:11Z</time>
      </trkpt>
      <trkpt lat="59.5970103581" lon="18.351736119">
        <ele>84.6</ele>
        <time>2012-09-16T11:48:12Z</time>
      </trkpt>
      <trkpt lat="59.5972627371" lon="18.3521686251">
        <ele>84.6</ele>
        <time>2012-09-16T11:48:17Z</time>
      </trkpt>
      <trkpt lat="59.5973869568" lon="18.3523011429">
        <ele>84.6</ele>
        <time>2012-09-16T11:48:19Z</time>
      </trkpt>
      <trkpt lat="59.5978863504" lon="18.3528296217">
        <ele>84.6</ele>
        <time>2012-09-16T11:48:26Z</time>
      </trkpt>
      <trkpt lat="59.5982449281" lon="18.3532104114">
        <ele>84.6</ele>
        <time>2012-09-16T11:48:31Z</time>
      </trkpt>
      <trkpt lat="59.5985593332" lon="18.3534853377">
        <ele>84.6</ele>
        <time>2012-09-16T11:48:35Z</time>
      </trkpt>
      <trkpt lat="59.5986295735" lon="18.3535768681">
        <ele>84.6</ele>
        <time>2012-09-16T11:48:36Z</time>
      </trkpt>
      <trkpt lat="59.5988663622" lon="18.3540077816">
        <ele>84.6</ele>
        <time>2012-09-16T11:48:40Z</time>
      </trkpt>
      <trkpt lat="59.5989249517" lon="18.3541004854">
        <ele>84.6</ele>
        <time>2012-09-16T11:48:41Z</time>
      </trkpt>
      <trkpt lat="59.5991219263" lon="18.3543020701">
        <ele>84.6</ele>
        <time>2012-09-16T11:48:44Z</time>
      </trkpt>
      <trkpt lat="59.5993703658" lon="18.3546206661">
        <ele>84.6</ele>
        <time>2012-09-16T11:48:48Z</time>
      </trkpt>
      <trkpt lat="59.5994609742" lon="18.3548460554">
        <ele>84.6</ele>
        <time>2012-09-16T11:48:50Z</time>
      </trkpt>
      <trkpt lat="59.599536076" lon="18.3550899687">
        <ele>84.6</ele>
        <time>2012-09-16T11:48:52Z</time>
      </trkpt>
      <trkpt lat="59.5997245849" lon="18.3558322697">
        <ele>84.6</ele>
        <time>2012-09-16T11:48:58Z</time>
      </trkpt>
      <trkpt lat="59.5998244972" lon="18.3561668752">
        <ele>85</ele>
        <time>2012-09-16T11:49:01Z</time>
      </trkpt>
      <trkpt lat="59.5998623834" lon="18.3562768457">
        <ele>85.4</ele>
        <time>2012-09-16T11:49:02Z</time>
      </trkpt>
      <trkpt lat="59.599901443" lon="18.356379524">
        <ele>85.8</ele>
        <time>2012-09-16T11:49:03Z</time>
      </trkpt>
      <trkpt lat="59.5999488007" lon="18.3564764188">
        <ele>86.2</ele>
        <time>2012-09-16T11:49:04Z</time>
      </trkpt>
      <trkpt lat="59.5999946497" lon="18.3565617465">
        <ele>86.6</ele>
        <time>2012-09-16T11:49:05Z</time>
      </trkpt>
      <trkpt lat="59.6001600246" lon="18.3569411951">
        <ele>86.6</ele>
        <time>2012-09-16T11:49:09Z</time>
      </trkpt>
      <trkpt lat="59.6003921194" lon="18.357410833">
        <ele>87</ele>
        <time>2012-09-16T11:49:14Z</time>
      </trkpt>
      <trkpt lat="59.6004419079" lon="18.3575048779">
        <ele>87.6</ele>
        <time>2012-09-16T11:49:15Z</time>
      </trkpt>
      <trkpt lat="59.6004929537" lon="18.3575985037">
        <ele>88</ele>
        <time>2012-09-16T11:49:16Z</time>
      </trkpt>
      <trkpt lat="59.600547436" lon="18.3576902855">
        <ele>88.4</ele>
        <time>2012-09-16T11:49:17Z</time>
      </trkpt>
      <trkpt lat="59.6006032595" lon="18.3577839113">
        <ele>88.8</ele>
        <time>2012-09-16T11:49:18Z</time>
      </trkpt>
      <trkpt lat="59.6007175886" lon="18.3579740967">
        <ele>88.8</ele>
        <time>2012-09-16T11:49:20Z</time>
      </trkpt>
      <trkpt lat="59.6007707299" lon="18.3580669681">
        <ele>88.8</ele>
        <time>2012-09-16T11:49:21Z</time>
      </trkpt>
      <trkpt lat="59.6011181596" lon="18.3586073492">
        <ele>88.8</ele>
        <time>2012-09-16T11:49:27Z</time>
      </trkpt>
      <trkpt lat="59.6013631626" lon="18.3589883904">
        <ele>88.8</ele>
        <time>2012-09-16T11:49:31Z</time>
      </trkpt>
      <trkpt lat="59.6014747256" lon="18.3592095049">
        <ele>88.8</ele>
        <time>2012-09-16T11:49:33Z</time>
      </trkpt>
      <trkpt lat="59.6018018712" lon="18.3599371376">
        <ele>88.8</ele>
        <time>2012-09-16T11:49:39Z</time>
      </trkpt>
      <trkpt lat="59.602019633" lon="18.3605119683">
        <ele>88.4</ele>
        <time>2012-09-16T11:49:43Z</time>
      </trkpt>
      <trkpt lat="59.6020789768" lon="18.3606590707">
        <ele>88</ele>
        <time>2012-09-16T11:49:44Z</time>
      </trkpt>
      <trkpt lat="59.6021417572" lon="18.3608082685">
        <ele>87.6</ele>
        <time>2012-09-16T11:49:45Z</time>
      </trkpt>
      <trkpt lat="59.6022089801" lon="18.3609593103">
        <ele>86.8</ele>
        <time>2012-09-16T11:49:46Z</time>
      </trkpt>
      <trkpt lat="59.6025100579" lon="18.3615516592">
        <ele>86.8</ele>
        <time>2012-09-16T11:49:50Z</time>
      </trkpt>
      <trkpt lat="59.6025803821" lon="18.3616943192">
        <ele>86.4</ele>
        <time>2012-09-16T11:49:51Z</time>
      </trkpt>
      <trkpt lat="59.6026458447" lon="18.3618306927">
        <ele>85.8</ele>
        <time>2012-09-16T11:49:52Z</time>
      </trkpt>
      <trkpt lat="59.602709631" lon="18.3619635458">
        <ele>85.4</ele>
        <time>2012-09-16T11:49:53Z</time>
      </trkpt>
      <trkpt lat="59.6027696454" lon="18.3620863406">
        <ele>85</ele>
        <time>2012-09-16T11:49:54Z</time>
      </trkpt>
      <trkpt lat="59.6028262232" lon="18.3622041901">
        <ele>84.6</ele>
        <time>2012-09-16T11:49:55Z</time>
      </trkpt>
      <trkpt lat="59.6030929353" lon="18.3627295676">
        <ele>84.6</ele>
        <time>2012-09-16T11:50:00Z</time>
      </trkpt>
      <trkpt lat="59.6033901574" lon="18.3631673543">
        <ele>84.6</ele>
        <time>2012-09-16T11:50:05Z</time>
      </trkpt>
      <trkpt lat="59.6036111043" lon="18.3635386724">
        <ele>84.6</ele>
        <time>2012-09-16T11:50:09Z</time>
      </trkpt>
      <trkpt lat="59.6036590488" lon="18.3636443682">
        <ele>85</ele>
        <time>2012-09-16T11:50:10Z</time>
      </trkpt>
      <trkpt lat="59.60370758" lon="18.3637550931">
        <ele>85.8</ele>
        <time>2012-09-16T11:50:11Z</time>
      </trkpt>
      <trkpt lat="59.6037533452" lon="18.3638778879">
        <ele>86.2</ele>
        <time>2012-09-16T11:50:12Z</time>
      </trkpt>
      <trkpt lat="59.6037912313" lon="18.3639985873">
        <ele>86.8</ele>
        <time>2012-09-16T11:50:13Z</time>
      </trkpt>
      <trkpt lat="59.6038991064" lon="18.3643670556">
        <ele>86.8</ele>
        <time>2012-09-16T11:50:16Z</time>
      </trkpt>
      <trkpt lat="59.6039771419" lon="18.3645939536">
        <ele>86.8</ele>
        <time>2012-09-16T11:50:18Z</time>
      </trkpt>
      <trkpt lat="59.6040827538" lon="18.3647755894">
        <ele>86.8</ele>
        <time>2012-09-16T11:50:20Z</time>
      </trkpt>
      <trkpt lat="59.604282243" lon="18.3649604103">
        <ele>86.8</ele>
        <time>2012-09-16T11:50:23Z</time>
      </trkpt>
      <trkpt lat="59.6043525672" lon="18.3650197542">
        <ele>86.8</ele>
        <time>2012-09-16T11:50:24Z</time>
      </trkpt>
      <trkpt lat="59.6045000048" lon="18.3651812734">
        <ele>86.8</ele>
        <time>2012-09-16T11:50:26Z</time>
      </trkpt>
      <trkpt lat="59.6046325226" lon="18.3654038966">
        <ele>86.8</ele>
        <time>2012-09-16T11:50:28Z</time>
      </trkpt>
      <trkpt lat="59.6050453312" lon="18.3661576809">
        <ele>86.8</ele>
        <time>2012-09-16T11:50:35Z</time>
      </trkpt>
      <trkpt lat="59.6052222731" lon="18.3664850779">
        <ele>86.8</ele>
        <time>2012-09-16T11:50:38Z</time>
      </trkpt>
      <trkpt lat="59.6054744007" lon="18.3669140636">
        <ele>86.8</ele>
        <time>2012-09-16T11:50:42Z</time>
      </trkpt>
      <trkpt lat="59.6058631532" lon="18.3675045684">
        <ele>86.8</ele>
        <time>2012-09-16T11:50:48Z</time>
      </trkpt>
      <trkpt lat="59.6060062322" lon="18.3677368309">
        <ele>86.2</ele>
        <time>2012-09-16T11:50:50Z</time>
      </trkpt>
      <trkpt lat="59.6060723654" lon="18.3678676723">
        <ele>85.8</ele>
        <time>2012-09-16T11:50:51Z</time>
      </trkpt>
      <trkpt lat="59.6061376604" lon="18.3680175407">
        <ele>85.4</ele>
        <time>2012-09-16T11:50:52Z</time>
      </trkpt>
      <trkpt lat="59.6061913046" lon="18.3681823288">
        <ele>85</ele>
        <time>2012-09-16T11:50:53Z</time>
      </trkpt>
      <trkpt lat="59.6062392491" lon="18.3683574267">
        <ele>84.6</ele>
        <time>2012-09-16T11:50:54Z</time>
      </trkpt>
      <trkpt lat="59.6062778896" lon="18.3685528088">
        <ele>84.6</ele>
        <time>2012-09-16T11:50:55Z</time>
      </trkpt>
      <trkpt lat="59.6063301927" lon="18.3689781064">
        <ele>84.6</ele>
        <time>2012-09-16T11:50:57Z</time>
      </trkpt>
      <trkpt lat="59.6063220622" lon="18.3696224231">
        <ele>84.2</ele>
        <time>2012-09-16T11:51:00Z</time>
      </trkpt>
      <trkpt lat="59.6063019457" lon="18.3698158773">
        <ele>83.8</ele>
        <time>2012-09-16T11:51:01Z</time>
      </trkpt>
      <trkpt lat="59.6062784763" lon="18.3700018717">
        <ele>83.4</ele>
        <time>2012-09-16T11:51:02Z</time>
      </trkpt>
      <trkpt lat="59.6062533306" lon="18.370181412">
        <ele>83</ele>
        <time>2012-09-16T11:51:03Z</time>
      </trkpt>
      <trkpt lat="59.6062296937" lon="18.3703557555">
        <ele>82.6</ele>
        <time>2012-09-16T11:51:04Z</time>
      </trkpt>
      <trkpt lat="59.6062066435" lon="18.3705289256">
        <ele>82.6</ele>
        <time>2012-09-16T11:51:05Z</time>
      </trkpt>
      <trkpt lat="59.6060708567" lon="18.3717070854">
        <ele>82.6</ele>
        <time>2012-09-16T11:51:12Z</time>
      </trkpt>
      <trkpt lat="59.605964658" lon="18.3728226325">
        <ele>82.6</ele>
        <time>2012-09-16T11:51:19Z</time>
      </trkpt>
      <trkpt lat="59.6058521729" lon="18.3735345911">
        <ele>82</ele>
        <time>2012-09-16T11:51:23Z</time>
      </trkpt>
      <trkpt lat="59.6058174718" lon="18.373710611">
        <ele>81.6</ele>
        <time>2012-09-16T11:51:24Z</time>
      </trkpt>
      <trkpt lat="59.6057786637" lon="18.3738838649">
        <ele>80.6</ele>
        <time>2012-09-16T11:51:25Z</time>
      </trkpt>
      <trkpt lat="59.6057433759" lon="18.3740547718">
        <ele>79.8</ele>
        <time>2012-09-16T11:51:26Z</time>
      </trkpt>
      <trkpt lat="59.6057152127" lon="18.3742322166">
        <ele>79.2</ele>
        <time>2012-09-16T11:51:27Z</time>
      </trkpt>
      <trkpt lat="59.605693755" lon="18.3744275149">
        <ele>78.6</ele>
        <time>2012-09-16T11:51:28Z</time>
      </trkpt>
      <trkpt lat="59.6056835291" lon="18.3746164429">
        <ele>77.8</ele>
        <time>2012-09-16T11:51:29Z</time>
      </trkpt>
      <trkpt lat="59.6056771588" lon="18.3748028564">
        <ele>77.2</ele>
        <time>2012-09-16T11:51:30Z</time>
      </trkpt>
      <trkpt lat="59.6056412005" lon="18.3753640246">
        <ele>77.2</ele>
        <time>2012-09-16T11:51:33Z</time>
      </trkpt>
      <trkpt lat="59.6055810185" lon="18.3757402043">
        <ele>77.2</ele>
        <time>2012-09-16T11:51:35Z</time>
      </trkpt>
      <trkpt lat="59.6055109458" lon="18.3760645">
        <ele>77.2</ele>
        <time>2012-09-16T11:51:37Z</time>
      </trkpt>
      <trkpt lat="59.6053193355" lon="18.3769043663">
        <ele>77.2</ele>
        <time>2012-09-16T11:51:42Z</time>
      </trkpt>
      <trkpt lat="59.6053201737" lon="18.3773735851">
        <ele>77.2</ele>
        <time>2012-09-16T11:51:45Z</time>
      </trkpt>
      <trkpt lat="59.6053980416" lon="18.3776568095">
        <ele>76.8</ele>
        <time>2012-09-16T11:51:47Z</time>
      </trkpt>
      <trkpt lat="59.6054498417" lon="18.3777900817">
        <ele>76.2</ele>
        <time>2012-09-16T11:51:48Z</time>
      </trkpt>
      <trkpt lat="59.6055034859" lon="18.377917319">
        <ele>75.8</ele>
        <time>2012-09-16T11:51:49Z</time>
      </trkpt>
      <trkpt lat="59.6055612372" lon="18.3780451429">
        <ele>75</ele>
        <time>2012-09-16T11:51:50Z</time>
      </trkpt>
      <trkpt lat="59.6056686931" lon="18.3782461409">
        <ele>75</ele>
        <time>2012-09-16T11:51:52Z</time>
      </trkpt>
      <trkpt lat="59.6057181463" lon="18.3783328936">
        <ele>75</ele>
        <time>2012-09-16T11:51:53Z</time>
      </trkpt>
      <trkpt lat="59.6059076611" lon="18.3787013619">
        <ele>75.4</ele>
        <time>2012-09-16T11:51:57Z</time>
      </trkpt>
      <trkpt lat="59.6059525043" lon="18.3787926408">
        <ele>75.8</ele>
        <time>2012-09-16T11:51:58Z</time>
      </trkpt>
      <trkpt lat="59.6059907257" lon="18.3788783038">
        <ele>76.2</ele>
        <time>2012-09-16T11:51:59Z</time>
      </trkpt>
      <trkpt lat="59.6060312941" lon="18.378959273">
        <ele>76.8</ele>
        <time>2012-09-16T11:52:00Z</time>
      </trkpt>
      <trkpt lat="59.6060746285" lon="18.3790373084">
        <ele>77.2</ele>
        <time>2012-09-16T11:52:01Z</time>
      </trkpt>
      <trkpt lat="59.6061993512" lon="18.3792942137">
        <ele>77.2</ele>
        <time>2012-09-16T11:52:04Z</time>
      </trkpt>
      <trkpt lat="59.6063249121" lon="18.3795527953">
        <ele>77.6</ele>
        <time>2012-09-16T11:52:07Z</time>
      </trkpt>
      <trkpt lat="59.6063658157" lon="18.3796350217">
        <ele>78</ele>
        <time>2012-09-16T11:52:08Z</time>
      </trkpt>
      <trkpt lat="59.6064071385" lon="18.3797160747">
        <ele>78.4</ele>
        <time>2012-09-16T11:52:09Z</time>
      </trkpt>
      <trkpt lat="59.6064474555" lon="18.3798031626">
        <ele>78.8</ele>
        <time>2012-09-16T11:52:10Z</time>
      </trkpt>
      <trkpt lat="59.6064868504" lon="18.3798897477">
        <ele>79.2</ele>
        <time>2012-09-16T11:52:11Z</time>
      </trkpt>
      <trkpt lat="59.6067164306" lon="18.3803113572">
        <ele>79.8</ele>
        <time>2012-09-16T11:52:16Z</time>
      </trkpt>
      <trkpt lat="59.6067617767" lon="18.3803929969">
        <ele>80.2</ele>
        <time>2012-09-16T11:52:17Z</time>
      </trkpt>
      <trkpt lat="59.6068087153" lon="18.3804774865">
        <ele>80.6</ele>
        <time>2012-09-16T11:52:18Z</time>
      </trkpt>
      <trkpt lat="59.6068550673" lon="18.3805626466">
        <ele>81</ele>
        <time>2012-09-16T11:52:19Z</time>
      </trkpt>
      <trkpt lat="59.6069003295" lon="18.3806553504">
        <ele>81.6</ele>
        <time>2012-09-16T11:52:20Z</time>
      </trkpt>
      <trkpt lat="59.6070838931" lon="18.3810063006">
        <ele>81.6</ele>
        <time>2012-09-16T11:52:24Z</time>
      </trkpt>
      <trkpt lat="59.6073081928" lon="18.3814297542">
        <ele>81.6</ele>
        <time>2012-09-16T11:52:29Z</time>
      </trkpt>
      <trkpt lat="59.6073563049" lon="18.3814958873">
        <ele>81.6</ele>
        <time>2012-09-16T11:52:30Z</time>
      </trkpt>
      <trkpt lat="59.6075407905" lon="18.3817610907">
        <ele>81.6</ele>
        <time>2012-09-16T11:52:34Z</time>
      </trkpt>
      <trkpt lat="59.6076792595" lon="18.3819453248">
        <ele>81.6</ele>
        <time>2012-09-16T11:52:37Z</time>
      </trkpt>
      <trkpt lat="59.6077708736" lon="18.3820819498">
        <ele>81.6</ele>
        <time>2012-09-16T11:52:39Z</time>
      </trkpt>
      <trkpt lat="59.6078218356" lon="18.3821461552">
        <ele>81.6</ele>
        <time>2012-09-16T11:52:40Z</time>
      </trkpt>
      <trkpt lat="59.6079270284" lon="18.3822772481">
        <ele>82</ele>
        <time>2012-09-16T11:52:42Z</time>
      </trkpt>
      <trkpt lat="59.6079793315" lon="18.3823348317">
        <ele>82.4</ele>
        <time>2012-09-16T11:52:43Z</time>
      </trkpt>
      <trkpt lat="59.6080328918" lon="18.3823882244">
        <ele>83</ele>
        <time>2012-09-16T11:52:44Z</time>
      </trkpt>
      <trkpt lat="59.6080876256" lon="18.382435666">
        <ele>83.4</ele>
        <time>2012-09-16T11:52:45Z</time>
      </trkpt>
      <trkpt lat="59.6081442035" lon="18.3824727978">
        <ele>83.8</ele>
        <time>2012-09-16T11:52:46Z</time>
      </trkpt>
      <trkpt lat="59.6085543298" lon="18.3827332234">
        <ele>84.2</ele>
        <time>2012-09-16T11:52:53Z</time>
      </trkpt>
      <trkpt lat="59.6086117459" lon="18.3827749653">
        <ele>84.8</ele>
        <time>2012-09-16T11:52:54Z</time>
      </trkpt>
      <trkpt lat="59.6086669826" lon="18.3828205628">
        <ele>85.2</ele>
        <time>2012-09-16T11:52:55Z</time>
      </trkpt>
      <trkpt lat="59.6087224708" lon="18.3828684235">
        <ele>85.6</ele>
        <time>2012-09-16T11:52:56Z</time>
      </trkpt>
      <trkpt lat="59.6087759473" lon="18.3829224029">
        <ele>86</ele>
        <time>2012-09-16T11:52:57Z</time>
      </trkpt>
      <trkpt lat="59.6088874265" lon="18.3830258356">
        <ele>86</ele>
        <time>2012-09-16T11:52:59Z</time>
      </trkpt>
      <trkpt lat="59.609191019" lon="18.3833523106">
        <ele>86.6</ele>
        <time>2012-09-16T11:53:05Z</time>
      </trkpt>
      <trkpt lat="59.6092423162" lon="18.3834146719">
        <ele>87</ele>
        <time>2012-09-16T11:53:06Z</time>
      </trkpt>
      <trkpt lat="59.6092943678" lon="18.3834790449">
        <ele>87.4</ele>
        <time>2012-09-16T11:53:07Z</time>
      </trkpt>
      <trkpt lat="59.6093486825" lon="18.3835364609">
        <ele>88</ele>
        <time>2012-09-16T11:53:08Z</time>
      </trkpt>
      <trkpt lat="59.6094078587" lon="18.3835833157">
        <ele>88.4</ele>
        <time>2012-09-16T11:53:09Z</time>
      </trkpt>
      <trkpt lat="59.6095288934" lon="18.3836670509">
        <ele>88.4</ele>
        <time>2012-09-16T11:53:11Z</time>
      </trkpt>
      <trkpt lat="59.6095872314" lon="18.3837149116">
        <ele>88.4</ele>
        <time>2012-09-16T11:53:12Z</time>
      </trkpt>
      <trkpt lat="59.6098751496" lon="18.3839635187">
        <ele>88.4</ele>
        <time>2012-09-16T11:53:17Z</time>
      </trkpt>
      <trkpt lat="59.6100849486" lon="18.3842521075">
        <ele>88.4</ele>
        <time>2012-09-16T11:53:21Z</time>
      </trkpt>
      <trkpt lat="59.6101312167" lon="18.3843444761">
        <ele>88.4</ele>
        <time>2012-09-16T11:53:22Z</time>
      </trkpt>
      <trkpt lat="59.6101711983" lon="18.384439443">
        <ele>88.4</ele>
        <time>2012-09-16T11:53:23Z</time>
      </trkpt>
      <trkpt lat="59.6102380021" lon="18.3846520918">
        <ele>88.4</ele>
        <time>2012-09-16T11:53:25Z</time>
      </trkpt>
      <trkpt lat="59.6102654947" lon="18.384771953">
        <ele>88.4</ele>
        <time>2012-09-16T11:53:26Z</time>
      </trkpt>
      <trkpt lat="59.6103726154" lon="18.38522994">
        <ele>88.4</ele>
        <time>2012-09-16T11:53:30Z</time>
      </trkpt>
      <trkpt lat="59.6104108369" lon="18.3853342108">
        <ele>88.4</ele>
        <time>2012-09-16T11:53:31Z</time>
      </trkpt>
      <trkpt lat="59.6106473741" lon="18.3859241289">
        <ele>89</ele>
        <time>2012-09-16T11:53:37Z</time>
      </trkpt>
      <trkpt lat="59.6106856794" lon="18.3860340156">
        <ele>89.4</ele>
        <time>2012-09-16T11:53:38Z</time>
      </trkpt>
      <trkpt lat="59.6107235656" lon="18.3861435671">
        <ele>89.8</ele>
        <time>2012-09-16T11:53:39Z</time>
      </trkpt>
      <trkpt lat="59.6107655589" lon="18.3862521965">
        <ele>90.2</ele>
        <time>2012-09-16T11:53:40Z</time>
      </trkpt>
      <trkpt lat="59.6108146768" lon="18.3863599877">
        <ele>90.6</ele>
        <time>2012-09-16T11:53:41Z</time>
      </trkpt>
      <trkpt lat="59.6111221249" lon="18.3868640752">
        <ele>90.6</ele>
        <time>2012-09-16T11:53:46Z</time>
      </trkpt>
      <trkpt lat="59.611449941" lon="18.3873583558">
        <ele>90.6</ele>
        <time>2012-09-16T11:53:51Z</time>
      </trkpt>
      <trkpt lat="59.6117155634" lon="18.3879406464">
        <ele>90.6</ele>
        <time>2012-09-16T11:53:56Z</time>
      </trkpt>
      <trkpt lat="59.6119237698" lon="18.3886237713">
        <ele>90.6</ele>
        <time>2012-09-16T11:54:01Z</time>
      </trkpt>
      <trkpt lat="59.6119563754" lon="18.3888046527">
        <ele>90.2</ele>
        <time>2012-09-16T11:54:02Z</time>
      </trkpt>
      <trkpt lat="59.6119760729" lon="18.3889964306">
        <ele>89.8</ele>
        <time>2012-09-16T11:54:03Z</time>
      </trkpt>
      <trkpt lat="59.6119749832" lon="18.3891962551">
        <ele>89.2</ele>
        <time>2012-09-16T11:54:04Z</time>
      </trkpt>
      <trkpt lat="59.6119597282" lon="18.3893947385">
        <ele>88.8</ele>
        <time>2012-09-16T11:54:05Z</time>
      </trkpt>
      <trkpt lat="59.6119427129" lon="18.3895974128">
        <ele>88.2</ele>
        <time>2012-09-16T11:54:06Z</time>
      </trkpt>
      <trkpt lat="59.6119613207" lon="18.3899716646">
        <ele>88.2</ele>
        <time>2012-09-16T11:54:08Z</time>
      </trkpt>
      <trkpt lat="59.6120686929" lon="18.3902394663">
        <ele>87.8</ele>
        <time>2012-09-16T11:54:10Z</time>
      </trkpt>
      <trkpt lat="59.6121385979" lon="18.3903482634">
        <ele>87.4</ele>
        <time>2012-09-16T11:54:11Z</time>
      </trkpt>
      <trkpt lat="59.612214035" lon="18.3904661129">
        <ele>87</ele>
        <time>2012-09-16T11:54:12Z</time>
      </trkpt>
      <trkpt lat="59.6122919867" lon="18.3906112874">
        <ele>86.4</ele>
        <time>2012-09-16T11:54:13Z</time>
      </trkpt>
      <trkpt lat="59.6123601315" lon="18.3907695377">
        <ele>85.8</ele>
        <time>2012-09-16T11:54:14Z</time>
      </trkpt>
      <trkpt lat="59.6124262647" lon="18.3909364213">
        <ele>85.2</ele>
        <time>2012-09-16T11:54:15Z</time>
      </trkpt>
      <trkpt lat="59.612492817" lon="18.3911028859">
        <ele>84.6</ele>
        <time>2012-09-16T11:54:16Z</time>
      </trkpt>
      <trkpt lat="59.6125541725" lon="18.391261639">
        <ele>84</ele>
        <time>2012-09-16T11:54:17Z</time>
      </trkpt>
      <trkpt lat="59.6126623828" lon="18.3915824144">
        <ele>83.4</ele>
        <time>2012-09-16T11:54:19Z</time>
      </trkpt>
      <trkpt lat="59.6127001852" lon="18.3917600268">
        <ele>82.8</ele>
        <time>2012-09-16T11:54:20Z</time>
      </trkpt>
      <trkpt lat="59.6127261691" lon="18.3919462726">
        <ele>81.8</ele>
        <time>2012-09-16T11:54:21Z</time>
      </trkpt>
      <trkpt lat="59.6127400831" lon="18.3921246395">
        <ele>80.8</ele>
        <time>2012-09-16T11:54:22Z</time>
      </trkpt>
      <trkpt lat="59.6127510633" lon="18.392301749">
        <ele>80</ele>
        <time>2012-09-16T11:54:23Z</time>
      </trkpt>
      <trkpt lat="59.6127661508" lon="18.3924696385">
        <ele>79</ele>
        <time>2012-09-16T11:54:24Z</time>
      </trkpt>
      <trkpt lat="59.6127898715" lon="18.3926242007">
        <ele>78</ele>
        <time>2012-09-16T11:54:25Z</time>
      </trkpt>
      <trkpt lat="59.612820214" lon="18.3927708001">
        <ele>78</ele>
        <time>2012-09-16T11:54:26Z</time>
      </trkpt>
      <trkpt lat="59.6128675718" lon="18.3930850376">
        <ele>78</ele>
        <time>2012-09-16T11:54:28Z</time>
      </trkpt>
      <trkpt lat="59.6128754507" lon="18.3934395081">
        <ele>78</ele>
        <time>2012-09-16T11:54:30Z</time>
      </trkpt>
      <trkpt lat="59.6127890334" lon="18.3939667296">
        <ele>78</ele>
        <time>2012-09-16T11:54:33Z</time>
      </trkpt>
      <trkpt lat="59.6127418433" lon="18.3941398159">
        <ele>77.6</ele>
        <time>2012-09-16T11:54:34Z</time>
      </trkpt>
      <trkpt lat="59.6126913004" lon="18.3943146623">
        <ele>77.2</ele>
        <time>2012-09-16T11:54:35Z</time>
      </trkpt>
      <trkpt lat="59.6126306993" lon="18.3944878323">
        <ele>76.8</ele>
        <time>2012-09-16T11:54:36Z</time>
      </trkpt>
      <trkpt lat="59.612562303" lon="18.394679694">
        <ele>76.4</ele>
        <time>2012-09-16T11:54:37Z</time>
      </trkpt>
      <trkpt lat="59.6125179627" lon="18.3948725616">
        <ele>75.8</ele>
        <time>2012-09-16T11:54:38Z</time>
      </trkpt>
      <trkpt lat="59.6125028753" lon="18.3950740624">
        <ele>75.2</ele>
        <time>2012-09-16T11:54:39Z</time>
      </trkpt>
      <trkpt lat="59.6124994387" lon="18.3952723782">
        <ele>74.6</ele>
        <time>2012-09-16T11:54:40Z</time>
      </trkpt>
      <trkpt lat="59.6125224889" lon="18.3954581211">
        <ele>74</ele>
        <time>2012-09-16T11:54:41Z</time>
      </trkpt>
      <trkpt lat="59.612561381" lon="18.3956275193">
        <ele>73.4</ele>
        <time>2012-09-16T11:54:42Z</time>
      </trkpt>
      <trkpt lat="59.6127990078" lon="18.3963512125">
        <ele>73.4</ele>
        <time>2012-09-16T11:54:47Z</time>
      </trkpt>
      <trkpt lat="59.6129751954" lon="18.3968519472">
        <ele>73.4</ele>
        <time>2012-09-16T11:54:51Z</time>
      </trkpt>
      <trkpt lat="59.6129997543" lon="18.3970161487">
        <ele>73.4</ele>
        <time>2012-09-16T11:54:52Z</time>
      </trkpt>
      <trkpt lat="59.6129551626" lon="18.3974823499">
        <ele>73.4</ele>
        <time>2012-09-16T11:54:55Z</time>
      </trkpt>
      <trkpt lat="59.6128182862" lon="18.3977937375">
        <ele>73.4</ele>
        <time>2012-09-16T11:54:58Z</time>
      </trkpt>
      <trkpt lat="59.6127678271" lon="18.3978892074">
        <ele>73.4</ele>
        <time>2012-09-16T11:54:59Z</time>
      </trkpt>
      <trkpt lat="59.6126172044" lon="18.3982477851">
        <ele>73.4</ele>
        <time>2012-09-16T11:55:02Z</time>
      </trkpt>
      <trkpt lat="59.6126221497" lon="18.3986963843">
        <ele>73.4</ele>
        <time>2012-09-16T11:55:05Z</time>
      </trkpt>
      <trkpt lat="59.6126400032" lon="18.3988491864">
        <ele>73.4</ele>
        <time>2012-09-16T11:55:06Z</time>
      </trkpt>
      <trkpt lat="59.6126711" lon="18.3991473306">
        <ele>73.4</ele>
        <time>2012-09-16T11:55:08Z</time>
      </trkpt>
      <trkpt lat="59.612697503" lon="18.3994321475">
        <ele>73.4</ele>
        <time>2012-09-16T11:55:10Z</time>
      </trkpt>
      <trkpt lat="59.6127951521" lon="18.4002786356">
        <ele>73.4</ele>
        <time>2012-09-16T11:55:16Z</time>
      </trkpt>
      <trkpt lat="59.6128404982" lon="18.4005489519">
        <ele>73.4</ele>
        <time>2012-09-16T11:55:18Z</time>
      </trkpt>
      <trkpt lat="59.6129149295" lon="18.4007986487">
        <ele>73.4</ele>
        <time>2012-09-16T11:55:20Z</time>
      </trkpt>
      <trkpt lat="59.6131520534" lon="18.4012229405">
        <ele>73.4</ele>
        <time>2012-09-16T11:55:24Z</time>
      </trkpt>
      <trkpt lat="59.6135283169" lon="18.4017474798">
        <ele>73.4</ele>
        <time>2012-09-16T11:55:30Z</time>
      </trkpt>
      <trkpt lat="59.614006672" lon="18.4023635494">
        <ele>73.4</ele>
        <time>2012-09-16T11:55:37Z</time>
      </trkpt>
      <trkpt lat="59.6140703744" lon="18.4024588516">
        <ele>73.4</ele>
        <time>2012-09-16T11:55:38Z</time>
      </trkpt>
      <trkpt lat="59.6141254435" lon="18.4025593506">
        <ele>73.4</ele>
        <time>2012-09-16T11:55:39Z</time>
      </trkpt>
      <trkpt lat="59.6142810954" lon="18.4028813832">
        <ele>73.4</ele>
        <time>2012-09-16T11:55:42Z</time>
      </trkpt>
      <trkpt lat="59.6143233402" lon="18.4030071117">
        <ele>73.4</ele>
        <time>2012-09-16T11:55:43Z</time>
      </trkpt>
      <trkpt lat="59.6143925746" lon="18.4034310682">
        <ele>73.4</ele>
        <time>2012-09-16T11:55:46Z</time>
      </trkpt>
      <trkpt lat="59.6143771519" lon="18.4040110119">
        <ele>73.4</ele>
        <time>2012-09-16T11:55:50Z</time>
      </trkpt>
      <trkpt lat="59.6143478153" lon="18.4042452021">
        <ele>73.4</ele>
        <time>2012-09-16T11:55:52Z</time>
      </trkpt>
      <trkpt lat="59.6143288722" lon="18.4043589445">
        <ele>73.4</ele>
        <time>2012-09-16T11:55:53Z</time>
      </trkpt>
      <trkpt lat="59.6142943388" lon="18.4045507224">
        <ele>73.4</ele>
        <time>2012-09-16T11:55:55Z</time>
      </trkpt>
      <trkpt lat="59.6142656727" lon="18.4047318553">
        <ele>73.4</ele>
        <time>2012-09-16T11:55:57Z</time>
      </trkpt>
      <trkpt lat="59.6142507529" lon="18.4048193623">
        <ele>74</ele>
        <time>2012-09-16T11:55:58Z</time>
      </trkpt>
      <trkpt lat="59.614237258" lon="18.4049052768">
        <ele>74.6</ele>
        <time>2012-09-16T11:55:59Z</time>
      </trkpt>
      <trkpt lat="59.6142294629" lon="18.4049933705">
        <ele>75.2</ele>
        <time>2012-09-16T11:56:00Z</time>
      </trkpt>
      <trkpt lat="59.6142256072" lon="18.4050892595">
        <ele>75.8</ele>
        <time>2012-09-16T11:56:01Z</time>
      </trkpt>
      <trkpt lat="59.6142177282" lon="18.4051856513">
        <ele>76.6</ele>
        <time>2012-09-16T11:56:02Z</time>
      </trkpt>
      <trkpt lat="59.6142107712" lon="18.405279361">
        <ele>77.2</ele>
        <time>2012-09-16T11:56:03Z</time>
      </trkpt>
      <trkpt lat="59.6141998748" lon="18.4053771777">
        <ele>78</ele>
        <time>2012-09-16T11:56:04Z</time>
      </trkpt>
      <trkpt lat="59.6141935883" lon="18.4054816162">
        <ele>78.6</ele>
        <time>2012-09-16T11:56:05Z</time>
      </trkpt>
      <trkpt lat="59.614189565" lon="18.4055884016">
        <ele>78.6</ele>
        <time>2012-09-16T11:56:06Z</time>
      </trkpt>
      <trkpt lat="59.6141905709" lon="18.4059191514">
        <ele>78.6</ele>
        <time>2012-09-16T11:56:09Z</time>
      </trkpt>
      <trkpt lat="59.6141887268" lon="18.4061421937">
        <ele>78.6</ele>
        <time>2012-09-16T11:56:11Z</time>
      </trkpt>
      <trkpt lat="59.6141555345" lon="18.4064854326">
        <ele>78.6</ele>
        <time>2012-09-16T11:56:14Z</time>
      </trkpt>
      <trkpt lat="59.6141192409" lon="18.4067086425">
        <ele>78.6</ele>
        <time>2012-09-16T11:56:16Z</time>
      </trkpt>
      <trkpt lat="59.6140490844" lon="18.4070657953">
        <ele>78.6</ele>
        <time>2012-09-16T11:56:19Z</time>
      </trkpt>
      <trkpt lat="59.6139734796" lon="18.4075185855">
        <ele>78.6</ele>
        <time>2012-09-16T11:56:22Z</time>
      </trkpt>
      <trkpt lat="59.6139541175" lon="18.4076929291">
        <ele>78.6</ele>
        <time>2012-09-16T11:56:23Z</time>
      </trkpt>
      <trkpt lat="59.6138651855" lon="18.4088141758">
        <ele>78.6</ele>
        <time>2012-09-16T11:56:29Z</time>
      </trkpt>
      <trkpt lat="59.6138482541" lon="18.408999332">
        <ele>78.2</ele>
        <time>2012-09-16T11:56:30Z</time>
      </trkpt>
      <trkpt lat="59.6138305682" lon="18.4091847396">
        <ele>77.6</ele>
        <time>2012-09-16T11:56:31Z</time>
      </trkpt>
      <trkpt lat="59.6138127986" lon="18.4093773557">
        <ele>77.2</ele>
        <time>2012-09-16T11:56:32Z</time>
      </trkpt>
      <trkpt lat="59.6138009801" lon="18.4095573989">
        <ele>76.6</ele>
        <time>2012-09-16T11:56:33Z</time>
      </trkpt>
      <trkpt lat="59.6137896646" lon="18.40973937">
        <ele>76</ele>
        <time>2012-09-16T11:56:34Z</time>
      </trkpt>
      <trkpt lat="59.6137861442" lon="18.4102780747">
        <ele>76</ele>
        <time>2012-09-16T11:56:37Z</time>
      </trkpt>
      <trkpt lat="59.6137905028" lon="18.4104623926">
        <ele>75.6</ele>
        <time>2012-09-16T11:56:38Z</time>
      </trkpt>
      <trkpt lat="59.6138007287" lon="18.4106547573">
        <ele>75.2</ele>
        <time>2012-09-16T11:56:39Z</time>
      </trkpt>
      <trkpt lat="59.6138150617" lon="18.4108310286">
        <ele>74.8</ele>
        <time>2012-09-16T11:56:40Z</time>
      </trkpt>
      <trkpt lat="59.6138346754" lon="18.4110000915">
        <ele>74.4</ele>
        <time>2012-09-16T11:56:41Z</time>
      </trkpt>
      <trkpt lat="59.6138589829" lon="18.4111702441">
        <ele>73.8</ele>
        <time>2012-09-16T11:56:42Z</time>
      </trkpt>
      <trkpt lat="59.6140195801" lon="18.4119979567">
        <ele>73.8</ele>
        <time>2012-09-16T11:56:47Z</time>
      </trkpt>
      <trkpt lat="59.6142172253" lon="18.4131438463">
        <ele>73.8</ele>
        <time>2012-09-16T11:56:54Z</time>
      </trkpt>
      <trkpt lat="59.6142321451" lon="18.4133166811">
        <ele>73.4</ele>
        <time>2012-09-16T11:56:55Z</time>
      </trkpt>
      <trkpt lat="59.6142424548" lon="18.4134772783">
        <ele>73</ele>
        <time>2012-09-16T11:56:56Z</time>
      </trkpt>
      <trkpt lat="59.6142534351" lon="18.4136372049">
        <ele>72.6</ele>
        <time>2012-09-16T11:56:57Z</time>
      </trkpt>
      <trkpt lat="59.6142655889" lon="18.4137962096">
        <ele>72.2</ele>
        <time>2012-09-16T11:56:58Z</time>
      </trkpt>
      <trkpt lat="59.6142832747" lon="18.4139495145">
        <ele>71.8</ele>
        <time>2012-09-16T11:56:59Z</time>
      </trkpt>
      <trkpt lat="59.6144463026" lon="18.4149107508">
        <ele>71.8</ele>
        <time>2012-09-16T11:57:05Z</time>
      </trkpt>
      <trkpt lat="59.6145102565" lon="18.4152151814">
        <ele>71.4</ele>
        <time>2012-09-16T11:57:07Z</time>
      </trkpt>
      <trkpt lat="59.6145426945" lon="18.4153639601">
        <ele>71</ele>
        <time>2012-09-16T11:57:08Z</time>
      </trkpt>
      <trkpt lat="59.6145781499" lon="18.4155202826">
        <ele>70.4</ele>
        <time>2012-09-16T11:57:09Z</time>
      </trkpt>
      <trkpt lat="59.6146121804" lon="18.4156622719">
        <ele>69.4</ele>
        <time>2012-09-16T11:57:10Z</time>
      </trkpt>
      <trkpt lat="59.6146659084" lon="18.4159206021">
        <ele>69.4</ele>
        <time>2012-09-16T11:57:12Z</time>
      </trkpt>
      <trkpt lat="59.6148094904" lon="18.4167141166">
        <ele>69.4</ele>
        <time>2012-09-16T11:57:18Z</time>
      </trkpt>
      <trkpt lat="59.6148660682" lon="18.4171405877">
        <ele>69.4</ele>
        <time>2012-09-16T11:57:21Z</time>
      </trkpt>
      <trkpt lat="59.6148861009" lon="18.4174614468">
        <ele>69.4</ele>
        <time>2012-09-16T11:57:23Z</time>
      </trkpt>
      <trkpt lat="59.6149269208" lon="18.4180553882">
        <ele>69.4</ele>
        <time>2012-09-16T11:57:27Z</time>
      </trkpt>
      <trkpt lat="59.6149724345" lon="18.4183269618">
        <ele>69.4</ele>
        <time>2012-09-16T11:57:29Z</time>
      </trkpt>
      <trkpt lat="59.6151396534" lon="18.4191042992">
        <ele>69.4</ele>
        <time>2012-09-16T11:57:35Z</time>
      </trkpt>
      <trkpt lat="59.6151715884" lon="18.4196641263">
        <ele>69.4</ele>
        <time>2012-09-16T11:57:39Z</time>
      </trkpt>
      <trkpt lat="59.6151642962" lon="18.4199783637">
        <ele>69.4</ele>
        <time>2012-09-16T11:57:41Z</time>
      </trkpt>
      <trkpt lat="59.6151243983" lon="18.4202688804">
        <ele>69.4</ele>
        <time>2012-09-16T11:57:43Z</time>
      </trkpt>
      <trkpt lat="59.6150243184" lon="18.4207746442">
        <ele>69.4</ele>
        <time>2012-09-16T11:57:47Z</time>
      </trkpt>
      <trkpt lat="59.6149966582" lon="18.4208950083">
        <ele>69.4</ele>
        <time>2012-09-16T11:57:48Z</time>
      </trkpt>
      <trkpt lat="59.6148657329" lon="18.4214257502">
        <ele>70</ele>
        <time>2012-09-16T11:57:53Z</time>
      </trkpt>
      <trkpt lat="59.6148446943" lon="18.4215186217">
        <ele>70.4</ele>
        <time>2012-09-16T11:57:54Z</time>
      </trkpt>
      <trkpt lat="59.6148252483" lon="18.4216057096">
        <ele>70.8</ele>
        <time>2012-09-16T11:57:55Z</time>
      </trkpt>
      <trkpt lat="59.6147993483" lon="18.421683326">
        <ele>71.2</ele>
        <time>2012-09-16T11:57:56Z</time>
      </trkpt>
      <trkpt lat="59.6147738673" lon="18.4217697434">
        <ele>71.8</ele>
        <time>2012-09-16T11:57:57Z</time>
      </trkpt>
      <trkpt lat="59.6147549242" lon="18.4218610223">
        <ele>71.8</ele>
        <time>2012-09-16T11:57:58Z</time>
      </trkpt>
      <trkpt lat="59.6147102487" lon="18.4221312547">
        <ele>72.2</ele>
        <time>2012-09-16T11:58:01Z</time>
      </trkpt>
      <trkpt lat="59.6146912217" lon="18.4222283171">
        <ele>72.8</ele>
        <time>2012-09-16T11:58:02Z</time>
      </trkpt>
      <trkpt lat="59.6146699317" lon="18.4223356893">
        <ele>73.2</ele>
        <time>2012-09-16T11:58:03Z</time>
      </trkpt>
      <trkpt lat="59.6146405951" lon="18.4224377808">
        <ele>73.8</ele>
        <time>2012-09-16T11:58:04Z</time>
      </trkpt>
      <trkpt lat="59.6146106717" lon="18.4225463264">
        <ele>74.4</ele>
        <time>2012-09-16T11:58:05Z</time>
      </trkpt>
      <trkpt lat="59.6145662476" lon="18.4227505933">
        <ele>74.8</ele>
        <time>2012-09-16T11:58:07Z</time>
      </trkpt>
      <trkpt lat="59.6145455443" lon="18.422853104">
        <ele>75.2</ele>
        <time>2012-09-16T11:58:08Z</time>
      </trkpt>
      <trkpt lat="59.6145273556" lon="18.4229613143">
        <ele>75.6</ele>
        <time>2012-09-16T11:58:09Z</time>
      </trkpt>
      <trkpt lat="59.6145076581" lon="18.4230671777">
        <ele>76</ele>
        <time>2012-09-16T11:58:10Z</time>
      </trkpt>
      <trkpt lat="59.6144865357" lon="18.4231783217">
        <ele>76.6</ele>
        <time>2012-09-16T11:58:11Z</time>
      </trkpt>
      <trkpt lat="59.6144480628" lon="18.4234078181">
        <ele>76.6</ele>
        <time>2012-09-16T11:58:13Z</time>
      </trkpt>
      <trkpt lat="59.6143652496" lon="18.4240953015">
        <ele>76.6</ele>
        <time>2012-09-16T11:58:19Z</time>
      </trkpt>
      <trkpt lat="59.6143475638" lon="18.4243089562">
        <ele>76.6</ele>
        <time>2012-09-16T11:58:21Z</time>
      </trkpt>
      <trkpt lat="59.6143320573" lon="18.4245215212">
        <ele>76.6</ele>
        <time>2012-09-16T11:58:23Z</time>
      </trkpt>
      <trkpt lat="59.6143167184" lon="18.4248496725">
        <ele>77</ele>
        <time>2012-09-16T11:58:26Z</time>
      </trkpt>
      <trkpt lat="59.6143174728" lon="18.4249608165">
        <ele>77.4</ele>
        <time>2012-09-16T11:58:27Z</time>
      </trkpt>
      <trkpt lat="59.6143208256" lon="18.4250737207">
        <ele>77.8</ele>
        <time>2012-09-16T11:58:28Z</time>
      </trkpt>
      <trkpt lat="59.6143279502" lon="18.4251878822">
        <ele>78.2</ele>
        <time>2012-09-16T11:58:29Z</time>
      </trkpt>
      <trkpt lat="59.6143427023" lon="18.4253047259">
        <ele>78.6</ele>
        <time>2012-09-16T11:58:30Z</time>
      </trkpt>
      <trkpt lat="59.614463737" lon="18.4257575999">
        <ele>78.6</ele>
        <time>2012-09-16T11:58:34Z</time>
      </trkpt>
      <trkpt lat="59.6145073229" lon="18.4258678219">
        <ele>79</ele>
        <time>2012-09-16T11:58:35Z</time>
      </trkpt>
      <trkpt lat="59.6145543453" lon="18.4259795527">
        <ele>79.6</ele>
        <time>2012-09-16T11:58:36Z</time>
      </trkpt>
      <trkpt lat="59.614604972" lon="18.4260881821">
        <ele>80</ele>
        <time>2012-09-16T11:58:37Z</time>
      </trkpt>
      <trkpt lat="59.6146576941" lon="18.4261954704">
        <ele>80.4</ele>
        <time>2012-09-16T11:58:38Z</time>
      </trkpt>
      <trkpt lat="59.6147106677" lon="18.4262991545">
        <ele>80.8</ele>
        <time>2012-09-16T11:58:39Z</time>
      </trkpt>
      <trkpt lat="59.614806389" lon="18.4265529584">
        <ele>80.8</ele>
        <time>2012-09-16T11:58:41Z</time>
      </trkpt>
      <trkpt lat="59.6148626316" lon="18.426842134">
        <ele>80.8</ele>
        <time>2012-09-16T11:58:43Z</time>
      </trkpt>
      <trkpt lat="59.6148928064" lon="18.4271423736">
        <ele>80.8</ele>
        <time>2012-09-16T11:58:45Z</time>
      </trkpt>
      <trkpt lat="59.6149111628" lon="18.427444625">
        <ele>80.4</ele>
        <time>2012-09-16T11:58:47Z</time>
      </trkpt>
      <trkpt lat="59.6149282619" lon="18.4275850218">
        <ele>80</ele>
        <time>2012-09-16T11:58:48Z</time>
      </trkpt>
      <trkpt lat="59.6149464506" lon="18.427731705">
        <ele>79</ele>
        <time>2012-09-16T11:58:49Z</time>
      </trkpt>
      <trkpt lat="59.6149631306" lon="18.4278787236">
        <ele>78.6</ele>
        <time>2012-09-16T11:58:50Z</time>
      </trkpt>
      <trkpt lat="59.6150325327" lon="18.4286232039">
        <ele>78.6</ele>
        <time>2012-09-16T11:58:55Z</time>
      </trkpt>
      <trkpt lat="59.6149399127" lon="18.4290356772">
        <ele>78.6</ele>
        <time>2012-09-16T11:58:58Z</time>
      </trkpt>
      <trkpt lat="59.6147449497" lon="18.4292535228">
        <ele>78.6</ele>
        <time>2012-09-16T11:59:01Z</time>
      </trkpt>
      <trkpt lat="59.6146064807" lon="18.4294041455">
        <ele>78.6</ele>
        <time>2012-09-16T11:59:03Z</time>
      </trkpt>
      <trkpt lat="59.614486871" lon="18.429625763">
        <ele>78.6</ele>
        <time>2012-09-16T11:59:05Z</time>
      </trkpt>
      <trkpt lat="59.6143986934" lon="18.4299166149">
        <ele>78.6</ele>
        <time>2012-09-16T11:59:07Z</time>
      </trkpt>
      <trkpt lat="59.6143594661" lon="18.43006707">
        <ele>78.6</ele>
        <time>2012-09-16T11:59:08Z</time>
      </trkpt>
      <trkpt lat="59.6142862083" lon="18.430370411">
        <ele>78.2</ele>
        <time>2012-09-16T11:59:10Z</time>
      </trkpt>
      <trkpt lat="59.6142609788" lon="18.4305302538">
        <ele>77.6</ele>
        <time>2012-09-16T11:59:11Z</time>
      </trkpt>
      <trkpt lat="59.6142446341" lon="18.430708453">
        <ele>77.2</ele>
        <time>2012-09-16T11:59:12Z</time>
      </trkpt>
      <trkpt lat="59.6142401079" lon="18.4308804496">
        <ele>76.2</ele>
        <time>2012-09-16T11:59:13Z</time>
      </trkpt>
      <trkpt lat="59.6143266091" lon="18.4313645881">
        <ele>76.2</ele>
        <time>2012-09-16T11:59:16Z</time>
      </trkpt>
      <trkpt lat="59.6143717875" lon="18.4315142889">
        <ele>76.2</ele>
        <time>2012-09-16T11:59:17Z</time>
      </trkpt>
      <trkpt lat="59.6144183909" lon="18.431662397">
        <ele>75.8</ele>
        <time>2012-09-16T11:59:18Z</time>
      </trkpt>
      <trkpt lat="59.6144657486" lon="18.4318292807">
        <ele>75.4</ele>
        <time>2012-09-16T11:59:19Z</time>
      </trkpt>
      <trkpt lat="59.61451143" lon="18.4319902131">
        <ele>75</ele>
        <time>2012-09-16T11:59:20Z</time>
      </trkpt>
      <trkpt lat="59.6145585363" lon="18.4321414226">
        <ele>74.6</ele>
        <time>2012-09-16T11:59:21Z</time>
      </trkpt>
      <trkpt lat="59.6146090791" lon="18.4322703362">
        <ele>74.2</ele>
        <time>2012-09-16T11:59:22Z</time>
      </trkpt>
      <trkpt lat="59.6146627233" lon="18.4324000881">
        <ele>74.2</ele>
        <time>2012-09-16T11:59:23Z</time>
      </trkpt>
      <trkpt lat="59.6147084885" lon="18.4325440891">
        <ele>74.2</ele>
        <time>2012-09-16T11:59:24Z</time>
      </trkpt>
      <trkpt lat="59.6147331312" lon="18.4328725758">
        <ele>74.2</ele>
        <time>2012-09-16T11:59:26Z</time>
      </trkpt>
      <trkpt lat="59.6146571912" lon="18.4331686245">
        <ele>73.8</ele>
        <time>2012-09-16T11:59:28Z</time>
      </trkpt>
      <trkpt lat="59.6146023736" lon="18.4333034054">
        <ele>73.4</ele>
        <time>2012-09-16T11:59:29Z</time>
      </trkpt>
      <trkpt lat="59.6145488971" lon="18.4334464845">
        <ele>72.8</ele>
        <time>2012-09-16T11:59:30Z</time>
      </trkpt>
      <trkpt lat="59.6145006173" lon="18.4335989512">
        <ele>72.4</ele>
        <time>2012-09-16T11:59:31Z</time>
      </trkpt>
      <trkpt lat="59.6144535111" lon="18.4337531782">
        <ele>72</ele>
        <time>2012-09-16T11:59:32Z</time>
      </trkpt>
      <trkpt lat="59.6144134456" lon="18.4338991909">
        <ele>71.4</ele>
        <time>2012-09-16T11:59:33Z</time>
      </trkpt>
      <trkpt lat="59.6143846118" lon="18.4340368217">
        <ele>71</ele>
        <time>2012-09-16T11:59:34Z</time>
      </trkpt>
      <trkpt lat="59.6143643276" lon="18.4341697586">
        <ele>70.6</ele>
        <time>2012-09-16T11:59:35Z</time>
      </trkpt>
      <trkpt lat="59.6143653335" lon="18.4342900389">
        <ele>70.2</ele>
        <time>2012-09-16T11:59:36Z</time>
      </trkpt>
      <trkpt lat="59.6143901439" lon="18.4343793061">
        <ele>69.6</ele>
        <time>2012-09-16T11:59:37Z</time>
      </trkpt>
      <trkpt lat="59.614426689" lon="18.4344410807">
        <ele>69</ele>
        <time>2012-09-16T11:59:38Z</time>
      </trkpt>
      <trkpt lat="59.6144700234" lon="18.4344851695">
        <ele>67.8</ele>
        <time>2012-09-16T11:59:39Z</time>
      </trkpt>
      <trkpt lat="59.6145206501" lon="18.4345053699">
        <ele>67.2</ele>
        <time>2012-09-16T11:59:40Z</time>
      </trkpt>
      <trkpt lat="59.6145779823" lon="18.4345052861">
        <ele>66.4</ele>
        <time>2012-09-16T11:59:41Z</time>
      </trkpt>
      <trkpt lat="59.6148562614" lon="18.4343256619">
        <ele>66.4</ele>
        <time>2012-09-16T11:59:45Z</time>
      </trkpt>
      <trkpt lat="59.6152006736" lon="18.4342073095">
        <ele>66.4</ele>
        <time>2012-09-16T11:59:49Z</time>
      </trkpt>
      <trkpt lat="59.6152938804" lon="18.4342166134">
        <ele>66.8</ele>
        <time>2012-09-16T11:59:50Z</time>
      </trkpt>
      <trkpt lat="59.6153909428" lon="18.4342537452">
        <ele>67.2</ele>
        <time>2012-09-16T11:59:51Z</time>
      </trkpt>
      <trkpt lat="59.6154770249" lon="18.4343136758">
        <ele>67.6</ele>
        <time>2012-09-16T11:59:52Z</time>
      </trkpt>
      <trkpt lat="59.61556076" lon="18.43436732">
        <ele>68</ele>
        <time>2012-09-16T11:59:53Z</time>
      </trkpt>
      <trkpt lat="59.6156386279" lon="18.4344209641">
        <ele>68.4</ele>
        <time>2012-09-16T11:59:54Z</time>
      </trkpt>
      <trkpt lat="59.6157857302" lon="18.434539568">
        <ele>68</ele>
        <time>2012-09-16T11:59:56Z</time>
      </trkpt>
      <trkpt lat="59.6158584013" lon="18.434602097">
        <ele>67.6</ele>
        <time>2012-09-16T11:59:57Z</time>
      </trkpt>
      <trkpt lat="59.6159313238" lon="18.4346588425">
        <ele>67</ele>
        <time>2012-09-16T11:59:58Z</time>
      </trkpt>
      <trkpt lat="59.6160099461" lon="18.4347118999">
        <ele>66.6</ele>
        <time>2012-09-16T11:59:59Z</time>
      </trkpt>
      <trkpt lat="59.6160865566" lon="18.434768813">
        <ele>66</ele>
        <time>2012-09-16T12:00:00Z</time>
      </trkpt>
      <trkpt lat="59.6161612394" lon="18.4348402268">
        <ele>65.4</ele>
        <time>2012-09-16T12:00:01Z</time>
      </trkpt>
      <trkpt lat="59.6162314797" lon="18.4349329306">
        <ele>64.8</ele>
        <time>2012-09-16T12:00:02Z</time>
      </trkpt>
      <trkpt lat="59.6162967747" lon="18.4350456672">
        <ele>63.6</ele>
        <time>2012-09-16T12:00:03Z</time>
      </trkpt>
      <trkpt lat="59.6163944238" lon="18.4353268799">
        <ele>63.6</ele>
        <time>2012-09-16T12:00:05Z</time>
      </trkpt>
      <trkpt lat="59.6164712858" lon="18.43582049">
        <ele>63.6</ele>
        <time>2012-09-16T12:00:08Z</time>
      </trkpt>
      <trkpt lat="59.6164900613" lon="18.4359779859">
        <ele>63.6</ele>
        <time>2012-09-16T12:00:09Z</time>
      </trkpt>
      <trkpt lat="59.6165478126" lon="18.4362791476">
        <ele>63.6</ele>
        <time>2012-09-16T12:00:11Z</time>
      </trkpt>
      <trkpt lat="59.6166265186" lon="18.4365531519">
        <ele>63.6</ele>
        <time>2012-09-16T12:00:13Z</time>
      </trkpt>
      <trkpt lat="59.6168141894" lon="18.4369899327">
        <ele>63.6</ele>
        <time>2012-09-16T12:00:17Z</time>
      </trkpt>
      <trkpt lat="59.6168510697" lon="18.4371107159">
        <ele>63.6</ele>
        <time>2012-09-16T12:00:18Z</time>
      </trkpt>
      <trkpt lat="59.6169408399" lon="18.4375578902">
        <ele>63.6</ele>
        <time>2012-09-16T12:00:21Z</time>
      </trkpt>
      <trkpt lat="59.6169870242" lon="18.4378792523">
        <ele>63.2</ele>
        <time>2012-09-16T12:00:23Z</time>
      </trkpt>
      <trkpt lat="59.6170106611" lon="18.438049321">
        <ele>62.8</ele>
        <time>2012-09-16T12:00:24Z</time>
      </trkpt>
      <trkpt lat="59.6170254971" lon="18.4382295319">
        <ele>62.4</ele>
        <time>2012-09-16T12:00:25Z</time>
      </trkpt>
      <trkpt lat="59.6170141815" lon="18.4384136822">
        <ele>62</ele>
        <time>2012-09-16T12:00:26Z</time>
      </trkpt>
      <trkpt lat="59.6169815759" lon="18.4385825775">
        <ele>61.6</ele>
        <time>2012-09-16T12:00:27Z</time>
      </trkpt>
      <trkpt lat="59.6169348887" lon="18.4387321106">
        <ele>60.6</ele>
        <time>2012-09-16T12:00:28Z</time>
      </trkpt>
      <trkpt lat="59.6168754611" lon="18.4388766984">
        <ele>60</ele>
        <time>2012-09-16T12:00:29Z</time>
      </trkpt>
      <trkpt lat="59.6168146923" lon="18.4390130719">
        <ele>59.6</ele>
        <time>2012-09-16T12:00:30Z</time>
      </trkpt>
      <trkpt lat="59.6166442044" lon="18.439427473">
        <ele>59.6</ele>
        <time>2012-09-16T12:00:33Z</time>
      </trkpt>
      <trkpt lat="59.6166012891" lon="18.4397713824">
        <ele>59.6</ele>
        <time>2012-09-16T12:00:35Z</time>
      </trkpt>
      <trkpt lat="59.6166727029" lon="18.4402478934">
        <ele>59.6</ele>
        <time>2012-09-16T12:00:38Z</time>
      </trkpt>
      <trkpt lat="59.6167684242" lon="18.4405185449">
        <ele>59.6</ele>
        <time>2012-09-16T12:00:40Z</time>
      </trkpt>
      <trkpt lat="59.6168737009" lon="18.4407789706">
        <ele>59.6</ele>
        <time>2012-09-16T12:00:42Z</time>
      </trkpt>
      <trkpt lat="59.6169193822" lon="18.4409120751">
        <ele>59.6</ele>
        <time>2012-09-16T12:00:43Z</time>
      </trkpt>
      <trkpt lat="59.6170334599" lon="18.4413134843">
        <ele>59.6</ele>
        <time>2012-09-16T12:00:46Z</time>
      </trkpt>
      <trkpt lat="59.6171813166" lon="18.4420515945">
        <ele>59.6</ele>
        <time>2012-09-16T12:00:51Z</time>
      </trkpt>
      <trkpt lat="59.6171971584" lon="18.4422178913">
        <ele>59.6</ele>
        <time>2012-09-16T12:00:52Z</time>
      </trkpt>
      <trkpt lat="59.6172052888" lon="18.4425397563">
        <ele>59.6</ele>
        <time>2012-09-16T12:00:54Z</time>
      </trkpt>
      <trkpt lat="59.6171957335" lon="18.4433999069">
        <ele>59.6</ele>
        <time>2012-09-16T12:01:00Z</time>
      </trkpt>
      <trkpt lat="59.6171920454" lon="18.4436743303">
        <ele>59.6</ele>
        <time>2012-09-16T12:01:02Z</time>
      </trkpt>
      <trkpt lat="59.6172183646" lon="18.4440721353">
        <ele>59.6</ele>
        <time>2012-09-16T12:01:05Z</time>
      </trkpt>
      <trkpt lat="59.6172268303" lon="18.4443546891">
        <ele>59.6</ele>
        <time>2012-09-16T12:01:07Z</time>
      </trkpt>
      <trkpt lat="59.6172360504" lon="18.4447860217">
        <ele>59.6</ele>
        <time>2012-09-16T12:01:10Z</time>
      </trkpt>
      <trkpt lat="59.6172656385" lon="18.445044268">
        <ele>59.6</ele>
        <time>2012-09-16T12:01:12Z</time>
      </trkpt>
      <trkpt lat="59.6172962324" lon="18.4451472816">
        <ele>60</ele>
        <time>2012-09-16T12:01:13Z</time>
      </trkpt>
      <trkpt lat="59.6173315202" lon="18.445231352">
        <ele>60.4</ele>
        <time>2012-09-16T12:01:14Z</time>
      </trkpt>
      <trkpt lat="59.6173740165" lon="18.4452982396">
        <ele>60.8</ele>
        <time>2012-09-16T12:01:15Z</time>
      </trkpt>
      <trkpt lat="59.6174129085" lon="18.445355488">
        <ele>61.4</ele>
        <time>2012-09-16T12:01:16Z</time>
      </trkpt>
      <trkpt lat="59.6174500403" lon="18.4454103056">
        <ele>61.8</ele>
        <time>2012-09-16T12:01:17Z</time>
      </trkpt>
      <trkpt lat="59.6174848252" lon="18.4454704876">
        <ele>61.8</ele>
        <time>2012-09-16T12:01:18Z</time>
      </trkpt>
      <trkpt lat="59.6175766908" lon="18.44563427">
        <ele>62.2</ele>
        <time>2012-09-16T12:01:21Z</time>
      </trkpt>
      <trkpt lat="59.6176065304" lon="18.4456964637">
        <ele>62.8</ele>
        <time>2012-09-16T12:01:22Z</time>
      </trkpt>
      <trkpt lat="59.6176410638" lon="18.4457531253">
        <ele>63.2</ele>
        <time>2012-09-16T12:01:23Z</time>
      </trkpt>
      <trkpt lat="59.6176768545" lon="18.4457965436">
        <ele>63.8</ele>
        <time>2012-09-16T12:01:24Z</time>
      </trkpt>
      <trkpt lat="59.6177162495" lon="18.445830155">
        <ele>64.2</ele>
        <time>2012-09-16T12:01:25Z</time>
      </trkpt>
      <trkpt lat="59.617756734" lon="18.4458561389">
        <ele>64.8</ele>
        <time>2012-09-16T12:01:26Z</time>
      </trkpt>
      <trkpt lat="59.6177967157" lon="18.4458856431">
        <ele>65.4</ele>
        <time>2012-09-16T12:01:27Z</time>
      </trkpt>
      <trkpt lat="59.6178366974" lon="18.4459021555">
        <ele>65.8</ele>
        <time>2012-09-16T12:01:28Z</time>
      </trkpt>
      <trkpt lat="59.6178800318" lon="18.4459146445">
        <ele>66.4</ele>
        <time>2012-09-16T12:01:29Z</time>
      </trkpt>
      <trkpt lat="59.6179626773" lon="18.445952866">
        <ele>66.8</ele>
        <time>2012-09-16T12:01:31Z</time>
      </trkpt>
      <trkpt lat="59.6180000606" lon="18.4459760839">
        <ele>67.2</ele>
        <time>2012-09-16T12:01:32Z</time>
      </trkpt>
      <trkpt lat="59.6180363542" lon="18.4460044985">
        <ele>67.6</ele>
        <time>2012-09-16T12:01:33Z</time>
      </trkpt>
      <trkpt lat="59.6180685407" lon="18.4460417979">
        <ele>68</ele>
        <time>2012-09-16T12:01:34Z</time>
      </trkpt>
      <trkpt lat="59.6180990508" lon="18.4460820311">
        <ele>68.4</ele>
        <time>2012-09-16T12:01:35Z</time>
      </trkpt>
      <trkpt lat="59.6181640944" lon="18.4461364296">
        <ele>68.4</ele>
        <time>2012-09-16T12:01:37Z</time>
      </trkpt>
      <trkpt lat="59.6182297246" lon="18.4462132078">
        <ele>69</ele>
        <time>2012-09-16T12:01:39Z</time>
      </trkpt>
      <trkpt lat="59.6182785073" lon="18.4462726355">
        <ele>69.4</ele>
        <time>2012-09-16T12:01:40Z</time>
      </trkpt>
      <trkpt lat="59.6183196624" lon="18.4463287104">
        <ele>69.8</ele>
        <time>2012-09-16T12:01:41Z</time>
      </trkpt>
      <trkpt lat="59.6183527709" lon="18.4463920775">
        <ele>70.8</ele>
        <time>2012-09-16T12:01:42Z</time>
      </trkpt>
      <trkpt lat="59.6184151323" lon="18.4465126931">
        <ele>70.8</ele>
        <time>2012-09-16T12:01:44Z</time>
      </trkpt>
      <trkpt lat="59.6185094286" lon="18.4466785709">
        <ele>71.2</ele>
        <time>2012-09-16T12:01:47Z</time>
      </trkpt>
      <trkpt lat="59.6185365022" lon="18.4467349811">
        <ele>71.6</ele>
        <time>2012-09-16T12:01:48Z</time>
      </trkpt>
      <trkpt lat="59.6185580437" lon="18.4467847696">
        <ele>72</ele>
        <time>2012-09-16T12:01:49Z</time>
      </trkpt>
      <trkpt lat="59.6185752266" lon="18.4468339713">
        <ele>72.6</ele>
        <time>2012-09-16T12:01:50Z</time>
      </trkpt>
      <trkpt lat="59.6185916551" lon="18.4468944886">
        <ele>73</ele>
        <time>2012-09-16T12:01:51Z</time>
      </trkpt>
      <trkpt lat="59.6186445449" lon="18.4470882782">
        <ele>73</ele>
        <time>2012-09-16T12:01:54Z</time>
      </trkpt>
      <trkpt lat="59.6186618116" lon="18.4471470353">
        <ele>73.4</ele>
        <time>2012-09-16T12:01:55Z</time>
      </trkpt>
      <trkpt lat="59.6186753903" lon="18.4472087261">
        <ele>73.8</ele>
        <time>2012-09-16T12:01:56Z</time>
      </trkpt>
      <trkpt lat="59.6186786592" lon="18.4472758651">
        <ele>74.2</ele>
        <time>2012-09-16T12:01:57Z</time>
      </trkpt>
      <trkpt lat="59.6186797489" lon="18.4473445128">
        <ele>74.6</ele>
        <time>2012-09-16T12:01:58Z</time>
      </trkpt>
      <trkpt lat="59.6186809223" lon="18.4474118195">
        <ele>75.2</ele>
        <time>2012-09-16T12:01:59Z</time>
      </trkpt>
      <trkpt lat="59.6186660025" lon="18.4476810461">
        <ele>75.6</ele>
        <time>2012-09-16T12:02:02Z</time>
      </trkpt>
      <trkpt lat="59.6186624821" lon="18.4477679664">
        <ele>76</ele>
        <time>2012-09-16T12:02:03Z</time>
      </trkpt>
      <trkpt lat="59.6186589617" lon="18.4478548029">
        <ele>76.4</ele>
        <time>2012-09-16T12:02:04Z</time>
      </trkpt>
      <trkpt lat="59.6186557766" lon="18.4479424776">
        <ele>77</ele>
        <time>2012-09-16T12:02:05Z</time>
      </trkpt>
      <trkpt lat="59.61865234" lon="18.4480278053">
        <ele>77.4</ele>
        <time>2012-09-16T12:02:06Z</time>
      </trkpt>
      <trkpt lat="59.6186503284" lon="18.4481187489">
        <ele>77.8</ele>
        <time>2012-09-16T12:02:07Z</time>
      </trkpt>
      <trkpt lat="59.6186454669" lon="18.4482129615">
        <ele>78.2</ele>
        <time>2012-09-16T12:02:08Z</time>
      </trkpt>
      <trkpt lat="59.6186395157" lon="18.448299798">
        <ele>78.8</ele>
        <time>2012-09-16T12:02:09Z</time>
      </trkpt>
      <trkpt lat="59.6186321397" lon="18.4483740616">
        <ele>79.2</ele>
        <time>2012-09-16T12:02:10Z</time>
      </trkpt>
      <trkpt lat="59.6186374203" lon="18.4484630774">
        <ele>79.6</ele>
        <time>2012-09-16T12:02:11Z</time>
      </trkpt>
      <trkpt lat="59.6186700259" lon="18.4486764806">
        <ele>79.6</ele>
        <time>2012-09-16T12:02:13Z</time>
      </trkpt>
      <trkpt lat="59.6187312137" lon="18.4489326314">
        <ele>79.6</ele>
        <time>2012-09-16T12:02:15Z</time>
      </trkpt>
      <trkpt lat="59.6187924016" lon="18.4491982538">
        <ele>79.6</ele>
        <time>2012-09-16T12:02:17Z</time>
      </trkpt>
      <trkpt lat="59.61894688" lon="18.449802505">
        <ele>79.6</ele>
        <time>2012-09-16T12:02:22Z</time>
      </trkpt>
      <trkpt lat="59.6189878675" lon="18.4498964661">
        <ele>79.6</ele>
        <time>2012-09-16T12:02:23Z</time>
      </trkpt>
      <trkpt lat="59.6191860156" lon="18.4501449895">
        <ele>79.6</ele>
        <time>2012-09-16T12:02:27Z</time>
      </trkpt>
      <trkpt lat="59.6192416714" lon="18.4501892459">
        <ele>79.6</ele>
        <time>2012-09-16T12:02:28Z</time>
      </trkpt>
      <trkpt lat="59.6194521409" lon="18.4503410421">
        <ele>79.6</ele>
        <time>2012-09-16T12:02:32Z</time>
      </trkpt>
      <trkpt lat="59.6196134087" lon="18.4505964386">
        <ele>79.6</ele>
        <time>2012-09-16T12:02:36Z</time>
      </trkpt>
      <trkpt lat="59.6197022568" lon="18.4507437086">
        <ele>79.6</ele>
        <time>2012-09-16T12:02:38Z</time>
      </trkpt>
      <trkpt lat="59.6198087908" lon="18.4508530924">
        <ele>80</ele>
        <time>2012-09-16T12:02:40Z</time>
      </trkpt>
      <trkpt lat="59.619867045" lon="18.450897265">
        <ele>80.4</ele>
        <time>2012-09-16T12:02:41Z</time>
      </trkpt>
      <trkpt lat="59.6199299931" lon="18.4509333071">
        <ele>80.8</ele>
        <time>2012-09-16T12:02:42Z</time>
      </trkpt>
      <trkpt lat="59.6199959586" lon="18.4509646555">
        <ele>81.2</ele>
        <time>2012-09-16T12:02:43Z</time>
      </trkpt>
      <trkpt lat="59.6200617565" lon="18.4509960876">
        <ele>81.6</ele>
        <time>2012-09-16T12:02:44Z</time>
      </trkpt>
      <trkpt lat="59.6202091103" lon="18.4510892943">
        <ele>81.6</ele>
        <time>2012-09-16T12:02:46Z</time>
      </trkpt>
      <trkpt lat="59.6203667739" lon="18.451283922">
        <ele>81.6</ele>
        <time>2012-09-16T12:02:48Z</time>
      </trkpt>
      <trkpt lat="59.6204483298" lon="18.4514049567">
        <ele>81.2</ele>
        <time>2012-09-16T12:02:49Z</time>
      </trkpt>
      <trkpt lat="59.6205323164" lon="18.4515398214">
        <ele>80.8</ele>
        <time>2012-09-16T12:02:50Z</time>
      </trkpt>
      <trkpt lat="59.6206138723" lon="18.4516730936">
        <ele>80.2</ele>
        <time>2012-09-16T12:02:51Z</time>
      </trkpt>
      <trkpt lat="59.6206840288" lon="18.4518210342">
        <ele>79.8</ele>
        <time>2012-09-16T12:02:52Z</time>
      </trkpt>
      <trkpt lat="59.6207376729" lon="18.4519805417">
        <ele>79.2</ele>
        <time>2012-09-16T12:02:53Z</time>
      </trkpt>
      <trkpt lat="59.6207789119" lon="18.4521509458">
        <ele>78.8</ele>
        <time>2012-09-16T12:02:54Z</time>
      </trkpt>
      <trkpt lat="59.6208130262" lon="18.4523263789">
        <ele>78.2</ele>
        <time>2012-09-16T12:02:55Z</time>
      </trkpt>
      <trkpt lat="59.6208434525" lon="18.4525002195">
        <ele>77.2</ele>
        <time>2012-09-16T12:02:56Z</time>
      </trkpt>
      <trkpt lat="59.6209230806" lon="18.4528064942">
        <ele>77.2</ele>
        <time>2012-09-16T12:02:58Z</time>
      </trkpt>
      <trkpt lat="59.6209670855" lon="18.4529402693">
        <ele>77.2</ele>
        <time>2012-09-16T12:02:59Z</time>
      </trkpt>
      <trkpt lat="59.6210742062" lon="18.4531587854">
        <ele>77.2</ele>
        <time>2012-09-16T12:03:01Z</time>
      </trkpt>
      <trkpt lat="59.6211398365" lon="18.4532229908">
        <ele>77.2</ele>
        <time>2012-09-16T12:03:02Z</time>
      </trkpt>
      <trkpt lat="59.6212826641" lon="18.4533012777">
        <ele>76.6</ele>
        <time>2012-09-16T12:03:04Z</time>
      </trkpt>
      <trkpt lat="59.6213549161" lon="18.4533191312">
        <ele>76.2</ele>
        <time>2012-09-16T12:03:05Z</time>
      </trkpt>
      <trkpt lat="59.6214269166" lon="18.4533332966">
        <ele>75.8</ele>
        <time>2012-09-16T12:03:06Z</time>
      </trkpt>
      <trkpt lat="59.6214969054" lon="18.4533540837">
        <ele>75.4</ele>
        <time>2012-09-16T12:03:07Z</time>
      </trkpt>
      <trkpt lat="59.6215662238" lon="18.4533864378">
        <ele>75</ele>
        <time>2012-09-16T12:03:08Z</time>
      </trkpt>
      <trkpt lat="59.6217611029" lon="18.4535258288">
        <ele>75</ele>
        <time>2012-09-16T12:03:11Z</time>
      </trkpt>
      <trkpt lat="59.6218179322" lon="18.453585927">
        <ele>75</ele>
        <time>2012-09-16T12:03:12Z</time>
      </trkpt>
      <trkpt lat="59.6219802058" lon="18.45379296">
        <ele>75</ele>
        <time>2012-09-16T12:03:15Z</time>
      </trkpt>
      <trkpt lat="59.622080118" lon="18.4539675549">
        <ele>75</ele>
        <time>2012-09-16T12:03:17Z</time>
      </trkpt>
      <trkpt lat="59.6222775118" lon="18.4543255459">
        <ele>75</ele>
        <time>2012-09-16T12:03:21Z</time>
      </trkpt>
      <trkpt lat="59.6224896577" lon="18.4546868896">
        <ele>75</ele>
        <time>2012-09-16T12:03:25Z</time>
      </trkpt>
      <trkpt lat="59.6225688666" lon="18.4549185653">
        <ele>75</ele>
        <time>2012-09-16T12:03:27Z</time>
      </trkpt>
      <trkpt lat="59.6226320662" lon="18.455164155">
        <ele>75</ele>
        <time>2012-09-16T12:03:29Z</time>
      </trkpt>
      <trkpt lat="59.6227225907" lon="18.4555404185">
        <ele>75</ele>
        <time>2012-09-16T12:03:32Z</time>
      </trkpt>
      <trkpt lat="59.6228464752" lon="18.4562451686">
        <ele>75</ele>
        <time>2012-09-16T12:03:37Z</time>
      </trkpt>
      <trkpt lat="59.6229371673" lon="18.4572306286">
        <ele>75</ele>
        <time>2012-09-16T12:03:43Z</time>
      </trkpt>
      <trkpt lat="59.6228452179" lon="18.4578490452">
        <ele>75</ele>
        <time>2012-09-16T12:03:47Z</time>
      </trkpt>
      <trkpt lat="59.6228323936" lon="18.4580041104">
        <ele>75</ele>
        <time>2012-09-16T12:03:48Z</time>
      </trkpt>
      <trkpt lat="59.6228262748" lon="18.4581543978">
        <ele>74.6</ele>
        <time>2012-09-16T12:03:49Z</time>
      </trkpt>
      <trkpt lat="59.6228257719" lon="18.4582987341">
        <ele>74</ele>
        <time>2012-09-16T12:03:50Z</time>
      </trkpt>
      <trkpt lat="59.6228276997" lon="18.4584331798">
        <ele>73.6</ele>
        <time>2012-09-16T12:03:51Z</time>
      </trkpt>
      <trkpt lat="59.6228341538" lon="18.4585678769">
        <ele>73.2</ele>
        <time>2012-09-16T12:03:52Z</time>
      </trkpt>
      <trkpt lat="59.622840524" lon="18.4587027417">
        <ele>72.8</ele>
        <time>2012-09-16T12:03:53Z</time>
      </trkpt>
      <trkpt lat="59.622842368" lon="18.458846156">
        <ele>72.8</ele>
        <time>2012-09-16T12:03:54Z</time>
      </trkpt>
      <trkpt lat="59.6228313877" lon="18.459130051">
        <ele>72.8</ele>
        <time>2012-09-16T12:03:56Z</time>
      </trkpt>
      <trkpt lat="59.6227746423" lon="18.4600363858">
        <ele>72.8</ele>
        <time>2012-09-16T12:04:02Z</time>
      </trkpt>
      <trkpt lat="59.6227881371" lon="18.460399825">
        <ele>72.8</ele>
        <time>2012-09-16T12:04:04Z</time>
      </trkpt>
      <trkpt lat="59.6228093433" lon="18.4607797765">
        <ele>72.8</ele>
        <time>2012-09-16T12:04:06Z</time>
      </trkpt>
      <trkpt lat="59.6228157136" lon="18.4613758973">
        <ele>72.8</ele>
        <time>2012-09-16T12:04:09Z</time>
      </trkpt>
      <trkpt lat="59.6227742232" lon="18.461558958">
        <ele>72.2</ele>
        <time>2012-09-16T12:04:10Z</time>
      </trkpt>
      <trkpt lat="59.6227142088" lon="18.4617095807">
        <ele>71.6</ele>
        <time>2012-09-16T12:04:11Z</time>
      </trkpt>
      <trkpt lat="59.6226365086" lon="18.4618413442">
        <ele>71.2</ele>
        <time>2012-09-16T12:04:12Z</time>
      </trkpt>
      <trkpt lat="59.6225484148" lon="18.4619574335">
        <ele>70.6</ele>
        <time>2012-09-16T12:04:13Z</time>
      </trkpt>
      <trkpt lat="59.6224573035" lon="18.4620578486">
        <ele>70</ele>
        <time>2012-09-16T12:04:14Z</time>
      </trkpt>
      <trkpt lat="59.6223666114" lon="18.4621444337">
        <ele>69.6</ele>
        <time>2012-09-16T12:04:15Z</time>
      </trkpt>
      <trkpt lat="59.6222770089" lon="18.4622227206">
        <ele>69.2</ele>
        <time>2012-09-16T12:04:16Z</time>
      </trkpt>
      <trkpt lat="59.6221867358" lon="18.4623111497">
        <ele>68.8</ele>
        <time>2012-09-16T12:04:17Z</time>
      </trkpt>
      <trkpt lat="59.6221175851" lon="18.4624201144">
        <ele>68.4</ele>
        <time>2012-09-16T12:04:18Z</time>
      </trkpt>
      <trkpt lat="59.6220625999" lon="18.4625466811">
        <ele>68</ele>
        <time>2012-09-16T12:04:19Z</time>
      </trkpt>
      <trkpt lat="59.6220358616" lon="18.4628164106">
        <ele>68</ele>
        <time>2012-09-16T12:04:21Z</time>
      </trkpt>
      <trkpt lat="59.6220564811" lon="18.4629252915">
        <ele>68.4</ele>
        <time>2012-09-16T12:04:22Z</time>
      </trkpt>
      <trkpt lat="59.6220859854" lon="18.463032496">
        <ele>68.8</ele>
        <time>2012-09-16T12:04:23Z</time>
      </trkpt>
      <trkpt lat="59.6221369473" lon="18.4631236072">
        <ele>69.2</ele>
        <time>2012-09-16T12:04:24Z</time>
      </trkpt>
      <trkpt lat="59.6221958721" lon="18.4632173169">
        <ele>69.6</ele>
        <time>2012-09-16T12:04:25Z</time>
      </trkpt>
      <trkpt lat="59.6222623406" lon="18.4633136249">
        <ele>70</ele>
        <time>2012-09-16T12:04:26Z</time>
      </trkpt>
      <trkpt lat="59.6223258754" lon="18.4634209132">
        <ele>70</ele>
        <time>2012-09-16T12:04:27Z</time>
      </trkpt>
      <trkpt lat="59.6223780108" lon="18.4635313028">
        <ele>70</ele>
        <time>2012-09-16T12:04:28Z</time>
      </trkpt>
      <trkpt lat="59.6227972734" lon="18.4642926308">
        <ele>70</ele>
        <time>2012-09-16T12:04:35Z</time>
      </trkpt>
      <trkpt lat="59.6228666755" lon="18.4643972369">
        <ele>69.6</ele>
        <time>2012-09-16T12:04:36Z</time>
      </trkpt>
      <trkpt lat="59.6229359939" lon="18.4645067046">
        <ele>69</ele>
        <time>2012-09-16T12:04:37Z</time>
      </trkpt>
      <trkpt lat="59.6230043902" lon="18.4646326007">
        <ele>68.6</ele>
        <time>2012-09-16T12:04:38Z</time>
      </trkpt>
      <trkpt lat="59.6230691822" lon="18.4647925273">
        <ele>68.2</ele>
        <time>2012-09-16T12:04:39Z</time>
      </trkpt>
      <trkpt lat="59.6231219044" lon="18.4649619255">
        <ele>67.6</ele>
        <time>2012-09-16T12:04:40Z</time>
      </trkpt>
      <trkpt lat="59.6234741957" lon="18.4659236647">
        <ele>67.6</ele>
        <time>2012-09-16T12:04:46Z</time>
      </trkpt>
      <trkpt lat="59.6236596033" lon="18.4663617867">
        <ele>67.2</ele>
        <time>2012-09-16T12:04:49Z</time>
      </trkpt>
      <trkpt lat="59.6237172708" lon="18.4665137505">
        <ele>66.8</ele>
        <time>2012-09-16T12:04:50Z</time>
      </trkpt>
      <trkpt lat="59.6237746868" lon="18.4666632836">
        <ele>66.4</ele>
        <time>2012-09-16T12:04:51Z</time>
      </trkpt>
      <trkpt lat="59.6238227989" lon="18.4668245514">
        <ele>66</ele>
        <time>2012-09-16T12:04:52Z</time>
      </trkpt>
      <trkpt lat="59.6238651275" lon="18.4669880822">
        <ele>65.6</ele>
        <time>2012-09-16T12:04:53Z</time>
      </trkpt>
      <trkpt lat="59.6239385529" lon="18.4673319078">
        <ele>65.2</ele>
        <time>2012-09-16T12:04:55Z</time>
      </trkpt>
      <trkpt lat="59.6239654588" lon="18.467504072">
        <ele>64.8</ele>
        <time>2012-09-16T12:04:56Z</time>
      </trkpt>
      <trkpt lat="59.6239836475" lon="18.4676837799">
        <ele>64.4</ele>
        <time>2012-09-16T12:04:57Z</time>
      </trkpt>
      <trkpt lat="59.6239932867" lon="18.4678686846">
        <ele>64</ele>
        <time>2012-09-16T12:04:58Z</time>
      </trkpt>
      <trkpt lat="59.6239915265" lon="18.4680451236">
        <ele>63.6</ele>
        <time>2012-09-16T12:04:59Z</time>
      </trkpt>
      <trkpt lat="59.6239722482" lon="18.4683863508">
        <ele>63.6</ele>
        <time>2012-09-16T12:05:01Z</time>
      </trkpt>
      <trkpt lat="59.6239588371" lon="18.468559437">
        <ele>63.6</ele>
        <time>2012-09-16T12:05:02Z</time>
      </trkpt>
      <trkpt lat="59.6239015887" lon="18.46916746">
        <ele>64</ele>
        <time>2012-09-16T12:05:06Z</time>
      </trkpt>
      <trkpt lat="59.6238854117" lon="18.4693080245">
        <ele>64.6</ele>
        <time>2012-09-16T12:05:07Z</time>
      </trkpt>
      <trkpt lat="59.6238712463" lon="18.4694478346">
        <ele>65</ele>
        <time>2012-09-16T12:05:08Z</time>
      </trkpt>
      <trkpt lat="59.6238621938" lon="18.4695914165">
        <ele>65.6</ele>
        <time>2012-09-16T12:05:09Z</time>
      </trkpt>
      <trkpt lat="59.623863954" lon="18.4697235991">
        <ele>66.2</ele>
        <time>2012-09-16T12:05:10Z</time>
      </trkpt>
      <trkpt lat="59.6238672229" lon="18.4698530156">
        <ele>66.6</ele>
        <time>2012-09-16T12:05:11Z</time>
      </trkpt>
      <trkpt lat="59.6238703243" lon="18.4699850306">
        <ele>67</ele>
        <time>2012-09-16T12:05:12Z</time>
      </trkpt>
      <trkpt lat="59.6238747667" lon="18.4701153691">
        <ele>67.4</ele>
        <time>2012-09-16T12:05:13Z</time>
      </trkpt>
      <trkpt lat="59.6238782871" lon="18.4702424387">
        <ele>67.8</ele>
        <time>2012-09-16T12:05:14Z</time>
      </trkpt>
      <trkpt lat="59.6238845735" lon="18.4703686701">
        <ele>68.2</ele>
        <time>2012-09-16T12:05:15Z</time>
      </trkpt>
      <trkpt lat="59.6239165085" lon="18.4707473644">
        <ele>68.2</ele>
        <time>2012-09-16T12:05:18Z</time>
      </trkpt>
      <trkpt lat="59.6239370442" lon="18.4709891822">
        <ele>68.2</ele>
        <time>2012-09-16T12:05:20Z</time>
      </trkpt>
      <trkpt lat="59.6239770258" lon="18.4712381246">
        <ele>68.2</ele>
        <time>2012-09-16T12:05:22Z</time>
      </trkpt>
      <trkpt lat="59.624012146" lon="18.4714811997">
        <ele>68.2</ele>
        <time>2012-09-16T12:05:24Z</time>
      </trkpt>
      <trkpt lat="59.624070484" lon="18.4717119534">
        <ele>68.2</ele>
        <time>2012-09-16T12:05:26Z</time>
      </trkpt>
      <trkpt lat="59.6241087893" lon="18.4718192417">
        <ele>68.6</ele>
        <time>2012-09-16T12:05:27Z</time>
      </trkpt>
      <trkpt lat="59.6241441609" lon="18.4719356663">
        <ele>69.2</ele>
        <time>2012-09-16T12:05:28Z</time>
      </trkpt>
      <trkpt lat="59.6241791973" lon="18.4720590479">
        <ele>69.6</ele>
        <time>2012-09-16T12:05:29Z</time>
      </trkpt>
      <trkpt lat="59.6242082825" lon="18.4721989418">
        <ele>70</ele>
        <time>2012-09-16T12:05:30Z</time>
      </trkpt>
      <trkpt lat="59.6242324223" lon="18.4723420209">
        <ele>70.4</ele>
        <time>2012-09-16T12:05:31Z</time>
      </trkpt>
      <trkpt lat="59.6242945322" lon="18.4729255687">
        <ele>70.4</ele>
        <time>2012-09-16T12:05:35Z</time>
      </trkpt>
      <trkpt lat="59.624331664" lon="18.4738223482">
        <ele>70.4</ele>
        <time>2012-09-16T12:05:41Z</time>
      </trkpt>
      <trkpt lat="59.6244100348" lon="18.4748929683">
        <ele>70.4</ele>
        <time>2012-09-16T12:05:49Z</time>
      </trkpt>
      <trkpt lat="59.6245611604" lon="18.4756573138">
        <ele>70.4</ele>
        <time>2012-09-16T12:05:55Z</time>
      </trkpt>
      <trkpt lat="59.6247208356" lon="18.4765801609">
        <ele>70.4</ele>
        <time>2012-09-16T12:06:02Z</time>
      </trkpt>
      <trkpt lat="59.6247976977" lon="18.4771622839">
        <ele>70.4</ele>
        <time>2012-09-16T12:06:07Z</time>
      </trkpt>
      <trkpt lat="59.6248337398" lon="18.4774846518">
        <ele>70.8</ele>
        <time>2012-09-16T12:06:10Z</time>
      </trkpt>
      <trkpt lat="59.6248426247" lon="18.4775886712">
        <ele>71.4</ele>
        <time>2012-09-16T12:06:11Z</time>
      </trkpt>
      <trkpt lat="59.6248543593" lon="18.477689254">
        <ele>71.8</ele>
        <time>2012-09-16T12:06:12Z</time>
      </trkpt>
      <trkpt lat="59.624869782" lon="18.4777792756">
        <ele>72.2</ele>
        <time>2012-09-16T12:06:13Z</time>
      </trkpt>
      <trkpt lat="59.624878583" lon="18.4778729852">
        <ele>72.6</ele>
        <time>2012-09-16T12:06:14Z</time>
      </trkpt>
      <trkpt lat="59.6248655072" lon="18.4782313952">
        <ele>72.6</ele>
        <time>2012-09-16T12:06:18Z</time>
      </trkpt>
      <trkpt lat="59.6248624898" lon="18.4783246858">
        <ele>73</ele>
        <time>2012-09-16T12:06:19Z</time>
      </trkpt>
      <trkpt lat="59.6248510904" lon="18.4784137016">
        <ele>73.4</ele>
        <time>2012-09-16T12:06:20Z</time>
      </trkpt>
      <trkpt lat="59.6248334884" lon="18.4785044776">
        <ele>73.8</ele>
        <time>2012-09-16T12:06:21Z</time>
      </trkpt>
      <trkpt lat="59.6248170599" lon="18.4785887156">
        <ele>74.4</ele>
        <time>2012-09-16T12:06:22Z</time>
      </trkpt>
      <trkpt lat="59.6247903216" lon="18.4786796593">
        <ele>74.8</ele>
        <time>2012-09-16T12:06:23Z</time>
      </trkpt>
      <trkpt lat="59.6247664332" lon="18.4787602931">
        <ele>75.2</ele>
        <time>2012-09-16T12:06:24Z</time>
      </trkpt>
      <trkpt lat="59.6247422095" lon="18.4788477164">
        <ele>75.6</ele>
        <time>2012-09-16T12:06:25Z</time>
      </trkpt>
      <trkpt lat="59.6247105259" lon="18.4789333794">
        <ele>76.2</ele>
        <time>2012-09-16T12:06:26Z</time>
      </trkpt>
      <trkpt lat="59.6246796805" lon="18.4790285978">
        <ele>76.6</ele>
        <time>2012-09-16T12:06:27Z</time>
      </trkpt>
      <trkpt lat="59.6246500924" lon="18.4791182841">
        <ele>77</ele>
        <time>2012-09-16T12:06:28Z</time>
      </trkpt>
      <trkpt lat="59.6246212587" lon="18.4792122452">
        <ele>77</ele>
        <time>2012-09-16T12:06:29Z</time>
      </trkpt>
      <trkpt lat="59.6245972026" lon="18.4793138338">
        <ele>77.4</ele>
        <time>2012-09-16T12:06:30Z</time>
      </trkpt>
      <trkpt lat="59.6245739009" lon="18.4794186076">
        <ele>77.8</ele>
        <time>2012-09-16T12:06:31Z</time>
      </trkpt>
      <trkpt lat="59.6245524433" lon="18.4795249739">
        <ele>78.2</ele>
        <time>2012-09-16T12:06:32Z</time>
      </trkpt>
      <trkpt lat="59.6245304827" lon="18.4796367046">
        <ele>78.6</ele>
        <time>2012-09-16T12:06:33Z</time>
      </trkpt>
      <trkpt lat="59.6245106176" lon="18.4797439929">
        <ele>79</ele>
        <time>2012-09-16T12:06:34Z</time>
      </trkpt>
      <trkpt lat="59.6244872321" lon="18.4798503592">
        <ele>79</ele>
        <time>2012-09-16T12:06:35Z</time>
      </trkpt>
      <trkpt lat="59.6243018245" lon="18.4804170595">
        <ele>79</ele>
        <time>2012-09-16T12:06:41Z</time>
      </trkpt>
      <trkpt lat="59.6242077795" lon="18.4807202328">
        <ele>79</ele>
        <time>2012-09-16T12:06:44Z</time>
      </trkpt>
      <trkpt lat="59.6241693904" lon="18.4809677503">
        <ele>79</ele>
        <time>2012-09-16T12:06:46Z</time>
      </trkpt>
      <trkpt lat="59.6239835637" lon="18.4817224566">
        <ele>79</ele>
        <time>2012-09-16T12:06:52Z</time>
      </trkpt>
      <trkpt lat="59.6238425802" lon="18.4824754027">
        <ele>79</ele>
        <time>2012-09-16T12:06:57Z</time>
      </trkpt>
      <trkpt lat="59.623863954" lon="18.4829499859">
        <ele>79</ele>
        <time>2012-09-16T12:07:00Z</time>
      </trkpt>
      <trkpt lat="59.6239775288" lon="18.4834061289">
        <ele>79</ele>
        <time>2012-09-16T12:07:03Z</time>
      </trkpt>
      <trkpt lat="59.6240155826" lon="18.4835590985">
        <ele>79</ele>
        <time>2012-09-16T12:07:04Z</time>
      </trkpt>
      <trkpt lat="59.6241758445" lon="18.4843120446">
        <ele>79</ele>
        <time>2012-09-16T12:07:09Z</time>
      </trkpt>
      <trkpt lat="59.6242181731" lon="18.4844490887">
        <ele>79</ele>
        <time>2012-09-16T12:07:10Z</time>
      </trkpt>
      <trkpt lat="59.6243717295" lon="18.484834237">
        <ele>79</ele>
        <time>2012-09-16T12:07:13Z</time>
      </trkpt>
      <trkpt lat="59.6244168241" lon="18.4849715325">
        <ele>79</ele>
        <time>2012-09-16T12:07:14Z</time>
      </trkpt>
      <trkpt lat="59.6244783473" lon="18.4852731133">
        <ele>79</ele>
        <time>2012-09-16T12:07:16Z</time>
      </trkpt>
      <trkpt lat="59.6245024033" lon="18.485773345">
        <ele>79</ele>
        <time>2012-09-16T12:07:19Z</time>
      </trkpt>
      <trkpt lat="59.6245012299" lon="18.4859410669">
        <ele>79</ele>
        <time>2012-09-16T12:07:20Z</time>
      </trkpt>
      <trkpt lat="59.6245179098" lon="18.4862693021">
        <ele>79</ele>
        <time>2012-09-16T12:07:22Z</time>
      </trkpt>
      <trkpt lat="59.6245563828" lon="18.4865898259">
        <ele>79</ele>
        <time>2012-09-16T12:07:24Z</time>
      </trkpt>
      <trkpt lat="59.6245829534" lon="18.4874884494">
        <ele>79</ele>
        <time>2012-09-16T12:07:29Z</time>
      </trkpt>
      <trkpt lat="59.6246282156" lon="18.4884238695">
        <ele>79</ele>
        <time>2012-09-16T12:07:34Z</time>
      </trkpt>
      <trkpt lat="59.6246911637" lon="18.4893701022">
        <ele>79</ele>
        <time>2012-09-16T12:07:39Z</time>
      </trkpt>
      <trkpt lat="59.6247603144" lon="18.4901383871">
        <ele>79</ele>
        <time>2012-09-16T12:07:43Z</time>
      </trkpt>
      <trkpt lat="59.6247618231" lon="18.4903418158">
        <ele>79</ele>
        <time>2012-09-16T12:07:44Z</time>
      </trkpt>
      <trkpt lat="59.6248126174" lon="18.4913377532">
        <ele>78.6</ele>
        <time>2012-09-16T12:07:49Z</time>
      </trkpt>
      <trkpt lat="59.6248351648" lon="18.491517042">
        <ele>78.2</ele>
        <time>2012-09-16T12:07:50Z</time>
      </trkpt>
      <trkpt lat="59.6248655911" lon="18.4916935648">
        <ele>77.8</ele>
        <time>2012-09-16T12:07:51Z</time>
      </trkpt>
      <trkpt lat="59.6248936704" lon="18.4918640527">
        <ele>77.4</ele>
        <time>2012-09-16T12:07:52Z</time>
      </trkpt>
      <trkpt lat="59.6249308022" lon="18.4920340376">
        <ele>76.8</ele>
        <time>2012-09-16T12:07:53Z</time>
      </trkpt>
      <trkpt lat="59.6249728794" lon="18.4921979876">
        <ele>76.8</ele>
        <time>2012-09-16T12:07:54Z</time>
      </trkpt>
      <trkpt lat="59.6252831773" lon="18.4931866327">
        <ele>76.8</ele>
        <time>2012-09-16T12:08:00Z</time>
      </trkpt>
      <trkpt lat="59.6255793937" lon="18.4939168638">
        <ele>76.8</ele>
        <time>2012-09-16T12:08:05Z</time>
      </trkpt>
      <trkpt lat="59.6257224727" lon="18.4943797962">
        <ele>76.4</ele>
        <time>2012-09-16T12:08:08Z</time>
      </trkpt>
      <trkpt lat="59.6257617838" lon="18.4945477694">
        <ele>76</ele>
        <time>2012-09-16T12:08:09Z</time>
      </trkpt>
      <trkpt lat="59.6258000053" lon="18.4947138987">
        <ele>75.6</ele>
        <time>2012-09-16T12:08:10Z</time>
      </trkpt>
      <trkpt lat="59.6258378076" lon="18.4948787707">
        <ele>75.2</ele>
        <time>2012-09-16T12:08:11Z</time>
      </trkpt>
      <trkpt lat="59.6258796333" lon="18.4950488394">
        <ele>74.8</ele>
        <time>2012-09-16T12:08:12Z</time>
      </trkpt>
      <trkpt lat="59.626017767" lon="18.4957167092">
        <ele>74.8</ele>
        <time>2012-09-16T12:08:16Z</time>
      </trkpt>
      <trkpt lat="59.6260961378" lon="18.4966003291">
        <ele>74.8</ele>
        <time>2012-09-16T12:08:21Z</time>
      </trkpt>
      <trkpt lat="59.6260800445" lon="18.4967700626">
        <ele>74.8</ele>
        <time>2012-09-16T12:08:22Z</time>
      </trkpt>
      <trkpt lat="59.6259290865" lon="18.4973902394">
        <ele>74.8</ele>
        <time>2012-09-16T12:08:26Z</time>
      </trkpt>
      <trkpt lat="59.6257777094" lon="18.4980021181">
        <ele>74.8</ele>
        <time>2012-09-16T12:08:30Z</time>
      </trkpt>
      <trkpt lat="59.6257425054" lon="18.4984783776">
        <ele>74.8</ele>
        <time>2012-09-16T12:08:33Z</time>
      </trkpt>
      <trkpt lat="59.6257397394" lon="18.4986320178">
        <ele>74.8</ele>
        <time>2012-09-16T12:08:34Z</time>
      </trkpt>
      <trkpt lat="59.6257433436" lon="18.4992319104">
        <ele>74.8</ele>
        <time>2012-09-16T12:08:38Z</time>
      </trkpt>
      <trkpt lat="59.6257585987" lon="18.49950164">
        <ele>74.8</ele>
        <time>2012-09-16T12:08:40Z</time>
      </trkpt>
      <trkpt lat="59.6258222173" lon="18.5002656502">
        <ele>74.8</ele>
        <time>2012-09-16T12:08:45Z</time>
      </trkpt>
      <trkpt lat="59.6258369694" lon="18.5004313603">
        <ele>74.2</ele>
        <time>2012-09-16T12:08:46Z</time>
      </trkpt>
      <trkpt lat="59.6258507996" lon="18.5005881018">
        <ele>73.8</ele>
        <time>2012-09-16T12:08:47Z</time>
      </trkpt>
      <trkpt lat="59.6258669766" lon="18.5007359586">
        <ele>73.4</ele>
        <time>2012-09-16T12:08:48Z</time>
      </trkpt>
      <trkpt lat="59.6258865065" lon="18.5008727512">
        <ele>72.8</ele>
        <time>2012-09-16T12:08:49Z</time>
      </trkpt>
      <trkpt lat="59.625907545" lon="18.5010028383">
        <ele>72.4</ele>
        <time>2012-09-16T12:08:50Z</time>
      </trkpt>
      <trkpt lat="59.625950628" lon="18.5012549658">
        <ele>72.4</ele>
        <time>2012-09-16T12:08:52Z</time>
      </trkpt>
      <trkpt lat="59.6259567468" lon="18.5015103623">
        <ele>72.4</ele>
        <time>2012-09-16T12:08:54Z</time>
      </trkpt>
      <trkpt lat="59.6258845786" lon="18.5018991986">
        <ele>72.4</ele>
        <time>2012-09-16T12:08:58Z</time>
      </trkpt>
      <trkpt lat="59.6258069622" lon="18.5022955787">
        <ele>72.4</ele>
        <time>2012-09-16T12:09:01Z</time>
      </trkpt>
      <trkpt lat="59.6257860913" lon="18.5026019371">
        <ele>72.4</ele>
        <time>2012-09-16T12:09:03Z</time>
      </trkpt>
      <trkpt lat="59.6257960658" lon="18.5031468445">
        <ele>72.4</ele>
        <time>2012-09-16T12:09:06Z</time>
      </trkpt>
      <trkpt lat="59.6258017655" lon="18.5033413884">
        <ele>71.8</ele>
        <time>2012-09-16T12:09:07Z</time>
      </trkpt>
      <trkpt lat="59.6258083872" lon="18.5035404585">
        <ele>70.8</ele>
        <time>2012-09-16T12:09:08Z</time>
      </trkpt>
      <trkpt lat="59.625811237" lon="18.503737014">
        <ele>70.2</ele>
        <time>2012-09-16T12:09:09Z</time>
      </trkpt>
      <trkpt lat="59.6258139192" lon="18.5039300492">
        <ele>69.6</ele>
        <time>2012-09-16T12:09:10Z</time>
      </trkpt>
      <trkpt lat="59.6258049506" lon="18.5044850986">
        <ele>69.6</ele>
        <time>2012-09-16T12:09:13Z</time>
      </trkpt>
      <trkpt lat="59.6257351294" lon="18.5051714086">
        <ele>69.2</ele>
        <time>2012-09-16T12:09:17Z</time>
      </trkpt>
      <trkpt lat="59.6257112409" lon="18.5053312514">
        <ele>68.8</ele>
        <time>2012-09-16T12:09:18Z</time>
      </trkpt>
      <trkpt lat="59.6256886936" lon="18.5054905913">
        <ele>68.4</ele>
        <time>2012-09-16T12:09:19Z</time>
      </trkpt>
      <trkpt lat="59.6256675712" lon="18.5056549604">
        <ele>68</ele>
        <time>2012-09-16T12:09:20Z</time>
      </trkpt>
      <trkpt lat="59.6256498854" lon="18.5058242748">
        <ele>67.6</ele>
        <time>2012-09-16T12:09:21Z</time>
      </trkpt>
      <trkpt lat="59.6256233148" lon="18.5062973492">
        <ele>67.6</ele>
        <time>2012-09-16T12:09:24Z</time>
      </trkpt>
      <trkpt lat="59.6256090656" lon="18.5065879497">
        <ele>67.6</ele>
        <time>2012-09-16T12:09:26Z</time>
      </trkpt>
      <trkpt lat="59.6256134242" lon="18.5068144286">
        <ele>67.2</ele>
        <time>2012-09-16T12:09:28Z</time>
      </trkpt>
      <trkpt lat="59.6256122507" lon="18.5068704197">
        <ele>66.8</ele>
        <time>2012-09-16T12:09:29Z</time>
      </trkpt>
      <trkpt lat="59.6256045394" lon="18.5069167716">
        <ele>66.4</ele>
        <time>2012-09-16T12:09:30Z</time>
      </trkpt>
      <trkpt lat="59.6256070539" lon="18.5069689909">
        <ele>66</ele>
        <time>2012-09-16T12:09:31Z</time>
      </trkpt>
      <trkpt lat="59.6256233148" lon="18.5070254849">
        <ele>65.4</ele>
        <time>2012-09-16T12:09:32Z</time>
      </trkpt>
      <trkpt lat="59.6257115762" lon="18.5070580066">
        <ele>65.4</ele>
        <time>2012-09-16T12:09:34Z</time>
      </trkpt>
      <trkpt lat="59.625828839" lon="18.5070216292">
        <ele>65.4</ele>
        <time>2012-09-16T12:09:36Z</time>
      </trkpt>
      <trkpt lat="59.6259614407" lon="18.5069841621">
        <ele>65.4</ele>
        <time>2012-09-16T12:09:38Z</time>
      </trkpt>
      <trkpt lat="59.6264149015" lon="18.5068884408">
        <ele>65</ele>
        <time>2012-09-16T12:09:44Z</time>
      </trkpt>
      <trkpt lat="59.626506348" lon="18.5068843337">
        <ele>64.6</ele>
        <time>2012-09-16T12:09:45Z</time>
      </trkpt>
      <trkpt lat="59.6265968725" lon="18.5068856748">
        <ele>64.2</ele>
        <time>2012-09-16T12:09:46Z</time>
      </trkpt>
      <trkpt lat="59.6266879838" lon="18.5068961521">
        <ele>63.8</ele>
        <time>2012-09-16T12:09:47Z</time>
      </trkpt>
      <trkpt lat="59.6267821963" lon="18.5069132512">
        <ele>63.2</ele>
        <time>2012-09-16T12:09:48Z</time>
      </trkpt>
      <trkpt lat="59.6269722978" lon="18.5069753611">
        <ele>63.2</ele>
        <time>2012-09-16T12:09:50Z</time>
      </trkpt>
      <trkpt lat="59.6270664265" lon="18.5070100622">
        <ele>62.8</ele>
        <time>2012-09-16T12:09:51Z</time>
      </trkpt>
      <trkpt lat="59.6271612258" lon="18.507051804">
        <ele>62.4</ele>
        <time>2012-09-16T12:09:52Z</time>
      </trkpt>
      <trkpt lat="59.6272525047" lon="18.5070866727">
        <ele>62</ele>
        <time>2012-09-16T12:09:53Z</time>
      </trkpt>
      <trkpt lat="59.6273426101" lon="18.5071220444">
        <ele>61.6</ele>
        <time>2012-09-16T12:09:54Z</time>
      </trkpt>
      <trkpt lat="59.627433889" lon="18.5071565778">
        <ele>61.2</ele>
        <time>2012-09-16T12:09:55Z</time>
      </trkpt>
      <trkpt lat="59.6276087355" lon="18.5072217051">
        <ele>61.2</ele>
        <time>2012-09-16T12:09:57Z</time>
      </trkpt>
      <trkpt lat="59.6276963263" lon="18.507255568">
        <ele>60.4</ele>
        <time>2012-09-16T12:09:58Z</time>
      </trkpt>
      <trkpt lat="59.627782157" lon="18.5072869163">
        <ele>60</ele>
        <time>2012-09-16T12:09:59Z</time>
      </trkpt>
      <trkpt lat="59.62786782" lon="18.5073218688">
        <ele>59.6</ele>
        <time>2012-09-16T12:10:00Z</time>
      </trkpt>
      <trkpt lat="59.6279473642" lon="18.5073507864">
        <ele>59</ele>
        <time>2012-09-16T12:10:01Z</time>
      </trkpt>
      <trkpt lat="59.6280986575" lon="18.5074053526">
        <ele>59</ele>
        <time>2012-09-16T12:10:03Z</time>
      </trkpt>
      <trkpt lat="59.6285432335" lon="18.5074885848">
        <ele>59</ele>
        <time>2012-09-16T12:10:09Z</time>
      </trkpt>
      <trkpt lat="59.6290144639" lon="18.5074133992">
        <ele>59</ele>
        <time>2012-09-16T12:10:15Z</time>
      </trkpt>
      <trkpt lat="59.6294579502" lon="18.5071881775">
        <ele>59</ele>
        <time>2012-09-16T12:10:21Z</time>
      </trkpt>
      <trkpt lat="59.6296782266" lon="18.5070062903">
        <ele>59.6</ele>
        <time>2012-09-16T12:10:24Z</time>
      </trkpt>
      <trkpt lat="59.6297445274" lon="18.5069425879">
        <ele>60.4</ele>
        <time>2012-09-16T12:10:25Z</time>
      </trkpt>
      <trkpt lat="59.6298099062" lon="18.5068772929">
        <ele>61</ele>
        <time>2012-09-16T12:10:26Z</time>
      </trkpt>
      <trkpt lat="59.6298720999" lon="18.5068079746">
        <ele>61.6</ele>
        <time>2012-09-16T12:10:27Z</time>
      </trkpt>
      <trkpt lat="59.629926247" lon="18.5067309449">
        <ele>62.2</ele>
        <time>2012-09-16T12:10:28Z</time>
      </trkpt>
      <trkpt lat="59.6299813999" lon="18.5066586929">
        <ele>62.2</ele>
        <time>2012-09-16T12:10:29Z</time>
      </trkpt>
      <trkpt lat="59.6301373871" lon="18.5064163722">
        <ele>62.2</ele>
        <time>2012-09-16T12:10:32Z</time>
      </trkpt>
      <trkpt lat="59.6302348686" lon="18.5062458005">
        <ele>62.2</ele>
        <time>2012-09-16T12:10:34Z</time>
      </trkpt>
      <trkpt lat="59.6303677217" lon="18.5060070002">
        <ele>62.2</ele>
        <time>2012-09-16T12:10:37Z</time>
      </trkpt>
      <trkpt lat="59.6304076195" lon="18.5059215048">
        <ele>62.6</ele>
        <time>2012-09-16T12:10:38Z</time>
      </trkpt>
      <trkpt lat="59.6304460086" lon="18.5058422959">
        <ele>63</ele>
        <time>2012-09-16T12:10:39Z</time>
      </trkpt>
      <trkpt lat="59.6304831404" lon="18.5057689542">
        <ele>63.4</ele>
        <time>2012-09-16T12:10:40Z</time>
      </trkpt>
      <trkpt lat="59.630520859" lon="18.5056987977">
        <ele>64</ele>
        <time>2012-09-16T12:10:41Z</time>
      </trkpt>
      <trkpt lat="59.6305564821" lon="18.5056262943">
        <ele>64.4</ele>
        <time>2012-09-16T12:10:42Z</time>
      </trkpt>
      <trkpt lat="59.630590764" lon="18.505553707">
        <ele>64.4</ele>
        <time>2012-09-16T12:10:43Z</time>
      </trkpt>
      <trkpt lat="59.6306277282" lon="18.5054917648">
        <ele>64.4</ele>
        <time>2012-09-16T12:10:44Z</time>
      </trkpt>
      <trkpt lat="59.63073158" lon="18.5052849833">
        <ele>64.4</ele>
        <time>2012-09-16T12:10:47Z</time>
      </trkpt>
      <trkpt lat="59.6307956177" lon="18.5051505377">
        <ele>64.4</ele>
        <time>2012-09-16T12:10:49Z</time>
      </trkpt>
      <trkpt lat="59.6309929276" lon="18.5047640482">
        <ele>64.4</ele>
        <time>2012-09-16T12:10:55Z</time>
      </trkpt>
      <trkpt lat="59.6310278801" lon="18.5047057102">
        <ele>64.4</ele>
        <time>2012-09-16T12:10:56Z</time>
      </trkpt>
      <trkpt lat="59.6312670995" lon="18.5042621401">
        <ele>64.4</ele>
        <time>2012-09-16T12:11:03Z</time>
      </trkpt>
      <trkpt lat="59.6315592088" lon="18.5037122874">
        <ele>64.4</ele>
        <time>2012-09-16T12:11:11Z</time>
      </trkpt>
      <trkpt lat="59.6318967479" lon="18.5031204415">
        <ele>64.4</ele>
        <time>2012-09-16T12:11:19Z</time>
      </trkpt>
      <trkpt lat="59.6322251507" lon="18.5025849219">
        <ele>64.4</ele>
        <time>2012-09-16T12:11:26Z</time>
      </trkpt>
      <trkpt lat="59.6325797051" lon="18.5020391764">
        <ele>64.4</ele>
        <time>2012-09-16T12:11:33Z</time>
      </trkpt>
      <trkpt lat="59.6326345227" lon="18.5019578719">
        <ele>64.4</ele>
        <time>2012-09-16T12:11:34Z</time>
      </trkpt>
      <trkpt lat="59.6330500135" lon="18.5013274692">
        <ele>64</ele>
        <time>2012-09-16T12:11:41Z</time>
      </trkpt>
      <trkpt lat="59.633114135" lon="18.5012310774">
        <ele>63.4</ele>
        <time>2012-09-16T12:11:42Z</time>
      </trkpt>
      <trkpt lat="59.63317943" lon="18.5011325901">
        <ele>63</ele>
        <time>2012-09-16T12:11:43Z</time>
      </trkpt>
      <trkpt lat="59.6332455632" lon="18.5010342704">
        <ele>62.6</ele>
        <time>2012-09-16T12:11:44Z</time>
      </trkpt>
      <trkpt lat="59.6333146301" lon="18.5009384653">
        <ele>62.2</ele>
        <time>2012-09-16T12:11:45Z</time>
      </trkpt>
      <trkpt lat="59.6335314698" lon="18.500607464">
        <ele>62.2</ele>
        <time>2012-09-16T12:11:48Z</time>
      </trkpt>
      <trkpt lat="59.6339601202" lon="18.4999609681">
        <ele>62.2</ele>
        <time>2012-09-16T12:11:54Z</time>
      </trkpt>
      <trkpt lat="59.6340266725" lon="18.4998639895">
        <ele>62.2</ele>
        <time>2012-09-16T12:11:55Z</time>
      </trkpt>
      <trkpt lat="59.634092638" lon="18.4997635743">
        <ele>61.6</ele>
        <time>2012-09-16T12:11:56Z</time>
      </trkpt>
      <trkpt lat="59.6341578492" lon="18.4996654223">
        <ele>61.2</ele>
        <time>2012-09-16T12:11:57Z</time>
      </trkpt>
      <trkpt lat="59.6342209649" lon="18.4995702877">
        <ele>60.6</ele>
        <time>2012-09-16T12:11:58Z</time>
      </trkpt>
      <trkpt lat="59.6342837454" lon="18.4994768295">
        <ele>60.2</ele>
        <time>2012-09-16T12:11:59Z</time>
      </trkpt>
      <trkpt lat="59.6343441789" lon="18.4993828684">
        <ele>59.8</ele>
        <time>2012-09-16T12:12:00Z</time>
      </trkpt>
      <trkpt lat="59.6345250603" lon="18.4991128874">
        <ele>59.8</ele>
        <time>2012-09-16T12:12:03Z</time>
      </trkpt>
      <trkpt lat="59.6348465061" lon="18.4986317664">
        <ele>59.8</ele>
        <time>2012-09-16T12:12:09Z</time>
      </trkpt>
      <trkpt lat="59.6351354302" lon="18.4982316145">
        <ele>59.8</ele>
        <time>2012-09-16T12:12:15Z</time>
      </trkpt>
      <trkpt lat="59.6354082611" lon="18.4978699355">
        <ele>60.2</ele>
        <time>2012-09-16T12:12:21Z</time>
      </trkpt>
      <trkpt lat="59.6354492485" lon="18.4978140282">
        <ele>60.6</ele>
        <time>2012-09-16T12:12:22Z</time>
      </trkpt>
      <trkpt lat="59.6354949299" lon="18.497757618">
        <ele>61</ele>
        <time>2012-09-16T12:12:23Z</time>
      </trkpt>
      <trkpt lat="59.6355357498" lon="18.4977005373">
        <ele>61.4</ele>
        <time>2012-09-16T12:12:24Z</time>
      </trkpt>
      <trkpt lat="59.6355789165" lon="18.4976477313">
        <ele>61.8</ele>
        <time>2012-09-16T12:12:25Z</time>
      </trkpt>
      <trkpt lat="59.635622251" lon="18.4975964341">
        <ele>62.2</ele>
        <time>2012-09-16T12:12:26Z</time>
      </trkpt>
      <trkpt lat="59.6356632385" lon="18.4975442149">
        <ele>62.6</ele>
        <time>2012-09-16T12:12:27Z</time>
      </trkpt>
      <trkpt lat="59.6357050641" lon="18.49749275">
        <ele>63.2</ele>
        <time>2012-09-16T12:12:28Z</time>
      </trkpt>
      <trkpt lat="59.6357483147" lon="18.4974393573">
        <ele>63.6</ele>
        <time>2012-09-16T12:12:29Z</time>
      </trkpt>
      <trkpt lat="59.6357919006" lon="18.4973941788">
        <ele>64</ele>
        <time>2012-09-16T12:12:30Z</time>
      </trkpt>
      <trkpt lat="59.6359154498" lon="18.4972469927">
        <ele>64.4</ele>
        <time>2012-09-16T12:12:33Z</time>
      </trkpt>
      <trkpt lat="59.6359581137" lon="18.4972027363">
        <ele>64.8</ele>
        <time>2012-09-16T12:12:34Z</time>
      </trkpt>
      <trkpt lat="59.6359989336" lon="18.4971526125">
        <ele>65.2</ele>
        <time>2012-09-16T12:12:35Z</time>
      </trkpt>
      <trkpt lat="59.6360379932" lon="18.497101902">
        <ele>65.6</ele>
        <time>2012-09-16T12:12:36Z</time>
      </trkpt>
      <trkpt lat="59.636078394" lon="18.497050018">
        <ele>66</ele>
        <time>2012-09-16T12:12:37Z</time>
      </trkpt>
      <trkpt lat="59.6362383206" lon="18.4968672088">
        <ele>66.4</ele>
        <time>2012-09-16T12:12:41Z</time>
      </trkpt>
      <trkpt lat="59.6362783861" lon="18.4968217789">
        <ele>66.8</ele>
        <time>2012-09-16T12:12:42Z</time>
      </trkpt>
      <trkpt lat="59.636315937" lon="18.4967775225">
        <ele>67.2</ele>
        <time>2012-09-16T12:12:43Z</time>
      </trkpt>
      <trkpt lat="59.6363544937" lon="18.496737457">
        <ele>67.8</ele>
        <time>2012-09-16T12:12:44Z</time>
      </trkpt>
      <trkpt lat="59.6363915417" lon="18.4966954637">
        <ele>68.2</ele>
        <time>2012-09-16T12:12:45Z</time>
      </trkpt>
      <trkpt lat="59.6364263266" lon="18.4966471839">
        <ele>68.2</ele>
        <time>2012-09-16T12:12:46Z</time>
      </trkpt>
      <trkpt lat="59.6365878458" lon="18.4964815576">
        <ele>68.2</ele>
        <time>2012-09-16T12:12:50Z</time>
      </trkpt>
      <trkpt lat="59.6366300906" lon="18.4964411568">
        <ele>69</ele>
        <time>2012-09-16T12:12:51Z</time>
      </trkpt>
      <trkpt lat="59.6366691503" lon="18.4963976548">
        <ele>69.4</ele>
        <time>2012-09-16T12:12:52Z</time>
      </trkpt>
      <trkpt lat="59.6367052763" lon="18.4963574216">
        <ele>69.8</ele>
        <time>2012-09-16T12:12:53Z</time>
      </trkpt>
      <trkpt lat="59.6367433301" lon="18.496315596">
        <ele>70.2</ele>
        <time>2012-09-16T12:12:54Z</time>
      </trkpt>
      <trkpt lat="59.6368189348" lon="18.4962313579">
        <ele>70.2</ele>
        <time>2012-09-16T12:12:56Z</time>
      </trkpt>
      <trkpt lat="59.6368950425" lon="18.4961429288">
        <ele>70.2</ele>
        <time>2012-09-16T12:12:58Z</time>
      </trkpt>
      <trkpt lat="59.6369403047" lon="18.4961046235">
        <ele>70.6</ele>
        <time>2012-09-16T12:12:59Z</time>
      </trkpt>
      <trkpt lat="59.6369802026" lon="18.4960632169">
        <ele>71</ele>
        <time>2012-09-16T12:13:00Z</time>
      </trkpt>
      <trkpt lat="59.6370187593" lon="18.4960197987">
        <ele>71.4</ele>
        <time>2012-09-16T12:13:01Z</time>
      </trkpt>
      <trkpt lat="59.6370593277" lon="18.4959773025">
        <ele>71.8</ele>
        <time>2012-09-16T12:13:02Z</time>
      </trkpt>
      <trkpt lat="59.6370980521" lon="18.4959361473">
        <ele>72.2</ele>
        <time>2012-09-16T12:13:03Z</time>
      </trkpt>
      <trkpt lat="59.6372136385" lon="18.4958167053">
        <ele>72.6</ele>
        <time>2012-09-16T12:13:06Z</time>
      </trkpt>
      <trkpt lat="59.63725186" lon="18.4957742929">
        <ele>73</ele>
        <time>2012-09-16T12:13:07Z</time>
      </trkpt>
      <trkpt lat="59.6372920931" lon="18.4957339759">
        <ele>73.4</ele>
        <time>2012-09-16T12:13:08Z</time>
      </trkpt>
      <trkpt lat="59.6373232738" lon="18.4956791583">
        <ele>73.8</ele>
        <time>2012-09-16T12:13:09Z</time>
      </trkpt>
      <trkpt lat="59.6373623334" lon="18.4956429485">
        <ele>74.2</ele>
        <time>2012-09-16T12:13:10Z</time>
      </trkpt>
      <trkpt lat="59.6375241879" lon="18.4954807587">
        <ele>74.6</ele>
        <time>2012-09-16T12:13:14Z</time>
      </trkpt>
      <trkpt lat="59.6375668518" lon="18.4954416991">
        <ele>75</ele>
        <time>2012-09-16T12:13:15Z</time>
      </trkpt>
      <trkpt lat="59.6376073363" lon="18.495402388">
        <ele>76</ele>
        <time>2012-09-16T12:13:16Z</time>
      </trkpt>
      <trkpt lat="59.6376462284" lon="18.4953596403">
        <ele>76.4</ele>
        <time>2012-09-16T12:13:17Z</time>
      </trkpt>
      <trkpt lat="59.6377997848" lon="18.4952031502">
        <ele>76.4</ele>
        <time>2012-09-16T12:13:21Z</time>
      </trkpt>
      <trkpt lat="59.6379447916" lon="18.495038362">
        <ele>76.8</ele>
        <time>2012-09-16T12:13:25Z</time>
      </trkpt>
      <trkpt lat="59.6379817558" lon="18.4949941056">
        <ele>77.2</ele>
        <time>2012-09-16T12:13:26Z</time>
      </trkpt>
      <trkpt lat="59.6380195582" lon="18.494955968">
        <ele>77.6</ele>
        <time>2012-09-16T12:13:27Z</time>
      </trkpt>
      <trkpt lat="59.6380538402" lon="18.4949173274">
        <ele>78</ele>
        <time>2012-09-16T12:13:28Z</time>
      </trkpt>
      <trkpt lat="59.6380904691" lon="18.494876759">
        <ele>78.4</ele>
        <time>2012-09-16T12:13:29Z</time>
      </trkpt>
      <trkpt lat="59.6382457018" lon="18.4947198498">
        <ele>78.8</ele>
        <time>2012-09-16T12:13:33Z</time>
      </trkpt>
      <trkpt lat="59.6382830851" lon="18.4946798682">
        <ele>79.4</ele>
        <time>2012-09-16T12:13:34Z</time>
      </trkpt>
      <trkpt lat="59.6383203846" lon="18.4946388807">
        <ele>79.8</ele>
        <time>2012-09-16T12:13:35Z</time>
      </trkpt>
      <trkpt lat="59.6383598633" lon="18.4945965521">
        <ele>80.2</ele>
        <time>2012-09-16T12:13:36Z</time>
      </trkpt>
      <trkpt lat="59.638395654" lon="18.4945542235">
        <ele>80.8</ele>
        <time>2012-09-16T12:13:37Z</time>
      </trkpt>
      <trkpt lat="59.6385506354" lon="18.4944084622">
        <ele>81.6</ele>
        <time>2012-09-16T12:13:41Z</time>
      </trkpt>
      <trkpt lat="59.638592461" lon="18.4943796285">
        <ele>82</ele>
        <time>2012-09-16T12:13:42Z</time>
      </trkpt>
      <trkpt lat="59.6386353764" lon="18.4943416585">
        <ele>82.4</ele>
        <time>2012-09-16T12:13:43Z</time>
      </trkpt>
      <trkpt lat="59.6386787946" lon="18.4943047781">
        <ele>82.8</ele>
        <time>2012-09-16T12:13:44Z</time>
      </trkpt>
      <trkpt lat="59.6388554851" lon="18.4941458573">
        <ele>83.2</ele>
        <time>2012-09-16T12:13:48Z</time>
      </trkpt>
      <trkpt lat="59.6388964726" lon="18.4941052889">
        <ele>83.6</ele>
        <time>2012-09-16T12:13:49Z</time>
      </trkpt>
      <trkpt lat="59.6389386335" lon="18.4940632118">
        <ele>84.2</ele>
        <time>2012-09-16T12:13:50Z</time>
      </trkpt>
      <trkpt lat="59.638982387" lon="18.4940255771">
        <ele>84.6</ele>
        <time>2012-09-16T12:13:51Z</time>
      </trkpt>
      <trkpt lat="59.639035193" lon="18.4939879423">
        <ele>85</ele>
        <time>2012-09-16T12:13:52Z</time>
      </trkpt>
      <trkpt lat="59.6391610053" lon="18.4938633873">
        <ele>85</ele>
        <time>2012-09-16T12:13:55Z</time>
      </trkpt>
      <trkpt lat="59.6392379512" lon="18.4937809094">
        <ele>85.4</ele>
        <time>2012-09-16T12:13:57Z</time>
      </trkpt>
      <trkpt lat="59.639276927" lon="18.4937382455">
        <ele>85.8</ele>
        <time>2012-09-16T12:13:58Z</time>
      </trkpt>
      <trkpt lat="59.6393196747" lon="18.4936996888">
        <ele>86.4</ele>
        <time>2012-09-16T12:13:59Z</time>
      </trkpt>
      <trkpt lat="59.6393617518" lon="18.4936490621">
        <ele>86.8</ele>
        <time>2012-09-16T12:14:00Z</time>
      </trkpt>
      <trkpt lat="59.6394057568" lon="18.493607907">
        <ele>87.2</ele>
        <time>2012-09-16T12:14:01Z</time>
      </trkpt>
      <trkpt lat="59.6394912522" lon="18.4935331404">
        <ele>87.2</ele>
        <time>2012-09-16T12:14:03Z</time>
      </trkpt>
      <trkpt lat="59.6395806871" lon="18.49345368">
        <ele>87.2</ele>
        <time>2012-09-16T12:14:05Z</time>
      </trkpt>
      <trkpt lat="59.6396244406" lon="18.4934034724">
        <ele>88</ele>
        <time>2012-09-16T12:14:06Z</time>
      </trkpt>
      <trkpt lat="59.6396676074" lon="18.4933633231">
        <ele>88.4</ele>
        <time>2012-09-16T12:14:07Z</time>
      </trkpt>
      <trkpt lat="59.6397090139" lon="18.4933213298">
        <ele>88.8</ele>
        <time>2012-09-16T12:14:08Z</time>
      </trkpt>
      <trkpt lat="59.6397498338" lon="18.4932711222">
        <ele>89.2</ele>
        <time>2012-09-16T12:14:09Z</time>
      </trkpt>
      <trkpt lat="59.6397950961" lon="18.4932263629">
        <ele>89.2</ele>
        <time>2012-09-16T12:14:10Z</time>
      </trkpt>
      <trkpt lat="59.6398379276" lon="18.4931834476">
        <ele>89.2</ele>
        <time>2012-09-16T12:14:11Z</time>
      </trkpt>
      <trkpt lat="59.6398795856" lon="18.4931385206">
        <ele>89.6</ele>
        <time>2012-09-16T12:14:12Z</time>
      </trkpt>
      <trkpt lat="59.6399202378" lon="18.493092001">
        <ele>90</ele>
        <time>2012-09-16T12:14:13Z</time>
      </trkpt>
      <trkpt lat="59.6399601357" lon="18.4930462359">
        <ele>90.4</ele>
        <time>2012-09-16T12:14:14Z</time>
      </trkpt>
      <trkpt lat="59.6400022966" lon="18.4930080982">
        <ele>90.8</ele>
        <time>2012-09-16T12:14:15Z</time>
      </trkpt>
      <trkpt lat="59.6400412725" lon="18.4929673622">
        <ele>91.2</ele>
        <time>2012-09-16T12:14:16Z</time>
      </trkpt>
      <trkpt lat="59.6401226607" lon="18.4928712218">
        <ele>91.2</ele>
        <time>2012-09-16T12:14:18Z</time>
      </trkpt>
      <trkpt lat="59.6402934838" lon="18.4926717326">
        <ele>91.2</ele>
        <time>2012-09-16T12:14:22Z</time>
      </trkpt>
      <trkpt lat="59.6404578529" lon="18.4924624365">
        <ele>91.6</ele>
        <time>2012-09-16T12:14:26Z</time>
      </trkpt>
      <trkpt lat="59.6405000977" lon="18.4924077027">
        <ele>92</ele>
        <time>2012-09-16T12:14:27Z</time>
      </trkpt>
      <trkpt lat="59.6405410013" lon="18.4923528013">
        <ele>92.4</ele>
        <time>2012-09-16T12:14:28Z</time>
      </trkpt>
      <trkpt lat="59.640584671" lon="18.4922926192">
        <ele>93</ele>
        <time>2012-09-16T12:14:29Z</time>
      </trkpt>
      <trkpt lat="59.6406264129" lon="18.4922405676">
        <ele>93.4</ele>
        <time>2012-09-16T12:14:30Z</time>
      </trkpt>
      <trkpt lat="59.6408306798" lon="18.4919654737">
        <ele>93.4</ele>
        <time>2012-09-16T12:14:35Z</time>
      </trkpt>
      <trkpt lat="59.6411897604" lon="18.4914894656">
        <ele>93.4</ele>
        <time>2012-09-16T12:14:43Z</time>
      </trkpt>
      <trkpt lat="59.6416030719" lon="18.4909114498">
        <ele>93.4</ele>
        <time>2012-09-16T12:14:52Z</time>
      </trkpt>
      <trkpt lat="59.6418504218" lon="18.4905081965">
        <ele>93.4</ele>
        <time>2012-09-16T12:14:57Z</time>
      </trkpt>
      <trkpt lat="59.6421658327" lon="18.4899677316">
        <ele>93.4</ele>
        <time>2012-09-16T12:15:04Z</time>
      </trkpt>
      <trkpt lat="59.6424527451" lon="18.4894711041">
        <ele>93.4</ele>
        <time>2012-09-16T12:15:10Z</time>
      </trkpt>
      <trkpt lat="59.6426885279" lon="18.48903952">
        <ele>93.8</ele>
        <time>2012-09-16T12:15:15Z</time>
      </trkpt>
      <trkpt lat="59.6427342093" lon="18.4889550305">
        <ele>94.2</ele>
        <time>2012-09-16T12:15:16Z</time>
      </trkpt>
      <trkpt lat="59.6427803936" lon="18.4888708762">
        <ele>94.6</ele>
        <time>2012-09-16T12:15:17Z</time>
      </trkpt>
      <trkpt lat="59.6428294277" lon="18.4887909129">
        <ele>95</ele>
        <time>2012-09-16T12:15:18Z</time>
      </trkpt>
      <trkpt lat="59.6428780427" lon="18.488710279">
        <ele>95.4</ele>
        <time>2012-09-16T12:15:19Z</time>
      </trkpt>
      <trkpt lat="59.643231256" lon="18.4881040162">
        <ele>95.4</ele>
        <time>2012-09-16T12:15:26Z</time>
      </trkpt>
      <trkpt lat="59.6437004747" lon="18.487335815">
        <ele>95.4</ele>
        <time>2012-09-16T12:15:35Z</time>
      </trkpt>
      <trkpt lat="59.6440849525" lon="18.4867858786">
        <ele>95.4</ele>
        <time>2012-09-16T12:15:42Z</time>
      </trkpt>
      <trkpt lat="59.6444265149" lon="18.4863242035">
        <ele>95.4</ele>
        <time>2012-09-16T12:15:48Z</time>
      </trkpt>
      <trkpt lat="59.6444810811" lon="18.4862570645">
        <ele>95.4</ele>
        <time>2012-09-16T12:15:49Z</time>
      </trkpt>
      <trkpt lat="59.6448280079" lon="18.4858417414">
        <ele>95.4</ele>
        <time>2012-09-16T12:15:55Z</time>
      </trkpt>
      <trkpt lat="59.6452738412" lon="18.4853749533">
        <ele>95.4</ele>
        <time>2012-09-16T12:16:02Z</time>
      </trkpt>
      <trkpt lat="59.6454639427" lon="18.4851833431">
        <ele>95</ele>
        <time>2012-09-16T12:16:05Z</time>
      </trkpt>
      <trkpt lat="59.6455294053" lon="18.4851204789">
        <ele>94.6</ele>
        <time>2012-09-16T12:16:06Z</time>
      </trkpt>
      <trkpt lat="59.64559579" lon="18.4850577822">
        <ele>94.2</ele>
        <time>2012-09-16T12:16:07Z</time>
      </trkpt>
      <trkpt lat="59.6456599115" lon="18.4849982708">
        <ele>93.8</ele>
        <time>2012-09-16T12:16:08Z</time>
      </trkpt>
      <trkpt lat="59.6457262123" lon="18.4849361609">
        <ele>93.4</ele>
        <time>2012-09-16T12:16:09Z</time>
      </trkpt>
      <trkpt lat="59.6457913397" lon="18.484874973">
        <ele>93.4</ele>
        <time>2012-09-16T12:16:10Z</time>
      </trkpt>
      <trkpt lat="59.6462619834" lon="18.4845057503">
        <ele>93.4</ele>
        <time>2012-09-16T12:16:17Z</time>
      </trkpt>
      <trkpt lat="59.6466602074" lon="18.4842181673">
        <ele>93.4</ele>
        <time>2012-09-16T12:16:23Z</time>
      </trkpt>
      <trkpt lat="59.6472367983" lon="18.4838198594">
        <ele>93.4</ele>
        <time>2012-09-16T12:16:31Z</time>
      </trkpt>
      <trkpt lat="59.6476651134" lon="18.4834902831">
        <ele>93.4</ele>
        <time>2012-09-16T12:16:37Z</time>
      </trkpt>
      <trkpt lat="59.6481636688" lon="18.483116618">
        <ele>93.4</ele>
        <time>2012-09-16T12:16:44Z</time>
      </trkpt>
      <trkpt lat="59.6487397568" lon="18.4826877162">
        <ele>93.4</ele>
        <time>2012-09-16T12:16:52Z</time>
      </trkpt>
      <trkpt lat="59.6492728457" lon="18.4823225168">
        <ele>93.4</ele>
        <time>2012-09-16T12:16:59Z</time>
      </trkpt>
      <trkpt lat="59.649807108" lon="18.4819733269">
        <ele>93.4</ele>
        <time>2012-09-16T12:17:06Z</time>
      </trkpt>
      <trkpt lat="59.6502432182" lon="18.4816715785">
        <ele>93.4</ele>
        <time>2012-09-16T12:17:12Z</time>
      </trkpt>
      <trkpt lat="59.6506761434" lon="18.4813392361">
        <ele>93.4</ele>
        <time>2012-09-16T12:17:18Z</time>
      </trkpt>
      <trkpt lat="59.6511368126" lon="18.4810368172">
        <ele>93.4</ele>
        <time>2012-09-16T12:17:24Z</time>
      </trkpt>
      <trkpt lat="59.6516543949" lon="18.4806859508">
        <ele>93.4</ele>
        <time>2012-09-16T12:17:31Z</time>
      </trkpt>
      <trkpt lat="59.6517325142" lon="18.4806351565">
        <ele>93.4</ele>
        <time>2012-09-16T12:17:32Z</time>
      </trkpt>
      <trkpt lat="59.65219201" lon="18.480333911">
        <ele>93.4</ele>
        <time>2012-09-16T12:17:38Z</time>
      </trkpt>
      <trkpt lat="59.6527035573" lon="18.4799489304">
        <ele>93.4</ele>
        <time>2012-09-16T12:17:45Z</time>
      </trkpt>
      <trkpt lat="59.652929701" lon="18.4797891714">
        <ele>93</ele>
        <time>2012-09-16T12:17:48Z</time>
      </trkpt>
      <trkpt lat="59.6530034617" lon="18.4797383771">
        <ele>92.6</ele>
        <time>2012-09-16T12:17:49Z</time>
      </trkpt>
      <trkpt lat="59.6530794017" lon="18.4796896782">
        <ele>92.2</ele>
        <time>2012-09-16T12:17:50Z</time>
      </trkpt>
      <trkpt lat="59.6531561799" lon="18.4796346091">
        <ele>91.8</ele>
        <time>2012-09-16T12:17:51Z</time>
      </trkpt>
      <trkpt lat="59.653231617" lon="18.4795798753">
        <ele>91.2</ele>
        <time>2012-09-16T12:17:52Z</time>
      </trkpt>
      <trkpt lat="59.6537720819" lon="18.4792013487">
        <ele>91.2</ele>
        <time>2012-09-16T12:17:59Z</time>
      </trkpt>
      <trkpt lat="59.6543089426" lon="18.47883397">
        <ele>91.2</ele>
        <time>2012-09-16T12:18:06Z</time>
      </trkpt>
      <trkpt lat="59.6548874614" lon="18.4784316388">
        <ele>91.2</ele>
        <time>2012-09-16T12:18:13Z</time>
      </trkpt>
      <trkpt lat="59.6549729568" lon="18.4783751448">
        <ele>91.2</ele>
        <time>2012-09-16T12:18:14Z</time>
      </trkpt>
      <trkpt lat="59.6554906229" lon="18.4780336662">
        <ele>91.2</ele>
        <time>2012-09-16T12:18:20Z</time>
      </trkpt>
      <trkpt lat="59.6555770403" lon="18.4779840454">
        <ele>90.8</ele>
        <time>2012-09-16T12:18:21Z</time>
      </trkpt>
      <trkpt lat="59.6556612784" lon="18.4779366038">
        <ele>90.4</ele>
        <time>2012-09-16T12:18:22Z</time>
      </trkpt>
      <trkpt lat="59.6557440077" lon="18.4778866477">
        <ele>90</ele>
        <time>2012-09-16T12:18:23Z</time>
      </trkpt>
      <trkpt lat="59.6558256474" lon="18.4778393738">
        <ele>89.6</ele>
        <time>2012-09-16T12:18:24Z</time>
      </trkpt>
      <trkpt lat="59.6559097179" lon="18.4777920161">
        <ele>89.2</ele>
        <time>2012-09-16T12:18:25Z</time>
      </trkpt>
      <trkpt lat="59.6562534596" lon="18.4776056864">
        <ele>89.2</ele>
        <time>2012-09-16T12:18:29Z</time>
      </trkpt>
      <trkpt lat="59.6567875543" lon="18.4773454284">
        <ele>89.2</ele>
        <time>2012-09-16T12:18:35Z</time>
      </trkpt>
      <trkpt lat="59.6568780788" lon="18.4773102244">
        <ele>88.8</ele>
        <time>2012-09-16T12:18:36Z</time>
      </trkpt>
      <trkpt lat="59.6569718723" lon="18.4772673091">
        <ele>87.6</ele>
        <time>2012-09-16T12:18:37Z</time>
      </trkpt>
      <trkpt lat="59.6570651628" lon="18.4772311831">
        <ele>87.2</ele>
        <time>2012-09-16T12:18:38Z</time>
      </trkpt>
      <trkpt lat="59.6571598783" lon="18.4771881002">
        <ele>86.6</ele>
        <time>2012-09-16T12:18:39Z</time>
      </trkpt>
      <trkpt lat="59.6574623811" lon="18.4770643833">
        <ele>86.6</ele>
        <time>2012-09-16T12:18:42Z</time>
      </trkpt>
      <trkpt lat="59.6580441687" lon="18.4768293548">
        <ele>86.6</ele>
        <time>2012-09-16T12:18:48Z</time>
      </trkpt>
      <trkpt lat="59.6585879864" lon="18.4766089947">
        <ele>86.2</ele>
        <time>2012-09-16T12:18:54Z</time>
      </trkpt>
      <trkpt lat="59.6586786786" lon="18.4765710247">
        <ele>85.8</ele>
        <time>2012-09-16T12:18:55Z</time>
      </trkpt>
      <trkpt lat="59.6587665209" lon="18.476532887">
        <ele>85.4</ele>
        <time>2012-09-16T12:18:56Z</time>
      </trkpt>
      <trkpt lat="59.658858638" lon="18.4764950847">
        <ele>85</ele>
        <time>2012-09-16T12:18:57Z</time>
      </trkpt>
      <trkpt lat="59.6589460612" lon="18.4764596292">
        <ele>84.6</ele>
        <time>2012-09-16T12:18:58Z</time>
      </trkpt>
      <trkpt lat="59.6593654915" lon="18.476279586">
        <ele>84.6</ele>
        <time>2012-09-16T12:19:03Z</time>
      </trkpt>
      <trkpt lat="59.6596924694" lon="18.4761349144">
        <ele>84.6</ele>
        <time>2012-09-16T12:19:07Z</time>
      </trkpt>
      <trkpt lat="59.6599998336" lon="18.4759835373">
        <ele>84.6</ele>
        <time>2012-09-16T12:19:11Z</time>
      </trkpt>
      <trkpt lat="59.6605276419" lon="18.4756768436">
        <ele>84.6</ele>
        <time>2012-09-16T12:19:18Z</time>
      </trkpt>
      <trkpt lat="59.6606783485" lon="18.4755859">
        <ele>84.6</ele>
        <time>2012-09-16T12:19:20Z</time>
      </trkpt>
      <trkpt lat="59.6612082522" lon="18.4752555693">
        <ele>84.6</ele>
        <time>2012-09-16T12:19:27Z</time>
      </trkpt>
      <trkpt lat="59.6613604675" lon="18.4751645419">
        <ele>84.6</ele>
        <time>2012-09-16T12:19:29Z</time>
      </trkpt>
      <trkpt lat="59.6618768763" lon="18.4748435151">
        <ele>84.6</ele>
        <time>2012-09-16T12:19:36Z</time>
      </trkpt>
      <trkpt lat="59.6619517267" lon="18.4747985043">
        <ele>84.6</ele>
        <time>2012-09-16T12:19:37Z</time>
      </trkpt>
      <trkpt lat="59.662475344" lon="18.4744657429">
        <ele>84.6</ele>
        <time>2012-09-16T12:19:44Z</time>
      </trkpt>
      <trkpt lat="59.6625512002" lon="18.4744148647">
        <ele>84.6</ele>
        <time>2012-09-16T12:19:45Z</time>
      </trkpt>
      <trkpt lat="59.6630832832" lon="18.4740785829">
        <ele>84.6</ele>
        <time>2012-09-16T12:19:52Z</time>
      </trkpt>
      <trkpt lat="59.6636089122" lon="18.47374557">
        <ele>84.6</ele>
        <time>2012-09-16T12:19:59Z</time>
      </trkpt>
      <trkpt lat="59.6640496325" lon="18.4734610883">
        <ele>84.6</ele>
        <time>2012-09-16T12:20:05Z</time>
      </trkpt>
      <trkpt lat="59.6644910233" lon="18.4731969747">
        <ele>84.6</ele>
        <time>2012-09-16T12:20:11Z</time>
      </trkpt>
      <trkpt lat="59.6649014849" lon="18.4729221322">
        <ele>84.6</ele>
        <time>2012-09-16T12:20:17Z</time>
      </trkpt>
      <trkpt lat="59.6654111883" lon="18.4725206391">
        <ele>84.6</ele>
        <time>2012-09-16T12:20:25Z</time>
      </trkpt>
      <trkpt lat="59.6655898066" lon="18.4723723633">
        <ele>85</ele>
        <time>2012-09-16T12:20:28Z</time>
      </trkpt>
      <trkpt lat="59.6656468035" lon="18.4723213176">
        <ele>85.4</ele>
        <time>2012-09-16T12:20:29Z</time>
      </trkpt>
      <trkpt lat="59.6657038004" lon="18.472270188">
        <ele>85.8</ele>
        <time>2012-09-16T12:20:30Z</time>
      </trkpt>
      <trkpt lat="59.665757696" lon="18.4722101736">
        <ele>86.2</ele>
        <time>2012-09-16T12:20:31Z</time>
      </trkpt>
      <trkpt lat="59.6658094124" lon="18.4721575352">
        <ele>86.6</ele>
        <time>2012-09-16T12:20:32Z</time>
      </trkpt>
      <trkpt lat="59.6658656549" lon="18.4721050645">
        <ele>86.6</ele>
        <time>2012-09-16T12:20:33Z</time>
      </trkpt>
      <trkpt lat="59.6659759607" lon="18.4719968542">
        <ele>87</ele>
        <time>2012-09-16T12:20:35Z</time>
      </trkpt>
      <trkpt lat="59.6660281799" lon="18.4719442159">
        <ele>87.6</ele>
        <time>2012-09-16T12:20:36Z</time>
      </trkpt>
      <trkpt lat="59.6660829138" lon="18.4718965229">
        <ele>88</ele>
        <time>2012-09-16T12:20:37Z</time>
      </trkpt>
      <trkpt lat="59.6661412518" lon="18.471846902">
        <ele>88.4</ele>
        <time>2012-09-16T12:20:38Z</time>
      </trkpt>
      <trkpt lat="59.6661971591" lon="18.4717967783">
        <ele>89</ele>
        <time>2012-09-16T12:20:39Z</time>
      </trkpt>
      <trkpt lat="59.666309728" lon="18.4716898252">
        <ele>89</ele>
        <time>2012-09-16T12:20:41Z</time>
      </trkpt>
      <trkpt lat="59.6666045194" lon="18.4714340934">
        <ele>89.4</ele>
        <time>2012-09-16T12:20:46Z</time>
      </trkpt>
      <trkpt lat="59.6666566548" lon="18.4713770127">
        <ele>89.8</ele>
        <time>2012-09-16T12:20:47Z</time>
      </trkpt>
      <trkpt lat="59.6667154119" lon="18.4713286491">
        <ele>90.2</ele>
        <time>2012-09-16T12:20:48Z</time>
      </trkpt>
      <trkpt lat="59.6667744205" lon="18.4712798665">
        <ele>90.8</ele>
        <time>2012-09-16T12:20:49Z</time>
      </trkpt>
      <trkpt lat="59.6668336805" lon="18.4712306647">
        <ele>91.2</ele>
        <time>2012-09-16T12:20:50Z</time>
      </trkpt>
      <trkpt lat="59.6671833734" lon="18.4709038545">
        <ele>91.2</ele>
        <time>2012-09-16T12:20:56Z</time>
      </trkpt>
      <trkpt lat="59.6673042404" lon="18.4707974881">
        <ele>91.6</ele>
        <time>2012-09-16T12:20:58Z</time>
      </trkpt>
      <trkpt lat="59.6673597286" lon="18.4707372223">
        <ele>92</ele>
        <time>2012-09-16T12:20:59Z</time>
      </trkpt>
      <trkpt lat="59.667420665" lon="18.4706865956">
        <ele>92.4</ele>
        <time>2012-09-16T12:21:00Z</time>
      </trkpt>
      <trkpt lat="59.6674764046" lon="18.4706264136">
        <ele>92.8</ele>
        <time>2012-09-16T12:21:01Z</time>
      </trkpt>
      <trkpt lat="59.6675366705" lon="18.4705737752">
        <ele>93.2</ele>
        <time>2012-09-16T12:21:02Z</time>
      </trkpt>
      <trkpt lat="59.6678890456" lon="18.4702550116">
        <ele>93.6</ele>
        <time>2012-09-16T12:21:08Z</time>
      </trkpt>
      <trkpt lat="59.6679469645" lon="18.4702089111">
        <ele>94</ele>
        <time>2012-09-16T12:21:09Z</time>
      </trkpt>
      <trkpt lat="59.668003207" lon="18.4701659958">
        <ele>94.4</ele>
        <time>2012-09-16T12:21:10Z</time>
      </trkpt>
      <trkpt lat="59.6680599525" lon="18.4701141118">
        <ele>94.8</ele>
        <time>2012-09-16T12:21:11Z</time>
      </trkpt>
      <trkpt lat="59.6681177876" lon="18.4700656645">
        <ele>95.2</ele>
        <time>2012-09-16T12:21:12Z</time>
      </trkpt>
      <trkpt lat="59.668245444" lon="18.4699647464">
        <ele>95.2</ele>
        <time>2012-09-16T12:21:14Z</time>
      </trkpt>
      <trkpt lat="59.6687800415" lon="18.4696301409">
        <ele>95.2</ele>
        <time>2012-09-16T12:21:22Z</time>
      </trkpt>
      <trkpt lat="59.6692321612" lon="18.4693853894">
        <ele>94.8</ele>
        <time>2012-09-16T12:21:29Z</time>
      </trkpt>
      <trkpt lat="59.6692972048" lon="18.4693752473">
        <ele>94</ele>
        <time>2012-09-16T12:21:30Z</time>
      </trkpt>
      <trkpt lat="59.669363338" lon="18.4693565557">
        <ele>93.6</ele>
        <time>2012-09-16T12:21:31Z</time>
      </trkpt>
      <trkpt lat="59.6694308123" lon="18.4693372773">
        <ele>93</ele>
        <time>2012-09-16T12:21:32Z</time>
      </trkpt>
      <trkpt lat="59.6695764897" lon="18.4692797775">
        <ele>93</ele>
        <time>2012-09-16T12:21:34Z</time>
      </trkpt>
      <trkpt lat="59.6700431939" lon="18.4691632691">
        <ele>93</ele>
        <time>2012-09-16T12:21:40Z</time>
      </trkpt>
      <trkpt lat="59.6705616982" lon="18.4691103793">
        <ele>93</ele>
        <time>2012-09-16T12:21:46Z</time>
      </trkpt>
      <trkpt lat="59.67115455" lon="18.4691310826">
        <ele>93</ele>
        <time>2012-09-16T12:21:53Z</time>
      </trkpt>
      <trkpt lat="59.6715661013" lon="18.4692069388">
        <ele>92.6</ele>
        <time>2012-09-16T12:21:58Z</time>
      </trkpt>
      <trkpt lat="59.6716580507" lon="18.4692321683">
        <ele>92.2</ele>
        <time>2012-09-16T12:21:59Z</time>
      </trkpt>
      <trkpt lat="59.671745893" lon="18.4692552185">
        <ele>91.8</ele>
        <time>2012-09-16T12:22:00Z</time>
      </trkpt>
      <trkpt lat="59.671833903" lon="18.4692802804">
        <ele>91.4</ele>
        <time>2012-09-16T12:22:01Z</time>
      </trkpt>
      <trkpt lat="59.6719212424" lon="18.4693086951">
        <ele>91</ele>
        <time>2012-09-16T12:22:02Z</time>
      </trkpt>
      <trkpt lat="59.6724357234" lon="18.4694859722">
        <ele>91</ele>
        <time>2012-09-16T12:22:08Z</time>
      </trkpt>
      <trkpt lat="59.6729502044" lon="18.4696575497">
        <ele>91</ele>
        <time>2012-09-16T12:22:14Z</time>
      </trkpt>
      <trkpt lat="59.6735540365" lon="18.4698488247">
        <ele>91</ele>
        <time>2012-09-16T12:22:21Z</time>
      </trkpt>
      <trkpt lat="59.6736433037" lon="18.4698800054">
        <ele>91</ele>
        <time>2012-09-16T12:22:22Z</time>
      </trkpt>
      <trkpt lat="59.6742304558" lon="18.4700737949">
        <ele>91</ele>
        <time>2012-09-16T12:22:29Z</time>
      </trkpt>
      <trkpt lat="59.6743177952" lon="18.4700898881">
        <ele>91</ele>
        <time>2012-09-16T12:22:30Z</time>
      </trkpt>
      <trkpt lat="59.6744000217" lon="18.4700859486">
        <ele>91</ele>
        <time>2012-09-16T12:22:31Z</time>
      </trkpt>
      <trkpt lat="59.6747067154" lon="18.4700367469">
        <ele>91</ele>
        <time>2012-09-16T12:22:35Z</time>
      </trkpt>
      <trkpt lat="59.6751960507" lon="18.4699295424">
        <ele>91</ele>
        <time>2012-09-16T12:22:41Z</time>
      </trkpt>
      <trkpt lat="59.6755907544" lon="18.4699360803">
        <ele>90.4</ele>
        <time>2012-09-16T12:22:45Z</time>
      </trkpt>
      <trkpt lat="59.6756903314" lon="18.4699462224">
        <ele>90</ele>
        <time>2012-09-16T12:22:46Z</time>
      </trkpt>
      <trkpt lat="59.6757961948" lon="18.4699664228">
        <ele>89.6</ele>
        <time>2012-09-16T12:22:47Z</time>
      </trkpt>
      <trkpt lat="59.6759034831" lon="18.4699772354">
        <ele>89.2</ele>
        <time>2012-09-16T12:22:48Z</time>
      </trkpt>
      <trkpt lat="59.676007251" lon="18.470001962">
        <ele>88.8</ele>
        <time>2012-09-16T12:22:49Z</time>
      </trkpt>
      <trkpt lat="59.6761100131" lon="18.4700203184">
        <ele>88.2</ele>
        <time>2012-09-16T12:22:50Z</time>
      </trkpt>
      <trkpt lat="59.6762112664" lon="18.4700252637">
        <ele>87.6</ele>
        <time>2012-09-16T12:22:51Z</time>
      </trkpt>
      <trkpt lat="59.6763155373" lon="18.470024677">
        <ele>87.2</ele>
        <time>2012-09-16T12:22:52Z</time>
      </trkpt>
      <trkpt lat="59.6764140246" lon="18.4700084999">
        <ele>86.6</ele>
        <time>2012-09-16T12:22:53Z</time>
      </trkpt>
      <trkpt lat="59.6766969975" lon="18.4699313864">
        <ele>86.6</ele>
        <time>2012-09-16T12:22:56Z</time>
      </trkpt>
      <trkpt lat="59.6772569923" lon="18.4697695319">
        <ele>86.6</ele>
        <time>2012-09-16T12:23:02Z</time>
      </trkpt>
      <trkpt lat="59.6774348562" lon="18.4696999622">
        <ele>86.6</ele>
        <time>2012-09-16T12:23:04Z</time>
      </trkpt>
      <trkpt lat="59.6779428832" lon="18.4693691286">
        <ele>86.6</ele>
        <time>2012-09-16T12:23:10Z</time>
      </trkpt>
      <trkpt lat="59.6781878861" lon="18.4692036699">
        <ele>86.2</ele>
        <time>2012-09-16T12:23:13Z</time>
      </trkpt>
      <trkpt lat="59.6782758122" lon="18.4691578209">
        <ele>85.6</ele>
        <time>2012-09-16T12:23:14Z</time>
      </trkpt>
      <trkpt lat="59.6783725394" lon="18.4691081162">
        <ele>85.2</ele>
        <time>2012-09-16T12:23:15Z</time>
      </trkpt>
      <trkpt lat="59.6784704399" lon="18.4690664582">
        <ele>84.4</ele>
        <time>2012-09-16T12:23:16Z</time>
      </trkpt>
      <trkpt lat="59.6785699331" lon="18.4690372891">
        <ele>83.8</ele>
        <time>2012-09-16T12:23:17Z</time>
      </trkpt>
      <trkpt lat="59.6786741201" lon="18.4690228723">
        <ele>83.2</ele>
        <time>2012-09-16T12:23:18Z</time>
      </trkpt>
      <trkpt lat="59.6787824143" lon="18.4690220341">
        <ele>82.4</ele>
        <time>2012-09-16T12:23:19Z</time>
      </trkpt>
      <trkpt lat="59.6788912951" lon="18.4690212797">
        <ele>81.8</ele>
        <time>2012-09-16T12:23:20Z</time>
      </trkpt>
      <trkpt lat="59.6789969071" lon="18.4690215312">
        <ele>81</ele>
        <time>2012-09-16T12:23:21Z</time>
      </trkpt>
      <trkpt lat="59.6791046983" lon="18.4690159991">
        <ele>80.4</ele>
        <time>2012-09-16T12:23:22Z</time>
      </trkpt>
      <trkpt lat="59.6792062031" lon="18.4690040968">
        <ele>79.8</ele>
        <time>2012-09-16T12:23:23Z</time>
      </trkpt>
      <trkpt lat="59.6793093843" lon="18.4689872492">
        <ele>79.2</ele>
        <time>2012-09-16T12:23:24Z</time>
      </trkpt>
      <trkpt lat="59.6794055247" lon="18.4689700663">
        <ele>78.6</ele>
        <time>2012-09-16T12:23:25Z</time>
      </trkpt>
      <trkpt lat="59.6795031738" lon="18.4689512908">
        <ele>78.2</ele>
        <time>2012-09-16T12:23:26Z</time>
      </trkpt>
      <trkpt lat="59.6795983084" lon="18.4689199425">
        <ele>77.6</ele>
        <time>2012-09-16T12:23:27Z</time>
      </trkpt>
      <trkpt lat="59.6796926886" lon="18.468894713">
        <ele>77.2</ele>
        <time>2012-09-16T12:23:28Z</time>
      </trkpt>
      <trkpt lat="59.6802577963" lon="18.4686445971">
        <ele>77.2</ele>
        <time>2012-09-16T12:23:34Z</time>
      </trkpt>
      <trkpt lat="59.6808204732" lon="18.468339496">
        <ele>77.2</ele>
        <time>2012-09-16T12:23:40Z</time>
      </trkpt>
      <trkpt lat="59.6810088145" lon="18.4682423497">
        <ele>77.2</ele>
        <time>2012-09-16T12:23:42Z</time>
      </trkpt>
      <trkpt lat="59.6815843158" lon="18.4679918148">
        <ele>77.2</ele>
        <time>2012-09-16T12:23:48Z</time>
      </trkpt>
      <trkpt lat="59.6817764289" lon="18.4679261845">
        <ele>76.6</ele>
        <time>2012-09-16T12:23:50Z</time>
      </trkpt>
      <trkpt lat="59.6818744134" lon="18.4678883821">
        <ele>76.2</ele>
        <time>2012-09-16T12:23:51Z</time>
      </trkpt>
      <trkpt lat="59.6819771754" lon="18.467849071">
        <ele>75.6</ele>
        <time>2012-09-16T12:23:52Z</time>
      </trkpt>
      <trkpt lat="59.682075998" lon="18.4678160463">
        <ele>75</ele>
        <time>2012-09-16T12:23:53Z</time>
      </trkpt>
      <trkpt lat="59.6821732281" lon="18.46778562">
        <ele>74.6</ele>
        <time>2012-09-16T12:23:54Z</time>
      </trkpt>
      <trkpt lat="59.6823725497" lon="18.467737005">
        <ele>74.6</ele>
        <time>2012-09-16T12:23:56Z</time>
      </trkpt>
      <trkpt lat="59.6829758788" lon="18.467603146">
        <ele>74.6</ele>
        <time>2012-09-16T12:24:02Z</time>
      </trkpt>
      <trkpt lat="59.6831723506" lon="18.467565679">
        <ele>74.6</ele>
        <time>2012-09-16T12:24:04Z</time>
      </trkpt>
      <trkpt lat="59.6832669822" lon="18.4675492504">
        <ele>74.6</ele>
        <time>2012-09-16T12:24:05Z</time>
      </trkpt>
      <trkpt lat="59.6834526413" lon="18.467528631">
        <ele>74.2</ele>
        <time>2012-09-16T12:24:07Z</time>
      </trkpt>
      <trkpt lat="59.683548195" lon="18.4675278766">
        <ele>73.8</ele>
        <time>2012-09-16T12:24:08Z</time>
      </trkpt>
      <trkpt lat="59.6836368755" lon="18.4675141303">
        <ele>73.4</ele>
        <time>2012-09-16T12:24:09Z</time>
      </trkpt>
      <trkpt lat="59.683723712" lon="18.4675003001">
        <ele>73.8</ele>
        <time>2012-09-16T12:24:10Z</time>
      </trkpt>
      <trkpt lat="59.6838092912" lon="18.4674956901">
        <ele>74.2</ele>
        <time>2012-09-16T12:24:11Z</time>
      </trkpt>
      <trkpt lat="59.6838964629" lon="18.4674861347">
        <ele>74.4</ele>
        <time>2012-09-16T12:24:12Z</time>
      </trkpt>
      <trkpt lat="59.6839836347" lon="18.4674728075">
        <ele>74.8</ele>
        <time>2012-09-16T12:24:13Z</time>
      </trkpt>
      <trkpt lat="59.6840681242" lon="18.4674724722">
        <ele>75.2</ele>
        <time>2012-09-16T12:24:14Z</time>
      </trkpt>
      <trkpt lat="59.6841610795" lon="18.4674779205">
        <ele>74.6</ele>
        <time>2012-09-16T12:24:15Z</time>
      </trkpt>
      <trkpt lat="59.6842485027" lon="18.4674886493">
        <ele>74</ele>
        <time>2012-09-16T12:24:16Z</time>
      </trkpt>
      <trkpt lat="59.6843376861" lon="18.4674920021">
        <ele>73.4</ele>
        <time>2012-09-16T12:24:17Z</time>
      </trkpt>
      <trkpt lat="59.6844256961" lon="18.4674900742">
        <ele>72.8</ele>
        <time>2012-09-16T12:24:18Z</time>
      </trkpt>
      <trkpt lat="59.6845132031" lon="18.4674883978">
        <ele>72.2</ele>
        <time>2012-09-16T12:24:19Z</time>
      </trkpt>
      <trkpt lat="59.685027265" lon="18.4675395274">
        <ele>72.2</ele>
        <time>2012-09-16T12:24:25Z</time>
      </trkpt>
      <trkpt lat="59.6852820748" lon="18.4675722168">
        <ele>71.6</ele>
        <time>2012-09-16T12:24:28Z</time>
      </trkpt>
      <trkpt lat="59.6853665644" lon="18.4675854602">
        <ele>71.2</ele>
        <time>2012-09-16T12:24:29Z</time>
      </trkpt>
      <trkpt lat="59.6854517245" lon="18.4675999609">
        <ele>70.6</ele>
        <time>2012-09-16T12:24:30Z</time>
      </trkpt>
      <trkpt lat="59.6855411593" lon="18.4676097678">
        <ele>70.2</ele>
        <time>2012-09-16T12:24:31Z</time>
      </trkpt>
      <trkpt lat="59.6856245592" lon="18.4676238493">
        <ele>69.8</ele>
        <time>2012-09-16T12:24:32Z</time>
      </trkpt>
      <trkpt lat="59.685872412" lon="18.4676919942">
        <ele>69.8</ele>
        <time>2012-09-16T12:24:35Z</time>
      </trkpt>
      <trkpt lat="59.6863603224" lon="18.4678308823">
        <ele>69.8</ele>
        <time>2012-09-16T12:24:41Z</time>
      </trkpt>
      <trkpt lat="59.6868458021" lon="18.468060714">
        <ele>69.2</ele>
        <time>2012-09-16T12:24:47Z</time>
      </trkpt>
      <trkpt lat="59.6869274418" lon="18.4681183814">
        <ele>68.8</ele>
        <time>2012-09-16T12:24:48Z</time>
      </trkpt>
      <trkpt lat="59.6870089977" lon="18.4681681699">
        <ele>68.4</ele>
        <time>2012-09-16T12:24:49Z</time>
      </trkpt>
      <trkpt lat="59.687089883" lon="18.4682297769">
        <ele>67.8</ele>
        <time>2012-09-16T12:24:50Z</time>
      </trkpt>
      <trkpt lat="59.6871724447" lon="18.4682865224">
        <ele>67.4</ele>
        <time>2012-09-16T12:24:51Z</time>
      </trkpt>
      <trkpt lat="59.6874943097" lon="18.4685569225">
        <ele>67.4</ele>
        <time>2012-09-16T12:24:55Z</time>
      </trkpt>
      <trkpt lat="59.6878694835" lon="18.4689722456">
        <ele>67.4</ele>
        <time>2012-09-16T12:25:00Z</time>
      </trkpt>
      <trkpt lat="59.6879099681" lon="18.4690393008">
        <ele>67</ele>
        <time>2012-09-16T12:25:02Z</time>
      </trkpt>
      <trkpt lat="59.6879620197" lon="18.4690983932">
        <ele>66.6</ele>
        <time>2012-09-16T12:25:03Z</time>
      </trkpt>
      <trkpt lat="59.6879746764" lon="18.469123958">
        <ele>66</ele>
        <time>2012-09-16T12:25:04Z</time>
      </trkpt>
      <trkpt lat="59.6879833935" lon="18.4691074456">
        <ele>65.6</ele>
        <time>2012-09-16T12:25:05Z</time>
      </trkpt>
      <trkpt lat="59.6879840641" lon="18.4691095411">
        <ele>65.2</ele>
        <time>2012-09-16T12:25:06Z</time>
      </trkpt>
      <trkpt lat="59.688004935" lon="18.4691097088">
        <ele>65.2</ele>
        <time>2012-09-16T12:25:07Z</time>
      </trkpt>
      <trkpt lat="59.6880381273" lon="18.4691475111">
        <ele>65.2</ele>
        <time>2012-09-16T12:25:09Z</time>
      </trkpt>
      <trkpt lat="59.6880807912" lon="18.4692118841">
        <ele>65.2</ele>
        <time>2012-09-16T12:25:11Z</time>
      </trkpt>
      <trkpt lat="59.6882422266" lon="18.4694366029">
        <ele>65.2</ele>
        <time>2012-09-16T12:25:15Z</time>
      </trkpt>
      <trkpt lat="59.6884886545" lon="18.4697939233">
        <ele>65.2</ele>
        <time>2012-09-16T12:25:20Z</time>
      </trkpt>
      <trkpt lat="59.6887794226" lon="18.4703129305">
        <ele>65.2</ele>
        <time>2012-09-16T12:25:26Z</time>
      </trkpt>
      <trkpt lat="59.6889694402" lon="18.4706731846">
        <ele>65.2</ele>
        <time>2012-09-16T12:25:30Z</time>
      </trkpt>
      <trkpt lat="59.6890116012" lon="18.4707774554">
        <ele>64.8</ele>
        <time>2012-09-16T12:25:31Z</time>
      </trkpt>
      <trkpt lat="59.6890551871" lon="18.470871668">
        <ele>64.4</ele>
        <time>2012-09-16T12:25:32Z</time>
      </trkpt>
      <trkpt lat="59.6890975995" lon="18.4709664672">
        <ele>64</ele>
        <time>2012-09-16T12:25:33Z</time>
      </trkpt>
      <trkpt lat="59.6891425265" lon="18.4710563212">
        <ele>63.6</ele>
        <time>2012-09-16T12:25:34Z</time>
      </trkpt>
      <trkpt lat="59.6891908062" lon="18.471160592">
        <ele>63.2</ele>
        <time>2012-09-16T12:25:35Z</time>
      </trkpt>
      <trkpt lat="59.6893484698" lon="18.4714720635">
        <ele>63.2</ele>
        <time>2012-09-16T12:25:38Z</time>
      </trkpt>
      <trkpt lat="59.6896958995" lon="18.4721064056">
        <ele>63.2</ele>
        <time>2012-09-16T12:25:44Z</time>
      </trkpt>
      <trkpt lat="59.6901720753" lon="18.4727878541">
        <ele>63.2</ele>
        <time>2012-09-16T12:25:51Z</time>
      </trkpt>
      <trkpt lat="59.6906261228" lon="18.4733129801">
        <ele>63.2</ele>
        <time>2012-09-16T12:25:57Z</time>
      </trkpt>
      <trkpt lat="59.6911059027" lon="18.4738482483">
        <ele>63.2</ele>
        <time>2012-09-16T12:26:03Z</time>
      </trkpt>
      <trkpt lat="59.6913638976" lon="18.4741240966">
        <ele>63.2</ele>
        <time>2012-09-16T12:26:06Z</time>
      </trkpt>
      <trkpt lat="59.6918941366" lon="18.474707393">
        <ele>63.2</ele>
        <time>2012-09-16T12:26:12Z</time>
      </trkpt>
      <trkpt lat="59.6921535564" lon="18.4749941378">
        <ele>63.2</ele>
        <time>2012-09-16T12:26:15Z</time>
      </trkpt>
      <trkpt lat="59.6925855595" lon="18.4754720738">
        <ele>63.2</ele>
        <time>2012-09-16T12:26:20Z</time>
      </trkpt>
      <trkpt lat="59.6928405369" lon="18.4757413004">
        <ele>62.8</ele>
        <time>2012-09-16T12:26:23Z</time>
      </trkpt>
      <trkpt lat="59.6929230987" lon="18.475829478">
        <ele>62.4</ele>
        <time>2012-09-16T12:26:24Z</time>
      </trkpt>
      <trkpt lat="59.6930048222" lon="18.4759212598">
        <ele>61.4</ele>
        <time>2012-09-16T12:26:25Z</time>
      </trkpt>
      <trkpt lat="59.6930823548" lon="18.4760148856">
        <ele>61</ele>
        <time>2012-09-16T12:26:26Z</time>
      </trkpt>
      <trkpt lat="59.693232726" lon="18.4762084237">
        <ele>61</ele>
        <time>2012-09-16T12:26:28Z</time>
      </trkpt>
      <trkpt lat="59.693376308" lon="18.4764221621">
        <ele>60.4</ele>
        <time>2012-09-16T12:26:30Z</time>
      </trkpt>
      <trkpt lat="59.6934521642" lon="18.476539844">
        <ele>59.8</ele>
        <time>2012-09-16T12:26:31Z</time>
      </trkpt>
      <trkpt lat="59.6935206443" lon="18.4766632256">
        <ele>59.2</ele>
        <time>2012-09-16T12:26:32Z</time>
      </trkpt>
      <trkpt lat="59.6935901303" lon="18.4767848469">
        <ele>58.6</ele>
        <time>2012-09-16T12:26:33Z</time>
      </trkpt>
      <trkpt lat="59.6936581075" lon="18.4769117489">
        <ele>58</ele>
        <time>2012-09-16T12:26:34Z</time>
      </trkpt>
      <trkpt lat="59.6940237259" lon="18.4777491007">
        <ele>58</ele>
        <time>2012-09-16T12:26:40Z</time>
      </trkpt>
      <trkpt lat="59.6942424935" lon="18.4785574512">
        <ele>58</ele>
        <time>2012-09-16T12:26:45Z</time>
      </trkpt>
      <trkpt lat="59.6944928609" lon="18.4795072881">
        <ele>58</ele>
        <time>2012-09-16T12:26:51Z</time>
      </trkpt>
      <trkpt lat="59.6945825472" lon="18.4798143171">
        <ele>58</ele>
        <time>2012-09-16T12:26:53Z</time>
      </trkpt>
      <trkpt lat="59.6948844633" lon="18.4807131082">
        <ele>58</ele>
        <time>2012-09-16T12:26:59Z</time>
      </trkpt>
      <trkpt lat="59.6949467408" lon="18.4808600429">
        <ele>58</ele>
        <time>2012-09-16T12:27:00Z</time>
      </trkpt>
      <trkpt lat="59.6953029715" lon="18.4815581714">
        <ele>58</ele>
        <time>2012-09-16T12:27:05Z</time>
      </trkpt>
      <trkpt lat="59.6956498984" lon="18.4822036615">
        <ele>57.6</ele>
        <time>2012-09-16T12:27:10Z</time>
      </trkpt>
      <trkpt lat="59.6957208092" lon="18.4823306473">
        <ele>57</ele>
        <time>2012-09-16T12:27:11Z</time>
      </trkpt>
      <trkpt lat="59.6957924745" lon="18.4824615725">
        <ele>56.6</ele>
        <time>2012-09-16T12:27:12Z</time>
      </trkpt>
      <trkpt lat="59.6958634692" lon="18.4825937551">
        <ele>56</ele>
        <time>2012-09-16T12:27:13Z</time>
      </trkpt>
      <trkpt lat="59.6959319493" lon="18.4827219982">
        <ele>55.6</ele>
        <time>2012-09-16T12:27:14Z</time>
      </trkpt>
      <trkpt lat="59.6963234679" lon="18.4834472002">
        <ele>55.6</ele>
        <time>2012-09-16T12:27:20Z</time>
      </trkpt>
      <trkpt lat="59.6967610868" lon="18.484235937">
        <ele>55.6</ele>
        <time>2012-09-16T12:27:27Z</time>
      </trkpt>
      <trkpt lat="59.6968224424" lon="18.4843471648">
        <ele>55.6</ele>
        <time>2012-09-16T12:27:28Z</time>
      </trkpt>
      <trkpt lat="59.6972873864" lon="18.4850939082">
        <ele>55.6</ele>
        <time>2012-09-16T12:27:35Z</time>
      </trkpt>
      <trkpt lat="59.6973485742" lon="18.4851836784">
        <ele>55.6</ele>
        <time>2012-09-16T12:27:36Z</time>
      </trkpt>
      <trkpt lat="59.697471872" lon="18.4853582734">
        <ele>56</ele>
        <time>2012-09-16T12:27:38Z</time>
      </trkpt>
      <trkpt lat="59.6975281145" lon="18.4854436011">
        <ele>56.4</ele>
        <time>2012-09-16T12:27:39Z</time>
      </trkpt>
      <trkpt lat="59.6975873746" lon="18.4855144282">
        <ele>57.2</ele>
        <time>2012-09-16T12:27:40Z</time>
      </trkpt>
      <trkpt lat="59.6976415216" lon="18.4855787173">
        <ele>57.6</ele>
        <time>2012-09-16T12:27:41Z</time>
      </trkpt>
      <trkpt lat="59.6976979318" lon="18.4856392347">
        <ele>57.6</ele>
        <time>2012-09-16T12:27:42Z</time>
      </trkpt>
      <trkpt lat="59.6978632229" lon="18.4858087167">
        <ele>58</ele>
        <time>2012-09-16T12:27:45Z</time>
      </trkpt>
      <trkpt lat="59.6979188787" lon="18.485871078">
        <ele>58.4</ele>
        <time>2012-09-16T12:27:46Z</time>
      </trkpt>
      <trkpt lat="59.6979695892" lon="18.485915083">
        <ele>58.8</ele>
        <time>2012-09-16T12:27:47Z</time>
      </trkpt>
      <trkpt lat="59.6980245745" lon="18.4859522148">
        <ele>59.2</ele>
        <time>2012-09-16T12:27:48Z</time>
      </trkpt>
      <trkpt lat="59.6980794759" lon="18.4859945434">
        <ele>59.8</ele>
        <time>2012-09-16T12:27:49Z</time>
      </trkpt>
      <trkpt lat="59.6982321941" lon="18.48611189">
        <ele>60.2</ele>
        <time>2012-09-16T12:27:52Z</time>
      </trkpt>
      <trkpt lat="59.6982867603" lon="18.48615447">
        <ele>60.6</ele>
        <time>2012-09-16T12:27:53Z</time>
      </trkpt>
      <trkpt lat="59.6983368002" lon="18.4861911828">
        <ele>61</ele>
        <time>2012-09-16T12:27:54Z</time>
      </trkpt>
      <trkpt lat="59.6983940486" lon="18.4862310806">
        <ele>61.4</ele>
        <time>2012-09-16T12:27:55Z</time>
      </trkpt>
      <trkpt lat="59.6984484471" lon="18.4862727387">
        <ele>61.8</ele>
        <time>2012-09-16T12:27:56Z</time>
      </trkpt>
      <trkpt lat="59.6985533047" lon="18.4863472537">
        <ele>62.2</ele>
        <time>2012-09-16T12:27:58Z</time>
      </trkpt>
      <trkpt lat="59.6986008301" lon="18.486387906">
        <ele>62.6</ele>
        <time>2012-09-16T12:27:59Z</time>
      </trkpt>
      <trkpt lat="59.6986484393" lon="18.4864187514">
        <ele>63.2</ele>
        <time>2012-09-16T12:28:00Z</time>
      </trkpt>
      <trkpt lat="59.6986924442" lon="18.4864477527">
        <ele>63.6</ele>
        <time>2012-09-16T12:28:01Z</time>
      </trkpt>
      <trkpt lat="59.6987362816" lon="18.4864818671">
        <ele>64</ele>
        <time>2012-09-16T12:28:02Z</time>
      </trkpt>
      <trkpt lat="59.6989715615" lon="18.4866392791">
        <ele>64.4</ele>
        <time>2012-09-16T12:28:07Z</time>
      </trkpt>
      <trkpt lat="59.6990202604" lon="18.4866790093">
        <ele>64.8</ele>
        <time>2012-09-16T12:28:08Z</time>
      </trkpt>
      <trkpt lat="59.6990692107" lon="18.486713459">
        <ele>65.4</ele>
        <time>2012-09-16T12:28:09Z</time>
      </trkpt>
      <trkpt lat="59.6991231901" lon="18.4867480762">
        <ele>65.8</ele>
        <time>2012-09-16T12:28:10Z</time>
      </trkpt>
      <trkpt lat="59.6991710507" lon="18.4867853757">
        <ele>66.2</ele>
        <time>2012-09-16T12:28:11Z</time>
      </trkpt>
      <trkpt lat="59.6993750662" lon="18.4869355793">
        <ele>66.2</ele>
        <time>2012-09-16T12:28:15Z</time>
      </trkpt>
      <trkpt lat="59.6994278722" lon="18.4869609765">
        <ele>66.2</ele>
        <time>2012-09-16T12:28:16Z</time>
      </trkpt>
      <trkpt lat="59.6994779959" lon="18.4869991141">
        <ele>66.6</ele>
        <time>2012-09-16T12:28:17Z</time>
      </trkpt>
      <trkpt lat="59.699528874" lon="18.4870414427">
        <ele>67</ele>
        <time>2012-09-16T12:28:18Z</time>
      </trkpt>
      <trkpt lat="59.69958168" lon="18.4870815082">
        <ele>67.4</ele>
        <time>2012-09-16T12:28:19Z</time>
      </trkpt>
      <trkpt lat="59.6996367491" lon="18.4871122698">
        <ele>67.8</ele>
        <time>2012-09-16T12:28:20Z</time>
      </trkpt>
      <trkpt lat="59.6996810055" lon="18.4871473061">
        <ele>68.2</ele>
        <time>2012-09-16T12:28:21Z</time>
      </trkpt>
      <trkpt lat="59.699895666" lon="18.487290888">
        <ele>68.2</ele>
        <time>2012-09-16T12:28:25Z</time>
      </trkpt>
      <trkpt lat="59.6999368211" lon="18.487356686">
        <ele>68.2</ele>
        <time>2012-09-16T12:28:26Z</time>
      </trkpt>
      <trkpt lat="59.7000860189" lon="18.4875036207">
        <ele>68.2</ele>
        <time>2012-09-16T12:28:29Z</time>
      </trkpt>
      <trkpt lat="59.7003078878" lon="18.4877155151">
        <ele>68.6</ele>
        <time>2012-09-16T12:28:33Z</time>
      </trkpt>
      <trkpt lat="59.7003616996" lon="18.487770668">
        <ele>69</ele>
        <time>2012-09-16T12:28:34Z</time>
      </trkpt>
      <trkpt lat="59.7004166849" lon="18.4878263238">
        <ele>69.4</ele>
        <time>2012-09-16T12:28:35Z</time>
      </trkpt>
      <trkpt lat="59.7004699938" lon="18.4878803033">
        <ele>70</ele>
        <time>2012-09-16T12:28:36Z</time>
      </trkpt>
      <trkpt lat="59.7005181059" lon="18.4879377193">
        <ele>70.4</ele>
        <time>2012-09-16T12:28:37Z</time>
      </trkpt>
      <trkpt lat="59.7005683973" lon="18.4879968117">
        <ele>70.4</ele>
        <time>2012-09-16T12:28:38Z</time>
      </trkpt>
      <trkpt lat="59.7009245442" lon="18.488433341">
        <ele>70.4</ele>
        <time>2012-09-16T12:28:45Z</time>
      </trkpt>
      <trkpt lat="59.7011462455" lon="18.4887220137">
        <ele>70.8</ele>
        <time>2012-09-16T12:28:49Z</time>
      </trkpt>
      <trkpt lat="59.7011986323" lon="18.4887852132">
        <ele>71.2</ele>
        <time>2012-09-16T12:28:50Z</time>
      </trkpt>
      <trkpt lat="59.7012499296" lon="18.4888546991">
        <ele>71.8</ele>
        <time>2012-09-16T12:28:51Z</time>
      </trkpt>
      <trkpt lat="59.701299299" lon="18.4889309744">
        <ele>72.2</ele>
        <time>2012-09-16T12:28:52Z</time>
      </trkpt>
      <trkpt lat="59.7013498418" lon="18.4890028073">
        <ele>72.8</ele>
        <time>2012-09-16T12:28:53Z</time>
      </trkpt>
      <trkpt lat="59.7014890652" lon="18.4892110975">
        <ele>72.8</ele>
        <time>2012-09-16T12:28:56Z</time>
      </trkpt>
      <trkpt lat="59.7015860438" lon="18.4893603792">
        <ele>72.8</ele>
        <time>2012-09-16T12:28:58Z</time>
      </trkpt>
      <trkpt lat="59.7019032987" lon="18.4896793943">
        <ele>72.8</ele>
        <time>2012-09-16T12:29:03Z</time>
      </trkpt>
      <trkpt lat="59.701972617" lon="18.4897305239">
        <ele>73.2</ele>
        <time>2012-09-16T12:29:04Z</time>
      </trkpt>
      <trkpt lat="59.7020407618" lon="18.489782324">
        <ele>73.6</ele>
        <time>2012-09-16T12:29:05Z</time>
      </trkpt>
      <trkpt lat="59.7021130138" lon="18.4898280892">
        <ele>74</ele>
        <time>2012-09-16T12:29:06Z</time>
      </trkpt>
      <trkpt lat="59.7021890377" lon="18.4898677356">
        <ele>74.6</ele>
        <time>2012-09-16T12:29:07Z</time>
      </trkpt>
      <trkpt lat="59.7022652291" lon="18.489903191">
        <ele>75</ele>
        <time>2012-09-16T12:29:08Z</time>
      </trkpt>
      <trkpt lat="59.7023462821" lon="18.4899326115">
        <ele>75</ele>
        <time>2012-09-16T12:29:09Z</time>
      </trkpt>
      <trkpt lat="59.7027593421" lon="18.4899818132">
        <ele>75</ele>
        <time>2012-09-16T12:29:14Z</time>
      </trkpt>
      <trkpt lat="59.7032686264" lon="18.4899174402">
        <ele>75</ele>
        <time>2012-09-16T12:29:20Z</time>
      </trkpt>
      <trkpt lat="59.7037334865" lon="18.489843931">
        <ele>75</ele>
        <time>2012-09-16T12:29:26Z</time>
      </trkpt>
      <trkpt lat="59.7040235841" lon="18.4898990839">
        <ele>74.6</ele>
        <time>2012-09-16T12:29:30Z</time>
      </trkpt>
      <trkpt lat="59.7040976801" lon="18.4899274147">
        <ele>74.2</ele>
        <time>2012-09-16T12:29:31Z</time>
      </trkpt>
      <trkpt lat="59.7041707703" lon="18.4899561646">
        <ele>73.8</ele>
        <time>2012-09-16T12:29:32Z</time>
      </trkpt>
      <trkpt lat="59.7042420164" lon="18.4899983256">
        <ele>73.4</ele>
        <time>2012-09-16T12:29:33Z</time>
      </trkpt>
      <trkpt lat="59.7043130949" lon="18.4900485331">
        <ele>73</ele>
        <time>2012-09-16T12:29:34Z</time>
      </trkpt>
      <trkpt lat="59.7045315272" lon="18.4902037659">
        <ele>73</ele>
        <time>2012-09-16T12:29:37Z</time>
      </trkpt>
      <trkpt lat="59.7047462715" lon="18.4904348549">
        <ele>73</ele>
        <time>2012-09-16T12:29:40Z</time>
      </trkpt>
      <trkpt lat="59.7048082138" lon="18.4905136448">
        <ele>73.4</ele>
        <time>2012-09-16T12:29:41Z</time>
      </trkpt>
      <trkpt lat="59.704872" lon="18.4906003136">
        <ele>74</ele>
        <time>2012-09-16T12:29:42Z</time>
      </trkpt>
      <trkpt lat="59.7049342775" lon="18.490689497">
        <ele>74.8</ele>
        <time>2012-09-16T12:29:43Z</time>
      </trkpt>
      <trkpt lat="59.7049943758" lon="18.490784464">
        <ele>75.4</ele>
        <time>2012-09-16T12:29:44Z</time>
      </trkpt>
      <trkpt lat="59.7052243751" lon="18.4911922434">
        <ele>75.4</ele>
        <time>2012-09-16T12:29:48Z</time>
      </trkpt>
      <trkpt lat="59.7056612397" lon="18.4919442675">
        <ele>75.4</ele>
        <time>2012-09-16T12:29:55Z</time>
      </trkpt>
      <trkpt lat="59.705801888" lon="18.4921790445">
        <ele>75</ele>
        <time>2012-09-16T12:29:57Z</time>
      </trkpt>
      <trkpt lat="59.7058738047" lon="18.4922991571">
        <ele>74.4</ele>
        <time>2012-09-16T12:29:58Z</time>
      </trkpt>
      <trkpt lat="59.7059489904" lon="18.4924193536">
        <ele>74</ele>
        <time>2012-09-16T12:29:59Z</time>
      </trkpt>
      <trkpt lat="59.7060257686" lon="18.4925385442">
        <ele>73.6</ele>
        <time>2012-09-16T12:30:00Z</time>
      </trkpt>
      <trkpt lat="59.7061079112" lon="18.4926536277">
        <ele>73.2</ele>
        <time>2012-09-16T12:30:01Z</time>
      </trkpt>
      <trkpt lat="59.7065782196" lon="18.4931646721">
        <ele>73.2</ele>
        <time>2012-09-16T12:30:06Z</time>
      </trkpt>
      <trkpt lat="59.7068998331" lon="18.493407831">
        <ele>72.8</ele>
        <time>2012-09-16T12:30:09Z</time>
      </trkpt>
      <trkpt lat="59.7070123182" lon="18.4934753891">
        <ele>72.2</ele>
        <time>2012-09-16T12:30:10Z</time>
      </trkpt>
      <trkpt lat="59.7071305868" lon="18.4935403489">
        <ele>71.8</ele>
        <time>2012-09-16T12:30:11Z</time>
      </trkpt>
      <trkpt lat="59.7072503641" lon="18.493597262">
        <ele>71.4</ele>
        <time>2012-09-16T12:30:12Z</time>
      </trkpt>
      <trkpt lat="59.7073686328" lon="18.493643111">
        <ele>70.8</ele>
        <time>2012-09-16T12:30:13Z</time>
      </trkpt>
      <trkpt lat="59.7074878234" lon="18.4936782311">
        <ele>70.4</ele>
        <time>2012-09-16T12:30:14Z</time>
      </trkpt>
      <trkpt lat="59.7076091933" lon="18.4936983477">
        <ele>69.8</ele>
        <time>2012-09-16T12:30:15Z</time>
      </trkpt>
      <trkpt lat="59.7077301441" lon="18.4937228228">
        <ele>69.4</ele>
        <time>2012-09-16T12:30:16Z</time>
      </trkpt>
      <trkpt lat="59.7078485804" lon="18.4937367368">
        <ele>68.8</ele>
        <time>2012-09-16T12:30:17Z</time>
      </trkpt>
      <trkpt lat="59.707978416" lon="18.4937299474">
        <ele>68.4</ele>
        <time>2012-09-16T12:30:18Z</time>
      </trkpt>
      <trkpt lat="59.7080949244" lon="18.4937251698">
        <ele>67.8</ele>
        <time>2012-09-16T12:30:19Z</time>
      </trkpt>
      <trkpt lat="59.7082138636" lon="18.4937222361">
        <ele>67.4</ele>
        <time>2012-09-16T12:30:20Z</time>
      </trkpt>
      <trkpt lat="59.7083338924" lon="18.4937096632">
        <ele>67</ele>
        <time>2012-09-16T12:30:21Z</time>
      </trkpt>
      <trkpt lat="59.7084584474" lon="18.4937022034">
        <ele>66.4</ele>
        <time>2012-09-16T12:30:22Z</time>
      </trkpt>
      <trkpt lat="59.7085752911" lon="18.4936897981">
        <ele>66</ele>
        <time>2012-09-16T12:30:23Z</time>
      </trkpt>
      <trkpt lat="59.7090372176" lon="18.4936313763">
        <ele>65.6</ele>
        <time>2012-09-16T12:30:27Z</time>
      </trkpt>
      <trkpt lat="59.7091499541" lon="18.4936029617">
        <ele>65</ele>
        <time>2012-09-16T12:30:28Z</time>
      </trkpt>
      <trkpt lat="59.7092659596" lon="18.4935718648">
        <ele>64.6</ele>
        <time>2012-09-16T12:30:29Z</time>
      </trkpt>
      <trkpt lat="59.70937878" lon="18.4935367446">
        <ele>64</ele>
        <time>2012-09-16T12:30:30Z</time>
      </trkpt>
      <trkpt lat="59.7094962943" lon="18.493499529">
        <ele>63.6</ele>
        <time>2012-09-16T12:30:31Z</time>
      </trkpt>
      <trkpt lat="59.709617748" lon="18.4934403528">
        <ele>63.2</ele>
        <time>2012-09-16T12:30:32Z</time>
      </trkpt>
      <trkpt lat="59.7097343402" lon="18.4933834397">
        <ele>62.6</ele>
        <time>2012-09-16T12:30:33Z</time>
      </trkpt>
      <trkpt lat="59.7098519383" lon="18.4933173903">
        <ele>61.8</ele>
        <time>2012-09-16T12:30:34Z</time>
      </trkpt>
      <trkpt lat="59.7099685305" lon="18.4932511733">
        <ele>61</ele>
        <time>2012-09-16T12:30:35Z</time>
      </trkpt>
      <trkpt lat="59.7100853742" lon="18.4931866327">
        <ele>60</ele>
        <time>2012-09-16T12:30:36Z</time>
      </trkpt>
      <trkpt lat="59.7102059059" lon="18.4931231817">
        <ele>58.8</ele>
        <time>2012-09-16T12:30:37Z</time>
      </trkpt>
      <trkpt lat="59.7103232525" lon="18.4930573838">
        <ele>57.8</ele>
        <time>2012-09-16T12:30:38Z</time>
      </trkpt>
      <trkpt lat="59.7104442871" lon="18.4929915021">
        <ele>56.6</ele>
        <time>2012-09-16T12:30:39Z</time>
      </trkpt>
      <trkpt lat="59.710568926" lon="18.4929173222">
        <ele>55.8</ele>
        <time>2012-09-16T12:30:40Z</time>
      </trkpt>
      <trkpt lat="59.7106935648" lon="18.4928512729">
        <ele>55</ele>
        <time>2012-09-16T12:30:41Z</time>
      </trkpt>
      <trkpt lat="59.7108094027" lon="18.4927868161">
        <ele>54.4</ele>
        <time>2012-09-16T12:30:42Z</time>
      </trkpt>
      <trkpt lat="59.7109244862" lon="18.492721102">
        <ele>53.6</ele>
        <time>2012-09-16T12:30:43Z</time>
      </trkpt>
      <trkpt lat="59.711034792" lon="18.4926603332">
        <ele>52.8</ele>
        <time>2012-09-16T12:30:44Z</time>
      </trkpt>
      <trkpt lat="59.711352466" lon="18.4924851515">
        <ele>52.8</ele>
        <time>2012-09-16T12:30:47Z</time>
      </trkpt>
      <trkpt lat="59.711449696" lon="18.49243025">
        <ele>52.4</ele>
        <time>2012-09-16T12:30:48Z</time>
      </trkpt>
      <trkpt lat="59.7115434895" lon="18.4923750971">
        <ele>52</ele>
        <time>2012-09-16T12:30:49Z</time>
      </trkpt>
      <trkpt lat="59.7116359419" lon="18.4923202795">
        <ele>51.6</ele>
        <time>2012-09-16T12:30:50Z</time>
      </trkpt>
      <trkpt lat="59.7117228622" lon="18.4922717483">
        <ele>51</ele>
        <time>2012-09-16T12:30:51Z</time>
      </trkpt>
      <trkpt lat="59.7118122132" lon="18.4922220436">
        <ele>50.6</ele>
        <time>2012-09-16T12:30:52Z</time>
      </trkpt>
      <trkpt lat="59.7118940206" lon="18.4921756917">
        <ele>50.6</ele>
        <time>2012-09-16T12:30:53Z</time>
      </trkpt>
      <trkpt lat="59.7120674421" lon="18.4920712533">
        <ele>50.2</ele>
        <time>2012-09-16T12:30:55Z</time>
      </trkpt>
      <trkpt lat="59.7121556197" lon="18.4920192017">
        <ele>49.8</ele>
        <time>2012-09-16T12:30:56Z</time>
      </trkpt>
      <trkpt lat="59.7122443002" lon="18.4919714248">
        <ele>49.6</ele>
        <time>2012-09-16T12:30:57Z</time>
      </trkpt>
      <trkpt lat="59.7123303823" lon="18.4919241509">
        <ele>49.8</ele>
        <time>2012-09-16T12:30:58Z</time>
      </trkpt>
      <trkpt lat="59.71241571" lon="18.4918763741">
        <ele>50.2</ele>
        <time>2012-09-16T12:30:59Z</time>
      </trkpt>
      <trkpt lat="59.7124998643" lon="18.4918317824">
        <ele>50.4</ele>
        <time>2012-09-16T12:31:00Z</time>
      </trkpt>
      <trkpt lat="59.7125821746" lon="18.4917803175">
        <ele>50.8</ele>
        <time>2012-09-16T12:31:01Z</time>
      </trkpt>
      <trkpt lat="59.7127518242" lon="18.4916867755">
        <ele>50.8</ele>
        <time>2012-09-16T12:31:03Z</time>
      </trkpt>
      <trkpt lat="59.7133205361" lon="18.4913800818">
        <ele>50.8</ele>
        <time>2012-09-16T12:31:10Z</time>
      </trkpt>
      <trkpt lat="59.7134040199" lon="18.4913283655">
        <ele>50.8</ele>
        <time>2012-09-16T12:31:11Z</time>
      </trkpt>
      <trkpt lat="59.7139664453" lon="18.4910186543">
        <ele>50.8</ele>
        <time>2012-09-16T12:31:18Z</time>
      </trkpt>
      <trkpt lat="59.7141186606" lon="18.4909361764">
        <ele>50.8</ele>
        <time>2012-09-16T12:31:20Z</time>
      </trkpt>
      <trkpt lat="59.7145402702" lon="18.4907053388">
        <ele>50.8</ele>
        <time>2012-09-16T12:31:26Z</time>
      </trkpt>
      <trkpt lat="59.714791811" lon="18.4905542132">
        <ele>50.4</ele>
        <time>2012-09-16T12:31:30Z</time>
      </trkpt>
      <trkpt lat="59.7148612132" lon="18.4905270558">
        <ele>49.8</ele>
        <time>2012-09-16T12:31:31Z</time>
      </trkpt>
      <trkpt lat="59.7149315373" lon="18.4904931091">
        <ele>49.4</ele>
        <time>2012-09-16T12:31:32Z</time>
      </trkpt>
      <trkpt lat="59.7150011071" lon="18.4904523731">
        <ele>49</ele>
        <time>2012-09-16T12:31:33Z</time>
      </trkpt>
      <trkpt lat="59.7150690005" lon="18.4904163309">
        <ele>48.4</ele>
        <time>2012-09-16T12:31:34Z</time>
      </trkpt>
      <trkpt lat="59.7153404064" lon="18.4902834778">
        <ele>48.4</ele>
        <time>2012-09-16T12:31:38Z</time>
      </trkpt>
      <trkpt lat="59.7154103953" lon="18.4902482738">
        <ele>49</ele>
        <time>2012-09-16T12:31:39Z</time>
      </trkpt>
      <trkpt lat="59.7154787077" lon="18.4902126507">
        <ele>49.4</ele>
        <time>2012-09-16T12:31:40Z</time>
      </trkpt>
      <trkpt lat="59.7155506244" lon="18.4901802128">
        <ele>49.8</ele>
        <time>2012-09-16T12:31:41Z</time>
      </trkpt>
      <trkpt lat="59.7156160033" lon="18.4901463499">
        <ele>50.2</ele>
        <time>2012-09-16T12:31:42Z</time>
      </trkpt>
      <trkpt lat="59.7156797895" lon="18.4901102239">
        <ele>50.6</ele>
        <time>2012-09-16T12:31:43Z</time>
      </trkpt>
      <trkpt lat="59.7158105472" lon="18.4900408218">
        <ele>50.6</ele>
        <time>2012-09-16T12:31:45Z</time>
      </trkpt>
      <trkpt lat="59.7164069193" lon="18.4897388219">
        <ele>50.6</ele>
        <time>2012-09-16T12:31:54Z</time>
      </trkpt>
      <trkpt lat="59.7164808477" lon="18.4896990079">
        <ele>50.6</ele>
        <time>2012-09-16T12:31:55Z</time>
      </trkpt>
      <trkpt lat="59.7167790757" lon="18.4895586111">
        <ele>51</ele>
        <time>2012-09-16T12:31:59Z</time>
      </trkpt>
      <trkpt lat="59.7168512439" lon="18.4895240777">
        <ele>51.4</ele>
        <time>2012-09-16T12:32:00Z</time>
      </trkpt>
      <trkpt lat="59.7169329674" lon="18.4894836769">
        <ele>51.8</ele>
        <time>2012-09-16T12:32:01Z</time>
      </trkpt>
      <trkpt lat="59.7170153615" lon="18.4894444496">
        <ele>52.2</ele>
        <time>2012-09-16T12:32:02Z</time>
      </trkpt>
      <trkpt lat="59.7171067242" lon="18.4893986844">
        <ele>52.6</ele>
        <time>2012-09-16T12:32:03Z</time>
      </trkpt>
      <trkpt lat="59.7174855861" lon="18.4892196471">
        <ele>52.6</ele>
        <time>2012-09-16T12:32:07Z</time>
      </trkpt>
      <trkpt lat="59.7175830676" lon="18.4891742172">
        <ele>52.2</ele>
        <time>2012-09-16T12:32:08Z</time>
      </trkpt>
      <trkpt lat="59.7176823092" lon="18.489128452">
        <ele>51.8</ele>
        <time>2012-09-16T12:32:09Z</time>
      </trkpt>
      <trkpt lat="59.7177829759" lon="18.4890827706">
        <ele>51.4</ele>
        <time>2012-09-16T12:32:10Z</time>
      </trkpt>
      <trkpt lat="59.7178829719" lon="18.4890266119">
        <ele>50.4</ele>
        <time>2012-09-16T12:32:11Z</time>
      </trkpt>
      <trkpt lat="59.7181620054" lon="18.4888866342">
        <ele>50</ele>
        <time>2012-09-16T12:32:14Z</time>
      </trkpt>
      <trkpt lat="59.7182490933" lon="18.4888394441">
        <ele>49.6</ele>
        <time>2012-09-16T12:32:15Z</time>
      </trkpt>
      <trkpt lat="59.7183362651" lon="18.4887900747">
        <ele>49.2</ele>
        <time>2012-09-16T12:32:16Z</time>
      </trkpt>
      <trkpt lat="59.7184158931" lon="18.4887443095">
        <ele>48.6</ele>
        <time>2012-09-16T12:32:17Z</time>
      </trkpt>
      <trkpt lat="59.7184960241" lon="18.4886991311">
        <ele>48.2</ele>
        <time>2012-09-16T12:32:18Z</time>
      </trkpt>
      <trkpt lat="59.7185760712" lon="18.4886513542">
        <ele>48.2</ele>
        <time>2012-09-16T12:32:19Z</time>
      </trkpt>
      <trkpt lat="59.7190151152" lon="18.4882564829">
        <ele>48.2</ele>
        <time>2012-09-16T12:32:25Z</time>
      </trkpt>
      <trkpt lat="59.719419458" lon="18.4877574246">
        <ele>48.2</ele>
        <time>2012-09-16T12:32:31Z</time>
      </trkpt>
      <trkpt lat="59.7197875073" lon="18.4872872838">
        <ele>48.2</ele>
        <time>2012-09-16T12:32:37Z</time>
      </trkpt>
      <trkpt lat="59.7201037563" lon="18.4869239285">
        <ele>48.2</ele>
        <time>2012-09-16T12:32:43Z</time>
      </trkpt>
      <trkpt lat="59.720239124" lon="18.4867676898">
        <ele>48.2</ele>
        <time>2012-09-16T12:32:46Z</time>
      </trkpt>
      <trkpt lat="59.7203593205" lon="18.48661757">
        <ele>48.2</ele>
        <time>2012-09-16T12:32:49Z</time>
      </trkpt>
      <trkpt lat="59.720525785" lon="18.4864246187">
        <ele>48.6</ele>
        <time>2012-09-16T12:32:53Z</time>
      </trkpt>
      <trkpt lat="59.7205691194" lon="18.486375836">
        <ele>49</ele>
        <time>2012-09-16T12:32:54Z</time>
      </trkpt>
      <trkpt lat="59.7206142979" lon="18.4863296518">
        <ele>49.4</ele>
        <time>2012-09-16T12:32:55Z</time>
      </trkpt>
      <trkpt lat="59.7206592249" lon="18.4862835513">
        <ele>49.8</ele>
        <time>2012-09-16T12:32:56Z</time>
      </trkpt>
      <trkpt lat="59.7207059959" lon="18.4862347686">
        <ele>50.4</ele>
        <time>2012-09-16T12:32:57Z</time>
      </trkpt>
      <trkpt lat="59.7208713707" lon="18.4860704834">
        <ele>51.2</ele>
        <time>2012-09-16T12:33:01Z</time>
      </trkpt>
      <trkpt lat="59.7209088378" lon="18.4860355309">
        <ele>51.6</ele>
        <time>2012-09-16T12:33:02Z</time>
      </trkpt>
      <trkpt lat="59.7209477299" lon="18.485995633">
        <ele>52</ele>
        <time>2012-09-16T12:33:03Z</time>
      </trkpt>
      <trkpt lat="59.7209913996" lon="18.4859572439">
        <ele>52.4</ele>
        <time>2012-09-16T12:33:04Z</time>
      </trkpt>
      <trkpt lat="59.7210804991" lon="18.4858953017">
        <ele>52.4</ele>
        <time>2012-09-16T12:33:06Z</time>
      </trkpt>
      <trkpt lat="59.7211294494" lon="18.4858663841">
        <ele>52.4</ele>
        <time>2012-09-16T12:33:07Z</time>
      </trkpt>
      <trkpt lat="59.7212250031" lon="18.4858146678">
        <ele>52.8</ele>
        <time>2012-09-16T12:33:09Z</time>
      </trkpt>
      <trkpt lat="59.7212742887" lon="18.4857886001">
        <ele>53.2</ele>
        <time>2012-09-16T12:33:10Z</time>
      </trkpt>
      <trkpt lat="59.7213247477" lon="18.4857649632">
        <ele>53.6</ele>
        <time>2012-09-16T12:33:11Z</time>
      </trkpt>
      <trkpt lat="59.7213780566" lon="18.4857445113">
        <ele>54</ele>
        <time>2012-09-16T12:33:12Z</time>
      </trkpt>
      <trkpt lat="59.7214296891" lon="18.485726155">
        <ele>54.4</ele>
        <time>2012-09-16T12:33:13Z</time>
      </trkpt>
      <trkpt lat="59.721528847" lon="18.4856919568">
        <ele>54.4</ele>
        <time>2012-09-16T12:33:15Z</time>
      </trkpt>
      <trkpt lat="59.7218245604" lon="18.4855887756">
        <ele>54.8</ele>
        <time>2012-09-16T12:33:21Z</time>
      </trkpt>
      <trkpt lat="59.7218716667" lon="18.4855782144">
        <ele>55.2</ele>
        <time>2012-09-16T12:33:22Z</time>
      </trkpt>
      <trkpt lat="59.7219181862" lon="18.4855653901">
        <ele>55.8</ele>
        <time>2012-09-16T12:33:23Z</time>
      </trkpt>
      <trkpt lat="59.7219662983" lon="18.4855468661">
        <ele>56.2</ele>
        <time>2012-09-16T12:33:24Z</time>
      </trkpt>
      <trkpt lat="59.7220172603" lon="18.4855247379">
        <ele>56.6</ele>
        <time>2012-09-16T12:33:25Z</time>
      </trkpt>
      <trkpt lat="59.7221213635" lon="18.485486265">
        <ele>56.6</ele>
        <time>2012-09-16T12:33:27Z</time>
      </trkpt>
      <trkpt lat="59.7222684658" lon="18.4854428467">
        <ele>57</ele>
        <time>2012-09-16T12:33:30Z</time>
      </trkpt>
      <trkpt lat="59.7223210203" lon="18.485428849">
        <ele>57.4</ele>
        <time>2012-09-16T12:33:31Z</time>
      </trkpt>
      <trkpt lat="59.7223720661" lon="18.4854090677">
        <ele>57.8</ele>
        <time>2012-09-16T12:33:32Z</time>
      </trkpt>
      <trkpt lat="59.7224233633" lon="18.4853897055">
        <ele>58.2</ele>
        <time>2012-09-16T12:33:33Z</time>
      </trkpt>
      <trkpt lat="59.7224778457" lon="18.485374199">
        <ele>58.6</ele>
        <time>2012-09-16T12:33:34Z</time>
      </trkpt>
      <trkpt lat="59.7227487487" lon="18.4852870272">
        <ele>58.6</ele>
        <time>2012-09-16T12:33:39Z</time>
      </trkpt>
      <trkpt lat="59.7228493315" lon="18.4852325449">
        <ele>58.6</ele>
        <time>2012-09-16T12:33:41Z</time>
      </trkpt>
      <trkpt lat="59.7230400197" lon="18.4851885399">
        <ele>58.6</ele>
        <time>2012-09-16T12:33:44Z</time>
      </trkpt>
      <trkpt lat="59.7234107512" lon="18.485103296">
        <ele>58.6</ele>
        <time>2012-09-16T12:33:49Z</time>
      </trkpt>
      <trkpt lat="59.7239279144" lon="18.4849614742">
        <ele>58.6</ele>
        <time>2012-09-16T12:33:55Z</time>
      </trkpt>
      <trkpt lat="59.7243035912" lon="18.4848713688">
        <ele>58.2</ele>
        <time>2012-09-16T12:33:59Z</time>
      </trkpt>
      <trkpt lat="59.7244000668" lon="18.4848493244">
        <ele>57.6</ele>
        <time>2012-09-16T12:34:00Z</time>
      </trkpt>
      <trkpt lat="59.7244970454" lon="18.4848278667">
        <ele>57.2</ele>
        <time>2012-09-16T12:34:01Z</time>
      </trkpt>
      <trkpt lat="59.7245947784" lon="18.4848004579">
        <ele>56.8</ele>
        <time>2012-09-16T12:34:02Z</time>
      </trkpt>
      <trkpt lat="59.7246931819" lon="18.4847712889">
        <ele>56.4</ele>
        <time>2012-09-16T12:34:03Z</time>
      </trkpt>
      <trkpt lat="59.7247931779" lon="18.4847411141">
        <ele>56</ele>
        <time>2012-09-16T12:34:04Z</time>
      </trkpt>
      <trkpt lat="59.7248987061" lon="18.4847126994">
        <ele>55.4</ele>
        <time>2012-09-16T12:34:05Z</time>
      </trkpt>
      <trkpt lat="59.7249981154" lon="18.484690655">
        <ele>55</ele>
        <time>2012-09-16T12:34:06Z</time>
      </trkpt>
      <trkpt lat="59.7250988658" lon="18.4846662637">
        <ele>54.6</ele>
        <time>2012-09-16T12:34:07Z</time>
      </trkpt>
      <trkpt lat="59.7251981913" lon="18.4846443869">
        <ele>54.2</ele>
        <time>2012-09-16T12:34:08Z</time>
      </trkpt>
      <trkpt lat="59.7252966787" lon="18.4846232646">
        <ele>54.2</ele>
        <time>2012-09-16T12:34:09Z</time>
      </trkpt>
      <trkpt lat="59.7255795678" lon="18.484554533">
        <ele>53.6</ele>
        <time>2012-09-16T12:34:12Z</time>
      </trkpt>
      <trkpt lat="59.7256705952" lon="18.4845297225">
        <ele>53.2</ele>
        <time>2012-09-16T12:34:13Z</time>
      </trkpt>
      <trkpt lat="59.725760533" lon="18.4845042416">
        <ele>52.8</ele>
        <time>2012-09-16T12:34:14Z</time>
      </trkpt>
      <trkpt lat="59.7258491297" lon="18.4844746535">
        <ele>51.8</ele>
        <time>2012-09-16T12:34:15Z</time>
      </trkpt>
      <trkpt lat="59.7259359662" lon="18.4844492563">
        <ele>51.8</ele>
        <time>2012-09-16T12:34:16Z</time>
      </trkpt>
      <trkpt lat="59.7261811368" lon="18.4844182433">
        <ele>52.2</ele>
        <time>2012-09-16T12:34:19Z</time>
      </trkpt>
      <trkpt lat="59.7262563224" lon="18.4844458197">
        <ele>52.6</ele>
        <time>2012-09-16T12:34:20Z</time>
      </trkpt>
      <trkpt lat="59.7263290773" lon="18.4845070076">
        <ele>53</ele>
        <time>2012-09-16T12:34:21Z</time>
      </trkpt>
      <trkpt lat="59.7263890079" lon="18.4845954366">
        <ele>53.6</ele>
        <time>2012-09-16T12:34:22Z</time>
      </trkpt>
      <trkpt lat="59.726439886" lon="18.4847005457">
        <ele>53.2</ele>
        <time>2012-09-16T12:34:23Z</time>
      </trkpt>
      <trkpt lat="59.7264828013" lon="18.484820323">
        <ele>52.8</ele>
        <time>2012-09-16T12:34:24Z</time>
      </trkpt>
      <trkpt lat="59.7265185082" lon="18.4849483985">
        <ele>52.4</ele>
        <time>2012-09-16T12:34:25Z</time>
      </trkpt>
      <trkpt lat="59.7265536284" lon="18.4850797428">
        <ele>52</ele>
        <time>2012-09-16T12:34:26Z</time>
      </trkpt>
      <trkpt lat="59.7265854796" lon="18.4852055551">
        <ele>51.4</ele>
        <time>2012-09-16T12:34:27Z</time>
      </trkpt>
      <trkpt lat="59.7267720607" lon="18.4859263985">
        <ele>51.4</ele>
        <time>2012-09-16T12:34:33Z</time>
      </trkpt>
      <trkpt lat="59.7269267906" lon="18.4865055878">
        <ele>51.4</ele>
        <time>2012-09-16T12:34:38Z</time>
      </trkpt>
      <trkpt lat="59.7269558758" lon="18.4866215933">
        <ele>51.4</ele>
        <time>2012-09-16T12:34:39Z</time>
      </trkpt>
      <trkpt lat="59.7269884814" lon="18.486737515">
        <ele>52.4</ele>
        <time>2012-09-16T12:34:40Z</time>
      </trkpt>
      <trkpt lat="59.727022009" lon="18.4868544425">
        <ele>52.8</ele>
        <time>2012-09-16T12:34:41Z</time>
      </trkpt>
      <trkpt lat="59.7270562909" lon="18.4869677658">
        <ele>53.2</ele>
        <time>2012-09-16T12:34:42Z</time>
      </trkpt>
      <trkpt lat="59.7270913273" lon="18.4870836875">
        <ele>53.6</ele>
        <time>2012-09-16T12:34:43Z</time>
      </trkpt>
      <trkpt lat="59.7271232623" lon="18.4872062309">
        <ele>53.6</ele>
        <time>2012-09-16T12:34:44Z</time>
      </trkpt>
      <trkpt lat="59.7271549459" lon="18.4873246671">
        <ele>54</ele>
        <time>2012-09-16T12:34:45Z</time>
      </trkpt>
      <trkpt lat="59.7271846178" lon="18.4874363978">
        <ele>54.4</ele>
        <time>2012-09-16T12:34:46Z</time>
      </trkpt>
      <trkpt lat="59.7272157147" lon="18.4875491344">
        <ele>54.8</ele>
        <time>2012-09-16T12:34:47Z</time>
      </trkpt>
      <trkpt lat="59.7272482364" lon="18.4876563389">
        <ele>55.2</ele>
        <time>2012-09-16T12:34:48Z</time>
      </trkpt>
      <trkpt lat="59.7272783275" lon="18.4877632919">
        <ele>55.6</ele>
        <time>2012-09-16T12:34:49Z</time>
      </trkpt>
      <trkpt lat="59.7273088376" lon="18.4878751065">
        <ele>55.6</ele>
        <time>2012-09-16T12:34:50Z</time>
      </trkpt>
      <trkpt lat="59.7275199776" lon="18.4886718061">
        <ele>55.6</ele>
        <time>2012-09-16T12:34:57Z</time>
      </trkpt>
      <trkpt lat="59.7277286031" lon="18.4895885345">
        <ele>55.6</ele>
        <time>2012-09-16T12:35:04Z</time>
      </trkpt>
      <trkpt lat="59.7278508951" lon="18.4904935282">
        <ele>55.6</ele>
        <time>2012-09-16T12:35:10Z</time>
      </trkpt>
      <trkpt lat="59.7279748634" lon="18.4911222545">
        <ele>55.6</ele>
        <time>2012-09-16T12:35:14Z</time>
      </trkpt>
      <trkpt lat="59.7281172718" lon="18.4915566884">
        <ele>55.2</ele>
        <time>2012-09-16T12:35:17Z</time>
      </trkpt>
      <trkpt lat="59.7281661383" lon="18.4916866079">
        <ele>54.8</ele>
        <time>2012-09-16T12:35:18Z</time>
      </trkpt>
      <trkpt lat="59.7282185252" lon="18.4918079778">
        <ele>54.4</ele>
        <time>2012-09-16T12:35:19Z</time>
      </trkpt>
      <trkpt lat="59.7282746001" lon="18.4919244024">
        <ele>54</ele>
        <time>2012-09-16T12:35:20Z</time>
      </trkpt>
      <trkpt lat="59.7283351174" lon="18.4920437606">
        <ele>53.6</ele>
        <time>2012-09-16T12:35:21Z</time>
      </trkpt>
      <trkpt lat="59.728588167" lon="18.4925004065">
        <ele>53</ele>
        <time>2012-09-16T12:35:25Z</time>
      </trkpt>
      <trkpt lat="59.7286501092" lon="18.4926181722">
        <ele>52.6</ele>
        <time>2012-09-16T12:35:26Z</time>
      </trkpt>
      <trkpt lat="59.7287103751" lon="18.4927376143">
        <ele>52.2</ele>
        <time>2012-09-16T12:35:27Z</time>
      </trkpt>
      <trkpt lat="59.7287677911" lon="18.4928604091">
        <ele>51.8</ele>
        <time>2012-09-16T12:35:28Z</time>
      </trkpt>
      <trkpt lat="59.7288245366" lon="18.4929883169">
        <ele>51.2</ele>
        <time>2012-09-16T12:35:29Z</time>
      </trkpt>
      <trkpt lat="59.7289205931" lon="18.4932088447">
        <ele>51.2</ele>
        <time>2012-09-16T12:35:31Z</time>
      </trkpt>
      <trkpt lat="59.7290847107" lon="18.4935080786">
        <ele>51.2</ele>
        <time>2012-09-16T12:35:34Z</time>
      </trkpt>
      <trkpt lat="59.7291489161" lon="18.4935876228">
        <ele>51.2</ele>
        <time>2012-09-16T12:35:35Z</time>
      </trkpt>
      <trkpt lat="59.7293722937" lon="18.4937130998">
        <ele>51.2</ele>
        <time>2012-09-16T12:35:38Z</time>
      </trkpt>
      <trkpt lat="59.7296074898" lon="18.493666245">
        <ele>51.6</ele>
        <time>2012-09-16T12:35:41Z</time>
      </trkpt>
      <trkpt lat="59.7296820049" lon="18.4936190549">
        <ele>52.2</ele>
        <time>2012-09-16T12:35:42Z</time>
      </trkpt>
      <trkpt lat="59.7297586155" lon="18.4935576994">
        <ele>52.6</ele>
        <time>2012-09-16T12:35:43Z</time>
      </trkpt>
      <trkpt lat="59.7298273471" lon="18.4934876267">
        <ele>53</ele>
        <time>2012-09-16T12:35:44Z</time>
      </trkpt>
      <trkpt lat="59.7298954081" lon="18.4934093398">
        <ele>53.4</ele>
        <time>2012-09-16T12:35:45Z</time>
      </trkpt>
      <trkpt lat="59.7299581047" lon="18.4933255208">
        <ele>53.4</ele>
        <time>2012-09-16T12:35:46Z</time>
      </trkpt>
      <trkpt lat="59.7300669856" lon="18.4931481598">
        <ele>53.8</ele>
        <time>2012-09-16T12:35:48Z</time>
      </trkpt>
      <trkpt lat="59.7301173608" lon="18.4930592278">
        <ele>54.4</ele>
        <time>2012-09-16T12:35:49Z</time>
      </trkpt>
      <trkpt lat="59.7301683228" lon="18.4929741515">
        <ele>54.8</ele>
        <time>2012-09-16T12:35:50Z</time>
      </trkpt>
      <trkpt lat="59.7302193685" lon="18.4928894105">
        <ele>55.2</ele>
        <time>2012-09-16T12:35:51Z</time>
      </trkpt>
      <trkpt lat="59.7302712525" lon="18.4928000595">
        <ele>55.8</ele>
        <time>2012-09-16T12:35:52Z</time>
      </trkpt>
      <trkpt lat="59.7305669659" lon="18.4924268973">
        <ele>55.8</ele>
        <time>2012-09-16T12:35:57Z</time>
      </trkpt>
      <trkpt lat="59.7308666189" lon="18.4922329401">
        <ele>55.8</ele>
        <time>2012-09-16T12:36:01Z</time>
      </trkpt>
      <trkpt lat="59.730949432" lon="18.4922088002">
        <ele>55.8</ele>
        <time>2012-09-16T12:36:02Z</time>
      </trkpt>
      <trkpt lat="59.7311995479" lon="18.4922415735">
        <ele>55.8</ele>
        <time>2012-09-16T12:36:05Z</time>
      </trkpt>
      <trkpt lat="59.7312811876" lon="18.4922769451">
        <ele>55.8</ele>
        <time>2012-09-16T12:36:06Z</time>
      </trkpt>
      <trkpt lat="59.7317225785" lon="18.4925692219">
        <ele>55.8</ele>
        <time>2012-09-16T12:36:12Z</time>
      </trkpt>
      <trkpt lat="59.7317977641" lon="18.4926017437">
        <ele>55.8</ele>
        <time>2012-09-16T12:36:13Z</time>
      </trkpt>
      <trkpt lat="59.7321100737" lon="18.4926413901">
        <ele>55.8</ele>
        <time>2012-09-16T12:36:17Z</time>
      </trkpt>
      <trkpt lat="59.7326238004" lon="18.492606689">
        <ele>55.8</ele>
        <time>2012-09-16T12:36:23Z</time>
      </trkpt>
      <trkpt lat="59.7327998203" lon="18.4926128916">
        <ele>55.4</ele>
        <time>2012-09-16T12:36:25Z</time>
      </trkpt>
      <trkpt lat="59.7328856509" lon="18.4926210221">
        <ele>55</ele>
        <time>2012-09-16T12:36:26Z</time>
      </trkpt>
      <trkpt lat="59.7329703919" lon="18.4926353551">
        <ele>54.4</ele>
        <time>2012-09-16T12:36:27Z</time>
      </trkpt>
      <trkpt lat="59.7330542948" lon="18.4926569804">
        <ele>54</ele>
        <time>2012-09-16T12:36:28Z</time>
      </trkpt>
      <trkpt lat="59.733141718" lon="18.4926853951">
        <ele>53.6</ele>
        <time>2012-09-16T12:36:29Z</time>
      </trkpt>
      <trkpt lat="59.7335365893" lon="18.4928840461">
        <ele>53.6</ele>
        <time>2012-09-16T12:36:34Z</time>
      </trkpt>
      <trkpt lat="59.7339921455" lon="18.4933252693">
        <ele>53.6</ele>
        <time>2012-09-16T12:36:40Z</time>
      </trkpt>
      <trkpt lat="59.7341510664" lon="18.4934781552">
        <ele>53.2</ele>
        <time>2012-09-16T12:36:42Z</time>
      </trkpt>
      <trkpt lat="59.7342358912" lon="18.4935452942">
        <ele>52.4</ele>
        <time>2012-09-16T12:36:43Z</time>
      </trkpt>
      <trkpt lat="59.7343247393" lon="18.4936074879">
        <ele>51.8</ele>
        <time>2012-09-16T12:36:44Z</time>
      </trkpt>
      <trkpt lat="59.7344082231" lon="18.4936609644">
        <ele>51.4</ele>
        <time>2012-09-16T12:36:45Z</time>
      </trkpt>
      <trkpt lat="59.734493467" lon="18.4937090765">
        <ele>51</ele>
        <time>2012-09-16T12:36:46Z</time>
      </trkpt>
      <trkpt lat="59.734580052" lon="18.4937460407">
        <ele>50.6</ele>
        <time>2012-09-16T12:36:47Z</time>
      </trkpt>
      <trkpt lat="59.7346702413" lon="18.4937752935">
        <ele>50</ele>
        <time>2012-09-16T12:36:48Z</time>
      </trkpt>
      <trkpt lat="59.7347629451" lon="18.4938004392">
        <ele>49.6</ele>
        <time>2012-09-16T12:36:49Z</time>
      </trkpt>
      <trkpt lat="59.734852799" lon="18.4938200529">
        <ele>49.2</ele>
        <time>2012-09-16T12:36:50Z</time>
      </trkpt>
      <trkpt lat="59.7354257857" lon="18.4939965757">
        <ele>49.2</ele>
        <time>2012-09-16T12:36:56Z</time>
      </trkpt>
      <trkpt lat="59.735521507" lon="18.4940275049">
        <ele>48.8</ele>
        <time>2012-09-16T12:36:57Z</time>
      </trkpt>
      <trkpt lat="59.73561924" lon="18.4940588532">
        <ele>48.4</ele>
        <time>2012-09-16T12:36:58Z</time>
      </trkpt>
      <trkpt lat="59.7357170567" lon="18.4940849209">
        <ele>48</ele>
        <time>2012-09-16T12:36:59Z</time>
      </trkpt>
      <trkpt lat="59.7358207408" lon="18.4941085579">
        <ele>47.6</ele>
        <time>2012-09-16T12:37:00Z</time>
      </trkpt>
      <trkpt lat="59.7359178871" lon="18.4941306023">
        <ele>47.2</ele>
        <time>2012-09-16T12:37:01Z</time>
      </trkpt>
      <trkpt lat="59.7362000218" lon="18.4942241443">
        <ele>47.2</ele>
        <time>2012-09-16T12:37:04Z</time>
      </trkpt>
      <trkpt lat="59.7362890376" lon="18.4942391479">
        <ele>47.2</ele>
        <time>2012-09-16T12:37:05Z</time>
      </trkpt>
      <trkpt lat="59.7364640517" lon="18.4941953105">
        <ele>47.2</ele>
        <time>2012-09-16T12:37:07Z</time>
      </trkpt>
      <trkpt lat="59.7367266566" lon="18.4940900339">
        <ele>47.2</ele>
        <time>2012-09-16T12:37:11Z</time>
      </trkpt>
      <trkpt lat="59.7367729247" lon="18.4940741083">
        <ele>47.6</ele>
        <time>2012-09-16T12:37:12Z</time>
      </trkpt>
      <trkpt lat="59.7368137445" lon="18.4940484596">
        <ele>48</ele>
        <time>2012-09-16T12:37:13Z</time>
      </trkpt>
      <trkpt lat="59.7368497867" lon="18.4939942288">
        <ele>48.4</ele>
        <time>2012-09-16T12:37:14Z</time>
      </trkpt>
      <trkpt lat="59.7368855774" lon="18.4939173667">
        <ele>48.8</ele>
        <time>2012-09-16T12:37:15Z</time>
      </trkpt>
      <trkpt lat="59.7369197756" lon="18.4938212263">
        <ele>49.2</ele>
        <time>2012-09-16T12:37:16Z</time>
      </trkpt>
      <trkpt lat="59.7369458433" lon="18.493713016">
        <ele>49.2</ele>
        <time>2012-09-16T12:37:17Z</time>
      </trkpt>
      <trkpt lat="59.7369909379" lon="18.49336106">
        <ele>49.2</ele>
        <time>2012-09-16T12:37:20Z</time>
      </trkpt>
      <trkpt lat="59.7370036784" lon="18.4932461442">
        <ele>49.2</ele>
        <time>2012-09-16T12:37:21Z</time>
      </trkpt>
      <trkpt lat="59.7370313387" lon="18.4930213416">
        <ele>49.6</ele>
        <time>2012-09-16T12:37:23Z</time>
      </trkpt>
      <trkpt lat="59.7370463423" lon="18.4929171546">
        <ele>50</ele>
        <time>2012-09-16T12:37:24Z</time>
      </trkpt>
      <trkpt lat="59.7370610106" lon="18.4928148954">
        <ele>50.4</ele>
        <time>2012-09-16T12:37:25Z</time>
      </trkpt>
      <trkpt lat="59.7370739187" lon="18.4927154023">
        <ele>50.8</ele>
        <time>2012-09-16T12:37:26Z</time>
      </trkpt>
      <trkpt lat="59.7370870783" lon="18.4926201001">
        <ele>51.2</ele>
        <time>2012-09-16T12:37:27Z</time>
      </trkpt>
      <trkpt lat="59.7371031715" lon="18.492525217">
        <ele>51.2</ele>
        <time>2012-09-16T12:37:28Z</time>
      </trkpt>
      <trkpt lat="59.7371444943" lon="18.4923420724">
        <ele>51.2</ele>
        <time>2012-09-16T12:37:30Z</time>
      </trkpt>
      <trkpt lat="59.737227978" lon="18.4920098977">
        <ele>51.2</ele>
        <time>2012-09-16T12:37:34Z</time>
      </trkpt>
      <trkpt lat="59.7373256272" lon="18.4916049682">
        <ele>51.8</ele>
        <time>2012-09-16T12:37:39Z</time>
      </trkpt>
      <trkpt lat="59.7373491803" lon="18.4915240828">
        <ele>52.2</ele>
        <time>2012-09-16T12:37:40Z</time>
      </trkpt>
      <trkpt lat="59.7373709733" lon="18.4914425269">
        <ele>52.6</ele>
        <time>2012-09-16T12:37:41Z</time>
      </trkpt>
      <trkpt lat="59.7373933529" lon="18.4913607196">
        <ele>53</ele>
        <time>2012-09-16T12:37:42Z</time>
      </trkpt>
      <trkpt lat="59.7374148944" lon="18.4912793313">
        <ele>53.4</ele>
        <time>2012-09-16T12:37:43Z</time>
      </trkpt>
      <trkpt lat="59.7374594861" lon="18.4911088435">
        <ele>53.8</ele>
        <time>2012-09-16T12:37:45Z</time>
      </trkpt>
      <trkpt lat="59.7374813629" lon="18.4910303051">
        <ele>54.2</ele>
        <time>2012-09-16T12:37:46Z</time>
      </trkpt>
      <trkpt lat="59.7375033235" lon="18.4909462346">
        <ele>54.6</ele>
        <time>2012-09-16T12:37:47Z</time>
      </trkpt>
      <trkpt lat="59.7375258708" lon="18.4908600687">
        <ele>55</ele>
        <time>2012-09-16T12:37:48Z</time>
      </trkpt>
      <trkpt lat="59.7375503459" lon="18.4907759982">
        <ele>55.4</ele>
        <time>2012-09-16T12:37:49Z</time>
      </trkpt>
      <trkpt lat="59.7376672734" lon="18.4903534667">
        <ele>55.8</ele>
        <time>2012-09-16T12:37:54Z</time>
      </trkpt>
      <trkpt lat="59.7376894016" lon="18.4902652053">
        <ele>56.2</ele>
        <time>2012-09-16T12:37:55Z</time>
      </trkpt>
      <trkpt lat="59.737719325" lon="18.490180129">
        <ele>56.8</ele>
        <time>2012-09-16T12:37:56Z</time>
      </trkpt>
      <trkpt lat="59.7377500866" lon="18.490102764">
        <ele>57.6</ele>
        <time>2012-09-16T12:37:57Z</time>
      </trkpt>
      <trkpt lat="59.7378046528" lon="18.4899767841">
        <ele>57.6</ele>
        <time>2012-09-16T12:37:59Z</time>
      </trkpt>
      <trkpt lat="59.7378393538" lon="18.4899339526">
        <ele>57.6</ele>
        <time>2012-09-16T12:38:00Z</time>
      </trkpt>
      <trkpt lat="59.7380283657" lon="18.4897691644">
        <ele>57.6</ele>
        <time>2012-09-16T12:38:05Z</time>
      </trkpt>
      <trkpt lat="59.7380610551" lon="18.4897325355">
        <ele>58</ele>
        <time>2012-09-16T12:38:06Z</time>
      </trkpt>
      <trkpt lat="59.7380976002" lon="18.4897019416">
        <ele>58.4</ele>
        <time>2012-09-16T12:38:07Z</time>
      </trkpt>
      <trkpt lat="59.7381364922" lon="18.4896745328">
        <ele>58.8</ele>
        <time>2012-09-16T12:38:08Z</time>
      </trkpt>
      <trkpt lat="59.7381763062" lon="18.4896485489">
        <ele>59.2</ele>
        <time>2012-09-16T12:38:09Z</time>
      </trkpt>
      <trkpt lat="59.7382182995" lon="18.4896151051">
        <ele>59.6</ele>
        <time>2012-09-16T12:38:10Z</time>
      </trkpt>
      <trkpt lat="59.7382629751" lon="18.4895722736">
        <ele>59.6</ele>
        <time>2012-09-16T12:38:11Z</time>
      </trkpt>
      <trkpt lat="59.7385404159" lon="18.4893283603">
        <ele>59.6</ele>
        <time>2012-09-16T12:38:16Z</time>
      </trkpt>
      <trkpt lat="59.7389657135" lon="18.4889319802">
        <ele>59.6</ele>
        <time>2012-09-16T12:38:22Z</time>
      </trkpt>
      <trkpt lat="59.7390314276" lon="18.4888407014">
        <ele>59.6</ele>
        <time>2012-09-16T12:38:23Z</time>
      </trkpt>
      <trkpt lat="59.7391962996" lon="18.4885536213">
        <ele>59.6</ele>
        <time>2012-09-16T12:38:26Z</time>
      </trkpt>
      <trkpt lat="59.7395661929" lon="18.4878181096">
        <ele>59.6</ele>
        <time>2012-09-16T12:38:34Z</time>
      </trkpt>
      <trkpt lat="59.739892165" lon="18.4872450391">
        <ele>60</ele>
        <time>2012-09-16T12:38:41Z</time>
      </trkpt>
      <trkpt lat="59.7399412829" lon="18.4871794088">
        <ele>60.6</ele>
        <time>2012-09-16T12:38:42Z</time>
      </trkpt>
      <trkpt lat="59.7399913228" lon="18.4871123536">
        <ele>61</ele>
        <time>2012-09-16T12:38:43Z</time>
      </trkpt>
      <trkpt lat="59.7400424524" lon="18.4870462204">
        <ele>61.4</ele>
        <time>2012-09-16T12:38:44Z</time>
      </trkpt>
      <trkpt lat="59.7400951746" lon="18.4869849487">
        <ele>61.8</ele>
        <time>2012-09-16T12:38:45Z</time>
      </trkpt>
      <trkpt lat="59.7403138583" lon="18.4867258642">
        <ele>61.8</ele>
        <time>2012-09-16T12:38:49Z</time>
      </trkpt>
      <trkpt lat="59.7407643855" lon="18.4861435736">
        <ele>61.8</ele>
        <time>2012-09-16T12:38:57Z</time>
      </trkpt>
      <trkpt lat="59.7411890963" lon="18.4856940523">
        <ele>61.8</ele>
        <time>2012-09-16T12:39:04Z</time>
      </trkpt>
      <trkpt lat="59.7413481848" lon="18.4856134184">
        <ele>61.8</ele>
        <time>2012-09-16T12:39:06Z</time>
      </trkpt>
      <trkpt lat="59.7415198461" lon="18.4855789688">
        <ele>61.8</ele>
        <time>2012-09-16T12:39:08Z</time>
      </trkpt>
      <trkpt lat="59.7416967042" lon="18.4855697487">
        <ele>61.4</ele>
        <time>2012-09-16T12:39:10Z</time>
      </trkpt>
      <trkpt lat="59.741782954" lon="18.4855783821">
        <ele>60.6</ele>
        <time>2012-09-16T12:39:11Z</time>
      </trkpt>
      <trkpt lat="59.7418693713" lon="18.4855902844">
        <ele>60.2</ele>
        <time>2012-09-16T12:39:12Z</time>
      </trkpt>
      <trkpt lat="59.7419592253" lon="18.4856072996">
        <ele>59.8</ele>
        <time>2012-09-16T12:39:13Z</time>
      </trkpt>
      <trkpt lat="59.7424209842" lon="18.4858561582">
        <ele>59.8</ele>
        <time>2012-09-16T12:39:18Z</time>
      </trkpt>
      <trkpt lat="59.742517376" lon="18.4858690663">
        <ele>59.8</ele>
        <time>2012-09-16T12:39:19Z</time>
      </trkpt>
      <trkpt lat="59.7426141032" lon="18.4858404003">
        <ele>59.8</ele>
        <time>2012-09-16T12:39:20Z</time>
      </trkpt>
      <trkpt lat="59.742706807" lon="18.4857799668">
        <ele>60.2</ele>
        <time>2012-09-16T12:39:21Z</time>
      </trkpt>
      <trkpt lat="59.7427905422" lon="18.4856944714">
        <ele>60.6</ele>
        <time>2012-09-16T12:39:22Z</time>
      </trkpt>
      <trkpt lat="59.7428658116" lon="18.4855995044">
        <ele>61</ele>
        <time>2012-09-16T12:39:23Z</time>
      </trkpt>
      <trkpt lat="59.7429345432" lon="18.4855011009">
        <ele>61.6</ele>
        <time>2012-09-16T12:39:24Z</time>
      </trkpt>
      <trkpt lat="59.7430010955" lon="18.4853949861">
        <ele>62</ele>
        <time>2012-09-16T12:39:25Z</time>
      </trkpt>
      <trkpt lat="59.7431761096" lon="18.485120395">
        <ele>62</ele>
        <time>2012-09-16T12:39:28Z</time>
      </trkpt>
      <trkpt lat="59.7434333501" lon="18.4849113505">
        <ele>62</ele>
        <time>2012-09-16T12:39:32Z</time>
      </trkpt>
      <trkpt lat="59.7434987289" lon="18.4848838578">
        <ele>62</ele>
        <time>2012-09-16T12:39:33Z</time>
      </trkpt>
      <trkpt lat="59.7437732361" lon="18.4848292078">
        <ele>62</ele>
        <time>2012-09-16T12:39:37Z</time>
      </trkpt>
      <trkpt lat="59.7443116894" lon="18.4847637452">
        <ele>62</ele>
        <time>2012-09-16T12:39:45Z</time>
      </trkpt>
      <trkpt lat="59.7444909782" lon="18.484575823">
        <ele>62</ele>
        <time>2012-09-16T12:39:48Z</time>
      </trkpt>
      <trkpt lat="59.7445911419" lon="18.4842428939">
        <ele>62</ele>
        <time>2012-09-16T12:39:51Z</time>
      </trkpt>
      <trkpt lat="59.7446643997" lon="18.4839240465">
        <ele>62.4</ele>
        <time>2012-09-16T12:39:54Z</time>
      </trkpt>
      <trkpt lat="59.7446970053" lon="18.483822374">
        <ele>62.8</ele>
        <time>2012-09-16T12:39:55Z</time>
      </trkpt>
      <trkpt lat="59.7447324607" lon="18.4837380521">
        <ele>63.2</ele>
        <time>2012-09-16T12:39:56Z</time>
      </trkpt>
      <trkpt lat="59.7447713528" lon="18.4836721704">
        <ele>63.8</ele>
        <time>2012-09-16T12:39:57Z</time>
      </trkpt>
      <trkpt lat="59.7448146872" lon="18.4836111501">
        <ele>64.2</ele>
        <time>2012-09-16T12:39:58Z</time>
      </trkpt>
      <trkpt lat="59.7450797229" lon="18.4833579329">
        <ele>64.2</ele>
        <time>2012-09-16T12:40:03Z</time>
      </trkpt>
      <trkpt lat="59.7454165076" lon="18.4831880318">
        <ele>64.2</ele>
        <time>2012-09-16T12:40:08Z</time>
      </trkpt>
      <trkpt lat="59.7458093673" lon="18.4831400873">
        <ele>64.2</ele>
        <time>2012-09-16T12:40:14Z</time>
      </trkpt>
      <trkpt lat="59.7459475848" lon="18.4830996866">
        <ele>64.2</ele>
        <time>2012-09-16T12:40:16Z</time>
      </trkpt>
      <trkpt lat="59.7460751573" lon="18.4829865309">
        <ele>64.2</ele>
        <time>2012-09-16T12:40:18Z</time>
      </trkpt>
      <trkpt lat="59.7461799311" lon="18.4828432004">
        <ele>64.6</ele>
        <time>2012-09-16T12:40:20Z</time>
      </trkpt>
      <trkpt lat="59.7462267859" lon="18.4827564478">
        <ele>65</ele>
        <time>2012-09-16T12:40:21Z</time>
      </trkpt>
      <trkpt lat="59.7462727187" lon="18.4826679349">
        <ele>65.4</ele>
        <time>2012-09-16T12:40:22Z</time>
      </trkpt>
      <trkpt lat="59.7463176457" lon="18.4825733871">
        <ele>65.8</ele>
        <time>2012-09-16T12:40:23Z</time>
      </trkpt>
      <trkpt lat="59.7463588846" lon="18.4824769952">
        <ele>66.2</ele>
        <time>2012-09-16T12:40:24Z</time>
      </trkpt>
      <trkpt lat="59.7465469745" lon="18.481991767">
        <ele>66.2</ele>
        <time>2012-09-16T12:40:29Z</time>
      </trkpt>
      <trkpt lat="59.746769933" lon="18.4811858474">
        <ele>66.2</ele>
        <time>2012-09-16T12:40:37Z</time>
      </trkpt>
      <trkpt lat="59.7467974256" lon="18.4810767988">
        <ele>66.6</ele>
        <time>2012-09-16T12:40:38Z</time>
      </trkpt>
      <trkpt lat="59.7468265946" lon="18.4809741206">
        <ele>67.2</ele>
        <time>2012-09-16T12:40:39Z</time>
      </trkpt>
      <trkpt lat="59.7468553446" lon="18.480863228">
        <ele>67.6</ele>
        <time>2012-09-16T12:40:40Z</time>
      </trkpt>
      <trkpt lat="59.7468830887" lon="18.4807556883">
        <ele>68</ele>
        <time>2012-09-16T12:40:41Z</time>
      </trkpt>
      <trkpt lat="59.7469108327" lon="18.4806476456">
        <ele>68.4</ele>
        <time>2012-09-16T12:40:42Z</time>
      </trkpt>
      <trkpt lat="59.7469386606" lon="18.4805364177">
        <ele>69</ele>
        <time>2012-09-16T12:40:43Z</time>
      </trkpt>
      <trkpt lat="59.7469665724" lon="18.4804252738">
        <ele>69.4</ele>
        <time>2012-09-16T12:40:44Z</time>
      </trkpt>
      <trkpt lat="59.7469962443" lon="18.4803132916">
        <ele>69.8</ele>
        <time>2012-09-16T12:40:45Z</time>
      </trkpt>
      <trkpt lat="59.747029269" lon="18.4802044945">
        <ele>70.2</ele>
        <time>2012-09-16T12:40:46Z</time>
      </trkpt>
      <trkpt lat="59.7470686639" lon="18.4800967033">
        <ele>70.6</ele>
        <time>2012-09-16T12:40:47Z</time>
      </trkpt>
      <trkpt lat="59.7471566739" lon="18.4799251258">
        <ele>70.6</ele>
        <time>2012-09-16T12:40:49Z</time>
      </trkpt>
      <trkpt lat="59.7473009264" lon="18.4797321744">
        <ele>70.6</ele>
        <time>2012-09-16T12:40:52Z</time>
      </trkpt>
      <trkpt lat="59.7474067059" lon="18.4796672985">
        <ele>70.6</ele>
        <time>2012-09-16T12:40:54Z</time>
      </trkpt>
      <trkpt lat="59.7475175147" lon="18.4796425719">
        <ele>70.6</ele>
        <time>2012-09-16T12:40:56Z</time>
      </trkpt>
      <trkpt lat="59.7477014974" lon="18.4796423205">
        <ele>70.6</ele>
        <time>2012-09-16T12:40:59Z</time>
      </trkpt>
      <trkpt lat="59.7479933551" lon="18.4794923683">
        <ele>70.6</ele>
        <time>2012-09-16T12:41:03Z</time>
      </trkpt>
      <trkpt lat="59.7481236099" lon="18.4793423323">
        <ele>70.6</ele>
        <time>2012-09-16T12:41:05Z</time>
      </trkpt>
      <trkpt lat="59.7482391963" lon="18.4791395741">
        <ele>70.6</ele>
        <time>2012-09-16T12:41:07Z</time>
      </trkpt>
      <trkpt lat="59.7486145377" lon="18.4784634062">
        <ele>70.2</ele>
        <time>2012-09-16T12:41:13Z</time>
      </trkpt>
      <trkpt lat="59.7486824311" lon="18.4783464787">
        <ele>69.8</ele>
        <time>2012-09-16T12:41:14Z</time>
      </trkpt>
      <trkpt lat="59.7487511627" lon="18.4782350833">
        <ele>69</ele>
        <time>2012-09-16T12:41:15Z</time>
      </trkpt>
      <trkpt lat="59.7488201457" lon="18.4781250289">
        <ele>68.6</ele>
        <time>2012-09-16T12:41:16Z</time>
      </trkpt>
      <trkpt lat="59.7490451159" lon="18.4778182514">
        <ele>68.2</ele>
        <time>2012-09-16T12:41:19Z</time>
      </trkpt>
      <trkpt lat="59.7491245763" lon="18.4777156569">
        <ele>67.8</ele>
        <time>2012-09-16T12:41:20Z</time>
      </trkpt>
      <trkpt lat="59.749207641" lon="18.4776122243">
        <ele>67.2</ele>
        <time>2012-09-16T12:41:21Z</time>
      </trkpt>
      <trkpt lat="59.7492953157" lon="18.4774999907">
        <ele>66.6</ele>
        <time>2012-09-16T12:41:22Z</time>
      </trkpt>
      <trkpt lat="59.7493841638" lon="18.4773999946">
        <ele>66</ele>
        <time>2012-09-16T12:41:23Z</time>
      </trkpt>
      <trkpt lat="59.7494788793" lon="18.4773032675">
        <ele>65.4</ele>
        <time>2012-09-16T12:41:24Z</time>
      </trkpt>
      <trkpt lat="59.7495859999" lon="18.4772256511">
        <ele>64.8</ele>
        <time>2012-09-16T12:41:25Z</time>
      </trkpt>
      <trkpt lat="59.7496979821" lon="18.4771416644">
        <ele>64.2</ele>
        <time>2012-09-16T12:41:26Z</time>
      </trkpt>
      <trkpt lat="59.7499916839" lon="18.4768199671">
        <ele>64.2</ele>
        <time>2012-09-16T12:41:29Z</time>
      </trkpt>
      <trkpt lat="59.7500814541" lon="18.4766738706">
        <ele>63.6</ele>
        <time>2012-09-16T12:41:30Z</time>
      </trkpt>
      <trkpt lat="59.7501637643" lon="18.4765076575">
        <ele>63</ele>
        <time>2012-09-16T12:41:31Z</time>
      </trkpt>
      <trkpt lat="59.7502430571" lon="18.4763317214">
        <ele>62.2</ele>
        <time>2012-09-16T12:41:32Z</time>
      </trkpt>
      <trkpt lat="59.7503119563" lon="18.4761483255">
        <ele>61.2</ele>
        <time>2012-09-16T12:41:33Z</time>
      </trkpt>
      <trkpt lat="59.7503802688" lon="18.4759588107">
        <ele>60.2</ele>
        <time>2012-09-16T12:41:34Z</time>
      </trkpt>
      <trkpt lat="59.7504442227" lon="18.4757918433">
        <ele>59.4</ele>
        <time>2012-09-16T12:41:35Z</time>
      </trkpt>
      <trkpt lat="59.7505017225" lon="18.4756252111">
        <ele>58.4</ele>
        <time>2012-09-16T12:41:36Z</time>
      </trkpt>
      <trkpt lat="59.7507614776" lon="18.4748709239">
        <ele>58</ele>
        <time>2012-09-16T12:41:41Z</time>
      </trkpt>
      <trkpt lat="59.7508157085" lon="18.474722229">
        <ele>57.4</ele>
        <time>2012-09-16T12:41:42Z</time>
      </trkpt>
      <trkpt lat="59.7508675925" lon="18.4745859393">
        <ele>57</ele>
        <time>2012-09-16T12:41:43Z</time>
      </trkpt>
      <trkpt lat="59.7509191411" lon="18.4744461292">
        <ele>56.4</ele>
        <time>2012-09-16T12:41:44Z</time>
      </trkpt>
      <trkpt lat="59.7509701031" lon="18.4743122703">
        <ele>56</ele>
        <time>2012-09-16T12:41:45Z</time>
      </trkpt>
      <trkpt lat="59.7511185465" lon="18.4739093523">
        <ele>56</ele>
        <time>2012-09-16T12:41:48Z</time>
      </trkpt>
      <trkpt lat="59.751449883" lon="18.4729648798">
        <ele>56</ele>
        <time>2012-09-16T12:41:55Z</time>
      </trkpt>
      <trkpt lat="59.7517849076" lon="18.4720639094">
        <ele>56</ele>
        <time>2012-09-16T12:42:02Z</time>
      </trkpt>
      <trkpt lat="59.75183193" lon="18.4719314754">
        <ele>56</ele>
        <time>2012-09-16T12:42:03Z</time>
      </trkpt>
      <trkpt lat="59.7520934453" lon="18.4711830555">
        <ele>56</ele>
        <time>2012-09-16T12:42:09Z</time>
      </trkpt>
      <trkpt lat="59.7521892504" lon="18.4709709096">
        <ele>56</ele>
        <time>2012-09-16T12:42:11Z</time>
      </trkpt>
      <trkpt lat="59.7523591516" lon="18.4707013477">
        <ele>56</ele>
        <time>2012-09-16T12:42:14Z</time>
      </trkpt>
      <trkpt lat="59.7526842016" lon="18.4703274312">
        <ele>56</ele>
        <time>2012-09-16T12:42:19Z</time>
      </trkpt>
      <trkpt lat="59.7531306216" lon="18.4696847909">
        <ele>56</ele>
        <time>2012-09-16T12:42:26Z</time>
      </trkpt>
      <trkpt lat="59.753418959" lon="18.4694549592">
        <ele>56</ele>
        <time>2012-09-16T12:42:30Z</time>
      </trkpt>
      <trkpt lat="59.7537820629" lon="18.4693029116">
        <ele>56</ele>
        <time>2012-09-16T12:42:35Z</time>
      </trkpt>
      <trkpt lat="59.7542125573" lon="18.4690776061">
        <ele>56</ele>
        <time>2012-09-16T12:42:41Z</time>
      </trkpt>
      <trkpt lat="59.7542782714" lon="18.469004935">
        <ele>56</ele>
        <time>2012-09-16T12:42:42Z</time>
      </trkpt>
      <trkpt lat="59.7544610806" lon="18.4687204533">
        <ele>56</ele>
        <time>2012-09-16T12:42:45Z</time>
      </trkpt>
      <trkpt lat="59.7545662735" lon="18.4684990873">
        <ele>56</ele>
        <time>2012-09-16T12:42:47Z</time>
      </trkpt>
      <trkpt lat="59.7549506674" lon="18.4675738094">
        <ele>56</ele>
        <time>2012-09-16T12:42:55Z</time>
      </trkpt>
      <trkpt lat="59.7549919063" lon="18.467447578">
        <ele>56</ele>
        <time>2012-09-16T12:42:56Z</time>
      </trkpt>
      <trkpt lat="59.7551690159" lon="18.4666485315">
        <ele>56</ele>
        <time>2012-09-16T12:43:02Z</time>
      </trkpt>
      <trkpt lat="59.7553156153" lon="18.4655553641">
        <ele>56</ele>
        <time>2012-09-16T12:43:10Z</time>
      </trkpt>
      <trkpt lat="59.7553700139" lon="18.4647828043">
        <ele>56</ele>
        <time>2012-09-16T12:43:16Z</time>
      </trkpt>
      <trkpt lat="59.7553514899" lon="18.4640229851">
        <ele>56</ele>
        <time>2012-09-16T12:43:22Z</time>
      </trkpt>
      <trkpt lat="59.7552600433" lon="18.4632986213">
        <ele>56</ele>
        <time>2012-09-16T12:43:28Z</time>
      </trkpt>
      <trkpt lat="59.7551408527" lon="18.4624201982">
        <ele>56</ele>
        <time>2012-09-16T12:43:35Z</time>
      </trkpt>
      <trkpt lat="59.7550730431" lon="18.4617878676">
        <ele>56.4</ele>
        <time>2012-09-16T12:43:40Z</time>
      </trkpt>
      <trkpt lat="59.7550663376" lon="18.4616574453">
        <ele>56.8</ele>
        <time>2012-09-16T12:43:41Z</time>
      </trkpt>
      <trkpt lat="59.7550669244" lon="18.4615251789">
        <ele>57.4</ele>
        <time>2012-09-16T12:43:42Z</time>
      </trkpt>
      <trkpt lat="59.7550737975" lon="18.4613920743">
        <ele>57.8</ele>
        <time>2012-09-16T12:43:43Z</time>
      </trkpt>
      <trkpt lat="59.7550863704" lon="18.4612516775">
        <ele>58.2</ele>
        <time>2012-09-16T12:43:44Z</time>
      </trkpt>
      <trkpt lat="59.7551336443" lon="18.4609917548">
        <ele>58.2</ele>
        <time>2012-09-16T12:43:46Z</time>
      </trkpt>
      <trkpt lat="59.7553422698" lon="18.4604610967">
        <ele>58.2</ele>
        <time>2012-09-16T12:43:51Z</time>
      </trkpt>
      <trkpt lat="59.755519044" lon="18.4602532256">
        <ele>58.2</ele>
        <time>2012-09-16T12:43:54Z</time>
      </trkpt>
      <trkpt lat="59.7555814892" lon="18.4602005872">
        <ele>58.2</ele>
        <time>2012-09-16T12:43:55Z</time>
      </trkpt>
      <trkpt lat="59.7556484606" lon="18.4601606056">
        <ele>58.2</ele>
        <time>2012-09-16T12:43:56Z</time>
      </trkpt>
      <trkpt lat="59.7559342834" lon="18.4601344541">
        <ele>58.2</ele>
        <time>2012-09-16T12:44:00Z</time>
      </trkpt>
      <trkpt lat="59.7561445852" lon="18.4602456819">
        <ele>58.2</ele>
        <time>2012-09-16T12:44:03Z</time>
      </trkpt>
      <trkpt lat="59.7562808749" lon="18.4603496174">
        <ele>58.2</ele>
        <time>2012-09-16T12:44:05Z</time>
      </trkpt>
      <trkpt lat="59.75683517" lon="18.4607904215">
        <ele>58.2</ele>
        <time>2012-09-16T12:44:13Z</time>
      </trkpt>
      <trkpt lat="59.7573407662" lon="18.4611904058">
        <ele>58.2</ele>
        <time>2012-09-16T12:44:20Z</time>
      </trkpt>
      <trkpt lat="59.7574857731" lon="18.4613024718">
        <ele>58.2</ele>
        <time>2012-09-16T12:44:22Z</time>
      </trkpt>
      <trkpt lat="59.7579791317" lon="18.4616938227">
        <ele>58.2</ele>
        <time>2012-09-16T12:44:29Z</time>
      </trkpt>
      <trkpt lat="59.7580560775" lon="18.4617529989">
        <ele>58.2</ele>
        <time>2012-09-16T12:44:30Z</time>
      </trkpt>
      <trkpt lat="59.7583583288" lon="18.4619907096">
        <ele>57.8</ele>
        <time>2012-09-16T12:44:34Z</time>
      </trkpt>
      <trkpt lat="59.758438376" lon="18.4620513108">
        <ele>57.4</ele>
        <time>2012-09-16T12:44:35Z</time>
      </trkpt>
      <trkpt lat="59.7585206862" lon="18.4621138397">
        <ele>57</ele>
        <time>2012-09-16T12:44:36Z</time>
      </trkpt>
      <trkpt lat="59.7586072713" lon="18.4621799729">
        <ele>56.6</ele>
        <time>2012-09-16T12:44:37Z</time>
      </trkpt>
      <trkpt lat="59.7586899168" lon="18.4622451841">
        <ele>56.2</ele>
        <time>2012-09-16T12:44:38Z</time>
      </trkpt>
      <trkpt lat="59.7591787492" lon="18.4626251356">
        <ele>56.2</ele>
        <time>2012-09-16T12:44:44Z</time>
      </trkpt>
      <trkpt lat="59.7595569405" lon="18.4628627625">
        <ele>56.2</ele>
        <time>2012-09-16T12:44:49Z</time>
      </trkpt>
      <trkpt lat="59.7599545779" lon="18.4630063445">
        <ele>56.2</ele>
        <time>2012-09-16T12:44:55Z</time>
      </trkpt>
      <trkpt lat="59.7601306816" lon="18.4630568035">
        <ele>56.6</ele>
        <time>2012-09-16T12:44:58Z</time>
      </trkpt>
      <trkpt lat="59.7601876785" lon="18.4630700469">
        <ele>57.2</ele>
        <time>2012-09-16T12:44:59Z</time>
      </trkpt>
      <trkpt lat="59.7602471062" lon="18.4630856372">
        <ele>57.6</ele>
        <time>2012-09-16T12:45:00Z</time>
      </trkpt>
      <trkpt lat="59.7603033487" lon="18.46310567">
        <ele>58.2</ele>
        <time>2012-09-16T12:45:01Z</time>
      </trkpt>
      <trkpt lat="59.7603608486" lon="18.4631282173">
        <ele>58.6</ele>
        <time>2012-09-16T12:45:02Z</time>
      </trkpt>
      <trkpt lat="59.7604179293" lon="18.4631470766">
        <ele>58.6</ele>
        <time>2012-09-16T12:45:03Z</time>
      </trkpt>
      <trkpt lat="59.7608314084" lon="18.4632580529">
        <ele>58.6</ele>
        <time>2012-09-16T12:45:10Z</time>
      </trkpt>
      <trkpt lat="59.7610097753" lon="18.4633084281">
        <ele>59</ele>
        <time>2012-09-16T12:45:13Z</time>
      </trkpt>
      <trkpt lat="59.7610687838" lon="18.4633253596">
        <ele>59.4</ele>
        <time>2012-09-16T12:45:14Z</time>
      </trkpt>
      <trkpt lat="59.7611311452" lon="18.463345979">
        <ele>59.8</ele>
        <time>2012-09-16T12:45:15Z</time>
      </trkpt>
      <trkpt lat="59.7611903214" lon="18.4633646707">
        <ele>60.2</ele>
        <time>2012-09-16T12:45:16Z</time>
      </trkpt>
      <trkpt lat="59.7612489947" lon="18.4633823565">
        <ele>60.8</ele>
        <time>2012-09-16T12:45:17Z</time>
      </trkpt>
      <trkpt lat="59.7614292894" lon="18.4634012996">
        <ele>60.8</ele>
        <time>2012-09-16T12:45:20Z</time>
      </trkpt>
      <trkpt lat="59.7618277649" lon="18.4633455599">
        <ele>60.8</ele>
        <time>2012-09-16T12:45:26Z</time>
      </trkpt>
      <trkpt lat="59.7622004242" lon="18.4630703822">
        <ele>60.8</ele>
        <time>2012-09-16T12:45:32Z</time>
      </trkpt>
      <trkpt lat="59.7626304995" lon="18.4625089625">
        <ele>61.2</ele>
        <time>2012-09-16T12:45:40Z</time>
      </trkpt>
      <trkpt lat="59.7626805394" lon="18.4624343636">
        <ele>61.6</ele>
        <time>2012-09-16T12:45:41Z</time>
      </trkpt>
      <trkpt lat="59.7627320043" lon="18.4623632013">
        <ele>62</ele>
        <time>2012-09-16T12:45:42Z</time>
      </trkpt>
      <trkpt lat="59.7627833853" lon="18.4622912846">
        <ele>62.6</ele>
        <time>2012-09-16T12:45:43Z</time>
      </trkpt>
      <trkpt lat="59.7628322518" lon="18.462219284">
        <ele>63</ele>
        <time>2012-09-16T12:45:44Z</time>
      </trkpt>
      <trkpt lat="59.7629438987" lon="18.4620700862">
        <ele>63</ele>
        <time>2012-09-16T12:45:46Z</time>
      </trkpt>
      <trkpt lat="59.7632311464" lon="18.4616434475">
        <ele>63</ele>
        <time>2012-09-16T12:45:51Z</time>
      </trkpt>
      <trkpt lat="59.763630963" lon="18.4610680301">
        <ele>63</ele>
        <time>2012-09-16T12:45:58Z</time>
      </trkpt>
      <trkpt lat="59.7636839366" lon="18.4609779247">
        <ele>63.4</ele>
        <time>2012-09-16T12:45:59Z</time>
      </trkpt>
      <trkpt lat="59.7637376646" lon="18.4608834606">
        <ele>63.8</ele>
        <time>2012-09-16T12:46:00Z</time>
      </trkpt>
      <trkpt lat="59.7637873693" lon="18.4607901701">
        <ele>64.2</ele>
        <time>2012-09-16T12:46:01Z</time>
      </trkpt>
      <trkpt lat="59.7638376607" lon="18.4606926048">
        <ele>64.6</ele>
        <time>2012-09-16T12:46:02Z</time>
      </trkpt>
      <trkpt lat="59.7638857728" lon="18.4605884178">
        <ele>65</ele>
        <time>2012-09-16T12:46:03Z</time>
      </trkpt>
      <trkpt lat="59.7639816617" lon="18.4603615197">
        <ele>65</ele>
        <time>2012-09-16T12:46:05Z</time>
      </trkpt>
      <trkpt lat="59.7641762056" lon="18.4597156943">
        <ele>65</ele>
        <time>2012-09-16T12:46:10Z</time>
      </trkpt>
      <trkpt lat="59.764390447" lon="18.4585774323">
        <ele>65</ele>
        <time>2012-09-16T12:46:18Z</time>
      </trkpt>
      <trkpt lat="59.7645357891" lon="18.4575945707">
        <ele>65</ele>
        <time>2012-09-16T12:46:25Z</time>
      </trkpt>
      <trkpt lat="59.76469471" lon="18.4568518506">
        <ele>65</ele>
        <time>2012-09-16T12:46:31Z</time>
      </trkpt>
      <trkpt lat="59.764711809" lon="18.4565968732">
        <ele>64.6</ele>
        <time>2012-09-16T12:46:33Z</time>
      </trkpt>
      <trkpt lat="59.7647093783" lon="18.4564668699">
        <ele>64.2</ele>
        <time>2012-09-16T12:46:34Z</time>
      </trkpt>
      <trkpt lat="59.7647038462" lon="18.4563370343">
        <ele>63.8</ele>
        <time>2012-09-16T12:46:35Z</time>
      </trkpt>
      <trkpt lat="59.7646954643" lon="18.4561983976">
        <ele>63</ele>
        <time>2012-09-16T12:46:36Z</time>
      </trkpt>
      <trkpt lat="59.7646878368" lon="18.4559014269">
        <ele>63.4</ele>
        <time>2012-09-16T12:46:38Z</time>
      </trkpt>
      <trkpt lat="59.7646948776" lon="18.4556871017">
        <ele>63.8</ele>
        <time>2012-09-16T12:46:40Z</time>
      </trkpt>
      <trkpt lat="59.764707199" lon="18.4555456991">
        <ele>64.2</ele>
        <time>2012-09-16T12:46:41Z</time>
      </trkpt>
      <trkpt lat="59.7647253877" lon="18.455411924">
        <ele>64.6</ele>
        <time>2012-09-16T12:46:42Z</time>
      </trkpt>
      <trkpt lat="59.7647506172" lon="18.4552834294">
        <ele>65</ele>
        <time>2012-09-16T12:46:43Z</time>
      </trkpt>
      <trkpt lat="59.7648106316" lon="18.455035409">
        <ele>65</ele>
        <time>2012-09-16T12:46:45Z</time>
      </trkpt>
      <trkpt lat="59.7648469253" lon="18.4549214152">
        <ele>65</ele>
        <time>2012-09-16T12:46:46Z</time>
      </trkpt>
      <trkpt lat="59.765014228" lon="18.454428308">
        <ele>65</ele>
        <time>2012-09-16T12:46:50Z</time>
      </trkpt>
      <trkpt lat="59.7651930977" lon="18.4539554012">
        <ele>64.4</ele>
        <time>2012-09-16T12:46:54Z</time>
      </trkpt>
      <trkpt lat="59.765239282" lon="18.453845263">
        <ele>64</ele>
        <time>2012-09-16T12:46:55Z</time>
      </trkpt>
      <trkpt lat="59.7652847119" lon="18.4537367174">
        <ele>63.4</ele>
        <time>2012-09-16T12:46:56Z</time>
      </trkpt>
      <trkpt lat="59.7653246098" lon="18.4536333686">
        <ele>63</ele>
        <time>2012-09-16T12:46:57Z</time>
      </trkpt>
      <trkpt lat="59.7653617416" lon="18.4535202129">
        <ele>62.4</ele>
        <time>2012-09-16T12:46:58Z</time>
      </trkpt>
      <trkpt lat="59.7654942594" lon="18.453126096">
        <ele>62.4</ele>
        <time>2012-09-16T12:47:01Z</time>
      </trkpt>
      <trkpt lat="59.7656962632" lon="18.452547242">
        <ele>62</ele>
        <time>2012-09-16T12:47:05Z</time>
      </trkpt>
      <trkpt lat="59.7657300423" lon="18.452391171">
        <ele>61.6</ele>
        <time>2012-09-16T12:47:06Z</time>
      </trkpt>
      <trkpt lat="59.765753763" lon="18.4522237845">
        <ele>61.2</ele>
        <time>2012-09-16T12:47:07Z</time>
      </trkpt>
      <trkpt lat="59.7657685152" lon="18.4520570685">
        <ele>60.6</ele>
        <time>2012-09-16T12:47:08Z</time>
      </trkpt>
      <trkpt lat="59.765771365" lon="18.4518971418">
        <ele>60.2</ele>
        <time>2012-09-16T12:47:09Z</time>
      </trkpt>
      <trkpt lat="59.765764408" lon="18.4517269054">
        <ele>60.2</ele>
        <time>2012-09-16T12:47:10Z</time>
      </trkpt>
      <trkpt lat="59.7657613067" lon="18.4515610276">
        <ele>60.2</ele>
        <time>2012-09-16T12:47:11Z</time>
      </trkpt>
      <trkpt lat="59.765769521" lon="18.4513964071">
        <ele>60.2</ele>
        <time>2012-09-16T12:47:12Z</time>
      </trkpt>
      <trkpt lat="59.7658349836" lon="18.45109776">
        <ele>59.8</ele>
        <time>2012-09-16T12:47:14Z</time>
      </trkpt>
      <trkpt lat="59.7659025418" lon="18.4509884601">
        <ele>59.4</ele>
        <time>2012-09-16T12:47:15Z</time>
      </trkpt>
      <trkpt lat="59.7659815831" lon="18.4508883802">
        <ele>59</ele>
        <time>2012-09-16T12:47:16Z</time>
      </trkpt>
      <trkpt lat="59.7660630551" lon="18.4508535115">
        <ele>58.6</ele>
        <time>2012-09-16T12:47:17Z</time>
      </trkpt>
      <trkpt lat="59.766160369" lon="18.4508566966">
        <ele>58.2</ele>
        <time>2012-09-16T12:47:18Z</time>
      </trkpt>
      <trkpt lat="59.7663351316" lon="18.4508596302">
        <ele>58.2</ele>
        <time>2012-09-16T12:47:20Z</time>
      </trkpt>
      <trkpt lat="59.7665870077" lon="18.4508081654">
        <ele>58.2</ele>
        <time>2012-09-16T12:47:23Z</time>
      </trkpt>
      <trkpt lat="59.7666533924" lon="18.4507633222">
        <ele>58.2</ele>
        <time>2012-09-16T12:47:24Z</time>
      </trkpt>
      <trkpt lat="59.766774427" lon="18.4506523459">
        <ele>58.2</ele>
        <time>2012-09-16T12:47:26Z</time>
      </trkpt>
      <trkpt lat="59.7670089526" lon="18.4504631664">
        <ele>58.2</ele>
        <time>2012-09-16T12:47:30Z</time>
      </trkpt>
      <trkpt lat="59.7670863175" lon="18.4504465702">
        <ele>58.2</ele>
        <time>2012-09-16T12:47:31Z</time>
      </trkpt>
      <trkpt lat="59.7671533727" lon="18.4504251126">
        <ele>58.6</ele>
        <time>2012-09-16T12:47:32Z</time>
      </trkpt>
      <trkpt lat="59.7672237807" lon="18.4503824487">
        <ele>59</ele>
        <time>2012-09-16T12:47:33Z</time>
      </trkpt>
      <trkpt lat="59.7672887404" lon="18.4503428861">
        <ele>59.6</ele>
        <time>2012-09-16T12:47:34Z</time>
      </trkpt>
      <trkpt lat="59.7673542868" lon="18.4503351748">
        <ele>60</ele>
        <time>2012-09-16T12:47:35Z</time>
      </trkpt>
      <trkpt lat="59.7674216773" lon="18.4503172375">
        <ele>60.4</ele>
        <time>2012-09-16T12:47:36Z</time>
      </trkpt>
      <trkpt lat="59.7674832005" lon="18.4502571393">
        <ele>60.4</ele>
        <time>2012-09-16T12:47:37Z</time>
      </trkpt>
      <trkpt lat="59.7676007985" lon="18.4501352664">
        <ele>60.4</ele>
        <time>2012-09-16T12:47:39Z</time>
      </trkpt>
      <trkpt lat="59.7676634951" lon="18.4500889145">
        <ele>60.4</ele>
        <time>2012-09-16T12:47:40Z</time>
      </trkpt>
      <trkpt lat="59.7679150359" lon="18.4499024173">
        <ele>60.4</ele>
        <time>2012-09-16T12:47:44Z</time>
      </trkpt>
      <trkpt lat="59.7679860306" lon="18.4498763496">
        <ele>60.4</ele>
        <time>2012-09-16T12:47:45Z</time>
      </trkpt>
      <trkpt lat="59.7682691712" lon="18.4498231245">
        <ele>60.4</ele>
        <time>2012-09-16T12:47:49Z</time>
      </trkpt>
      <trkpt lat="59.7687849934" lon="18.4498321769">
        <ele>60.4</ele>
        <time>2012-09-16T12:47:57Z</time>
      </trkpt>
      <trkpt lat="59.7691143182" lon="18.4499902596">
        <ele>60.4</ele>
        <time>2012-09-16T12:48:02Z</time>
      </trkpt>
      <trkpt lat="59.7691801161" lon="18.4500467536">
        <ele>60.4</ele>
        <time>2012-09-16T12:48:03Z</time>
      </trkpt>
      <trkpt lat="59.7693012346" lon="18.4501379487">
        <ele>60.8</ele>
        <time>2012-09-16T12:48:05Z</time>
      </trkpt>
      <trkpt lat="59.7693552978" lon="18.450135937">
        <ele>61.2</ele>
        <time>2012-09-16T12:48:06Z</time>
      </trkpt>
      <trkpt lat="59.7694048349" lon="18.4501184188">
        <ele>61.6</ele>
        <time>2012-09-16T12:48:07Z</time>
      </trkpt>
      <trkpt lat="59.769453869" lon="18.4500668701">
        <ele>62.2</ele>
        <time>2012-09-16T12:48:08Z</time>
      </trkpt>
      <trkpt lat="59.7694954432" lon="18.4499748369">
        <ele>62.6</ele>
        <time>2012-09-16T12:48:09Z</time>
      </trkpt>
      <trkpt lat="59.7695333294" lon="18.449862268">
        <ele>62.6</ele>
        <time>2012-09-16T12:48:10Z</time>
      </trkpt>
      <trkpt lat="59.7695513505" lon="18.4497491961">
        <ele>63</ele>
        <time>2012-09-16T12:48:11Z</time>
      </trkpt>
      <trkpt lat="59.7695625822" lon="18.4496355376">
        <ele>63.4</ele>
        <time>2012-09-16T12:48:12Z</time>
      </trkpt>
      <trkpt lat="59.7695744007" lon="18.4495137486">
        <ele>63.8</ele>
        <time>2012-09-16T12:48:13Z</time>
      </trkpt>
      <trkpt lat="59.7695982053" lon="18.4493865951">
        <ele>64.2</ele>
        <time>2012-09-16T12:48:14Z</time>
      </trkpt>
      <trkpt lat="59.7696344989" lon="18.4492693324">
        <ele>64.6</ele>
        <time>2012-09-16T12:48:15Z</time>
      </trkpt>
      <trkpt lat="59.7696832816" lon="18.4491772991">
        <ele>64.6</ele>
        <time>2012-09-16T12:48:16Z</time>
      </trkpt>
      <trkpt lat="59.7698645821" lon="18.449057857">
        <ele>64.6</ele>
        <time>2012-09-16T12:48:19Z</time>
      </trkpt>
      <trkpt lat="59.7699235068" lon="18.4490468767">
        <ele>64</ele>
        <time>2012-09-16T12:48:20Z</time>
      </trkpt>
      <trkpt lat="59.7699906458" lon="18.4490591143">
        <ele>63.4</ele>
        <time>2012-09-16T12:48:21Z</time>
      </trkpt>
      <trkpt lat="59.7700666697" lon="18.4490686697">
        <ele>62.6</ele>
        <time>2012-09-16T12:48:22Z</time>
      </trkpt>
      <trkpt lat="59.7701431964" lon="18.4490270955">
        <ele>62</ele>
        <time>2012-09-16T12:48:23Z</time>
      </trkpt>
      <trkpt lat="59.7702509877" lon="18.448963393">
        <ele>61.4</ele>
        <time>2012-09-16T12:48:24Z</time>
      </trkpt>
      <trkpt lat="59.7704706773" lon="18.4487715313">
        <ele>61.4</ele>
        <time>2012-09-16T12:48:26Z</time>
      </trkpt>
      <trkpt lat="59.7705714277" lon="18.4486741336">
        <ele>61.4</ele>
        <time>2012-09-16T12:48:27Z</time>
      </trkpt>
      <trkpt lat="59.7709770278" lon="18.4484588026">
        <ele>61.4</ele>
        <time>2012-09-16T12:48:31Z</time>
      </trkpt>
      <trkpt lat="59.7711753436" lon="18.4483699545">
        <ele>60.8</ele>
        <time>2012-09-16T12:48:33Z</time>
      </trkpt>
      <trkpt lat="59.7712643594" lon="18.4483266201">
        <ele>60.2</ele>
        <time>2012-09-16T12:48:34Z</time>
      </trkpt>
      <trkpt lat="59.7713480946" lon="18.4482782565">
        <ele>59.6</ele>
        <time>2012-09-16T12:48:35Z</time>
      </trkpt>
      <trkpt lat="59.7714250404" lon="18.4482258696">
        <ele>59</ele>
        <time>2012-09-16T12:48:36Z</time>
      </trkpt>
      <trkpt lat="59.7714980467" lon="18.4481799368">
        <ele>58.6</ele>
        <time>2012-09-16T12:48:37Z</time>
      </trkpt>
      <trkpt lat="59.7715725618" lon="18.4481171564">
        <ele>58.6</ele>
        <time>2012-09-16T12:48:38Z</time>
      </trkpt>
      <trkpt lat="59.771650765" lon="18.4480800246">
        <ele>58.6</ele>
        <time>2012-09-16T12:48:39Z</time>
      </trkpt>
      <trkpt lat="59.7718127033" lon="18.4479704731">
        <ele>58.6</ele>
        <time>2012-09-16T12:48:41Z</time>
      </trkpt>
      <trkpt lat="59.771882776" lon="18.4478803677">
        <ele>58.6</ele>
        <time>2012-09-16T12:48:42Z</time>
      </trkpt>
      <trkpt lat="59.772012863" lon="18.4474896874">
        <ele>58.6</ele>
        <time>2012-09-16T12:48:45Z</time>
      </trkpt>
      <trkpt lat="59.7720524256" lon="18.4468917226">
        <ele>58.6</ele>
        <time>2012-09-16T12:48:49Z</time>
      </trkpt>
      <trkpt lat="59.7721515835" lon="18.4458172468">
        <ele>58.6</ele>
        <time>2012-09-16T12:48:56Z</time>
      </trkpt>
      <trkpt lat="59.7723084088" lon="18.4453759398">
        <ele>58.6</ele>
        <time>2012-09-16T12:49:00Z</time>
      </trkpt>
      <trkpt lat="59.7724700119" lon="18.4448994288">
        <ele>58.6</ele>
        <time>2012-09-16T12:49:04Z</time>
      </trkpt>
      <trkpt lat="59.7724929783" lon="18.4447728621">
        <ele>58.6</ele>
        <time>2012-09-16T12:49:05Z</time>
      </trkpt>
      <trkpt lat="59.7725167829" lon="18.44452283">
        <ele>59</ele>
        <time>2012-09-16T12:49:07Z</time>
      </trkpt>
      <trkpt lat="59.7725205547" lon="18.444399197">
        <ele>59.4</ele>
        <time>2012-09-16T12:49:08Z</time>
      </trkpt>
      <trkpt lat="59.7725237398" lon="18.4442735523">
        <ele>59.8</ele>
        <time>2012-09-16T12:49:09Z</time>
      </trkpt>
      <trkpt lat="59.7725328761" lon="18.4441430461">
        <ele>60.2</ele>
        <time>2012-09-16T12:49:10Z</time>
      </trkpt>
      <trkpt lat="59.7725462033" lon="18.4440104445">
        <ele>60.8</ele>
        <time>2012-09-16T12:49:11Z</time>
      </trkpt>
      <trkpt lat="59.7725712652" lon="18.4438775914">
        <ele>60.8</ele>
        <time>2012-09-16T12:49:12Z</time>
      </trkpt>
      <trkpt lat="59.772637147" lon="18.4436320017">
        <ele>60.8</ele>
        <time>2012-09-16T12:49:14Z</time>
      </trkpt>
      <trkpt lat="59.7727170265" lon="18.4434035949">
        <ele>60.8</ele>
        <time>2012-09-16T12:49:16Z</time>
      </trkpt>
      <trkpt lat="59.7728399889" lon="18.4430651338">
        <ele>60.8</ele>
        <time>2012-09-16T12:49:19Z</time>
      </trkpt>
      <trkpt lat="59.7731429946" lon="18.4422680151">
        <ele>60.8</ele>
        <time>2012-09-16T12:49:26Z</time>
      </trkpt>
      <trkpt lat="59.7734107125" lon="18.4416203457">
        <ele>60.8</ele>
        <time>2012-09-16T12:49:32Z</time>
      </trkpt>
      <trkpt lat="59.7734749179" lon="18.4415504407">
        <ele>60.8</ele>
        <time>2012-09-16T12:49:33Z</time>
      </trkpt>
      <trkpt lat="59.7736823699" lon="18.4414592456">
        <ele>60.8</ele>
        <time>2012-09-16T12:49:36Z</time>
      </trkpt>
      <trkpt lat="59.7737458209" lon="18.4414513666">
        <ele>60.8</ele>
        <time>2012-09-16T12:49:37Z</time>
      </trkpt>
      <trkpt lat="59.7739061666" lon="18.4413988121">
        <ele>60.8</ele>
        <time>2012-09-16T12:49:40Z</time>
      </trkpt>
      <trkpt lat="59.7740443003" lon="18.4412996542">
        <ele>61.2</ele>
        <time>2012-09-16T12:49:43Z</time>
      </trkpt>
      <trkpt lat="59.7740761515" lon="18.441248357">
        <ele>61.6</ele>
        <time>2012-09-16T12:49:44Z</time>
      </trkpt>
      <trkpt lat="59.7741018002" lon="18.4411822238">
        <ele>62</ele>
        <time>2012-09-16T12:49:45Z</time>
      </trkpt>
      <trkpt lat="59.7741292928" lon="18.4411158391">
        <ele>62.4</ele>
        <time>2012-09-16T12:49:46Z</time>
      </trkpt>
      <trkpt lat="59.7741533488" lon="18.4410381389">
        <ele>62.8</ele>
        <time>2012-09-16T12:49:47Z</time>
      </trkpt>
      <trkpt lat="59.7742349885" lon="18.4407643022">
        <ele>63.2</ele>
        <time>2012-09-16T12:49:50Z</time>
      </trkpt>
      <trkpt lat="59.7742598828" lon="18.4406726043">
        <ele>63.6</ele>
        <time>2012-09-16T12:49:51Z</time>
      </trkpt>
      <trkpt lat="59.7742856152" lon="18.4405757095">
        <ele>64</ele>
        <time>2012-09-16T12:49:52Z</time>
      </trkpt>
      <trkpt lat="59.7743094198" lon="18.4404705167">
        <ele>64.6</ele>
        <time>2012-09-16T12:49:53Z</time>
      </trkpt>
      <trkpt lat="59.7743344817" lon="18.4403666649">
        <ele>65</ele>
        <time>2012-09-16T12:49:54Z</time>
      </trkpt>
      <trkpt lat="59.7744145288" lon="18.4399571253">
        <ele>65</ele>
        <time>2012-09-16T12:49:58Z</time>
      </trkpt>
      <trkpt lat="59.7745303667" lon="18.4392651994">
        <ele>65.4</ele>
        <time>2012-09-16T12:50:05Z</time>
      </trkpt>
      <trkpt lat="59.7745536684" lon="18.4391636108">
        <ele>65.8</ele>
        <time>2012-09-16T12:50:06Z</time>
      </trkpt>
      <trkpt lat="59.7745887047" lon="18.4390773611">
        <ele>66.2</ele>
        <time>2012-09-16T12:50:07Z</time>
      </trkpt>
      <trkpt lat="59.774620975" lon="18.4389978168">
        <ele>66.8</ele>
        <time>2012-09-16T12:50:08Z</time>
      </trkpt>
      <trkpt lat="59.7746595318" lon="18.4389196975">
        <ele>67.2</ele>
        <time>2012-09-16T12:50:09Z</time>
      </trkpt>
      <trkpt lat="59.7747001002" lon="18.43883613">
        <ele>67.2</ele>
        <time>2012-09-16T12:50:10Z</time>
      </trkpt>
      <trkpt lat="59.7749698297" lon="18.4382267658">
        <ele>67.2</ele>
        <time>2012-09-16T12:50:17Z</time>
      </trkpt>
      <trkpt lat="59.7750174389" lon="18.4380223313">
        <ele>67.6</ele>
        <time>2012-09-16T12:50:19Z</time>
      </trkpt>
      <trkpt lat="59.7750264914" lon="18.437913199">
        <ele>68</ele>
        <time>2012-09-16T12:50:20Z</time>
      </trkpt>
      <trkpt lat="59.7750306823" lon="18.4378091796">
        <ele>68.4</ele>
        <time>2012-09-16T12:50:21Z</time>
      </trkpt>
      <trkpt lat="59.7750305147" lon="18.4377064175">
        <ele>69</ele>
        <time>2012-09-16T12:50:22Z</time>
      </trkpt>
      <trkpt lat="59.7750320234" lon="18.437595022">
        <ele>69.6</ele>
        <time>2012-09-16T12:50:23Z</time>
      </trkpt>
      <trkpt lat="59.775029425" lon="18.4374979596">
        <ele>70.2</ele>
        <time>2012-09-16T12:50:24Z</time>
      </trkpt>
      <trkpt lat="59.7750323587" lon="18.4373863965">
        <ele>70.6</ele>
        <time>2012-09-16T12:50:25Z</time>
      </trkpt>
      <trkpt lat="59.7750357953" lon="18.4372789406">
        <ele>71.2</ele>
        <time>2012-09-16T12:50:26Z</time>
      </trkpt>
      <trkpt lat="59.7750402377" lon="18.4371661202">
        <ele>70.8</ele>
        <time>2012-09-16T12:50:27Z</time>
      </trkpt>
      <trkpt lat="59.7750478652" lon="18.4370600892">
        <ele>70.4</ele>
        <time>2012-09-16T12:50:28Z</time>
      </trkpt>
      <trkpt lat="59.7750536487" lon="18.4369502863">
        <ele>69.6</ele>
        <time>2012-09-16T12:50:29Z</time>
      </trkpt>
      <trkpt lat="59.7750528105" lon="18.4368398967">
        <ele>69.2</ele>
        <time>2012-09-16T12:50:30Z</time>
      </trkpt>
      <trkpt lat="59.7750642099" lon="18.4363890343">
        <ele>69.2</ele>
        <time>2012-09-16T12:50:34Z</time>
      </trkpt>
      <trkpt lat="59.7750808061" lon="18.4356925822">
        <ele>69.2</ele>
        <time>2012-09-16T12:50:40Z</time>
      </trkpt>
      <trkpt lat="59.7751008388" lon="18.4351523687">
        <ele>69.2</ele>
        <time>2012-09-16T12:50:46Z</time>
      </trkpt>
      <trkpt lat="59.7750989948" lon="18.4350031709">
        <ele>69.2</ele>
        <time>2012-09-16T12:50:49Z</time>
      </trkpt>
      <trkpt lat="59.7750654672" lon="18.4349320086">
        <ele>69.2</ele>
        <time>2012-09-16T12:50:50Z</time>
      </trkpt>
      <trkpt lat="59.7749773734" lon="18.4348336051">
        <ele>69.6</ele>
        <time>2012-09-16T12:50:52Z</time>
      </trkpt>
      <trkpt lat="59.7749284231" lon="18.4347941263">
        <ele>70</ele>
        <time>2012-09-16T12:50:53Z</time>
      </trkpt>
      <trkpt lat="59.7748782994" lon="18.4347517139">
        <ele>71.6</ele>
        <time>2012-09-16T12:50:54Z</time>
      </trkpt>
      <trkpt lat="59.7748241523" lon="18.4347157556">
        <ele>72.2</ele>
        <time>2012-09-16T12:50:55Z</time>
      </trkpt>
      <trkpt lat="59.7747658143" lon="18.4346709124">
        <ele>72</ele>
        <time>2012-09-16T12:50:56Z</time>
      </trkpt>
      <trkpt lat="59.7747047102" lon="18.4346212916">
        <ele>71.8</ele>
        <time>2012-09-16T12:50:57Z</time>
      </trkpt>
      <trkpt lat="59.7746425165" lon="18.4345631212">
        <ele>71.6</ele>
        <time>2012-09-16T12:50:58Z</time>
      </trkpt>
      <trkpt lat="59.7745840947" lon="18.4345058728">
        <ele>71.2</ele>
        <time>2012-09-16T12:50:59Z</time>
      </trkpt>
      <trkpt lat="59.7745207275" lon="18.4344443496">
        <ele>71</ele>
        <time>2012-09-16T12:51:00Z</time>
      </trkpt>
      <trkpt lat="59.7744589529" lon="18.4343987521">
        <ele>70.6</ele>
        <time>2012-09-16T12:51:01Z</time>
      </trkpt>
      <trkpt lat="59.7743962563" lon="18.43433396">
        <ele>70.2</ele>
        <time>2012-09-16T12:51:02Z</time>
      </trkpt>
      <trkpt lat="59.7743328053" lon="18.4342731074">
        <ele>69.8</ele>
        <time>2012-09-16T12:51:03Z</time>
      </trkpt>
      <trkpt lat="59.7742761437" lon="18.4342054655">
        <ele>69.4</ele>
        <time>2012-09-16T12:51:04Z</time>
      </trkpt>
      <trkpt lat="59.7742154587" lon="18.4341408411">
        <ele>69</ele>
        <time>2012-09-16T12:51:05Z</time>
      </trkpt>
      <trkpt lat="59.7739854594" lon="18.4338784876">
        <ele>69</ele>
        <time>2012-09-16T12:51:09Z</time>
      </trkpt>
      <trkpt lat="59.7738184919" lon="18.4336591333">
        <ele>69</ele>
        <time>2012-09-16T12:51:12Z</time>
      </trkpt>
      <trkpt lat="59.7737111198" lon="18.4335285433">
        <ele>69</ele>
        <time>2012-09-16T12:51:14Z</time>
      </trkpt>
      <trkpt lat="59.7733499437" lon="18.4330297364">
        <ele>69</ele>
        <time>2012-09-16T12:51:21Z</time>
      </trkpt>
      <trkpt lat="59.7730009214" lon="18.4324791294">
        <ele>69.4</ele>
        <time>2012-09-16T12:51:28Z</time>
      </trkpt>
      <trkpt lat="59.7729486184" lon="18.4323850006">
        <ele>69.8</ele>
        <time>2012-09-16T12:51:29Z</time>
      </trkpt>
      <trkpt lat="59.7729007577" lon="18.4322972421">
        <ele>70.2</ele>
        <time>2012-09-16T12:51:30Z</time>
      </trkpt>
      <trkpt lat="59.7728548249" lon="18.4321923846">
        <ele>70.6</ele>
        <time>2012-09-16T12:51:31Z</time>
      </trkpt>
      <trkpt lat="59.7728073833" lon="18.432100938">
        <ele>71</ele>
        <time>2012-09-16T12:51:32Z</time>
      </trkpt>
      <trkpt lat="59.7727710897" lon="18.4320084019">
        <ele>71</ele>
        <time>2012-09-16T12:51:33Z</time>
      </trkpt>
      <trkpt lat="59.7727277553" lon="18.4319173744">
        <ele>71</ele>
        <time>2012-09-16T12:51:34Z</time>
      </trkpt>
      <trkpt lat="59.7724629711" lon="18.4312984549">
        <ele>71</ele>
        <time>2012-09-16T12:51:40Z</time>
      </trkpt>
      <trkpt lat="59.772169856" lon="18.4306231253">
        <ele>71</ele>
        <time>2012-09-16T12:51:46Z</time>
      </trkpt>
      <trkpt lat="59.7718133738" lon="18.4298182952">
        <ele>71</ele>
        <time>2012-09-16T12:51:53Z</time>
      </trkpt>
      <trkpt lat="59.7715464941" lon="18.4292282933">
        <ele>71</ele>
        <time>2012-09-16T12:51:59Z</time>
      </trkpt>
      <trkpt lat="59.7712153253" lon="18.4284245529">
        <ele>71</ele>
        <time>2012-09-16T12:52:07Z</time>
      </trkpt>
      <trkpt lat="59.7708994114" lon="18.4276490595">
        <ele>71</ele>
        <time>2012-09-16T12:52:14Z</time>
      </trkpt>
      <trkpt lat="59.7707976552" lon="18.4274097563">
        <ele>70.6</ele>
        <time>2012-09-16T12:52:16Z</time>
      </trkpt>
      <trkpt lat="59.7707426699" lon="18.4272796692">
        <ele>70.2</ele>
        <time>2012-09-16T12:52:17Z</time>
      </trkpt>
      <trkpt lat="59.7706825717" lon="18.427141284">
        <ele>69.6</ele>
        <time>2012-09-16T12:52:18Z</time>
      </trkpt>
      <trkpt lat="59.7706264968" lon="18.4270096882">
        <ele>69.2</ele>
        <time>2012-09-16T12:52:19Z</time>
      </trkpt>
      <trkpt lat="59.7705674044" lon="18.4268818642">
        <ele>68.8</ele>
        <time>2012-09-16T12:52:20Z</time>
      </trkpt>
      <trkpt lat="59.7705088987" lon="18.4267483405">
        <ele>68.8</ele>
        <time>2012-09-16T12:52:21Z</time>
      </trkpt>
      <trkpt lat="59.7701136921" lon="18.4258295166">
        <ele>68.8</ele>
        <time>2012-09-16T12:52:28Z</time>
      </trkpt>
      <trkpt lat="59.7699085032" lon="18.4253575319">
        <ele>68.4</ele>
        <time>2012-09-16T12:52:32Z</time>
      </trkpt>
      <trkpt lat="59.7698593015" lon="18.4252408558">
        <ele>67.4</ele>
        <time>2012-09-16T12:52:33Z</time>
      </trkpt>
      <trkpt lat="59.7698096806" lon="18.4251335675">
        <ele>67</ele>
        <time>2012-09-16T12:52:34Z</time>
      </trkpt>
      <trkpt lat="59.7697617362" lon="18.4250170591">
        <ele>66.6</ele>
        <time>2012-09-16T12:52:35Z</time>
      </trkpt>
      <trkpt lat="59.7697142108" lon="18.4249090164">
        <ele>66.6</ele>
        <time>2012-09-16T12:52:36Z</time>
      </trkpt>
      <trkpt lat="59.7693381149" lon="18.4240279111">
        <ele>66.6</ele>
        <time>2012-09-16T12:52:44Z</time>
      </trkpt>
      <trkpt lat="59.768985656" lon="18.423178657">
        <ele>66.6</ele>
        <time>2012-09-16T12:52:52Z</time>
      </trkpt>
      <trkpt lat="59.7689390527" lon="18.4230706143">
        <ele>66.6</ele>
        <time>2012-09-16T12:52:53Z</time>
      </trkpt>
      <trkpt lat="59.7685704167" lon="18.4221865753">
        <ele>66.6</ele>
        <time>2012-09-16T12:53:01Z</time>
      </trkpt>
      <trkpt lat="59.7685278367" lon="18.4220745931">
        <ele>66.6</ele>
        <time>2012-09-16T12:53:02Z</time>
      </trkpt>
      <trkpt lat="59.7682633877" lon="18.4214644746">
        <ele>66.6</ele>
        <time>2012-09-16T12:53:08Z</time>
      </trkpt>
      <trkpt lat="59.7679599629" lon="18.4207686092">
        <ele>66.6</ele>
        <time>2012-09-16T12:53:15Z</time>
      </trkpt>
      <trkpt lat="59.7678381739" lon="18.4204901625">
        <ele>67</ele>
        <time>2012-09-16T12:53:18Z</time>
      </trkpt>
      <trkpt lat="59.7678026347" lon="18.4203988836">
        <ele>67.4</ele>
        <time>2012-09-16T12:53:19Z</time>
      </trkpt>
      <trkpt lat="59.7677658381" lon="18.4203101193">
        <ele>67.8</ele>
        <time>2012-09-16T12:53:20Z</time>
      </trkpt>
      <trkpt lat="59.7677256888" lon="18.4202172479">
        <ele>68.2</ele>
        <time>2012-09-16T12:53:21Z</time>
      </trkpt>
      <trkpt lat="59.7676844499" lon="18.4201319201">
        <ele>68.6</ele>
        <time>2012-09-16T12:53:22Z</time>
      </trkpt>
      <trkpt lat="59.7676171432" lon="18.4199667129">
        <ele>68.6</ele>
        <time>2012-09-16T12:53:24Z</time>
      </trkpt>
      <trkpt lat="59.7675184883" lon="18.4196977377">
        <ele>68.6</ele>
        <time>2012-09-16T12:53:27Z</time>
      </trkpt>
      <trkpt lat="59.76747046" lon="18.4196152598">
        <ele>68.6</ele>
        <time>2012-09-16T12:53:28Z</time>
      </trkpt>
      <trkpt lat="59.7673405405" lon="18.4193130923">
        <ele>69.2</ele>
        <time>2012-09-16T12:53:31Z</time>
      </trkpt>
      <trkpt lat="59.7672997207" lon="18.4192161975">
        <ele>69.6</ele>
        <time>2012-09-16T12:53:32Z</time>
      </trkpt>
      <trkpt lat="59.7672586494" lon="18.4191204763">
        <ele>70</ele>
        <time>2012-09-16T12:53:33Z</time>
      </trkpt>
      <trkpt lat="59.7672162369" lon="18.419022408">
        <ele>70.4</ele>
        <time>2012-09-16T12:53:34Z</time>
      </trkpt>
      <trkpt lat="59.7671746627" lon="18.4189243398">
        <ele>70.8</ele>
        <time>2012-09-16T12:53:35Z</time>
      </trkpt>
      <trkpt lat="59.766983723" lon="18.418486637">
        <ele>70.8</ele>
        <time>2012-09-16T12:53:39Z</time>
      </trkpt>
      <trkpt lat="59.7666129078" lon="18.4175914501">
        <ele>70.8</ele>
        <time>2012-09-16T12:53:46Z</time>
      </trkpt>
      <trkpt lat="59.76655633" lon="18.41745625">
        <ele>70.4</ele>
        <time>2012-09-16T12:53:47Z</time>
      </trkpt>
      <trkpt lat="59.7664984948" lon="18.4173171105">
        <ele>69.4</ele>
        <time>2012-09-16T12:53:48Z</time>
      </trkpt>
      <trkpt lat="59.7664416656" lon="18.4171772166">
        <ele>68.8</ele>
        <time>2012-09-16T12:53:49Z</time>
      </trkpt>
      <trkpt lat="59.7663840819" lon="18.4170406754">
        <ele>68.4</ele>
        <time>2012-09-16T12:53:50Z</time>
      </trkpt>
      <trkpt lat="59.7663274203" lon="18.4169084928">
        <ele>67.8</ele>
        <time>2012-09-16T12:53:51Z</time>
      </trkpt>
      <trkpt lat="59.766267825" lon="18.4167737957">
        <ele>67.4</ele>
        <time>2012-09-16T12:53:52Z</time>
      </trkpt>
      <trkpt lat="59.7662107442" lon="18.4166483187">
        <ele>67</ele>
        <time>2012-09-16T12:53:53Z</time>
      </trkpt>
      <trkpt lat="59.766156681" lon="18.4165294633">
        <ele>66.4</ele>
        <time>2012-09-16T12:53:54Z</time>
      </trkpt>
      <trkpt lat="59.7660985106" lon="18.4164120329">
        <ele>66</ele>
        <time>2012-09-16T12:53:55Z</time>
      </trkpt>
      <trkpt lat="59.7657929065" lon="18.4157180954">
        <ele>66</ele>
        <time>2012-09-16T12:54:01Z</time>
      </trkpt>
      <trkpt lat="59.7657462193" lon="18.4156100527">
        <ele>65.6</ele>
        <time>2012-09-16T12:54:02Z</time>
      </trkpt>
      <trkpt lat="59.7656971014" lon="18.415498322">
        <ele>65.2</ele>
        <time>2012-09-16T12:54:03Z</time>
      </trkpt>
      <trkpt lat="59.7656473129" lon="18.4153873456">
        <ele>64.8</ele>
        <time>2012-09-16T12:54:04Z</time>
      </trkpt>
      <trkpt lat="59.7656013801" lon="18.4152813984">
        <ele>64.2</ele>
        <time>2012-09-16T12:54:05Z</time>
      </trkpt>
      <trkpt lat="59.7655556987" lon="18.4151754512">
        <ele>63.8</ele>
        <time>2012-09-16T12:54:06Z</time>
      </trkpt>
      <trkpt lat="59.7654645875" lon="18.4149646464">
        <ele>63.8</ele>
        <time>2012-09-16T12:54:08Z</time>
      </trkpt>
      <trkpt lat="59.7651384478" lon="18.4142150531">
        <ele>63.8</ele>
        <time>2012-09-16T12:54:15Z</time>
      </trkpt>
      <trkpt lat="59.7647782775" lon="18.4133627815">
        <ele>63.8</ele>
        <time>2012-09-16T12:54:23Z</time>
      </trkpt>
      <trkpt lat="59.7645231325" lon="18.4127586142">
        <ele>63.8</ele>
        <time>2012-09-16T12:54:29Z</time>
      </trkpt>
      <trkpt lat="59.764479379" lon="18.4126478054">
        <ele>63.8</ele>
        <time>2012-09-16T12:54:30Z</time>
      </trkpt>
      <trkpt lat="59.7643521417" lon="18.4123333165">
        <ele>63.8</ele>
        <time>2012-09-16T12:54:33Z</time>
      </trkpt>
      <trkpt lat="59.7642405786" lon="18.4120479128">
        <ele>63.8</ele>
        <time>2012-09-16T12:54:36Z</time>
      </trkpt>
      <trkpt lat="59.7641634651" lon="18.4118702166">
        <ele>63.8</ele>
        <time>2012-09-16T12:54:38Z</time>
      </trkpt>
      <trkpt lat="59.7641251599" lon="18.411784805">
        <ele>64.4</ele>
        <time>2012-09-16T12:54:39Z</time>
      </trkpt>
      <trkpt lat="59.7640889501" lon="18.411706099">
        <ele>64.8</ele>
        <time>2012-09-16T12:54:40Z</time>
      </trkpt>
      <trkpt lat="59.7640486331" lon="18.4116183405">
        <ele>65.4</ele>
        <time>2012-09-16T12:54:41Z</time>
      </trkpt>
      <trkpt lat="59.7640078971" lon="18.411523625">
        <ele>66</ele>
        <time>2012-09-16T12:54:42Z</time>
      </trkpt>
      <trkpt lat="59.7639683345" lon="18.4114325976">
        <ele>66.6</ele>
        <time>2012-09-16T12:54:43Z</time>
      </trkpt>
      <trkpt lat="59.7639276823" lon="18.4113457611">
        <ele>67.4</ele>
        <time>2012-09-16T12:54:44Z</time>
      </trkpt>
      <trkpt lat="59.763885689" lon="18.4112549013">
        <ele>68</ele>
        <time>2012-09-16T12:54:45Z</time>
      </trkpt>
      <trkpt lat="59.7638441986" lon="18.4111664722">
        <ele>68.6</ele>
        <time>2012-09-16T12:54:46Z</time>
      </trkpt>
      <trkpt lat="59.7638023729" lon="18.411077205">
        <ele>68.2</ele>
        <time>2012-09-16T12:54:47Z</time>
      </trkpt>
      <trkpt lat="59.7637601281" lon="18.4109853394">
        <ele>67.8</ele>
        <time>2012-09-16T12:54:48Z</time>
      </trkpt>
      <trkpt lat="59.7637176319" lon="18.4108953178">
        <ele>67.4</ele>
        <time>2012-09-16T12:54:49Z</time>
      </trkpt>
      <trkpt lat="59.7636757224" lon="18.4108085651">
        <ele>67</ele>
        <time>2012-09-16T12:54:50Z</time>
      </trkpt>
      <trkpt lat="59.7636301249" lon="18.410713682">
        <ele>66.4</ele>
        <time>2012-09-16T12:54:51Z</time>
      </trkpt>
      <trkpt lat="59.7635905623" lon="18.4106196371">
        <ele>66.4</ele>
        <time>2012-09-16T12:54:52Z</time>
      </trkpt>
      <trkpt lat="59.7633937553" lon="18.4101212493">
        <ele>66.4</ele>
        <time>2012-09-16T12:54:57Z</time>
      </trkpt>
      <trkpt lat="59.7631433879" lon="18.4095311636">
        <ele>66.4</ele>
        <time>2012-09-16T12:55:03Z</time>
      </trkpt>
      <trkpt lat="59.7628019093" lon="18.4087104917">
        <ele>66.4</ele>
        <time>2012-09-16T12:55:11Z</time>
      </trkpt>
      <trkpt lat="59.7625009153" lon="18.4079686098">
        <ele>66.4</ele>
        <time>2012-09-16T12:55:18Z</time>
      </trkpt>
      <trkpt lat="59.7621876837" lon="18.4072043481">
        <ele>66.4</ele>
        <time>2012-09-16T12:55:25Z</time>
      </trkpt>
      <trkpt lat="59.7619193791" lon="18.4065354725">
        <ele>66.4</ele>
        <time>2012-09-16T12:55:31Z</time>
      </trkpt>
      <trkpt lat="59.7616126015" lon="18.405857293">
        <ele>66.4</ele>
        <time>2012-09-16T12:55:37Z</time>
      </trkpt>
      <trkpt lat="59.7612642498" lon="18.4051025029">
        <ele>66</ele>
        <time>2012-09-16T12:55:44Z</time>
      </trkpt>
      <trkpt lat="59.7612137907" lon="18.4049925323">
        <ele>65.6</ele>
        <time>2012-09-16T12:55:45Z</time>
      </trkpt>
      <trkpt lat="59.7611605657" lon="18.4048725874">
        <ele>65.2</ele>
        <time>2012-09-16T12:55:46Z</time>
      </trkpt>
      <trkpt lat="59.761111783" lon="18.4047606052">
        <ele>64.8</ele>
        <time>2012-09-16T12:55:47Z</time>
      </trkpt>
      <trkpt lat="59.7610644253" lon="18.4046487906">
        <ele>64.4</ele>
        <time>2012-09-16T12:55:48Z</time>
      </trkpt>
      <trkpt lat="59.7609702127" lon="18.4044214735">
        <ele>64.4</ele>
        <time>2012-09-16T12:55:50Z</time>
      </trkpt>
      <trkpt lat="59.7606275606" lon="18.4036253606">
        <ele>64.4</ele>
        <time>2012-09-16T12:55:57Z</time>
      </trkpt>
      <trkpt lat="59.7602616907" lon="18.4027709936">
        <ele>64.4</ele>
        <time>2012-09-16T12:56:05Z</time>
      </trkpt>
      <trkpt lat="59.7599561704" lon="18.4020737033">
        <ele>64.4</ele>
        <time>2012-09-16T12:56:12Z</time>
      </trkpt>
      <trkpt lat="59.759826251" lon="18.4017698594">
        <ele>64</ele>
        <time>2012-09-16T12:56:15Z</time>
      </trkpt>
      <trkpt lat="59.759780402" lon="18.401667265">
        <ele>63.2</ele>
        <time>2012-09-16T12:56:16Z</time>
      </trkpt>
      <trkpt lat="59.7597344692" lon="18.4015585517">
        <ele>62.8</ele>
        <time>2012-09-16T12:56:17Z</time>
      </trkpt>
      <trkpt lat="59.7596913862" lon="18.4014531912">
        <ele>62.2</ele>
        <time>2012-09-16T12:56:18Z</time>
      </trkpt>
      <trkpt lat="59.7596468783" lon="18.4013513512">
        <ele>62.2</ele>
        <time>2012-09-16T12:56:19Z</time>
      </trkpt>
      <trkpt lat="59.7593738798" lon="18.4007069507">
        <ele>62.2</ele>
        <time>2012-09-16T12:56:25Z</time>
      </trkpt>
      <trkpt lat="59.758981104" lon="18.3997939103">
        <ele>62.2</ele>
        <time>2012-09-16T12:56:33Z</time>
      </trkpt>
      <trkpt lat="59.7586335066" lon="18.3989735738">
        <ele>62.2</ele>
        <time>2012-09-16T12:56:40Z</time>
      </trkpt>
      <trkpt lat="59.7585848916" lon="18.3988562272">
        <ele>62.2</ele>
        <time>2012-09-16T12:56:41Z</time>
      </trkpt>
      <trkpt lat="59.7583004099" lon="18.3981734376">
        <ele>61.8</ele>
        <time>2012-09-16T12:56:47Z</time>
      </trkpt>
      <trkpt lat="59.7582539742" lon="18.3980616231">
        <ele>61.4</ele>
        <time>2012-09-16T12:56:48Z</time>
      </trkpt>
      <trkpt lat="59.7582072032" lon="18.3979502276">
        <ele>61</ele>
        <time>2012-09-16T12:56:49Z</time>
      </trkpt>
      <trkpt lat="59.7581589234" lon="18.3978381616">
        <ele>60.6</ele>
        <time>2012-09-16T12:56:50Z</time>
      </trkpt>
      <trkpt lat="59.7581096379" lon="18.3977279396">
        <ele>60.2</ele>
        <time>2012-09-16T12:56:51Z</time>
      </trkpt>
      <trkpt lat="59.7579240626" lon="18.3972835313">
        <ele>60.2</ele>
        <time>2012-09-16T12:56:55Z</time>
      </trkpt>
      <trkpt lat="59.7575469609" lon="18.3963990732">
        <ele>60.2</ele>
        <time>2012-09-16T12:57:03Z</time>
      </trkpt>
      <trkpt lat="59.7574516587" lon="18.396170415">
        <ele>59.8</ele>
        <time>2012-09-16T12:57:05Z</time>
      </trkpt>
      <trkpt lat="59.7574036304" lon="18.3960561697">
        <ele>58.8</ele>
        <time>2012-09-16T12:57:06Z</time>
      </trkpt>
      <trkpt lat="59.7573565242" lon="18.3959390745">
        <ele>58.4</ele>
        <time>2012-09-16T12:57:07Z</time>
      </trkpt>
      <trkpt lat="59.7573086635" lon="18.3958233205">
        <ele>58</ele>
        <time>2012-09-16T12:57:08Z</time>
      </trkpt>
      <trkpt lat="59.7572600485" lon="18.395709159">
        <ele>58</ele>
        <time>2012-09-16T12:57:09Z</time>
      </trkpt>
      <trkpt lat="59.7572088351" lon="18.3955849392">
        <ele>57.4</ele>
        <time>2012-09-16T12:57:10Z</time>
      </trkpt>
      <trkpt lat="59.7571614773" lon="18.3954644913">
        <ele>57</ele>
        <time>2012-09-16T12:57:11Z</time>
      </trkpt>
      <trkpt lat="59.7571140358" lon="18.395344714">
        <ele>56.6</ele>
        <time>2012-09-16T12:57:12Z</time>
      </trkpt>
      <trkpt lat="59.7570644149" lon="18.3952232603">
        <ele>56.2</ele>
        <time>2012-09-16T12:57:13Z</time>
      </trkpt>
      <trkpt lat="59.7570139559" lon="18.3951034829">
        <ele>55.8</ele>
        <time>2012-09-16T12:57:14Z</time>
      </trkpt>
      <trkpt lat="59.7569142113" lon="18.3948552948">
        <ele>55.8</ele>
        <time>2012-09-16T12:57:16Z</time>
      </trkpt>
      <trkpt lat="59.7566514387" lon="18.3942211203">
        <ele>55.4</ele>
        <time>2012-09-16T12:57:21Z</time>
      </trkpt>
      <trkpt lat="59.7565972917" lon="18.3940940507">
        <ele>55</ele>
        <time>2012-09-16T12:57:22Z</time>
      </trkpt>
      <trkpt lat="59.7565412167" lon="18.3939648856">
        <ele>54.6</ele>
        <time>2012-09-16T12:57:23Z</time>
      </trkpt>
      <trkpt lat="59.7564858124" lon="18.393833206">
        <ele>54</ele>
        <time>2012-09-16T12:57:24Z</time>
      </trkpt>
      <trkpt lat="59.7564255465" lon="18.3936978383">
        <ele>53.6</ele>
        <time>2012-09-16T12:57:25Z</time>
      </trkpt>
      <trkpt lat="59.7561393885" lon="18.3930770748">
        <ele>53.2</ele>
        <time>2012-09-16T12:57:30Z</time>
      </trkpt>
      <trkpt lat="59.7560851576" lon="18.3929557887">
        <ele>52.2</ele>
        <time>2012-09-16T12:57:31Z</time>
      </trkpt>
      <trkpt lat="59.7560284121" lon="18.3928291382">
        <ele>51.6</ele>
        <time>2012-09-16T12:57:32Z</time>
      </trkpt>
      <trkpt lat="59.7559755223" lon="18.392712043">
        <ele>51</ele>
        <time>2012-09-16T12:57:33Z</time>
      </trkpt>
      <trkpt lat="59.7556922979" lon="18.3920393955">
        <ele>51</ele>
        <time>2012-09-16T12:57:39Z</time>
      </trkpt>
      <trkpt lat="59.7555974986" lon="18.3918176105">
        <ele>50.6</ele>
        <time>2012-09-16T12:57:41Z</time>
      </trkpt>
      <trkpt lat="59.7555497218" lon="18.3917030299">
        <ele>50.2</ele>
        <time>2012-09-16T12:57:42Z</time>
      </trkpt>
      <trkpt lat="59.7555021964" lon="18.3915855995">
        <ele>49.8</ele>
        <time>2012-09-16T12:57:43Z</time>
      </trkpt>
      <trkpt lat="59.7554529947" lon="18.3914655707">
        <ele>49.2</ele>
        <time>2012-09-16T12:57:44Z</time>
      </trkpt>
      <trkpt lat="59.7554038767" lon="18.3913457095">
        <ele>48.8</ele>
        <time>2012-09-16T12:57:45Z</time>
      </trkpt>
      <trkpt lat="59.7553532501" lon="18.3912271894">
        <ele>48.8</ele>
        <time>2012-09-16T12:57:46Z</time>
      </trkpt>
      <trkpt lat="59.7550047307" lon="18.3904085293">
        <ele>48.8</ele>
        <time>2012-09-16T12:57:53Z</time>
      </trkpt>
      <trkpt lat="59.7546852126" lon="18.389636221">
        <ele>48.8</ele>
        <time>2012-09-16T12:58:00Z</time>
      </trkpt>
      <trkpt lat="59.7543575642" lon="18.3889528447">
        <ele>48.8</ele>
        <time>2012-09-16T12:58:07Z</time>
      </trkpt>
      <trkpt lat="59.7540660417" lon="18.3884506851">
        <ele>49.2</ele>
        <time>2012-09-16T12:58:13Z</time>
      </trkpt>
      <trkpt lat="59.7540155826" lon="18.3883775111">
        <ele>49.6</ele>
        <time>2012-09-16T12:58:14Z</time>
      </trkpt>
      <trkpt lat="59.7539651236" lon="18.3883045885">
        <ele>50</ele>
        <time>2012-09-16T12:58:15Z</time>
      </trkpt>
      <trkpt lat="59.7539184364" lon="18.3882312469">
        <ele>50.4</ele>
        <time>2012-09-16T12:58:16Z</time>
      </trkpt>
      <trkpt lat="59.7538692347" lon="18.3881558936">
        <ele>50.8</ele>
        <time>2012-09-16T12:58:17Z</time>
      </trkpt>
      <trkpt lat="59.7537248145" lon="18.3879612659">
        <ele>50.8</ele>
        <time>2012-09-16T12:58:20Z</time>
      </trkpt>
      <trkpt lat="59.7533991777" lon="18.3875897801">
        <ele>50.8</ele>
        <time>2012-09-16T12:58:27Z</time>
      </trkpt>
      <trkpt lat="59.7533543345" lon="18.3875457751">
        <ele>51.4</ele>
        <time>2012-09-16T12:58:28Z</time>
      </trkpt>
      <trkpt lat="59.7533097428" lon="18.3875019378">
        <ele>51.8</ele>
        <time>2012-09-16T12:58:29Z</time>
      </trkpt>
      <trkpt lat="59.7532658217" lon="18.3874546639">
        <ele>52.4</ele>
        <time>2012-09-16T12:58:30Z</time>
      </trkpt>
      <trkpt lat="59.7532224873" lon="18.387404121">
        <ele>53</ele>
        <time>2012-09-16T12:58:31Z</time>
      </trkpt>
      <trkpt lat="59.7531777279" lon="18.3873586073">
        <ele>53.6</ele>
        <time>2012-09-16T12:58:32Z</time>
      </trkpt>
      <trkpt lat="59.7530800788" lon="18.387276297">
        <ele>53.6</ele>
        <time>2012-09-16T12:58:34Z</time>
      </trkpt>
      <trkpt lat="59.7527533523" lon="18.3870152009">
        <ele>53.6</ele>
        <time>2012-09-16T12:58:41Z</time>
      </trkpt>
      <trkpt lat="59.7523895779" lon="18.3867907336">
        <ele>53.6</ele>
        <time>2012-09-16T12:58:48Z</time>
      </trkpt>
      <trkpt lat="59.7521307448" lon="18.3866367581">
        <ele>53.6</ele>
        <time>2012-09-16T12:58:53Z</time>
      </trkpt>
      <trkpt lat="59.7520830518" lon="18.3866067509">
        <ele>54</ele>
        <time>2012-09-16T12:58:54Z</time>
      </trkpt>
      <trkpt lat="59.7520382924" lon="18.3865787553">
        <ele>54.4</ele>
        <time>2012-09-16T12:58:55Z</time>
      </trkpt>
      <trkpt lat="59.7519921082" lon="18.386546485">
        <ele>55</ele>
        <time>2012-09-16T12:58:56Z</time>
      </trkpt>
      <trkpt lat="59.7519460077" lon="18.3865169807">
        <ele>55.4</ele>
        <time>2012-09-16T12:58:57Z</time>
      </trkpt>
      <trkpt lat="59.75189865" lon="18.3864965289">
        <ele>55.8</ele>
        <time>2012-09-16T12:58:58Z</time>
      </trkpt>
      <trkpt lat="59.7517718318" lon="18.3864222653">
        <ele>56.4</ele>
        <time>2012-09-16T12:59:01Z</time>
      </trkpt>
      <trkpt lat="59.7517288327" lon="18.3863949403">
        <ele>56.8</ele>
        <time>2012-09-16T12:59:02Z</time>
      </trkpt>
      <trkpt lat="59.7516813911" lon="18.3863676153">
        <ele>57.2</ele>
        <time>2012-09-16T12:59:03Z</time>
      </trkpt>
      <trkpt lat="59.7516359612" lon="18.3863423019">
        <ele>57.6</ele>
        <time>2012-09-16T12:59:04Z</time>
      </trkpt>
      <trkpt lat="59.7515878491" lon="18.3863133844">
        <ele>58</ele>
        <time>2012-09-16T12:59:05Z</time>
      </trkpt>
      <trkpt lat="59.7513883599" lon="18.3862050064">
        <ele>58</ele>
        <time>2012-09-16T12:59:09Z</time>
      </trkpt>
      <trkpt lat="59.7510509046" lon="18.3859955427">
        <ele>58</ele>
        <time>2012-09-16T12:59:16Z</time>
      </trkpt>
      <trkpt lat="59.7507672611" lon="18.3858275695">
        <ele>58</ele>
        <time>2012-09-16T12:59:21Z</time>
      </trkpt>
      <trkpt lat="59.7503277981" lon="18.3855706642">
        <ele>58</ele>
        <time>2012-09-16T12:59:27Z</time>
      </trkpt>
      <trkpt lat="59.7498364511" lon="18.3852875236">
        <ele>57.4</ele>
        <time>2012-09-16T12:59:33Z</time>
      </trkpt>
      <trkpt lat="59.7497460942" lon="18.3852322869">
        <ele>56.4</ele>
        <time>2012-09-16T12:59:34Z</time>
      </trkpt>
      <trkpt lat="59.7496597607" lon="18.3851773855">
        <ele>55.8</ele>
        <time>2012-09-16T12:59:35Z</time>
      </trkpt>
      <trkpt lat="59.7495732595" lon="18.3851231546">
        <ele>55.2</ele>
        <time>2012-09-16T12:59:36Z</time>
      </trkpt>
      <trkpt lat="59.7494870935" lon="18.3850660738">
        <ele>54.6</ele>
        <time>2012-09-16T12:59:37Z</time>
      </trkpt>
      <trkpt lat="59.7494030231" lon="18.385004886">
        <ele>54</ele>
        <time>2012-09-16T12:59:38Z</time>
      </trkpt>
      <trkpt lat="59.7493208804" lon="18.3849450392">
        <ele>53.4</ele>
        <time>2012-09-16T12:59:39Z</time>
      </trkpt>
      <trkpt lat="59.7492390731" lon="18.3848810015">
        <ele>52.8</ele>
        <time>2012-09-16T12:59:40Z</time>
      </trkpt>
      <trkpt lat="59.7490767995" lon="18.3847290376">
        <ele>52.8</ele>
        <time>2012-09-16T12:59:42Z</time>
      </trkpt>
      <trkpt lat="59.7489260091" lon="18.3845748945">
        <ele>52.4</ele>
        <time>2012-09-16T12:59:44Z</time>
      </trkpt>
      <trkpt lat="59.7488528352" lon="18.3845025587">
        <ele>52</ele>
        <time>2012-09-16T12:59:45Z</time>
      </trkpt>
      <trkpt lat="59.7487810023" lon="18.3844329051">
        <ele>51.4</ele>
        <time>2012-09-16T12:59:46Z</time>
      </trkpt>
      <trkpt lat="59.7487101752" lon="18.3843670234">
        <ele>51</ele>
        <time>2012-09-16T12:59:47Z</time>
      </trkpt>
      <trkpt lat="59.7486416951" lon="18.3842992976">
        <ele>50.6</ele>
        <time>2012-09-16T12:59:48Z</time>
      </trkpt>
      <trkpt lat="59.7482579717" lon="18.3838556437">
        <ele>50.6</ele>
        <time>2012-09-16T12:59:54Z</time>
      </trkpt>
      <trkpt lat="59.7478681295" lon="18.383327081">
        <ele>50.6</ele>
        <time>2012-09-16T13:00:01Z</time>
      </trkpt>
      <trkpt lat="59.7477171715" lon="18.3830771328">
        <ele>50.6</ele>
        <time>2012-09-16T13:00:04Z</time>
      </trkpt>
      <trkpt lat="59.7476139903" lon="18.382906142">
        <ele>50.6</ele>
        <time>2012-09-16T13:00:06Z</time>
      </trkpt>
      <trkpt lat="59.7473217135" lon="18.3823862966">
        <ele>50.6</ele>
        <time>2012-09-16T13:00:12Z</time>
      </trkpt>
      <trkpt lat="59.7470867688" lon="18.3819229452">
        <ele>50.6</ele>
        <time>2012-09-16T13:00:17Z</time>
      </trkpt>
      <trkpt lat="59.7467808295" lon="18.3812096455">
        <ele>50.6</ele>
        <time>2012-09-16T13:00:24Z</time>
      </trkpt>
      <trkpt lat="59.746502718" lon="18.3804600521">
        <ele>50.6</ele>
        <time>2012-09-16T13:00:31Z</time>
      </trkpt>
      <trkpt lat="59.7462870517" lon="18.3797674558">
        <ele>50.6</ele>
        <time>2012-09-16T13:00:37Z</time>
      </trkpt>
      <trkpt lat="59.7460714693" lon="18.3789373124">
        <ele>50.6</ele>
        <time>2012-09-16T13:00:44Z</time>
      </trkpt>
      <trkpt lat="59.7459107044" lon="18.3781870485">
        <ele>50.6</ele>
        <time>2012-09-16T13:00:50Z</time>
      </trkpt>
      <trkpt lat="59.7457416415" lon="18.3771608525">
        <ele>50.6</ele>
        <time>2012-09-16T13:00:58Z</time>
      </trkpt>
      <trkpt lat="59.745661762" lon="18.3762768973">
        <ele>50.6</ele>
        <time>2012-09-16T13:01:05Z</time>
      </trkpt>
      <trkpt lat="59.7456462555" lon="18.3761430384">
        <ele>50.6</ele>
        <time>2012-09-16T13:01:06Z</time>
      </trkpt>
      <trkpt lat="59.7455756799" lon="18.3756775076">
        <ele>50.6</ele>
        <time>2012-09-16T13:01:10Z</time>
      </trkpt>
      <trkpt lat="59.7455456727" lon="18.3754474245">
        <ele>50.2</ele>
        <time>2012-09-16T13:01:12Z</time>
      </trkpt>
      <trkpt lat="59.7455243827" lon="18.375342064">
        <ele>49.8</ele>
        <time>2012-09-16T13:01:13Z</time>
      </trkpt>
      <trkpt lat="59.7454981473" lon="18.3752475162">
        <ele>49.4</ele>
        <time>2012-09-16T13:01:14Z</time>
      </trkpt>
      <trkpt lat="59.7454731693" lon="18.3751667147">
        <ele>49</ele>
        <time>2012-09-16T13:01:15Z</time>
      </trkpt>
      <trkpt lat="59.7454516278" lon="18.3750974802">
        <ele>48.6</ele>
        <time>2012-09-16T13:01:16Z</time>
      </trkpt>
    </trkseg>
  </trk>
</gpx>